<?xml version="1.0" encoding="UTF-8" standalone="no" ?>
<gpx xmlns="http://www.topografix.com/GPX/1/1" xmlns:xsi="http://www.w3.org/2001/XMLSchema-instance" xsi:schemaLocation="http://www.topografix.com/GPX/1/1 http://www.topografix.com/GPX/1/1/gpx.xsd" version="1.1" creator="VisuGPX - https://www.visugpx.com">
  <metadata>
    <name>Gina Ouest-30km</name>
    <desc><![CDATA[Ballade au alentour du village de Ginasservis]]></desc>
  </metadata>
  <trk>
    <name><![CDATA[13 D554]]></name>
    <desc><![CDATA[]]></desc>
    <trkseg>
      <trkpt lat="43.67448" lon="5.84757">
        <ele>472</ele>
        <time>2016-01-03T09:21:22.547Z</time>
      </trkpt>
      <trkpt lat="43.67448" lon="5.84757">
        <ele>472</ele>
        <time>2016-01-03T09:21:33.299Z</time>
      </trkpt>
      <trkpt lat="43.67451" lon="5.8477">
        <ele>463</ele>
        <time>2016-01-03T09:21:34.305Z</time>
      </trkpt>
      <trkpt lat="43.67457" lon="5.84779">
        <ele>455</ele>
        <time>2016-01-03T09:21:45.635Z</time>
      </trkpt>
      <trkpt lat="43.67457" lon="5.84779">
        <ele>454</ele>
        <time>2016-01-03T09:21:46.613Z</time>
      </trkpt>
      <trkpt lat="43.6746" lon="5.84769">
        <ele>455</ele>
        <time>2016-01-03T09:22:21.673Z</time>
      </trkpt>
      <trkpt lat="43.67462" lon="5.84766">
        <ele>455</ele>
        <time>2016-01-03T09:22:22.606Z</time>
      </trkpt>
      <trkpt lat="43.67466" lon="5.84758">
        <ele>455</ele>
        <time>2016-01-03T09:22:24.851Z</time>
      </trkpt>
      <trkpt lat="43.67468" lon="5.84753">
        <ele>455</ele>
        <time>2016-01-03T09:22:25.611Z</time>
      </trkpt>
      <trkpt lat="43.67468" lon="5.8474">
        <ele>455</ele>
        <time>2016-01-03T09:22:27.632Z</time>
      </trkpt>
      <trkpt lat="43.67465" lon="5.84732">
        <ele>455</ele>
        <time>2016-01-03T09:22:28.615Z</time>
      </trkpt>
      <trkpt lat="43.67465" lon="5.84724">
        <ele>455</ele>
        <time>2016-01-03T09:22:29.631Z</time>
      </trkpt>
      <trkpt lat="43.67466" lon="5.84717">
        <ele>455</ele>
        <time>2016-01-03T09:22:30.610Z</time>
      </trkpt>
      <trkpt lat="43.67468" lon="5.8471">
        <ele>455</ele>
        <time>2016-01-03T09:22:31.634Z</time>
      </trkpt>
      <trkpt lat="43.67471" lon="5.84703">
        <ele>455</ele>
        <time>2016-01-03T09:22:32.609Z</time>
      </trkpt>
      <trkpt lat="43.67475" lon="5.84696">
        <ele>455</ele>
        <time>2016-01-03T09:22:33.632Z</time>
      </trkpt>
      <trkpt lat="43.67479" lon="5.8469">
        <ele>455</ele>
        <time>2016-01-03T09:22:34.611Z</time>
      </trkpt>
      <trkpt lat="43.67484" lon="5.84684">
        <ele>455</ele>
        <time>2016-01-03T09:22:35.845Z</time>
      </trkpt>
      <trkpt lat="43.67489" lon="5.84678">
        <ele>455</ele>
        <time>2016-01-03T09:22:36.625Z</time>
      </trkpt>
      <trkpt lat="43.67493" lon="5.84673">
        <ele>455</ele>
        <time>2016-01-03T09:22:37.670Z</time>
      </trkpt>
      <trkpt lat="43.67499" lon="5.84667">
        <ele>455</ele>
        <time>2016-01-03T09:22:38.610Z</time>
      </trkpt>
      <trkpt lat="43.67504" lon="5.8466">
        <ele>455</ele>
        <time>2016-01-03T09:22:39.632Z</time>
      </trkpt>
      <trkpt lat="43.67509" lon="5.84655">
        <ele>455</ele>
        <time>2016-01-03T09:22:40.609Z</time>
      </trkpt>
      <trkpt lat="43.67513" lon="5.84649">
        <ele>456</ele>
        <time>2016-01-03T09:22:41.637Z</time>
      </trkpt>
      <trkpt lat="43.67518" lon="5.84642">
        <ele>455</ele>
        <time>2016-01-03T09:22:42.606Z</time>
      </trkpt>
      <trkpt lat="43.67523" lon="5.84635">
        <ele>455</ele>
        <time>2016-01-03T09:22:43.633Z</time>
      </trkpt>
      <trkpt lat="43.67527" lon="5.84628">
        <ele>455</ele>
        <time>2016-01-03T09:22:44.604Z</time>
      </trkpt>
      <trkpt lat="43.67532" lon="5.84621">
        <ele>455</ele>
        <time>2016-01-03T09:22:45.850Z</time>
      </trkpt>
      <trkpt lat="43.67537" lon="5.84614">
        <ele>455</ele>
        <time>2016-01-03T09:22:46.611Z</time>
      </trkpt>
      <trkpt lat="43.67542" lon="5.84606">
        <ele>455</ele>
        <time>2016-01-03T09:22:47.633Z</time>
      </trkpt>
      <trkpt lat="43.67547" lon="5.84598">
        <ele>454</ele>
        <time>2016-01-03T09:22:48.640Z</time>
      </trkpt>
      <trkpt lat="43.67552" lon="5.84591">
        <ele>455</ele>
        <time>2016-01-03T09:22:49.634Z</time>
      </trkpt>
      <trkpt lat="43.67557" lon="5.84583">
        <ele>454</ele>
        <time>2016-01-03T09:22:50.608Z</time>
      </trkpt>
      <trkpt lat="43.67562" lon="5.84576">
        <ele>454</ele>
        <time>2016-01-03T09:22:51.636Z</time>
      </trkpt>
      <trkpt lat="43.67568" lon="5.84569">
        <ele>454</ele>
        <time>2016-01-03T09:22:52.610Z</time>
      </trkpt>
      <trkpt lat="43.67574" lon="5.84564">
        <ele>453</ele>
        <time>2016-01-03T09:22:53.642Z</time>
      </trkpt>
      <trkpt lat="43.67581" lon="5.84557">
        <ele>453</ele>
        <time>2016-01-03T09:22:54.610Z</time>
      </trkpt>
      <trkpt lat="43.67587" lon="5.84551">
        <ele>452</ele>
        <time>2016-01-03T09:22:55.631Z</time>
      </trkpt>
      <trkpt lat="43.67594" lon="5.84545">
        <ele>452</ele>
        <time>2016-01-03T09:22:56.610Z</time>
      </trkpt>
      <trkpt lat="43.67601" lon="5.84539">
        <ele>452</ele>
        <time>2016-01-03T09:22:57.631Z</time>
      </trkpt>
      <trkpt lat="43.67607" lon="5.84532">
        <ele>452</ele>
        <time>2016-01-03T09:22:58.617Z</time>
      </trkpt>
      <trkpt lat="43.67613" lon="5.84527">
        <ele>452</ele>
        <time>2016-01-03T09:22:59.673Z</time>
      </trkpt>
      <trkpt lat="43.6762" lon="5.84522">
        <ele>452</ele>
        <time>2016-01-03T09:23:00.610Z</time>
      </trkpt>
      <trkpt lat="43.67627" lon="5.84518">
        <ele>451</ele>
        <time>2016-01-03T09:23:01.701Z</time>
      </trkpt>
      <trkpt lat="43.67633" lon="5.84513">
        <ele>452</ele>
        <time>2016-01-03T09:23:02.609Z</time>
      </trkpt>
      <trkpt lat="43.67639" lon="5.84508">
        <ele>451</ele>
        <time>2016-01-03T09:23:03.641Z</time>
      </trkpt>
      <trkpt lat="43.67646" lon="5.84504">
        <ele>451</ele>
        <time>2016-01-03T09:23:04.613Z</time>
      </trkpt>
      <trkpt lat="43.67653" lon="5.84499">
        <ele>451</ele>
        <time>2016-01-03T09:23:05.632Z</time>
      </trkpt>
      <trkpt lat="43.6766" lon="5.84495">
        <ele>451</ele>
        <time>2016-01-03T09:23:06.609Z</time>
      </trkpt>
      <trkpt lat="43.67666" lon="5.8449">
        <ele>451</ele>
        <time>2016-01-03T09:23:07.634Z</time>
      </trkpt>
      <trkpt lat="43.67673" lon="5.84485">
        <ele>451</ele>
        <time>2016-01-03T09:23:08.611Z</time>
      </trkpt>
      <trkpt lat="43.6768" lon="5.8448">
        <ele>451</ele>
        <time>2016-01-03T09:23:09.632Z</time>
      </trkpt>
      <trkpt lat="43.67686" lon="5.84475">
        <ele>451</ele>
        <time>2016-01-03T09:23:10.638Z</time>
      </trkpt>
      <trkpt lat="43.67693" lon="5.84471">
        <ele>451</ele>
        <time>2016-01-03T09:23:11.633Z</time>
      </trkpt>
      <trkpt lat="43.677" lon="5.84466">
        <ele>450</ele>
        <time>2016-01-03T09:23:12.610Z</time>
      </trkpt>
      <trkpt lat="43.67708" lon="5.84462">
        <ele>450</ele>
        <time>2016-01-03T09:23:13.633Z</time>
      </trkpt>
      <trkpt lat="43.67715" lon="5.84458">
        <ele>450</ele>
        <time>2016-01-03T09:23:14.611Z</time>
      </trkpt>
      <trkpt lat="43.67722" lon="5.84455">
        <ele>450</ele>
        <time>2016-01-03T09:23:15.668Z</time>
      </trkpt>
      <trkpt lat="43.6773" lon="5.84452">
        <ele>449</ele>
        <time>2016-01-03T09:23:16.610Z</time>
      </trkpt>
      <trkpt lat="43.67738" lon="5.84451">
        <ele>449</ele>
        <time>2016-01-03T09:23:17.634Z</time>
      </trkpt>
      <trkpt lat="43.67745" lon="5.84449">
        <ele>449</ele>
        <time>2016-01-03T09:23:18.611Z</time>
      </trkpt>
      <trkpt lat="43.67753" lon="5.84448">
        <ele>449</ele>
        <time>2016-01-03T09:23:19.631Z</time>
      </trkpt>
      <trkpt lat="43.6776" lon="5.84447">
        <ele>449</ele>
        <time>2016-01-03T09:23:20.605Z</time>
      </trkpt>
      <trkpt lat="43.67768" lon="5.84445">
        <ele>449</ele>
        <time>2016-01-03T09:23:21.633Z</time>
      </trkpt>
      <trkpt lat="43.67775" lon="5.84444">
        <ele>449</ele>
        <time>2016-01-03T09:23:22.608Z</time>
      </trkpt>
      <trkpt lat="43.67783" lon="5.84443">
        <ele>449</ele>
        <time>2016-01-03T09:23:23.634Z</time>
      </trkpt>
      <trkpt lat="43.6779" lon="5.84441">
        <ele>449</ele>
        <time>2016-01-03T09:23:24.611Z</time>
      </trkpt>
      <trkpt lat="43.67797" lon="5.8444">
        <ele>448</ele>
        <time>2016-01-03T09:23:25.631Z</time>
      </trkpt>
      <trkpt lat="43.67805" lon="5.84438">
        <ele>448</ele>
        <time>2016-01-03T09:23:26.639Z</time>
      </trkpt>
      <trkpt lat="43.67813" lon="5.84436">
        <ele>448</ele>
        <time>2016-01-03T09:23:27.633Z</time>
      </trkpt>
      <trkpt lat="43.6782" lon="5.84435">
        <ele>447</ele>
        <time>2016-01-03T09:23:28.612Z</time>
      </trkpt>
      <trkpt lat="43.67828" lon="5.84434">
        <ele>447</ele>
        <time>2016-01-03T09:23:29.631Z</time>
      </trkpt>
      <trkpt lat="43.67836" lon="5.84434">
        <ele>447</ele>
        <time>2016-01-03T09:23:30.610Z</time>
      </trkpt>
      <trkpt lat="43.67844" lon="5.84434">
        <ele>446</ele>
        <time>2016-01-03T09:23:31.634Z</time>
      </trkpt>
      <trkpt lat="43.67852" lon="5.84434">
        <ele>446</ele>
        <time>2016-01-03T09:23:32.610Z</time>
      </trkpt>
      <trkpt lat="43.67859" lon="5.84435">
        <ele>446</ele>
        <time>2016-01-03T09:23:33.634Z</time>
      </trkpt>
      <trkpt lat="43.67867" lon="5.84436">
        <ele>445</ele>
        <time>2016-01-03T09:23:34.608Z</time>
      </trkpt>
      <trkpt lat="43.67875" lon="5.84436">
        <ele>444</ele>
        <time>2016-01-03T09:23:35.632Z</time>
      </trkpt>
      <trkpt lat="43.67883" lon="5.84436">
        <ele>444</ele>
        <time>2016-01-03T09:23:36.610Z</time>
      </trkpt>
      <trkpt lat="43.67891" lon="5.84434">
        <ele>444</ele>
        <time>2016-01-03T09:23:37.668Z</time>
      </trkpt>
      <trkpt lat="43.67899" lon="5.84432">
        <ele>443</ele>
        <time>2016-01-03T09:23:38.609Z</time>
      </trkpt>
      <trkpt lat="43.67907" lon="5.84429">
        <ele>443</ele>
        <time>2016-01-03T09:23:39.633Z</time>
      </trkpt>
      <trkpt lat="43.67915" lon="5.84426">
        <ele>443</ele>
        <time>2016-01-03T09:23:40.609Z</time>
      </trkpt>
      <trkpt lat="43.67922" lon="5.84421">
        <ele>443</ele>
        <time>2016-01-03T09:23:41.633Z</time>
      </trkpt>
      <trkpt lat="43.67929" lon="5.84416">
        <ele>442</ele>
        <time>2016-01-03T09:23:42.610Z</time>
      </trkpt>
      <trkpt lat="43.67936" lon="5.84411">
        <ele>443</ele>
        <time>2016-01-03T09:23:43.634Z</time>
      </trkpt>
      <trkpt lat="43.67942" lon="5.84405">
        <ele>442</ele>
        <time>2016-01-03T09:23:44.605Z</time>
      </trkpt>
      <trkpt lat="43.67949" lon="5.84398">
        <ele>442</ele>
        <time>2016-01-03T09:23:45.632Z</time>
      </trkpt>
      <trkpt lat="43.67956" lon="5.84392">
        <ele>441</ele>
        <time>2016-01-03T09:23:46.608Z</time>
      </trkpt>
      <trkpt lat="43.67963" lon="5.84386">
        <ele>441</ele>
        <time>2016-01-03T09:23:47.633Z</time>
      </trkpt>
      <trkpt lat="43.67969" lon="5.84379">
        <ele>441</ele>
        <time>2016-01-03T09:23:48.636Z</time>
      </trkpt>
      <trkpt lat="43.67975" lon="5.84373">
        <ele>441</ele>
        <time>2016-01-03T09:23:49.633Z</time>
      </trkpt>
      <trkpt lat="43.67982" lon="5.84366">
        <ele>441</ele>
        <time>2016-01-03T09:23:50.853Z</time>
      </trkpt>
      <trkpt lat="43.67988" lon="5.8436">
        <ele>441</ele>
        <time>2016-01-03T09:23:51.634Z</time>
      </trkpt>
      <trkpt lat="43.67995" lon="5.84354">
        <ele>441</ele>
        <time>2016-01-03T09:23:52.610Z</time>
      </trkpt>
      <trkpt lat="43.68001" lon="5.84348">
        <ele>440</ele>
        <time>2016-01-03T09:23:53.633Z</time>
      </trkpt>
      <trkpt lat="43.68008" lon="5.84342">
        <ele>440</ele>
        <time>2016-01-03T09:23:54.610Z</time>
      </trkpt>
      <trkpt lat="43.68014" lon="5.84336">
        <ele>439</ele>
        <time>2016-01-03T09:23:55.637Z</time>
      </trkpt>
      <trkpt lat="43.68021" lon="5.84331">
        <ele>439</ele>
        <time>2016-01-03T09:23:56.610Z</time>
      </trkpt>
      <trkpt lat="43.68027" lon="5.84326">
        <ele>439</ele>
        <time>2016-01-03T09:23:57.633Z</time>
      </trkpt>
      <trkpt lat="43.68034" lon="5.84322">
        <ele>439</ele>
        <time>2016-01-03T09:23:58.610Z</time>
      </trkpt>
      <trkpt lat="43.6804" lon="5.84317">
        <ele>439</ele>
        <time>2016-01-03T09:23:59.666Z</time>
      </trkpt>
      <trkpt lat="43.68048" lon="5.84313">
        <ele>438</ele>
        <time>2016-01-03T09:24:00.610Z</time>
      </trkpt>
      <trkpt lat="43.68055" lon="5.8431">
        <ele>437</ele>
        <time>2016-01-03T09:24:01.633Z</time>
      </trkpt>
      <trkpt lat="43.68062" lon="5.84306">
        <ele>437</ele>
        <time>2016-01-03T09:24:02.608Z</time>
      </trkpt>
      <trkpt lat="43.6807" lon="5.84302">
        <ele>437</ele>
        <time>2016-01-03T09:24:03.631Z</time>
      </trkpt>
      <trkpt lat="43.68078" lon="5.84298">
        <ele>437</ele>
        <time>2016-01-03T09:24:04.611Z</time>
      </trkpt>
      <trkpt lat="43.68086" lon="5.84294">
        <ele>437</ele>
        <time>2016-01-03T09:24:05.631Z</time>
      </trkpt>
      <trkpt lat="43.68094" lon="5.8429">
        <ele>437</ele>
        <time>2016-01-03T09:24:06.610Z</time>
      </trkpt>
      <trkpt lat="43.68101" lon="5.84287">
        <ele>437</ele>
        <time>2016-01-03T09:24:07.631Z</time>
      </trkpt>
      <trkpt lat="43.68109" lon="5.84283">
        <ele>437</ele>
        <time>2016-01-03T09:24:08.608Z</time>
      </trkpt>
      <trkpt lat="43.68117" lon="5.8428">
        <ele>436</ele>
        <time>2016-01-03T09:24:09.634Z</time>
      </trkpt>
      <trkpt lat="43.68125" lon="5.84277">
        <ele>437</ele>
        <time>2016-01-03T09:24:10.636Z</time>
      </trkpt>
      <trkpt lat="43.68133" lon="5.84274">
        <ele>436</ele>
        <time>2016-01-03T09:24:11.633Z</time>
      </trkpt>
      <trkpt lat="43.6814" lon="5.84271">
        <ele>436</ele>
        <time>2016-01-03T09:24:12.603Z</time>
      </trkpt>
      <trkpt lat="43.68148" lon="5.84267">
        <ele>436</ele>
        <time>2016-01-03T09:24:13.633Z</time>
      </trkpt>
      <trkpt lat="43.68155" lon="5.84264">
        <ele>436</ele>
        <time>2016-01-03T09:24:14.609Z</time>
      </trkpt>
      <trkpt lat="43.68163" lon="5.84261">
        <ele>436</ele>
        <time>2016-01-03T09:24:15.633Z</time>
      </trkpt>
      <trkpt lat="43.68171" lon="5.84258">
        <ele>435</ele>
        <time>2016-01-03T09:24:16.610Z</time>
      </trkpt>
      <trkpt lat="43.68177" lon="5.84255">
        <ele>436</ele>
        <time>2016-01-03T09:24:17.633Z</time>
      </trkpt>
      <trkpt lat="43.68185" lon="5.84252">
        <ele>436</ele>
        <time>2016-01-03T09:24:18.610Z</time>
      </trkpt>
      <trkpt lat="43.68192" lon="5.84248">
        <ele>436</ele>
        <time>2016-01-03T09:24:19.632Z</time>
      </trkpt>
      <trkpt lat="43.68199" lon="5.84244">
        <ele>436</ele>
        <time>2016-01-03T09:24:20.610Z</time>
      </trkpt>
      <trkpt lat="43.68206" lon="5.8424">
        <ele>436</ele>
        <time>2016-01-03T09:24:21.668Z</time>
      </trkpt>
      <trkpt lat="43.68213" lon="5.84235">
        <ele>435</ele>
        <time>2016-01-03T09:24:22.819Z</time>
      </trkpt>
      <trkpt lat="43.6822" lon="5.84231">
        <ele>435</ele>
        <time>2016-01-03T09:24:23.630Z</time>
      </trkpt>
      <trkpt lat="43.68226" lon="5.84226">
        <ele>435</ele>
        <time>2016-01-03T09:24:24.610Z</time>
      </trkpt>
      <trkpt lat="43.68233" lon="5.84221">
        <ele>435</ele>
        <time>2016-01-03T09:24:25.633Z</time>
      </trkpt>
      <trkpt lat="43.6824" lon="5.84216">
        <ele>435</ele>
        <time>2016-01-03T09:24:26.649Z</time>
      </trkpt>
      <trkpt lat="43.68246" lon="5.84211">
        <ele>435</ele>
        <time>2016-01-03T09:24:27.633Z</time>
      </trkpt>
      <trkpt lat="43.68253" lon="5.84206">
        <ele>435</ele>
        <time>2016-01-03T09:24:28.610Z</time>
      </trkpt>
      <trkpt lat="43.68259" lon="5.84201">
        <ele>435</ele>
        <time>2016-01-03T09:24:29.633Z</time>
      </trkpt>
      <trkpt lat="43.68265" lon="5.84196">
        <ele>435</ele>
        <time>2016-01-03T09:24:30.610Z</time>
      </trkpt>
      <trkpt lat="43.68272" lon="5.8419">
        <ele>435</ele>
        <time>2016-01-03T09:24:31.633Z</time>
      </trkpt>
      <trkpt lat="43.68278" lon="5.84184">
        <ele>435</ele>
        <time>2016-01-03T09:24:32.610Z</time>
      </trkpt>
      <trkpt lat="43.68284" lon="5.84179">
        <ele>435</ele>
        <time>2016-01-03T09:24:33.842Z</time>
      </trkpt>
      <trkpt lat="43.6829" lon="5.84173">
        <ele>435</ele>
        <time>2016-01-03T09:24:34.610Z</time>
      </trkpt>
      <trkpt lat="43.68296" lon="5.84167">
        <ele>435</ele>
        <time>2016-01-03T09:24:35.632Z</time>
      </trkpt>
      <trkpt lat="43.68302" lon="5.8416">
        <ele>435</ele>
        <time>2016-01-03T09:24:36.610Z</time>
      </trkpt>
      <trkpt lat="43.68308" lon="5.84154">
        <ele>435</ele>
        <time>2016-01-03T09:24:37.659Z</time>
      </trkpt>
      <trkpt lat="43.68314" lon="5.84148">
        <ele>434</ele>
        <time>2016-01-03T09:24:38.610Z</time>
      </trkpt>
      <trkpt lat="43.6832" lon="5.84142">
        <ele>434</ele>
        <time>2016-01-03T09:24:39.633Z</time>
      </trkpt>
      <trkpt lat="43.68326" lon="5.84137">
        <ele>434</ele>
        <time>2016-01-03T09:24:40.611Z</time>
      </trkpt>
      <trkpt lat="43.68333" lon="5.84131">
        <ele>433</ele>
        <time>2016-01-03T09:24:41.635Z</time>
      </trkpt>
      <trkpt lat="43.68339" lon="5.84124">
        <ele>433</ele>
        <time>2016-01-03T09:24:42.611Z</time>
      </trkpt>
      <trkpt lat="43.68346" lon="5.84118">
        <ele>433</ele>
        <time>2016-01-03T09:24:43.635Z</time>
      </trkpt>
      <trkpt lat="43.68352" lon="5.84112">
        <ele>434</ele>
        <time>2016-01-03T09:24:44.611Z</time>
      </trkpt>
      <trkpt lat="43.68358" lon="5.84105">
        <ele>434</ele>
        <time>2016-01-03T09:24:45.622Z</time>
      </trkpt>
      <trkpt lat="43.68364" lon="5.84099">
        <ele>434</ele>
        <time>2016-01-03T09:24:46.611Z</time>
      </trkpt>
      <trkpt lat="43.68371" lon="5.84093">
        <ele>434</ele>
        <time>2016-01-03T09:24:47.635Z</time>
      </trkpt>
      <trkpt lat="43.68377" lon="5.84086">
        <ele>434</ele>
        <time>2016-01-03T09:24:48.639Z</time>
      </trkpt>
      <trkpt lat="43.68383" lon="5.8408">
        <ele>434</ele>
        <time>2016-01-03T09:24:49.635Z</time>
      </trkpt>
      <trkpt lat="43.68389" lon="5.84074">
        <ele>434</ele>
        <time>2016-01-03T09:24:50.611Z</time>
      </trkpt>
      <trkpt lat="43.68396" lon="5.84069">
        <ele>434</ele>
        <time>2016-01-03T09:24:51.636Z</time>
      </trkpt>
      <trkpt lat="43.68402" lon="5.84063">
        <ele>434</ele>
        <time>2016-01-03T09:24:52.610Z</time>
      </trkpt>
      <trkpt lat="43.68408" lon="5.84058">
        <ele>433</ele>
        <time>2016-01-03T09:24:53.634Z</time>
      </trkpt>
      <trkpt lat="43.68414" lon="5.84052">
        <ele>433</ele>
        <time>2016-01-03T09:24:54.610Z</time>
      </trkpt>
      <trkpt lat="43.68419" lon="5.84047">
        <ele>433</ele>
        <time>2016-01-03T09:24:55.856Z</time>
      </trkpt>
      <trkpt lat="43.68426" lon="5.84043">
        <ele>432</ele>
        <time>2016-01-03T09:24:56.675Z</time>
      </trkpt>
      <trkpt lat="43.68431" lon="5.84038">
        <ele>433</ele>
        <time>2016-01-03T09:24:57.638Z</time>
      </trkpt>
      <trkpt lat="43.68437" lon="5.84033">
        <ele>433</ele>
        <time>2016-01-03T09:24:58.612Z</time>
      </trkpt>
      <trkpt lat="43.68443" lon="5.84028">
        <ele>433</ele>
        <time>2016-01-03T09:24:59.662Z</time>
      </trkpt>
      <trkpt lat="43.68449" lon="5.84023">
        <ele>433</ele>
        <time>2016-01-03T09:25:00.608Z</time>
      </trkpt>
      <trkpt lat="43.68455" lon="5.84018">
        <ele>434</ele>
        <time>2016-01-03T09:25:01.634Z</time>
      </trkpt>
      <trkpt lat="43.6846" lon="5.84014">
        <ele>434</ele>
        <time>2016-01-03T09:25:02.608Z</time>
      </trkpt>
      <trkpt lat="43.68465" lon="5.8401">
        <ele>435</ele>
        <time>2016-01-03T09:25:03.633Z</time>
      </trkpt>
      <trkpt lat="43.6847" lon="5.84006">
        <ele>435</ele>
        <time>2016-01-03T09:25:04.610Z</time>
      </trkpt>
      <trkpt lat="43.68475" lon="5.84004">
        <ele>435</ele>
        <time>2016-01-03T09:25:05.633Z</time>
      </trkpt>
      <trkpt lat="43.6848" lon="5.84001">
        <ele>436</ele>
        <time>2016-01-03T09:25:06.823Z</time>
      </trkpt>
      <trkpt lat="43.68485" lon="5.83998">
        <ele>436</ele>
        <time>2016-01-03T09:25:07.634Z</time>
      </trkpt>
      <trkpt lat="43.6849" lon="5.83997">
        <ele>436</ele>
        <time>2016-01-03T09:25:08.610Z</time>
      </trkpt>
      <trkpt lat="43.68495" lon="5.83994">
        <ele>436</ele>
        <time>2016-01-03T09:25:09.634Z</time>
      </trkpt>
      <trkpt lat="43.685" lon="5.83992">
        <ele>436</ele>
        <time>2016-01-03T09:25:10.638Z</time>
      </trkpt>
      <trkpt lat="43.68505" lon="5.8399">
        <ele>436</ele>
        <time>2016-01-03T09:25:11.634Z</time>
      </trkpt>
      <trkpt lat="43.68511" lon="5.83988">
        <ele>436</ele>
        <time>2016-01-03T09:25:12.610Z</time>
      </trkpt>
      <trkpt lat="43.68517" lon="5.83987">
        <ele>436</ele>
        <time>2016-01-03T09:25:13.631Z</time>
      </trkpt>
      <trkpt lat="43.68522" lon="5.83985">
        <ele>436</ele>
        <time>2016-01-03T09:25:14.610Z</time>
      </trkpt>
      <trkpt lat="43.68528" lon="5.83983">
        <ele>436</ele>
        <time>2016-01-03T09:25:15.633Z</time>
      </trkpt>
      <trkpt lat="43.68535" lon="5.83981">
        <ele>436</ele>
        <time>2016-01-03T09:25:16.609Z</time>
      </trkpt>
      <trkpt lat="43.68541" lon="5.83979">
        <ele>435</ele>
        <time>2016-01-03T09:25:17.633Z</time>
      </trkpt>
      <trkpt lat="43.68548" lon="5.83976">
        <ele>435</ele>
        <time>2016-01-03T09:25:18.607Z</time>
      </trkpt>
      <trkpt lat="43.68555" lon="5.83974">
        <ele>435</ele>
        <time>2016-01-03T09:25:19.631Z</time>
      </trkpt>
      <trkpt lat="43.68562" lon="5.83972">
        <ele>434</ele>
        <time>2016-01-03T09:25:20.702Z</time>
      </trkpt>
      <trkpt lat="43.68569" lon="5.8397">
        <ele>434</ele>
        <time>2016-01-03T09:25:21.667Z</time>
      </trkpt>
      <trkpt lat="43.68576" lon="5.83968">
        <ele>433</ele>
        <time>2016-01-03T09:25:22.610Z</time>
      </trkpt>
      <trkpt lat="43.68583" lon="5.83966">
        <ele>433</ele>
        <time>2016-01-03T09:25:23.633Z</time>
      </trkpt>
      <trkpt lat="43.6859" lon="5.83964">
        <ele>433</ele>
        <time>2016-01-03T09:25:24.602Z</time>
      </trkpt>
      <trkpt lat="43.68597" lon="5.83962">
        <ele>433</ele>
        <time>2016-01-03T09:25:25.632Z</time>
      </trkpt>
      <trkpt lat="43.68605" lon="5.8396">
        <ele>433</ele>
        <time>2016-01-03T09:25:26.614Z</time>
      </trkpt>
      <trkpt lat="43.68612" lon="5.83958">
        <ele>432</ele>
        <time>2016-01-03T09:25:27.660Z</time>
      </trkpt>
      <trkpt lat="43.68619" lon="5.83956">
        <ele>431</ele>
        <time>2016-01-03T09:25:28.615Z</time>
      </trkpt>
      <trkpt lat="43.68627" lon="5.83954">
        <ele>431</ele>
        <time>2016-01-03T09:25:29.635Z</time>
      </trkpt>
      <trkpt lat="43.68634" lon="5.83951">
        <ele>431</ele>
        <time>2016-01-03T09:25:30.609Z</time>
      </trkpt>
      <trkpt lat="43.68641" lon="5.8395">
        <ele>430</ele>
        <time>2016-01-03T09:25:31.645Z</time>
      </trkpt>
      <trkpt lat="43.68648" lon="5.83948">
        <ele>430</ele>
        <time>2016-01-03T09:25:32.610Z</time>
      </trkpt>
      <trkpt lat="43.68655" lon="5.83947">
        <ele>430</ele>
        <time>2016-01-03T09:25:33.708Z</time>
      </trkpt>
      <trkpt lat="43.68662" lon="5.83945">
        <ele>430</ele>
        <time>2016-01-03T09:25:34.609Z</time>
      </trkpt>
      <trkpt lat="43.6867" lon="5.83943">
        <ele>429</ele>
        <time>2016-01-03T09:25:35.849Z</time>
      </trkpt>
      <trkpt lat="43.68677" lon="5.83941">
        <ele>429</ele>
        <time>2016-01-03T09:25:36.609Z</time>
      </trkpt>
      <trkpt lat="43.68684" lon="5.83938">
        <ele>429</ele>
        <time>2016-01-03T09:25:37.661Z</time>
      </trkpt>
      <trkpt lat="43.68691" lon="5.83935">
        <ele>430</ele>
        <time>2016-01-03T09:25:38.602Z</time>
      </trkpt>
      <trkpt lat="43.68697" lon="5.8393">
        <ele>430</ele>
        <time>2016-01-03T09:25:39.706Z</time>
      </trkpt>
      <trkpt lat="43.68704" lon="5.83925">
        <ele>430</ele>
        <time>2016-01-03T09:25:40.610Z</time>
      </trkpt>
      <trkpt lat="43.68709" lon="5.83919">
        <ele>430</ele>
        <time>2016-01-03T09:25:41.632Z</time>
      </trkpt>
      <trkpt lat="43.68715" lon="5.83913">
        <ele>430</ele>
        <time>2016-01-03T09:25:42.610Z</time>
      </trkpt>
      <trkpt lat="43.68721" lon="5.83908">
        <ele>429</ele>
        <time>2016-01-03T09:25:43.633Z</time>
      </trkpt>
      <trkpt lat="43.68726" lon="5.839">
        <ele>429</ele>
        <time>2016-01-03T09:25:44.610Z</time>
      </trkpt>
      <trkpt lat="43.68732" lon="5.83894">
        <ele>429</ele>
        <time>2016-01-03T09:25:45.633Z</time>
      </trkpt>
      <trkpt lat="43.68738" lon="5.83887">
        <ele>428</ele>
        <time>2016-01-03T09:25:46.824Z</time>
      </trkpt>
      <trkpt lat="43.68743" lon="5.83881">
        <ele>428</ele>
        <time>2016-01-03T09:25:47.635Z</time>
      </trkpt>
      <trkpt lat="43.68749" lon="5.83874">
        <ele>427</ele>
        <time>2016-01-03T09:25:48.637Z</time>
      </trkpt>
      <trkpt lat="43.68755" lon="5.83867">
        <ele>427</ele>
        <time>2016-01-03T09:25:49.635Z</time>
      </trkpt>
      <trkpt lat="43.68761" lon="5.8386">
        <ele>426</ele>
        <time>2016-01-03T09:25:50.611Z</time>
      </trkpt>
      <trkpt lat="43.68767" lon="5.83854">
        <ele>426</ele>
        <time>2016-01-03T09:25:51.635Z</time>
      </trkpt>
      <trkpt lat="43.68773" lon="5.83846">
        <ele>425</ele>
        <time>2016-01-03T09:25:52.611Z</time>
      </trkpt>
      <trkpt lat="43.68779" lon="5.8384">
        <ele>425</ele>
        <time>2016-01-03T09:25:53.633Z</time>
      </trkpt>
      <trkpt lat="43.68786" lon="5.83833">
        <ele>425</ele>
        <time>2016-01-03T09:25:54.610Z</time>
      </trkpt>
      <trkpt lat="43.68792" lon="5.83827">
        <ele>425</ele>
        <time>2016-01-03T09:25:55.634Z</time>
      </trkpt>
      <trkpt lat="43.68799" lon="5.83821">
        <ele>425</ele>
        <time>2016-01-03T09:25:56.610Z</time>
      </trkpt>
      <trkpt lat="43.68806" lon="5.83815">
        <ele>425</ele>
        <time>2016-01-03T09:25:57.841Z</time>
      </trkpt>
      <trkpt lat="43.68813" lon="5.8381">
        <ele>424</ele>
        <time>2016-01-03T09:25:58.611Z</time>
      </trkpt>
      <trkpt lat="43.6882" lon="5.83805">
        <ele>423</ele>
        <time>2016-01-03T09:25:59.665Z</time>
      </trkpt>
      <trkpt lat="43.68827" lon="5.838">
        <ele>423</ele>
        <time>2016-01-03T09:26:00.611Z</time>
      </trkpt>
      <trkpt lat="43.68834" lon="5.83795">
        <ele>423</ele>
        <time>2016-01-03T09:26:01.652Z</time>
      </trkpt>
      <trkpt lat="43.68842" lon="5.8379">
        <ele>423</ele>
        <time>2016-01-03T09:26:02.611Z</time>
      </trkpt>
      <trkpt lat="43.68849" lon="5.83785">
        <ele>422</ele>
        <time>2016-01-03T09:26:03.633Z</time>
      </trkpt>
      <trkpt lat="43.68857" lon="5.8378">
        <ele>421</ele>
        <time>2016-01-03T09:26:04.611Z</time>
      </trkpt>
      <trkpt lat="43.68864" lon="5.83774">
        <ele>420</ele>
        <time>2016-01-03T09:26:05.635Z</time>
      </trkpt>
      <trkpt lat="43.68871" lon="5.83769">
        <ele>420</ele>
        <time>2016-01-03T09:26:06.610Z</time>
      </trkpt>
      <trkpt lat="43.68878" lon="5.83764">
        <ele>420</ele>
        <time>2016-01-03T09:26:07.635Z</time>
      </trkpt>
      <trkpt lat="43.68886" lon="5.83759">
        <ele>419</ele>
        <time>2016-01-03T09:26:08.609Z</time>
      </trkpt>
      <trkpt lat="43.68894" lon="5.83753">
        <ele>419</ele>
        <time>2016-01-03T09:26:09.630Z</time>
      </trkpt>
      <trkpt lat="43.68902" lon="5.83749">
        <ele>418</ele>
        <time>2016-01-03T09:26:10.638Z</time>
      </trkpt>
      <trkpt lat="43.68902" lon="5.83749">
        <ele>418</ele>
        <time>2016-01-03T09:26:10.667Z</time>
      </trkpt>
      <trkpt lat="43.6891" lon="5.83744">
        <ele>417</ele>
        <time>2016-01-03T09:26:11.609Z</time>
      </trkpt>
      <trkpt lat="43.6891" lon="5.83744">
        <ele>417</ele>
        <time>2016-01-03T09:26:11.636Z</time>
      </trkpt>
      <trkpt lat="43.68919" lon="5.8374">
        <ele>417</ele>
        <time>2016-01-03T09:26:12.610Z</time>
      </trkpt>
      <trkpt lat="43.68927" lon="5.83735">
        <ele>416</ele>
        <time>2016-01-03T09:26:13.632Z</time>
      </trkpt>
      <trkpt lat="43.68936" lon="5.83731">
        <ele>416</ele>
        <time>2016-01-03T09:26:14.614Z</time>
      </trkpt>
      <trkpt lat="43.68936" lon="5.83731">
        <ele>416</ele>
        <time>2016-01-03T09:26:14.635Z</time>
      </trkpt>
      <trkpt lat="43.68944" lon="5.83726">
        <ele>416</ele>
        <time>2016-01-03T09:26:15.611Z</time>
      </trkpt>
      <trkpt lat="43.68944" lon="5.83726">
        <ele>416</ele>
        <time>2016-01-03T09:26:15.640Z</time>
      </trkpt>
      <trkpt lat="43.68953" lon="5.83722">
        <ele>415</ele>
        <time>2016-01-03T09:26:16.610Z</time>
      </trkpt>
      <trkpt lat="43.68953" lon="5.83722">
        <ele>415</ele>
        <time>2016-01-03T09:26:16.639Z</time>
      </trkpt>
      <trkpt lat="43.68961" lon="5.83716">
        <ele>415</ele>
        <time>2016-01-03T09:26:17.611Z</time>
      </trkpt>
      <trkpt lat="43.68961" lon="5.83716">
        <ele>415</ele>
        <time>2016-01-03T09:26:17.686Z</time>
      </trkpt>
      <trkpt lat="43.6897" lon="5.83711">
        <ele>414</ele>
        <time>2016-01-03T09:26:18.636Z</time>
      </trkpt>
      <trkpt lat="43.6897" lon="5.83711">
        <ele>414</ele>
        <time>2016-01-03T09:26:18.668Z</time>
      </trkpt>
      <trkpt lat="43.68978" lon="5.83706">
        <ele>414</ele>
        <time>2016-01-03T09:26:19.610Z</time>
      </trkpt>
      <trkpt lat="43.68978" lon="5.83706">
        <ele>414</ele>
        <time>2016-01-03T09:26:19.639Z</time>
      </trkpt>
      <trkpt lat="43.68987" lon="5.837">
        <ele>413</ele>
        <time>2016-01-03T09:26:20.610Z</time>
      </trkpt>
      <trkpt lat="43.68987" lon="5.837">
        <ele>413</ele>
        <time>2016-01-03T09:26:20.638Z</time>
      </trkpt>
      <trkpt lat="43.68996" lon="5.83695">
        <ele>412</ele>
        <time>2016-01-03T09:26:21.637Z</time>
      </trkpt>
      <trkpt lat="43.68996" lon="5.83695">
        <ele>412</ele>
        <time>2016-01-03T09:26:21.664Z</time>
      </trkpt>
      <trkpt lat="43.69006" lon="5.8369">
        <ele>411</ele>
        <time>2016-01-03T09:26:22.610Z</time>
      </trkpt>
      <trkpt lat="43.69006" lon="5.8369">
        <ele>411</ele>
        <time>2016-01-03T09:26:22.636Z</time>
      </trkpt>
      <trkpt lat="43.69015" lon="5.83684">
        <ele>411</ele>
        <time>2016-01-03T09:26:23.611Z</time>
      </trkpt>
      <trkpt lat="43.69015" lon="5.83684">
        <ele>411</ele>
        <time>2016-01-03T09:26:23.647Z</time>
      </trkpt>
      <trkpt lat="43.69024" lon="5.83679">
        <ele>410</ele>
        <time>2016-01-03T09:26:24.709Z</time>
      </trkpt>
      <trkpt lat="43.69024" lon="5.83679">
        <ele>410</ele>
        <time>2016-01-03T09:26:24.728Z</time>
      </trkpt>
      <trkpt lat="43.69033" lon="5.83674">
        <ele>409</ele>
        <time>2016-01-03T09:26:25.617Z</time>
      </trkpt>
      <trkpt lat="43.69033" lon="5.83674">
        <ele>409</ele>
        <time>2016-01-03T09:26:25.633Z</time>
      </trkpt>
      <trkpt lat="43.69043" lon="5.83669">
        <ele>409</ele>
        <time>2016-01-03T09:26:26.610Z</time>
      </trkpt>
      <trkpt lat="43.69043" lon="5.83669">
        <ele>409</ele>
        <time>2016-01-03T09:26:26.635Z</time>
      </trkpt>
      <trkpt lat="43.69052" lon="5.83663">
        <ele>408</ele>
        <time>2016-01-03T09:26:27.611Z</time>
      </trkpt>
      <trkpt lat="43.69052" lon="5.83663">
        <ele>408</ele>
        <time>2016-01-03T09:26:27.650Z</time>
      </trkpt>
      <trkpt lat="43.69062" lon="5.83658">
        <ele>407</ele>
        <time>2016-01-03T09:26:28.607Z</time>
      </trkpt>
      <trkpt lat="43.69062" lon="5.83658">
        <ele>407</ele>
        <time>2016-01-03T09:26:28.653Z</time>
      </trkpt>
      <trkpt lat="43.69071" lon="5.83652">
        <ele>406</ele>
        <time>2016-01-03T09:26:29.606Z</time>
      </trkpt>
      <trkpt lat="43.69078" lon="5.83646">
        <ele>406</ele>
        <time>2016-01-03T09:26:30.633Z</time>
      </trkpt>
      <trkpt lat="43.69083" lon="5.8364">
        <ele>406</ele>
        <time>2016-01-03T09:26:31.610Z</time>
      </trkpt>
      <trkpt lat="43.69088" lon="5.83634">
        <ele>406</ele>
        <time>2016-01-03T09:26:32.663Z</time>
      </trkpt>
      <trkpt lat="43.69091" lon="5.83627">
        <ele>406</ele>
        <time>2016-01-03T09:26:33.602Z</time>
      </trkpt>
      <trkpt lat="43.69092" lon="5.8362">
        <ele>406</ele>
        <time>2016-01-03T09:26:34.644Z</time>
      </trkpt>
      <trkpt lat="43.69092" lon="5.83613">
        <ele>406</ele>
        <time>2016-01-03T09:26:35.609Z</time>
      </trkpt>
      <trkpt lat="43.69089" lon="5.83601">
        <ele>406</ele>
        <time>2016-01-03T09:26:37.632Z</time>
      </trkpt>
      <trkpt lat="43.69088" lon="5.83596">
        <ele>406</ele>
        <time>2016-01-03T09:26:38.612Z</time>
      </trkpt>
      <trkpt lat="43.69085" lon="5.83586">
        <ele>406</ele>
        <time>2016-01-03T09:26:40.633Z</time>
      </trkpt>
      <trkpt lat="43.69084" lon="5.83582">
        <ele>406</ele>
        <time>2016-01-03T09:26:41.610Z</time>
      </trkpt>
      <trkpt lat="43.69081" lon="5.83571">
        <ele>407</ele>
        <time>2016-01-03T09:26:44.706Z</time>
      </trkpt>
      <trkpt lat="43.6908" lon="5.83568">
        <ele>407</ele>
        <time>2016-01-03T09:26:45.610Z</time>
      </trkpt>
      <trkpt lat="43.69076" lon="5.83557">
        <ele>407</ele>
        <time>2016-01-03T09:26:48.660Z</time>
      </trkpt>
      <trkpt lat="43.69075" lon="5.83553">
        <ele>407</ele>
        <time>2016-01-03T09:26:49.610Z</time>
      </trkpt>
      <trkpt lat="43.69073" lon="5.83546">
        <ele>408</ele>
        <time>2016-01-03T09:26:51.636Z</time>
      </trkpt>
      <trkpt lat="43.69071" lon="5.83542">
        <ele>408</ele>
        <time>2016-01-03T09:26:52.614Z</time>
      </trkpt>
      <trkpt lat="43.69069" lon="5.83534">
        <ele>407</ele>
        <time>2016-01-03T09:26:54.633Z</time>
      </trkpt>
      <trkpt lat="43.69067" lon="5.8353">
        <ele>408</ele>
        <time>2016-01-03T09:26:55.611Z</time>
      </trkpt>
      <trkpt lat="43.69063" lon="5.8352">
        <ele>408</ele>
        <time>2016-01-03T09:26:58.622Z</time>
      </trkpt>
      <trkpt lat="43.69061" lon="5.83516">
        <ele>408</ele>
        <time>2016-01-03T09:26:59.636Z</time>
      </trkpt>
      <trkpt lat="43.69055" lon="5.8351">
        <ele>409</ele>
        <time>2016-01-03T09:27:02.634Z</time>
      </trkpt>
      <trkpt lat="43.69053" lon="5.83508">
        <ele>409</ele>
        <time>2016-01-03T09:27:03.614Z</time>
      </trkpt>
      <trkpt lat="43.69049" lon="5.83502">
        <ele>409</ele>
        <time>2016-01-03T09:27:05.633Z</time>
      </trkpt>
      <trkpt lat="43.69047" lon="5.83498">
        <ele>409</ele>
        <time>2016-01-03T09:27:06.609Z</time>
      </trkpt>
      <trkpt lat="43.69045" lon="5.83489">
        <ele>409</ele>
        <time>2016-01-03T09:27:08.632Z</time>
      </trkpt>
      <trkpt lat="43.69043" lon="5.83485">
        <ele>409</ele>
        <time>2016-01-03T09:27:09.610Z</time>
      </trkpt>
      <trkpt lat="43.69041" lon="5.83476">
        <ele>409</ele>
        <time>2016-01-03T09:27:11.633Z</time>
      </trkpt>
      <trkpt lat="43.6904" lon="5.83472">
        <ele>410</ele>
        <time>2016-01-03T09:27:12.822Z</time>
      </trkpt>
      <trkpt lat="43.69037" lon="5.83463">
        <ele>410</ele>
        <time>2016-01-03T09:27:14.632Z</time>
      </trkpt>
      <trkpt lat="43.69036" lon="5.83459">
        <ele>410</ele>
        <time>2016-01-03T09:27:15.610Z</time>
      </trkpt>
      <trkpt lat="43.69032" lon="5.83451">
        <ele>411</ele>
        <time>2016-01-03T09:27:17.616Z</time>
      </trkpt>
      <trkpt lat="43.6903" lon="5.83447">
        <ele>412</ele>
        <time>2016-01-03T09:27:18.608Z</time>
      </trkpt>
      <trkpt lat="43.69026" lon="5.83439">
        <ele>413</ele>
        <time>2016-01-03T09:27:20.619Z</time>
      </trkpt>
      <trkpt lat="43.69024" lon="5.83436">
        <ele>413</ele>
        <time>2016-01-03T09:27:21.609Z</time>
      </trkpt>
      <trkpt lat="43.69021" lon="5.83428">
        <ele>413</ele>
        <time>2016-01-03T09:27:23.628Z</time>
      </trkpt>
      <trkpt lat="43.6902" lon="5.83424">
        <ele>413</ele>
        <time>2016-01-03T09:27:24.611Z</time>
      </trkpt>
      <trkpt lat="43.69018" lon="5.83413">
        <ele>413</ele>
        <time>2016-01-03T09:27:27.634Z</time>
      </trkpt>
      <trkpt lat="43.69017" lon="5.83409">
        <ele>414</ele>
        <time>2016-01-03T09:27:28.611Z</time>
      </trkpt>
      <trkpt lat="43.69016" lon="5.83398">
        <ele>415</ele>
        <time>2016-01-03T09:27:31.660Z</time>
      </trkpt>
      <trkpt lat="43.69015" lon="5.83394">
        <ele>415</ele>
        <time>2016-01-03T09:27:32.611Z</time>
      </trkpt>
      <trkpt lat="43.69009" lon="5.83386">
        <ele>416</ele>
        <time>2016-01-03T09:29:45.635Z</time>
      </trkpt>
      <trkpt lat="43.69009" lon="5.83384">
        <ele>416</ele>
        <time>2016-01-03T09:29:46.611Z</time>
      </trkpt>
      <trkpt lat="43.69007" lon="5.83374">
        <ele>417</ele>
        <time>2016-01-03T09:29:56.634Z</time>
      </trkpt>
      <trkpt lat="43.69006" lon="5.83372">
        <ele>417</ele>
        <time>2016-01-03T09:29:57.612Z</time>
      </trkpt>
      <trkpt lat="43.69002" lon="5.83364">
        <ele>417</ele>
        <time>2016-01-03T09:30:00.634Z</time>
      </trkpt>
      <trkpt lat="43.69001" lon="5.83361">
        <ele>418</ele>
        <time>2016-01-03T09:30:01.611Z</time>
      </trkpt>
      <trkpt lat="43.68998" lon="5.83351">
        <ele>418</ele>
        <time>2016-01-03T09:30:04.635Z</time>
      </trkpt>
      <trkpt lat="43.68998" lon="5.83347">
        <ele>418</ele>
        <time>2016-01-03T09:30:05.609Z</time>
      </trkpt>
      <trkpt lat="43.68996" lon="5.83338">
        <ele>418</ele>
        <time>2016-01-03T09:30:07.634Z</time>
      </trkpt>
      <trkpt lat="43.68995" lon="5.83334">
        <ele>417</ele>
        <time>2016-01-03T09:30:08.612Z</time>
      </trkpt>
      <trkpt lat="43.68994" lon="5.83324">
        <ele>418</ele>
        <time>2016-01-03T09:30:10.636Z</time>
      </trkpt>
      <trkpt lat="43.68993" lon="5.8332">
        <ele>418</ele>
        <time>2016-01-03T09:30:11.611Z</time>
      </trkpt>
      <trkpt lat="43.68992" lon="5.83311">
        <ele>418</ele>
        <time>2016-01-03T09:30:13.668Z</time>
      </trkpt>
      <trkpt lat="43.68991" lon="5.83307">
        <ele>418</ele>
        <time>2016-01-03T09:30:14.609Z</time>
      </trkpt>
      <trkpt lat="43.68988" lon="5.83297">
        <ele>419</ele>
        <time>2016-01-03T09:30:19.634Z</time>
      </trkpt>
      <trkpt lat="43.68987" lon="5.83295">
        <ele>419</ele>
        <time>2016-01-03T09:30:20.612Z</time>
      </trkpt>
      <trkpt lat="43.68984" lon="5.83284">
        <ele>419</ele>
        <time>2016-01-03T09:30:23.635Z</time>
      </trkpt>
      <trkpt lat="43.68983" lon="5.8328">
        <ele>419</ele>
        <time>2016-01-03T09:30:24.641Z</time>
      </trkpt>
      <trkpt lat="43.6898" lon="5.83272">
        <ele>420</ele>
        <time>2016-01-03T09:30:26.851Z</time>
      </trkpt>
      <trkpt lat="43.68979" lon="5.83268">
        <ele>420</ele>
        <time>2016-01-03T09:30:27.609Z</time>
      </trkpt>
      <trkpt lat="43.68977" lon="5.8326">
        <ele>420</ele>
        <time>2016-01-03T09:30:29.635Z</time>
      </trkpt>
      <trkpt lat="43.68975" lon="5.83256">
        <ele>420</ele>
        <time>2016-01-03T09:30:30.610Z</time>
      </trkpt>
      <trkpt lat="43.68971" lon="5.83246">
        <ele>420</ele>
        <time>2016-01-03T09:30:47.637Z</time>
      </trkpt>
      <trkpt lat="43.6897" lon="5.83242">
        <ele>420</ele>
        <time>2016-01-03T09:30:48.611Z</time>
      </trkpt>
      <trkpt lat="43.68967" lon="5.83231">
        <ele>421</ele>
        <time>2016-01-03T09:30:51.634Z</time>
      </trkpt>
      <trkpt lat="43.68965" lon="5.83228">
        <ele>421</ele>
        <time>2016-01-03T09:30:52.611Z</time>
      </trkpt>
      <trkpt lat="43.68962" lon="5.83217">
        <ele>421</ele>
        <time>2016-01-03T09:30:55.634Z</time>
      </trkpt>
      <trkpt lat="43.68961" lon="5.83213">
        <ele>421</ele>
        <time>2016-01-03T09:30:56.611Z</time>
      </trkpt>
      <trkpt lat="43.68958" lon="5.83201">
        <ele>422</ele>
        <time>2016-01-03T09:30:59.634Z</time>
      </trkpt>
      <trkpt lat="43.68956" lon="5.83198">
        <ele>422</ele>
        <time>2016-01-03T09:31:00.609Z</time>
      </trkpt>
      <trkpt lat="43.68953" lon="5.83186">
        <ele>421</ele>
        <time>2016-01-03T09:31:03.635Z</time>
      </trkpt>
      <trkpt lat="43.68952" lon="5.83183">
        <ele>421</ele>
        <time>2016-01-03T09:31:04.612Z</time>
      </trkpt>
      <trkpt lat="43.68951" lon="5.83171">
        <ele>422</ele>
        <time>2016-01-03T09:31:07.634Z</time>
      </trkpt>
      <trkpt lat="43.68952" lon="5.83167">
        <ele>421</ele>
        <time>2016-01-03T09:31:08.638Z</time>
      </trkpt>
      <trkpt lat="43.68955" lon="5.83157">
        <ele>422</ele>
        <time>2016-01-03T09:31:11.634Z</time>
      </trkpt>
      <trkpt lat="43.68956" lon="5.83154">
        <ele>422</ele>
        <time>2016-01-03T09:31:12.611Z</time>
      </trkpt>
      <trkpt lat="43.68959" lon="5.83144">
        <ele>423</ele>
        <time>2016-01-03T09:31:15.636Z</time>
      </trkpt>
      <trkpt lat="43.68959" lon="5.83141">
        <ele>423</ele>
        <time>2016-01-03T09:31:16.612Z</time>
      </trkpt>
      <trkpt lat="43.68961" lon="5.8313">
        <ele>424</ele>
        <time>2016-01-03T09:31:20.633Z</time>
      </trkpt>
      <trkpt lat="43.68962" lon="5.83127">
        <ele>425</ele>
        <time>2016-01-03T09:31:21.611Z</time>
      </trkpt>
      <trkpt lat="43.68963" lon="5.83116">
        <ele>427</ele>
        <time>2016-01-03T09:31:25.633Z</time>
      </trkpt>
      <trkpt lat="43.68964" lon="5.83113">
        <ele>427</ele>
        <time>2016-01-03T09:31:26.611Z</time>
      </trkpt>
      <trkpt lat="43.68967" lon="5.83104">
        <ele>428</ele>
        <time>2016-01-03T09:31:30.659Z</time>
      </trkpt>
      <trkpt lat="43.68968" lon="5.83101">
        <ele>428</ele>
        <time>2016-01-03T09:31:31.609Z</time>
      </trkpt>
      <trkpt lat="43.68971" lon="5.83092">
        <ele>429</ele>
        <time>2016-01-03T09:31:35.627Z</time>
      </trkpt>
      <trkpt lat="43.68972" lon="5.83089">
        <ele>429</ele>
        <time>2016-01-03T09:31:36.609Z</time>
      </trkpt>
      <trkpt lat="43.68974" lon="5.83079">
        <ele>431</ele>
        <time>2016-01-03T09:31:40.633Z</time>
      </trkpt>
      <trkpt lat="43.68975" lon="5.83077">
        <ele>431</ele>
        <time>2016-01-03T09:31:41.853Z</time>
      </trkpt>
      <trkpt lat="43.68978" lon="5.83067">
        <ele>432</ele>
        <time>2016-01-03T09:31:45.635Z</time>
      </trkpt>
      <trkpt lat="43.68979" lon="5.83064">
        <ele>431</ele>
        <time>2016-01-03T09:31:46.611Z</time>
      </trkpt>
      <trkpt lat="43.68981" lon="5.83052">
        <ele>432</ele>
        <time>2016-01-03T09:31:50.634Z</time>
      </trkpt>
      <trkpt lat="43.68982" lon="5.83048">
        <ele>432</ele>
        <time>2016-01-03T09:31:51.611Z</time>
      </trkpt>
      <trkpt lat="43.68983" lon="5.83039">
        <ele>433</ele>
        <time>2016-01-03T09:31:53.689Z</time>
      </trkpt>
      <trkpt lat="43.68984" lon="5.83035">
        <ele>433</ele>
        <time>2016-01-03T09:31:54.612Z</time>
      </trkpt>
      <trkpt lat="43.68986" lon="5.83027">
        <ele>432</ele>
        <time>2016-01-03T09:31:56.635Z</time>
      </trkpt>
      <trkpt lat="43.68987" lon="5.83023">
        <ele>432</ele>
        <time>2016-01-03T09:31:57.608Z</time>
      </trkpt>
      <trkpt lat="43.68989" lon="5.83014">
        <ele>432</ele>
        <time>2016-01-03T09:31:59.633Z</time>
      </trkpt>
      <trkpt lat="43.6899" lon="5.8301">
        <ele>433</ele>
        <time>2016-01-03T09:32:00.611Z</time>
      </trkpt>
      <trkpt lat="43.68991" lon="5.83001">
        <ele>434</ele>
        <time>2016-01-03T09:32:02.635Z</time>
      </trkpt>
      <trkpt lat="43.68991" lon="5.82996">
        <ele>434</ele>
        <time>2016-01-03T09:32:03.637Z</time>
      </trkpt>
      <trkpt lat="43.68991" lon="5.82987">
        <ele>433</ele>
        <time>2016-01-03T09:32:05.634Z</time>
      </trkpt>
      <trkpt lat="43.68992" lon="5.82983">
        <ele>434</ele>
        <time>2016-01-03T09:32:06.611Z</time>
      </trkpt>
      <trkpt lat="43.68995" lon="5.82974">
        <ele>434</ele>
        <time>2016-01-03T09:32:10.635Z</time>
      </trkpt>
      <trkpt lat="43.68997" lon="5.82971">
        <ele>435</ele>
        <time>2016-01-03T09:32:11.612Z</time>
      </trkpt>
      <trkpt lat="43.69004" lon="5.82964">
        <ele>434</ele>
        <time>2016-01-03T09:32:13.637Z</time>
      </trkpt>
      <trkpt lat="43.69009" lon="5.82959">
        <ele>434</ele>
        <time>2016-01-03T09:32:14.639Z</time>
      </trkpt>
      <trkpt lat="43.69013" lon="5.82956">
        <ele>434</ele>
        <time>2016-01-03T09:32:15.636Z</time>
      </trkpt>
      <trkpt lat="43.69018" lon="5.82951">
        <ele>434</ele>
        <time>2016-01-03T09:32:16.612Z</time>
      </trkpt>
      <trkpt lat="43.69022" lon="5.82945">
        <ele>434</ele>
        <time>2016-01-03T09:32:17.857Z</time>
      </trkpt>
      <trkpt lat="43.69027" lon="5.82939">
        <ele>435</ele>
        <time>2016-01-03T09:32:18.612Z</time>
      </trkpt>
      <trkpt lat="43.69032" lon="5.82934">
        <ele>434</ele>
        <time>2016-01-03T09:32:19.634Z</time>
      </trkpt>
      <trkpt lat="43.69036" lon="5.82929">
        <ele>434</ele>
        <time>2016-01-03T09:32:20.610Z</time>
      </trkpt>
      <trkpt lat="43.69041" lon="5.82923">
        <ele>434</ele>
        <time>2016-01-03T09:32:21.634Z</time>
      </trkpt>
      <trkpt lat="43.69047" lon="5.82918">
        <ele>434</ele>
        <time>2016-01-03T09:32:22.611Z</time>
      </trkpt>
      <trkpt lat="43.69052" lon="5.82913">
        <ele>434</ele>
        <time>2016-01-03T09:32:23.634Z</time>
      </trkpt>
      <trkpt lat="43.69057" lon="5.82908">
        <ele>434</ele>
        <time>2016-01-03T09:32:24.611Z</time>
      </trkpt>
      <trkpt lat="43.69062" lon="5.82902">
        <ele>434</ele>
        <time>2016-01-03T09:32:25.663Z</time>
      </trkpt>
      <trkpt lat="43.69067" lon="5.82897">
        <ele>433</ele>
        <time>2016-01-03T09:32:26.612Z</time>
      </trkpt>
      <trkpt lat="43.69072" lon="5.82892">
        <ele>433</ele>
        <time>2016-01-03T09:32:27.630Z</time>
      </trkpt>
      <trkpt lat="43.69076" lon="5.82887">
        <ele>433</ele>
        <time>2016-01-03T09:32:28.609Z</time>
      </trkpt>
      <trkpt lat="43.6908" lon="5.82882">
        <ele>434</ele>
        <time>2016-01-03T09:32:29.634Z</time>
      </trkpt>
      <trkpt lat="43.69084" lon="5.82878">
        <ele>434</ele>
        <time>2016-01-03T09:32:30.610Z</time>
      </trkpt>
      <trkpt lat="43.69091" lon="5.82871">
        <ele>433</ele>
        <time>2016-01-03T09:32:32.635Z</time>
      </trkpt>
      <trkpt lat="43.69094" lon="5.82866">
        <ele>433</ele>
        <time>2016-01-03T09:32:33.611Z</time>
      </trkpt>
      <trkpt lat="43.69097" lon="5.8286">
        <ele>433</ele>
        <time>2016-01-03T09:32:34.633Z</time>
      </trkpt>
      <trkpt lat="43.69099" lon="5.82853">
        <ele>433</ele>
        <time>2016-01-03T09:32:35.612Z</time>
      </trkpt>
      <trkpt lat="43.69101" lon="5.82847">
        <ele>433</ele>
        <time>2016-01-03T09:32:36.663Z</time>
      </trkpt>
      <trkpt lat="43.69103" lon="5.82841">
        <ele>433</ele>
        <time>2016-01-03T09:32:37.613Z</time>
      </trkpt>
      <trkpt lat="43.69106" lon="5.82835">
        <ele>433</ele>
        <time>2016-01-03T09:32:38.635Z</time>
      </trkpt>
      <trkpt lat="43.69111" lon="5.82832">
        <ele>433</ele>
        <time>2016-01-03T09:32:39.610Z</time>
      </trkpt>
      <trkpt lat="43.69116" lon="5.82831">
        <ele>433</ele>
        <time>2016-01-03T09:32:40.633Z</time>
      </trkpt>
      <trkpt lat="43.69121" lon="5.82832">
        <ele>433</ele>
        <time>2016-01-03T09:32:41.611Z</time>
      </trkpt>
      <trkpt lat="43.69126" lon="5.82836">
        <ele>433</ele>
        <time>2016-01-03T09:32:42.635Z</time>
      </trkpt>
      <trkpt lat="43.69129" lon="5.82842">
        <ele>433</ele>
        <time>2016-01-03T09:32:43.611Z</time>
      </trkpt>
      <trkpt lat="43.69133" lon="5.82848">
        <ele>432</ele>
        <time>2016-01-03T09:32:44.646Z</time>
      </trkpt>
      <trkpt lat="43.69137" lon="5.82852">
        <ele>432</ele>
        <time>2016-01-03T09:32:45.612Z</time>
      </trkpt>
      <trkpt lat="43.69142" lon="5.82854">
        <ele>432</ele>
        <time>2016-01-03T09:32:46.635Z</time>
      </trkpt>
      <trkpt lat="43.69147" lon="5.82852">
        <ele>432</ele>
        <time>2016-01-03T09:32:47.609Z</time>
      </trkpt>
      <trkpt lat="43.69153" lon="5.82848">
        <ele>432</ele>
        <time>2016-01-03T09:32:48.639Z</time>
      </trkpt>
      <trkpt lat="43.69158" lon="5.82844">
        <ele>432</ele>
        <time>2016-01-03T09:32:49.611Z</time>
      </trkpt>
      <trkpt lat="43.69163" lon="5.82841">
        <ele>432</ele>
        <time>2016-01-03T09:32:50.687Z</time>
      </trkpt>
      <trkpt lat="43.69169" lon="5.82837">
        <ele>432</ele>
        <time>2016-01-03T09:32:51.611Z</time>
      </trkpt>
      <trkpt lat="43.69174" lon="5.82833">
        <ele>431</ele>
        <time>2016-01-03T09:32:52.634Z</time>
      </trkpt>
      <trkpt lat="43.6918" lon="5.82828">
        <ele>431</ele>
        <time>2016-01-03T09:32:53.612Z</time>
      </trkpt>
      <trkpt lat="43.69184" lon="5.82823">
        <ele>431</ele>
        <time>2016-01-03T09:32:54.658Z</time>
      </trkpt>
      <trkpt lat="43.6919" lon="5.82819">
        <ele>431</ele>
        <time>2016-01-03T09:32:55.612Z</time>
      </trkpt>
      <trkpt lat="43.69195" lon="5.82813">
        <ele>430</ele>
        <time>2016-01-03T09:32:56.634Z</time>
      </trkpt>
      <trkpt lat="43.69199" lon="5.82807">
        <ele>430</ele>
        <time>2016-01-03T09:32:57.612Z</time>
      </trkpt>
      <trkpt lat="43.69203" lon="5.828">
        <ele>430</ele>
        <time>2016-01-03T09:32:58.661Z</time>
      </trkpt>
      <trkpt lat="43.69206" lon="5.82793">
        <ele>429</ele>
        <time>2016-01-03T09:32:59.611Z</time>
      </trkpt>
      <trkpt lat="43.6921" lon="5.82785">
        <ele>429</ele>
        <time>2016-01-03T09:33:00.634Z</time>
      </trkpt>
      <trkpt lat="43.69212" lon="5.82776">
        <ele>429</ele>
        <time>2016-01-03T09:33:01.611Z</time>
      </trkpt>
      <trkpt lat="43.69217" lon="5.82769">
        <ele>429</ele>
        <time>2016-01-03T09:33:02.632Z</time>
      </trkpt>
      <trkpt lat="43.69222" lon="5.82765">
        <ele>429</ele>
        <time>2016-01-03T09:33:03.611Z</time>
      </trkpt>
      <trkpt lat="43.69229" lon="5.82763">
        <ele>428</ele>
        <time>2016-01-03T09:33:04.635Z</time>
      </trkpt>
      <trkpt lat="43.69234" lon="5.82759">
        <ele>428</ele>
        <time>2016-01-03T09:33:05.612Z</time>
      </trkpt>
      <trkpt lat="43.69239" lon="5.82753">
        <ele>429</ele>
        <time>2016-01-03T09:33:06.635Z</time>
      </trkpt>
      <trkpt lat="43.69243" lon="5.82746">
        <ele>428</ele>
        <time>2016-01-03T09:33:07.612Z</time>
      </trkpt>
      <trkpt lat="43.69248" lon="5.8274">
        <ele>429</ele>
        <time>2016-01-03T09:33:08.633Z</time>
      </trkpt>
      <trkpt lat="43.69253" lon="5.82733">
        <ele>429</ele>
        <time>2016-01-03T09:33:09.637Z</time>
      </trkpt>
      <trkpt lat="43.69258" lon="5.82726">
        <ele>429</ele>
        <time>2016-01-03T09:33:10.634Z</time>
      </trkpt>
      <trkpt lat="43.69262" lon="5.82718">
        <ele>429</ele>
        <time>2016-01-03T09:33:11.613Z</time>
      </trkpt>
      <trkpt lat="43.69266" lon="5.82711">
        <ele>428</ele>
        <time>2016-01-03T09:33:12.679Z</time>
      </trkpt>
      <trkpt lat="43.6927" lon="5.82703">
        <ele>428</ele>
        <time>2016-01-03T09:33:13.610Z</time>
      </trkpt>
      <trkpt lat="43.69274" lon="5.82696">
        <ele>428</ele>
        <time>2016-01-03T09:33:14.642Z</time>
      </trkpt>
      <trkpt lat="43.69281" lon="5.8269">
        <ele>428</ele>
        <time>2016-01-03T09:33:15.612Z</time>
      </trkpt>
      <trkpt lat="43.69287" lon="5.82686">
        <ele>428</ele>
        <time>2016-01-03T09:33:16.634Z</time>
      </trkpt>
      <trkpt lat="43.69294" lon="5.82683">
        <ele>427</ele>
        <time>2016-01-03T09:33:17.612Z</time>
      </trkpt>
      <trkpt lat="43.69301" lon="5.8268">
        <ele>427</ele>
        <time>2016-01-03T09:33:18.634Z</time>
      </trkpt>
      <trkpt lat="43.69309" lon="5.82678">
        <ele>426</ele>
        <time>2016-01-03T09:33:19.611Z</time>
      </trkpt>
      <trkpt lat="43.69315" lon="5.82675">
        <ele>427</ele>
        <time>2016-01-03T09:33:20.635Z</time>
      </trkpt>
      <trkpt lat="43.69323" lon="5.82673">
        <ele>427</ele>
        <time>2016-01-03T09:33:21.612Z</time>
      </trkpt>
      <trkpt lat="43.6933" lon="5.8267">
        <ele>427</ele>
        <time>2016-01-03T09:33:22.856Z</time>
      </trkpt>
      <trkpt lat="43.69337" lon="5.82668">
        <ele>427</ele>
        <time>2016-01-03T09:33:23.613Z</time>
      </trkpt>
      <trkpt lat="43.69344" lon="5.82666">
        <ele>426</ele>
        <time>2016-01-03T09:33:24.637Z</time>
      </trkpt>
      <trkpt lat="43.69351" lon="5.82666">
        <ele>427</ele>
        <time>2016-01-03T09:33:25.636Z</time>
      </trkpt>
      <trkpt lat="43.69358" lon="5.82664">
        <ele>427</ele>
        <time>2016-01-03T09:33:26.632Z</time>
      </trkpt>
      <trkpt lat="43.69364" lon="5.8266">
        <ele>427</ele>
        <time>2016-01-03T09:33:27.611Z</time>
      </trkpt>
      <trkpt lat="43.6937" lon="5.82656">
        <ele>426</ele>
        <time>2016-01-03T09:33:28.635Z</time>
      </trkpt>
      <trkpt lat="43.69373" lon="5.82649">
        <ele>426</ele>
        <time>2016-01-03T09:33:29.612Z</time>
      </trkpt>
      <trkpt lat="43.69373" lon="5.8264">
        <ele>425</ele>
        <time>2016-01-03T09:33:30.634Z</time>
      </trkpt>
      <trkpt lat="43.69372" lon="5.82632">
        <ele>424</ele>
        <time>2016-01-03T09:33:31.612Z</time>
      </trkpt>
      <trkpt lat="43.69371" lon="5.82624">
        <ele>424</ele>
        <time>2016-01-03T09:33:32.634Z</time>
      </trkpt>
      <trkpt lat="43.69371" lon="5.82615">
        <ele>423</ele>
        <time>2016-01-03T09:33:33.612Z</time>
      </trkpt>
      <trkpt lat="43.69373" lon="5.82606">
        <ele>422</ele>
        <time>2016-01-03T09:33:34.636Z</time>
      </trkpt>
      <trkpt lat="43.69375" lon="5.82597">
        <ele>422</ele>
        <time>2016-01-03T09:33:35.615Z</time>
      </trkpt>
      <trkpt lat="43.69378" lon="5.82589">
        <ele>422</ele>
        <time>2016-01-03T09:33:36.634Z</time>
      </trkpt>
      <trkpt lat="43.69382" lon="5.82581">
        <ele>423</ele>
        <time>2016-01-03T09:33:37.611Z</time>
      </trkpt>
      <trkpt lat="43.69386" lon="5.82574">
        <ele>423</ele>
        <time>2016-01-03T09:33:38.635Z</time>
      </trkpt>
      <trkpt lat="43.6939" lon="5.82567">
        <ele>424</ele>
        <time>2016-01-03T09:33:39.611Z</time>
      </trkpt>
      <trkpt lat="43.69393" lon="5.82558">
        <ele>423</ele>
        <time>2016-01-03T09:33:40.635Z</time>
      </trkpt>
      <trkpt lat="43.69393" lon="5.8255">
        <ele>422</ele>
        <time>2016-01-03T09:33:41.640Z</time>
      </trkpt>
      <trkpt lat="43.69392" lon="5.82541">
        <ele>421</ele>
        <time>2016-01-03T09:33:42.630Z</time>
      </trkpt>
      <trkpt lat="43.69391" lon="5.82533">
        <ele>421</ele>
        <time>2016-01-03T09:33:43.612Z</time>
      </trkpt>
      <trkpt lat="43.69394" lon="5.82525">
        <ele>421</ele>
        <time>2016-01-03T09:33:44.712Z</time>
      </trkpt>
      <trkpt lat="43.69399" lon="5.82521">
        <ele>420</ele>
        <time>2016-01-03T09:33:45.612Z</time>
      </trkpt>
      <trkpt lat="43.69405" lon="5.82518">
        <ele>420</ele>
        <time>2016-01-03T09:33:46.633Z</time>
      </trkpt>
      <trkpt lat="43.69412" lon="5.82516">
        <ele>420</ele>
        <time>2016-01-03T09:33:47.612Z</time>
      </trkpt>
      <trkpt lat="43.69418" lon="5.82513">
        <ele>420</ele>
        <time>2016-01-03T09:33:48.634Z</time>
      </trkpt>
      <trkpt lat="43.69425" lon="5.82512">
        <ele>419</ele>
        <time>2016-01-03T09:33:49.612Z</time>
      </trkpt>
      <trkpt lat="43.69432" lon="5.82509">
        <ele>419</ele>
        <time>2016-01-03T09:33:50.635Z</time>
      </trkpt>
      <trkpt lat="43.69438" lon="5.82507">
        <ele>419</ele>
        <time>2016-01-03T09:33:51.612Z</time>
      </trkpt>
      <trkpt lat="43.69445" lon="5.82504">
        <ele>420</ele>
        <time>2016-01-03T09:33:52.661Z</time>
      </trkpt>
      <trkpt lat="43.69451" lon="5.82501">
        <ele>420</ele>
        <time>2016-01-03T09:33:53.614Z</time>
      </trkpt>
      <trkpt lat="43.69457" lon="5.82499">
        <ele>419</ele>
        <time>2016-01-03T09:33:54.634Z</time>
      </trkpt>
      <trkpt lat="43.69463" lon="5.82498">
        <ele>420</ele>
        <time>2016-01-03T09:33:55.610Z</time>
      </trkpt>
      <trkpt lat="43.69468" lon="5.82496">
        <ele>420</ele>
        <time>2016-01-03T09:33:56.634Z</time>
      </trkpt>
      <trkpt lat="43.69474" lon="5.82496">
        <ele>419</ele>
        <time>2016-01-03T09:33:57.611Z</time>
      </trkpt>
      <trkpt lat="43.69481" lon="5.82494">
        <ele>420</ele>
        <time>2016-01-03T09:33:58.634Z</time>
      </trkpt>
      <trkpt lat="43.69487" lon="5.82494">
        <ele>420</ele>
        <time>2016-01-03T09:33:59.613Z</time>
      </trkpt>
      <trkpt lat="43.69492" lon="5.82495">
        <ele>420</ele>
        <time>2016-01-03T09:34:00.634Z</time>
      </trkpt>
      <trkpt lat="43.69498" lon="5.82494">
        <ele>422</ele>
        <time>2016-01-03T09:34:01.612Z</time>
      </trkpt>
      <trkpt lat="43.69502" lon="5.82493">
        <ele>422</ele>
        <time>2016-01-03T09:34:02.635Z</time>
      </trkpt>
      <trkpt lat="43.69508" lon="5.82492">
        <ele>422</ele>
        <time>2016-01-03T09:34:03.638Z</time>
      </trkpt>
      <trkpt lat="43.69513" lon="5.8249">
        <ele>422</ele>
        <time>2016-01-03T09:34:04.640Z</time>
      </trkpt>
      <trkpt lat="43.69518" lon="5.82487">
        <ele>422</ele>
        <time>2016-01-03T09:34:05.610Z</time>
      </trkpt>
      <trkpt lat="43.69522" lon="5.82484">
        <ele>423</ele>
        <time>2016-01-03T09:34:06.635Z</time>
      </trkpt>
      <trkpt lat="43.69526" lon="5.8248">
        <ele>423</ele>
        <time>2016-01-03T09:34:07.612Z</time>
      </trkpt>
      <trkpt lat="43.6953" lon="5.82476">
        <ele>424</ele>
        <time>2016-01-03T09:34:08.635Z</time>
      </trkpt>
      <trkpt lat="43.69534" lon="5.82472">
        <ele>425</ele>
        <time>2016-01-03T09:34:09.612Z</time>
      </trkpt>
      <trkpt lat="43.69538" lon="5.82468">
        <ele>426</ele>
        <time>2016-01-03T09:34:10.636Z</time>
      </trkpt>
      <trkpt lat="43.69541" lon="5.82463">
        <ele>426</ele>
        <time>2016-01-03T09:34:11.613Z</time>
      </trkpt>
      <trkpt lat="43.69546" lon="5.82458">
        <ele>426</ele>
        <time>2016-01-03T09:34:12.636Z</time>
      </trkpt>
      <trkpt lat="43.69549" lon="5.82454">
        <ele>426</ele>
        <time>2016-01-03T09:34:13.612Z</time>
      </trkpt>
      <trkpt lat="43.69556" lon="5.82446">
        <ele>427</ele>
        <time>2016-01-03T09:34:15.629Z</time>
      </trkpt>
      <trkpt lat="43.69558" lon="5.82443">
        <ele>426</ele>
        <time>2016-01-03T09:34:16.612Z</time>
      </trkpt>
      <trkpt lat="43.69565" lon="5.82436">
        <ele>425</ele>
        <time>2016-01-03T09:34:39.634Z</time>
      </trkpt>
      <trkpt lat="43.69566" lon="5.82435">
        <ele>426</ele>
        <time>2016-01-03T09:34:40.612Z</time>
      </trkpt>
      <trkpt lat="43.69573" lon="5.82426">
        <ele>427</ele>
        <time>2016-01-03T09:34:55.634Z</time>
      </trkpt>
      <trkpt lat="43.69576" lon="5.82423">
        <ele>426</ele>
        <time>2016-01-03T09:34:56.612Z</time>
      </trkpt>
      <trkpt lat="43.69581" lon="5.82415">
        <ele>427</ele>
        <time>2016-01-03T09:34:58.634Z</time>
      </trkpt>
      <trkpt lat="43.69585" lon="5.82407">
        <ele>427</ele>
        <time>2016-01-03T09:34:59.612Z</time>
      </trkpt>
      <trkpt lat="43.69588" lon="5.82401">
        <ele>428</ele>
        <time>2016-01-03T09:35:00.635Z</time>
      </trkpt>
      <trkpt lat="43.69591" lon="5.82395">
        <ele>427</ele>
        <time>2016-01-03T09:35:01.612Z</time>
      </trkpt>
      <trkpt lat="43.69594" lon="5.82389">
        <ele>427</ele>
        <time>2016-01-03T09:35:02.635Z</time>
      </trkpt>
      <trkpt lat="43.69597" lon="5.82382">
        <ele>427</ele>
        <time>2016-01-03T09:35:03.639Z</time>
      </trkpt>
      <trkpt lat="43.696" lon="5.82375">
        <ele>427</ele>
        <time>2016-01-03T09:35:04.689Z</time>
      </trkpt>
      <trkpt lat="43.69603" lon="5.82368">
        <ele>426</ele>
        <time>2016-01-03T09:35:05.613Z</time>
      </trkpt>
      <trkpt lat="43.69606" lon="5.82361">
        <ele>425</ele>
        <time>2016-01-03T09:35:06.636Z</time>
      </trkpt>
      <trkpt lat="43.69609" lon="5.82354">
        <ele>425</ele>
        <time>2016-01-03T09:35:07.613Z</time>
      </trkpt>
      <trkpt lat="43.69613" lon="5.82347">
        <ele>424</ele>
        <time>2016-01-03T09:35:08.636Z</time>
      </trkpt>
      <trkpt lat="43.69616" lon="5.8234">
        <ele>424</ele>
        <time>2016-01-03T09:35:09.612Z</time>
      </trkpt>
      <trkpt lat="43.69621" lon="5.82334">
        <ele>424</ele>
        <time>2016-01-03T09:35:10.635Z</time>
      </trkpt>
      <trkpt lat="43.69624" lon="5.82328">
        <ele>424</ele>
        <time>2016-01-03T09:35:11.613Z</time>
      </trkpt>
      <trkpt lat="43.69629" lon="5.82321">
        <ele>424</ele>
        <time>2016-01-03T09:35:12.634Z</time>
      </trkpt>
      <trkpt lat="43.69633" lon="5.82315">
        <ele>423</ele>
        <time>2016-01-03T09:35:13.612Z</time>
      </trkpt>
      <trkpt lat="43.69636" lon="5.82308">
        <ele>423</ele>
        <time>2016-01-03T09:35:14.668Z</time>
      </trkpt>
      <trkpt lat="43.6964" lon="5.82301">
        <ele>422</ele>
        <time>2016-01-03T09:35:15.612Z</time>
      </trkpt>
      <trkpt lat="43.69644" lon="5.82294">
        <ele>422</ele>
        <time>2016-01-03T09:35:16.636Z</time>
      </trkpt>
      <trkpt lat="43.69647" lon="5.82287">
        <ele>422</ele>
        <time>2016-01-03T09:35:17.613Z</time>
      </trkpt>
      <trkpt lat="43.6965" lon="5.8228">
        <ele>421</ele>
        <time>2016-01-03T09:35:18.635Z</time>
      </trkpt>
      <trkpt lat="43.69653" lon="5.82273">
        <ele>421</ele>
        <time>2016-01-03T09:35:19.613Z</time>
      </trkpt>
      <trkpt lat="43.69657" lon="5.82267">
        <ele>421</ele>
        <time>2016-01-03T09:35:20.635Z</time>
      </trkpt>
      <trkpt lat="43.69659" lon="5.82259">
        <ele>421</ele>
        <time>2016-01-03T09:35:21.612Z</time>
      </trkpt>
      <trkpt lat="43.69664" lon="5.82254">
        <ele>421</ele>
        <time>2016-01-03T09:35:22.637Z</time>
      </trkpt>
      <trkpt lat="43.69668" lon="5.82249">
        <ele>421</ele>
        <time>2016-01-03T09:35:23.612Z</time>
      </trkpt>
      <trkpt lat="43.69673" lon="5.82245">
        <ele>421</ele>
        <time>2016-01-03T09:35:24.630Z</time>
      </trkpt>
      <trkpt lat="43.69678" lon="5.82243">
        <ele>422</ele>
        <time>2016-01-03T09:35:25.638Z</time>
      </trkpt>
      <trkpt lat="43.69684" lon="5.82241">
        <ele>421</ele>
        <time>2016-01-03T09:35:26.635Z</time>
      </trkpt>
      <trkpt lat="43.6969" lon="5.82239">
        <ele>421</ele>
        <time>2016-01-03T09:35:27.612Z</time>
      </trkpt>
      <trkpt lat="43.69695" lon="5.82237">
        <ele>421</ele>
        <time>2016-01-03T09:35:28.635Z</time>
      </trkpt>
      <trkpt lat="43.697" lon="5.82235">
        <ele>422</ele>
        <time>2016-01-03T09:35:29.613Z</time>
      </trkpt>
      <trkpt lat="43.69707" lon="5.82234">
        <ele>422</ele>
        <time>2016-01-03T09:35:30.635Z</time>
      </trkpt>
      <trkpt lat="43.69712" lon="5.82233">
        <ele>422</ele>
        <time>2016-01-03T09:35:31.612Z</time>
      </trkpt>
      <trkpt lat="43.69717" lon="5.82229">
        <ele>422</ele>
        <time>2016-01-03T09:35:32.635Z</time>
      </trkpt>
      <trkpt lat="43.6972" lon="5.82223">
        <ele>422</ele>
        <time>2016-01-03T09:35:33.612Z</time>
      </trkpt>
      <trkpt lat="43.69723" lon="5.82217">
        <ele>422</ele>
        <time>2016-01-03T09:35:34.640Z</time>
      </trkpt>
      <trkpt lat="43.69726" lon="5.8221">
        <ele>422</ele>
        <time>2016-01-03T09:35:35.613Z</time>
      </trkpt>
      <trkpt lat="43.69728" lon="5.82204">
        <ele>421</ele>
        <time>2016-01-03T09:35:36.634Z</time>
      </trkpt>
      <trkpt lat="43.69729" lon="5.82196">
        <ele>421</ele>
        <time>2016-01-03T09:35:37.613Z</time>
      </trkpt>
      <trkpt lat="43.6973" lon="5.82186">
        <ele>420</ele>
        <time>2016-01-03T09:35:38.636Z</time>
      </trkpt>
      <trkpt lat="43.69731" lon="5.82178">
        <ele>420</ele>
        <time>2016-01-03T09:35:39.614Z</time>
      </trkpt>
      <trkpt lat="43.69733" lon="5.82169">
        <ele>419</ele>
        <time>2016-01-03T09:35:40.635Z</time>
      </trkpt>
      <trkpt lat="43.69734" lon="5.8216">
        <ele>418</ele>
        <time>2016-01-03T09:35:41.639Z</time>
      </trkpt>
      <trkpt lat="43.69736" lon="5.82152">
        <ele>418</ele>
        <time>2016-01-03T09:35:42.633Z</time>
      </trkpt>
      <trkpt lat="43.69737" lon="5.82142">
        <ele>418</ele>
        <time>2016-01-03T09:35:43.611Z</time>
      </trkpt>
      <trkpt lat="43.69739" lon="5.82133">
        <ele>417</ele>
        <time>2016-01-03T09:35:44.639Z</time>
      </trkpt>
      <trkpt lat="43.69742" lon="5.82125">
        <ele>417</ele>
        <time>2016-01-03T09:35:45.613Z</time>
      </trkpt>
      <trkpt lat="43.69747" lon="5.82118">
        <ele>416</ele>
        <time>2016-01-03T09:35:46.633Z</time>
      </trkpt>
      <trkpt lat="43.69751" lon="5.82111">
        <ele>415</ele>
        <time>2016-01-03T09:35:47.616Z</time>
      </trkpt>
      <trkpt lat="43.69757" lon="5.82103">
        <ele>415</ele>
        <time>2016-01-03T09:35:48.637Z</time>
      </trkpt>
      <trkpt lat="43.69761" lon="5.82094">
        <ele>414</ele>
        <time>2016-01-03T09:35:49.613Z</time>
      </trkpt>
      <trkpt lat="43.69764" lon="5.82084">
        <ele>414</ele>
        <time>2016-01-03T09:35:50.637Z</time>
      </trkpt>
      <trkpt lat="43.69766" lon="5.82073">
        <ele>413</ele>
        <time>2016-01-03T09:35:51.613Z</time>
      </trkpt>
      <trkpt lat="43.69767" lon="5.82062">
        <ele>413</ele>
        <time>2016-01-03T09:35:52.663Z</time>
      </trkpt>
      <trkpt lat="43.69767" lon="5.82052">
        <ele>412</ele>
        <time>2016-01-03T09:35:53.612Z</time>
      </trkpt>
      <trkpt lat="43.69768" lon="5.82042">
        <ele>412</ele>
        <time>2016-01-03T09:35:54.635Z</time>
      </trkpt>
      <trkpt lat="43.69769" lon="5.82032">
        <ele>411</ele>
        <time>2016-01-03T09:35:55.613Z</time>
      </trkpt>
      <trkpt lat="43.69772" lon="5.82023">
        <ele>409</ele>
        <time>2016-01-03T09:35:56.635Z</time>
      </trkpt>
      <trkpt lat="43.69776" lon="5.82015">
        <ele>410</ele>
        <time>2016-01-03T09:35:57.615Z</time>
      </trkpt>
      <trkpt lat="43.69781" lon="5.82008">
        <ele>411</ele>
        <time>2016-01-03T09:35:58.638Z</time>
      </trkpt>
      <trkpt lat="43.69787" lon="5.82002">
        <ele>412</ele>
        <time>2016-01-03T09:35:59.615Z</time>
      </trkpt>
      <trkpt lat="43.69793" lon="5.81997">
        <ele>411</ele>
        <time>2016-01-03T09:36:00.639Z</time>
      </trkpt>
      <trkpt lat="43.69798" lon="5.8199">
        <ele>411</ele>
        <time>2016-01-03T09:36:01.612Z</time>
      </trkpt>
      <trkpt lat="43.69804" lon="5.81984">
        <ele>411</ele>
        <time>2016-01-03T09:36:02.637Z</time>
      </trkpt>
      <trkpt lat="43.6981" lon="5.81978">
        <ele>410</ele>
        <time>2016-01-03T09:36:03.640Z</time>
      </trkpt>
      <trkpt lat="43.69817" lon="5.81972">
        <ele>410</ele>
        <time>2016-01-03T09:36:04.846Z</time>
      </trkpt>
      <trkpt lat="43.69824" lon="5.81965">
        <ele>410</ele>
        <time>2016-01-03T09:36:05.613Z</time>
      </trkpt>
      <trkpt lat="43.69831" lon="5.81959">
        <ele>410</ele>
        <time>2016-01-03T09:36:06.647Z</time>
      </trkpt>
      <trkpt lat="43.69837" lon="5.81951">
        <ele>409</ele>
        <time>2016-01-03T09:36:07.613Z</time>
      </trkpt>
      <trkpt lat="43.69843" lon="5.81944">
        <ele>409</ele>
        <time>2016-01-03T09:36:08.635Z</time>
      </trkpt>
      <trkpt lat="43.69849" lon="5.81936">
        <ele>408</ele>
        <time>2016-01-03T09:36:09.616Z</time>
      </trkpt>
      <trkpt lat="43.69854" lon="5.81927">
        <ele>408</ele>
        <time>2016-01-03T09:36:10.637Z</time>
      </trkpt>
      <trkpt lat="43.69859" lon="5.81919">
        <ele>407</ele>
        <time>2016-01-03T09:36:11.612Z</time>
      </trkpt>
      <trkpt lat="43.69864" lon="5.81909">
        <ele>407</ele>
        <time>2016-01-03T09:36:12.636Z</time>
      </trkpt>
      <trkpt lat="43.69868" lon="5.81899">
        <ele>407</ele>
        <time>2016-01-03T09:36:13.612Z</time>
      </trkpt>
      <trkpt lat="43.69872" lon="5.81889">
        <ele>406</ele>
        <time>2016-01-03T09:36:14.664Z</time>
      </trkpt>
      <trkpt lat="43.69875" lon="5.81877">
        <ele>405</ele>
        <time>2016-01-03T09:36:15.613Z</time>
      </trkpt>
      <trkpt lat="43.69877" lon="5.81866">
        <ele>404</ele>
        <time>2016-01-03T09:36:16.646Z</time>
      </trkpt>
      <trkpt lat="43.69878" lon="5.81855">
        <ele>404</ele>
        <time>2016-01-03T09:36:17.613Z</time>
      </trkpt>
      <trkpt lat="43.69879" lon="5.81844">
        <ele>402</ele>
        <time>2016-01-03T09:36:18.639Z</time>
      </trkpt>
      <trkpt lat="43.6988" lon="5.81832">
        <ele>401</ele>
        <time>2016-01-03T09:36:19.613Z</time>
      </trkpt>
      <trkpt lat="43.69882" lon="5.8182">
        <ele>400</ele>
        <time>2016-01-03T09:36:20.636Z</time>
      </trkpt>
      <trkpt lat="43.69885" lon="5.81809">
        <ele>399</ele>
        <time>2016-01-03T09:36:21.617Z</time>
      </trkpt>
      <trkpt lat="43.6989" lon="5.81799">
        <ele>399</ele>
        <time>2016-01-03T09:36:22.641Z</time>
      </trkpt>
      <trkpt lat="43.69896" lon="5.81791">
        <ele>399</ele>
        <time>2016-01-03T09:36:23.613Z</time>
      </trkpt>
      <trkpt lat="43.69901" lon="5.81783">
        <ele>400</ele>
        <time>2016-01-03T09:36:24.637Z</time>
      </trkpt>
      <trkpt lat="43.69905" lon="5.81775">
        <ele>401</ele>
        <time>2016-01-03T09:36:25.639Z</time>
      </trkpt>
      <trkpt lat="43.69909" lon="5.81767">
        <ele>401</ele>
        <time>2016-01-03T09:36:26.635Z</time>
      </trkpt>
      <trkpt lat="43.69913" lon="5.8176">
        <ele>401</ele>
        <time>2016-01-03T09:36:27.613Z</time>
      </trkpt>
      <trkpt lat="43.69916" lon="5.81753">
        <ele>401</ele>
        <time>2016-01-03T09:36:28.634Z</time>
      </trkpt>
      <trkpt lat="43.69919" lon="5.81745">
        <ele>400</ele>
        <time>2016-01-03T09:36:29.613Z</time>
      </trkpt>
      <trkpt lat="43.69923" lon="5.81736">
        <ele>399</ele>
        <time>2016-01-03T09:36:30.679Z</time>
      </trkpt>
      <trkpt lat="43.69928" lon="5.81727">
        <ele>398</ele>
        <time>2016-01-03T09:36:31.613Z</time>
      </trkpt>
      <trkpt lat="43.69932" lon="5.81718">
        <ele>398</ele>
        <time>2016-01-03T09:36:32.635Z</time>
      </trkpt>
      <trkpt lat="43.69936" lon="5.81709">
        <ele>399</ele>
        <time>2016-01-03T09:36:33.612Z</time>
      </trkpt>
      <trkpt lat="43.69939" lon="5.81702">
        <ele>399</ele>
        <time>2016-01-03T09:36:34.634Z</time>
      </trkpt>
      <trkpt lat="43.69942" lon="5.81697">
        <ele>399</ele>
        <time>2016-01-03T09:36:35.613Z</time>
      </trkpt>
      <trkpt lat="43.69948" lon="5.81689">
        <ele>402</ele>
        <time>2016-01-03T09:36:38.635Z</time>
      </trkpt>
      <trkpt lat="43.69949" lon="5.81687">
        <ele>403</ele>
        <time>2016-01-03T09:36:39.612Z</time>
      </trkpt>
      <trkpt lat="43.69955" lon="5.81682">
        <ele>406</ele>
        <time>2016-01-03T09:36:43.635Z</time>
      </trkpt>
      <trkpt lat="43.69957" lon="5.8168">
        <ele>407</ele>
        <time>2016-01-03T09:36:44.614Z</time>
      </trkpt>
      <trkpt lat="43.69963" lon="5.81674">
        <ele>408</ele>
        <time>2016-01-03T09:36:48.635Z</time>
      </trkpt>
      <trkpt lat="43.69964" lon="5.81672">
        <ele>408</ele>
        <time>2016-01-03T09:36:49.613Z</time>
      </trkpt>
      <trkpt lat="43.6997" lon="5.81664">
        <ele>410</ele>
        <time>2016-01-03T09:36:53.636Z</time>
      </trkpt>
      <trkpt lat="43.69971" lon="5.81662">
        <ele>410</ele>
        <time>2016-01-03T09:36:54.612Z</time>
      </trkpt>
      <trkpt lat="43.69977" lon="5.81654">
        <ele>411</ele>
        <time>2016-01-03T09:36:58.663Z</time>
      </trkpt>
      <trkpt lat="43.69979" lon="5.81653">
        <ele>411</ele>
        <time>2016-01-03T09:36:59.613Z</time>
      </trkpt>
      <trkpt lat="43.69985" lon="5.81646">
        <ele>412</ele>
        <time>2016-01-03T09:37:03.635Z</time>
      </trkpt>
      <trkpt lat="43.69987" lon="5.81644">
        <ele>412</ele>
        <time>2016-01-03T09:37:04.614Z</time>
      </trkpt>
      <trkpt lat="43.69992" lon="5.81639">
        <ele>412</ele>
        <time>2016-01-03T09:37:06.635Z</time>
      </trkpt>
      <trkpt lat="43.69995" lon="5.81636">
        <ele>412</ele>
        <time>2016-01-03T09:37:07.614Z</time>
      </trkpt>
      <trkpt lat="43.7" lon="5.8163">
        <ele>412</ele>
        <time>2016-01-03T09:37:09.662Z</time>
      </trkpt>
      <trkpt lat="43.70004" lon="5.81627">
        <ele>411</ele>
        <time>2016-01-03T09:37:10.612Z</time>
      </trkpt>
      <trkpt lat="43.70007" lon="5.81623">
        <ele>410</ele>
        <time>2016-01-03T09:37:11.636Z</time>
      </trkpt>
      <trkpt lat="43.70011" lon="5.81618">
        <ele>410</ele>
        <time>2016-01-03T09:37:12.612Z</time>
      </trkpt>
      <trkpt lat="43.70018" lon="5.81611">
        <ele>408</ele>
        <time>2016-01-03T09:37:15.620Z</time>
      </trkpt>
      <trkpt lat="43.7002" lon="5.81614">
        <ele>408</ele>
        <time>2016-01-03T09:37:16.603Z</time>
      </trkpt>
      <trkpt lat="43.70022" lon="5.81624">
        <ele>407</ele>
        <time>2016-01-03T09:37:18.637Z</time>
      </trkpt>
      <trkpt lat="43.70023" lon="5.81631">
        <ele>406</ele>
        <time>2016-01-03T09:37:19.667Z</time>
      </trkpt>
      <trkpt lat="43.70024" lon="5.81638">
        <ele>405</ele>
        <time>2016-01-03T09:37:20.635Z</time>
      </trkpt>
      <trkpt lat="43.70027" lon="5.81646">
        <ele>403</ele>
        <time>2016-01-03T09:37:21.612Z</time>
      </trkpt>
      <trkpt lat="43.70031" lon="5.81651">
        <ele>402</ele>
        <time>2016-01-03T09:37:22.639Z</time>
      </trkpt>
      <trkpt lat="43.70036" lon="5.81655">
        <ele>401</ele>
        <time>2016-01-03T09:37:23.612Z</time>
      </trkpt>
      <trkpt lat="43.70044" lon="5.81657">
        <ele>399</ele>
        <time>2016-01-03T09:37:25.663Z</time>
      </trkpt>
      <trkpt lat="43.70047" lon="5.81656">
        <ele>399</ele>
        <time>2016-01-03T09:37:26.611Z</time>
      </trkpt>
      <trkpt lat="43.70051" lon="5.81649">
        <ele>397</ele>
        <time>2016-01-03T09:37:28.636Z</time>
      </trkpt>
      <trkpt lat="43.70052" lon="5.81643">
        <ele>397</ele>
        <time>2016-01-03T09:37:29.612Z</time>
      </trkpt>
      <trkpt lat="43.70054" lon="5.81637">
        <ele>397</ele>
        <time>2016-01-03T09:37:30.636Z</time>
      </trkpt>
      <trkpt lat="43.70056" lon="5.8163">
        <ele>396</ele>
        <time>2016-01-03T09:37:31.613Z</time>
      </trkpt>
      <trkpt lat="43.70058" lon="5.81624">
        <ele>395</ele>
        <time>2016-01-03T09:37:32.634Z</time>
      </trkpt>
      <trkpt lat="43.70062" lon="5.81619">
        <ele>396</ele>
        <time>2016-01-03T09:37:33.616Z</time>
      </trkpt>
      <trkpt lat="43.70066" lon="5.81615">
        <ele>394</ele>
        <time>2016-01-03T09:37:34.636Z</time>
      </trkpt>
      <trkpt lat="43.70072" lon="5.8161">
        <ele>393</ele>
        <time>2016-01-03T09:37:35.614Z</time>
      </trkpt>
      <trkpt lat="43.70077" lon="5.81604">
        <ele>394</ele>
        <time>2016-01-03T09:37:36.663Z</time>
      </trkpt>
      <trkpt lat="43.70082" lon="5.81599">
        <ele>393</ele>
        <time>2016-01-03T09:37:37.613Z</time>
      </trkpt>
      <trkpt lat="43.70086" lon="5.81593">
        <ele>394</ele>
        <time>2016-01-03T09:37:38.675Z</time>
      </trkpt>
      <trkpt lat="43.7009" lon="5.81587">
        <ele>395</ele>
        <time>2016-01-03T09:37:39.614Z</time>
      </trkpt>
      <trkpt lat="43.70094" lon="5.81582">
        <ele>394</ele>
        <time>2016-01-03T09:37:40.635Z</time>
      </trkpt>
      <trkpt lat="43.70098" lon="5.81577">
        <ele>394</ele>
        <time>2016-01-03T09:37:41.613Z</time>
      </trkpt>
      <trkpt lat="43.701" lon="5.8157">
        <ele>394</ele>
        <time>2016-01-03T09:37:42.635Z</time>
      </trkpt>
      <trkpt lat="43.70103" lon="5.81563">
        <ele>394</ele>
        <time>2016-01-03T09:37:43.614Z</time>
      </trkpt>
      <trkpt lat="43.70103" lon="5.81556">
        <ele>394</ele>
        <time>2016-01-03T09:37:44.639Z</time>
      </trkpt>
      <trkpt lat="43.70105" lon="5.81549">
        <ele>394</ele>
        <time>2016-01-03T09:37:45.614Z</time>
      </trkpt>
      <trkpt lat="43.70106" lon="5.81542">
        <ele>394</ele>
        <time>2016-01-03T09:37:46.854Z</time>
      </trkpt>
      <trkpt lat="43.70108" lon="5.81535">
        <ele>394</ele>
        <time>2016-01-03T09:37:47.615Z</time>
      </trkpt>
      <trkpt lat="43.70111" lon="5.81529">
        <ele>394</ele>
        <time>2016-01-03T09:37:48.636Z</time>
      </trkpt>
      <trkpt lat="43.70115" lon="5.81524">
        <ele>394</ele>
        <time>2016-01-03T09:37:49.612Z</time>
      </trkpt>
      <trkpt lat="43.70119" lon="5.81521">
        <ele>395</ele>
        <time>2016-01-03T09:37:50.636Z</time>
      </trkpt>
      <trkpt lat="43.70123" lon="5.81517">
        <ele>395</ele>
        <time>2016-01-03T09:37:51.612Z</time>
      </trkpt>
      <trkpt lat="43.7013" lon="5.8151">
        <ele>395</ele>
        <time>2016-01-03T09:37:53.636Z</time>
      </trkpt>
      <trkpt lat="43.70133" lon="5.81507">
        <ele>396</ele>
        <time>2016-01-03T09:37:54.614Z</time>
      </trkpt>
      <trkpt lat="43.70141" lon="5.81502">
        <ele>394</ele>
        <time>2016-01-03T09:37:56.714Z</time>
      </trkpt>
      <trkpt lat="43.70145" lon="5.81499">
        <ele>393</ele>
        <time>2016-01-03T09:37:57.640Z</time>
      </trkpt>
      <trkpt lat="43.7015" lon="5.81495">
        <ele>392</ele>
        <time>2016-01-03T09:37:58.636Z</time>
      </trkpt>
      <trkpt lat="43.70156" lon="5.81492">
        <ele>391</ele>
        <time>2016-01-03T09:37:59.613Z</time>
      </trkpt>
      <trkpt lat="43.70161" lon="5.81489">
        <ele>391</ele>
        <time>2016-01-03T09:38:00.634Z</time>
      </trkpt>
      <trkpt lat="43.70167" lon="5.81486">
        <ele>390</ele>
        <time>2016-01-03T09:38:01.613Z</time>
      </trkpt>
      <trkpt lat="43.70172" lon="5.81485">
        <ele>389</ele>
        <time>2016-01-03T09:38:02.636Z</time>
      </trkpt>
      <trkpt lat="43.70178" lon="5.81484">
        <ele>388</ele>
        <time>2016-01-03T09:38:03.613Z</time>
      </trkpt>
      <trkpt lat="43.70184" lon="5.81482">
        <ele>386</ele>
        <time>2016-01-03T09:38:04.639Z</time>
      </trkpt>
      <trkpt lat="43.70191" lon="5.81477">
        <ele>385</ele>
        <time>2016-01-03T09:38:05.613Z</time>
      </trkpt>
      <trkpt lat="43.70196" lon="5.81474">
        <ele>385</ele>
        <time>2016-01-03T09:38:06.636Z</time>
      </trkpt>
      <trkpt lat="43.702" lon="5.81469">
        <ele>384</ele>
        <time>2016-01-03T09:38:07.612Z</time>
      </trkpt>
      <trkpt lat="43.70202" lon="5.81464">
        <ele>383</ele>
        <time>2016-01-03T09:38:08.662Z</time>
      </trkpt>
      <trkpt lat="43.70206" lon="5.81458">
        <ele>383</ele>
        <time>2016-01-03T09:38:09.812Z</time>
      </trkpt>
      <trkpt lat="43.70211" lon="5.81451">
        <ele>383</ele>
        <time>2016-01-03T09:38:10.635Z</time>
      </trkpt>
      <trkpt lat="43.70215" lon="5.81445">
        <ele>382</ele>
        <time>2016-01-03T09:38:11.614Z</time>
      </trkpt>
      <trkpt lat="43.70219" lon="5.8144">
        <ele>382</ele>
        <time>2016-01-03T09:38:12.635Z</time>
      </trkpt>
      <trkpt lat="43.70224" lon="5.81435">
        <ele>382</ele>
        <time>2016-01-03T09:38:13.612Z</time>
      </trkpt>
      <trkpt lat="43.7023" lon="5.81431">
        <ele>381</ele>
        <time>2016-01-03T09:38:14.637Z</time>
      </trkpt>
      <trkpt lat="43.70235" lon="5.81425">
        <ele>379</ele>
        <time>2016-01-03T09:38:15.613Z</time>
      </trkpt>
      <trkpt lat="43.70238" lon="5.81418">
        <ele>378</ele>
        <time>2016-01-03T09:38:16.636Z</time>
      </trkpt>
      <trkpt lat="43.70242" lon="5.81411">
        <ele>378</ele>
        <time>2016-01-03T09:38:17.614Z</time>
      </trkpt>
      <trkpt lat="43.70245" lon="5.81402">
        <ele>377</ele>
        <time>2016-01-03T09:38:18.635Z</time>
      </trkpt>
      <trkpt lat="43.70248" lon="5.81394">
        <ele>376</ele>
        <time>2016-01-03T09:38:19.639Z</time>
      </trkpt>
      <trkpt lat="43.7025" lon="5.81385">
        <ele>376</ele>
        <time>2016-01-03T09:38:20.634Z</time>
      </trkpt>
      <trkpt lat="43.70252" lon="5.81379">
        <ele>375</ele>
        <time>2016-01-03T09:38:21.605Z</time>
      </trkpt>
      <trkpt lat="43.70246" lon="5.8137">
        <ele>376</ele>
        <time>2016-01-03T09:38:24.639Z</time>
      </trkpt>
      <trkpt lat="43.70243" lon="5.81368">
        <ele>376</ele>
        <time>2016-01-03T09:38:25.615Z</time>
      </trkpt>
      <trkpt lat="43.70238" lon="5.81361">
        <ele>375</ele>
        <time>2016-01-03T09:38:27.620Z</time>
      </trkpt>
      <trkpt lat="43.70234" lon="5.81357">
        <ele>374</ele>
        <time>2016-01-03T09:38:28.614Z</time>
      </trkpt>
      <trkpt lat="43.7023" lon="5.81352">
        <ele>373</ele>
        <time>2016-01-03T09:38:29.634Z</time>
      </trkpt>
      <trkpt lat="43.70225" lon="5.81348">
        <ele>372</ele>
        <time>2016-01-03T09:38:30.639Z</time>
      </trkpt>
      <trkpt lat="43.70219" lon="5.81345">
        <ele>372</ele>
        <time>2016-01-03T09:38:31.635Z</time>
      </trkpt>
      <trkpt lat="43.70215" lon="5.8134">
        <ele>371</ele>
        <time>2016-01-03T09:38:32.614Z</time>
      </trkpt>
      <trkpt lat="43.70211" lon="5.81334">
        <ele>371</ele>
        <time>2016-01-03T09:38:33.635Z</time>
      </trkpt>
      <trkpt lat="43.70206" lon="5.8133">
        <ele>371</ele>
        <time>2016-01-03T09:38:34.613Z</time>
      </trkpt>
      <trkpt lat="43.70201" lon="5.81326">
        <ele>371</ele>
        <time>2016-01-03T09:38:35.756Z</time>
      </trkpt>
      <trkpt lat="43.70196" lon="5.81321">
        <ele>371</ele>
        <time>2016-01-03T09:38:36.620Z</time>
      </trkpt>
      <trkpt lat="43.70192" lon="5.81316">
        <ele>371</ele>
        <time>2016-01-03T09:38:37.632Z</time>
      </trkpt>
      <trkpt lat="43.70188" lon="5.8131">
        <ele>371</ele>
        <time>2016-01-03T09:38:38.611Z</time>
      </trkpt>
      <trkpt lat="43.70184" lon="5.81304">
        <ele>370</ele>
        <time>2016-01-03T09:38:39.635Z</time>
      </trkpt>
      <trkpt lat="43.7018" lon="5.81296">
        <ele>370</ele>
        <time>2016-01-03T09:38:40.611Z</time>
      </trkpt>
      <trkpt lat="43.70176" lon="5.81289">
        <ele>370</ele>
        <time>2016-01-03T09:38:41.635Z</time>
      </trkpt>
      <trkpt lat="43.70173" lon="5.81282">
        <ele>370</ele>
        <time>2016-01-03T09:38:42.612Z</time>
      </trkpt>
      <trkpt lat="43.7017" lon="5.81274">
        <ele>370</ele>
        <time>2016-01-03T09:38:43.635Z</time>
      </trkpt>
      <trkpt lat="43.70168" lon="5.81267">
        <ele>369</ele>
        <time>2016-01-03T09:38:44.616Z</time>
      </trkpt>
      <trkpt lat="43.70166" lon="5.81259">
        <ele>370</ele>
        <time>2016-01-03T09:38:45.636Z</time>
      </trkpt>
      <trkpt lat="43.70167" lon="5.81251">
        <ele>369</ele>
        <time>2016-01-03T09:38:46.613Z</time>
      </trkpt>
      <trkpt lat="43.70166" lon="5.81243">
        <ele>369</ele>
        <time>2016-01-03T09:38:47.637Z</time>
      </trkpt>
      <trkpt lat="43.70167" lon="5.81235">
        <ele>369</ele>
        <time>2016-01-03T09:38:48.613Z</time>
      </trkpt>
      <trkpt lat="43.70169" lon="5.81226">
        <ele>368</ele>
        <time>2016-01-03T09:38:49.635Z</time>
      </trkpt>
      <trkpt lat="43.70171" lon="5.81218">
        <ele>367</ele>
        <time>2016-01-03T09:38:50.613Z</time>
      </trkpt>
      <trkpt lat="43.70173" lon="5.81209">
        <ele>367</ele>
        <time>2016-01-03T09:38:51.662Z</time>
      </trkpt>
      <trkpt lat="43.70174" lon="5.81201">
        <ele>368</ele>
        <time>2016-01-03T09:38:52.612Z</time>
      </trkpt>
      <trkpt lat="43.70175" lon="5.81192">
        <ele>368</ele>
        <time>2016-01-03T09:38:53.636Z</time>
      </trkpt>
      <trkpt lat="43.70178" lon="5.81185">
        <ele>368</ele>
        <time>2016-01-03T09:38:54.613Z</time>
      </trkpt>
      <trkpt lat="43.7018" lon="5.81176">
        <ele>368</ele>
        <time>2016-01-03T09:38:55.636Z</time>
      </trkpt>
      <trkpt lat="43.70181" lon="5.81168">
        <ele>367</ele>
        <time>2016-01-03T09:38:56.611Z</time>
      </trkpt>
      <trkpt lat="43.70185" lon="5.8116">
        <ele>368</ele>
        <time>2016-01-03T09:38:57.633Z</time>
      </trkpt>
      <trkpt lat="43.70188" lon="5.81153">
        <ele>368</ele>
        <time>2016-01-03T09:38:58.611Z</time>
      </trkpt>
      <trkpt lat="43.70195" lon="5.81145">
        <ele>369</ele>
        <time>2016-01-03T09:39:00.636Z</time>
      </trkpt>
      <trkpt lat="43.70198" lon="5.81141">
        <ele>369</ele>
        <time>2016-01-03T09:39:01.613Z</time>
      </trkpt>
      <trkpt lat="43.70204" lon="5.81134">
        <ele>369</ele>
        <time>2016-01-03T09:39:03.637Z</time>
      </trkpt>
      <trkpt lat="43.70206" lon="5.81131">
        <ele>370</ele>
        <time>2016-01-03T09:39:04.613Z</time>
      </trkpt>
      <trkpt lat="43.70212" lon="5.81121">
        <ele>370</ele>
        <time>2016-01-03T09:39:06.635Z</time>
      </trkpt>
      <trkpt lat="43.70214" lon="5.81115">
        <ele>370</ele>
        <time>2016-01-03T09:39:07.612Z</time>
      </trkpt>
      <trkpt lat="43.70216" lon="5.81108">
        <ele>370</ele>
        <time>2016-01-03T09:39:08.635Z</time>
      </trkpt>
      <trkpt lat="43.70218" lon="5.81101">
        <ele>369</ele>
        <time>2016-01-03T09:39:09.614Z</time>
      </trkpt>
      <trkpt lat="43.70219" lon="5.81094">
        <ele>369</ele>
        <time>2016-01-03T09:39:10.634Z</time>
      </trkpt>
      <trkpt lat="43.70221" lon="5.81086">
        <ele>369</ele>
        <time>2016-01-03T09:39:11.615Z</time>
      </trkpt>
      <trkpt lat="43.70223" lon="5.81079">
        <ele>369</ele>
        <time>2016-01-03T09:39:12.858Z</time>
      </trkpt>
      <trkpt lat="43.70224" lon="5.81072">
        <ele>369</ele>
        <time>2016-01-03T09:39:13.643Z</time>
      </trkpt>
      <trkpt lat="43.70225" lon="5.81064">
        <ele>369</ele>
        <time>2016-01-03T09:39:14.636Z</time>
      </trkpt>
      <trkpt lat="43.70228" lon="5.81057">
        <ele>369</ele>
        <time>2016-01-03T09:39:15.613Z</time>
      </trkpt>
      <trkpt lat="43.70229" lon="5.81049">
        <ele>368</ele>
        <time>2016-01-03T09:39:16.635Z</time>
      </trkpt>
      <trkpt lat="43.7023" lon="5.81042">
        <ele>368</ele>
        <time>2016-01-03T09:39:17.613Z</time>
      </trkpt>
      <trkpt lat="43.70231" lon="5.81034">
        <ele>368</ele>
        <time>2016-01-03T09:39:18.635Z</time>
      </trkpt>
      <trkpt lat="43.7023" lon="5.81028">
        <ele>369</ele>
        <time>2016-01-03T09:39:19.614Z</time>
      </trkpt>
      <trkpt lat="43.70231" lon="5.81021">
        <ele>368</ele>
        <time>2016-01-03T09:39:20.636Z</time>
      </trkpt>
      <trkpt lat="43.70229" lon="5.81013">
        <ele>369</ele>
        <time>2016-01-03T09:39:21.614Z</time>
      </trkpt>
      <trkpt lat="43.70229" lon="5.81006">
        <ele>369</ele>
        <time>2016-01-03T09:39:22.651Z</time>
      </trkpt>
      <trkpt lat="43.70229" lon="5.80998">
        <ele>369</ele>
        <time>2016-01-03T09:39:23.842Z</time>
      </trkpt>
      <trkpt lat="43.70229" lon="5.8099">
        <ele>369</ele>
        <time>2016-01-03T09:39:24.670Z</time>
      </trkpt>
      <trkpt lat="43.70229" lon="5.80983">
        <ele>367</ele>
        <time>2016-01-03T09:39:25.615Z</time>
      </trkpt>
      <trkpt lat="43.70229" lon="5.80976">
        <ele>368</ele>
        <time>2016-01-03T09:39:26.634Z</time>
      </trkpt>
      <trkpt lat="43.70228" lon="5.80968">
        <ele>366</ele>
        <time>2016-01-03T09:39:27.612Z</time>
      </trkpt>
      <trkpt lat="43.70226" lon="5.80961">
        <ele>366</ele>
        <time>2016-01-03T09:39:28.636Z</time>
      </trkpt>
      <trkpt lat="43.70224" lon="5.80953">
        <ele>364</ele>
        <time>2016-01-03T09:39:29.615Z</time>
      </trkpt>
      <trkpt lat="43.7022" lon="5.80947">
        <ele>364</ele>
        <time>2016-01-03T09:39:30.627Z</time>
      </trkpt>
      <trkpt lat="43.70216" lon="5.80943">
        <ele>364</ele>
        <time>2016-01-03T09:39:31.614Z</time>
      </trkpt>
      <trkpt lat="43.70211" lon="5.80942">
        <ele>364</ele>
        <time>2016-01-03T09:39:32.637Z</time>
      </trkpt>
      <trkpt lat="43.70206" lon="5.80942">
        <ele>364</ele>
        <time>2016-01-03T09:39:33.615Z</time>
      </trkpt>
      <trkpt lat="43.70201" lon="5.80942">
        <ele>363</ele>
        <time>2016-01-03T09:39:34.635Z</time>
      </trkpt>
      <trkpt lat="43.70195" lon="5.80942">
        <ele>363</ele>
        <time>2016-01-03T09:39:35.614Z</time>
      </trkpt>
      <trkpt lat="43.7019" lon="5.80941">
        <ele>363</ele>
        <time>2016-01-03T09:39:36.635Z</time>
      </trkpt>
      <trkpt lat="43.70184" lon="5.80939">
        <ele>362</ele>
        <time>2016-01-03T09:39:37.612Z</time>
      </trkpt>
      <trkpt lat="43.70178" lon="5.80939">
        <ele>363</ele>
        <time>2016-01-03T09:39:38.635Z</time>
      </trkpt>
      <trkpt lat="43.70173" lon="5.80941">
        <ele>362</ele>
        <time>2016-01-03T09:39:39.612Z</time>
      </trkpt>
      <trkpt lat="43.70168" lon="5.80942">
        <ele>362</ele>
        <time>2016-01-03T09:39:40.669Z</time>
      </trkpt>
      <trkpt lat="43.70163" lon="5.80943">
        <ele>362</ele>
        <time>2016-01-03T09:39:41.614Z</time>
      </trkpt>
      <trkpt lat="43.70158" lon="5.80945">
        <ele>361</ele>
        <time>2016-01-03T09:39:42.636Z</time>
      </trkpt>
      <trkpt lat="43.70153" lon="5.80948">
        <ele>361</ele>
        <time>2016-01-03T09:39:43.612Z</time>
      </trkpt>
      <trkpt lat="43.70148" lon="5.8095">
        <ele>361</ele>
        <time>2016-01-03T09:39:44.859Z</time>
      </trkpt>
      <trkpt lat="43.70144" lon="5.80951">
        <ele>360</ele>
        <time>2016-01-03T09:39:45.615Z</time>
      </trkpt>
      <trkpt lat="43.70138" lon="5.80952">
        <ele>360</ele>
        <time>2016-01-03T09:39:46.636Z</time>
      </trkpt>
      <trkpt lat="43.70133" lon="5.80952">
        <ele>360</ele>
        <time>2016-01-03T09:39:47.616Z</time>
      </trkpt>
      <trkpt lat="43.70128" lon="5.80955">
        <ele>359</ele>
        <time>2016-01-03T09:39:48.638Z</time>
      </trkpt>
      <trkpt lat="43.70124" lon="5.80959">
        <ele>359</ele>
        <time>2016-01-03T09:39:49.614Z</time>
      </trkpt>
      <trkpt lat="43.70119" lon="5.80961">
        <ele>358</ele>
        <time>2016-01-03T09:39:50.637Z</time>
      </trkpt>
      <trkpt lat="43.70114" lon="5.80965">
        <ele>355</ele>
        <time>2016-01-03T09:39:51.641Z</time>
      </trkpt>
      <trkpt lat="43.70109" lon="5.80969">
        <ele>355</ele>
        <time>2016-01-03T09:39:52.637Z</time>
      </trkpt>
      <trkpt lat="43.70105" lon="5.80974">
        <ele>355</ele>
        <time>2016-01-03T09:39:53.607Z</time>
      </trkpt>
      <trkpt lat="43.70101" lon="5.80979">
        <ele>356</ele>
        <time>2016-01-03T09:39:54.689Z</time>
      </trkpt>
      <trkpt lat="43.70097" lon="5.80982">
        <ele>355</ele>
        <time>2016-01-03T09:39:55.613Z</time>
      </trkpt>
      <trkpt lat="43.70093" lon="5.80986">
        <ele>355</ele>
        <time>2016-01-03T09:39:56.634Z</time>
      </trkpt>
      <trkpt lat="43.70088" lon="5.80989">
        <ele>354</ele>
        <time>2016-01-03T09:39:57.613Z</time>
      </trkpt>
      <trkpt lat="43.70083" lon="5.80992">
        <ele>354</ele>
        <time>2016-01-03T09:39:58.635Z</time>
      </trkpt>
      <trkpt lat="43.70078" lon="5.80994">
        <ele>353</ele>
        <time>2016-01-03T09:39:59.617Z</time>
      </trkpt>
      <trkpt lat="43.70073" lon="5.80995">
        <ele>352</ele>
        <time>2016-01-03T09:40:00.636Z</time>
      </trkpt>
      <trkpt lat="43.70068" lon="5.80997">
        <ele>352</ele>
        <time>2016-01-03T09:40:01.612Z</time>
      </trkpt>
      <trkpt lat="43.70063" lon="5.80997">
        <ele>352</ele>
        <time>2016-01-03T09:40:02.663Z</time>
      </trkpt>
      <trkpt lat="43.70058" lon="5.80997">
        <ele>352</ele>
        <time>2016-01-03T09:40:03.612Z</time>
      </trkpt>
      <trkpt lat="43.70054" lon="5.80994">
        <ele>352</ele>
        <time>2016-01-03T09:40:04.639Z</time>
      </trkpt>
      <trkpt lat="43.7005" lon="5.8099">
        <ele>352</ele>
        <time>2016-01-03T09:40:05.613Z</time>
      </trkpt>
      <trkpt lat="43.70045" lon="5.80985">
        <ele>353</ele>
        <time>2016-01-03T09:40:06.635Z</time>
      </trkpt>
      <trkpt lat="43.70041" lon="5.8098">
        <ele>353</ele>
        <time>2016-01-03T09:40:07.613Z</time>
      </trkpt>
      <trkpt lat="43.70038" lon="5.80973">
        <ele>353</ele>
        <time>2016-01-03T09:40:08.634Z</time>
      </trkpt>
      <trkpt lat="43.70036" lon="5.80967">
        <ele>353</ele>
        <time>2016-01-03T09:40:09.612Z</time>
      </trkpt>
      <trkpt lat="43.70033" lon="5.80963">
        <ele>353</ele>
        <time>2016-01-03T09:40:10.637Z</time>
      </trkpt>
      <trkpt lat="43.70031" lon="5.80957">
        <ele>353</ele>
        <time>2016-01-03T09:40:11.612Z</time>
      </trkpt>
      <trkpt lat="43.70028" lon="5.8095">
        <ele>353</ele>
        <time>2016-01-03T09:40:12.636Z</time>
      </trkpt>
      <trkpt lat="43.70026" lon="5.80944">
        <ele>353</ele>
        <time>2016-01-03T09:40:13.642Z</time>
      </trkpt>
      <trkpt lat="43.70026" lon="5.80937">
        <ele>353</ele>
        <time>2016-01-03T09:40:14.631Z</time>
      </trkpt>
      <trkpt lat="43.70026" lon="5.80929">
        <ele>354</ele>
        <time>2016-01-03T09:40:15.614Z</time>
      </trkpt>
      <trkpt lat="43.70024" lon="5.80918">
        <ele>355</ele>
        <time>2016-01-03T09:40:17.638Z</time>
      </trkpt>
      <trkpt lat="43.70024" lon="5.80911">
        <ele>356</ele>
        <time>2016-01-03T09:40:18.614Z</time>
      </trkpt>
      <trkpt lat="43.70024" lon="5.80903">
        <ele>357</ele>
        <time>2016-01-03T09:40:19.637Z</time>
      </trkpt>
      <trkpt lat="43.70025" lon="5.80898">
        <ele>357</ele>
        <time>2016-01-03T09:40:20.613Z</time>
      </trkpt>
      <trkpt lat="43.70024" lon="5.80891">
        <ele>357</ele>
        <time>2016-01-03T09:40:21.635Z</time>
      </trkpt>
      <trkpt lat="43.70024" lon="5.80884">
        <ele>357</ele>
        <time>2016-01-03T09:40:22.617Z</time>
      </trkpt>
      <trkpt lat="43.70024" lon="5.80878">
        <ele>357</ele>
        <time>2016-01-03T09:40:23.709Z</time>
      </trkpt>
      <trkpt lat="43.70026" lon="5.80871">
        <ele>358</ele>
        <time>2016-01-03T09:40:24.640Z</time>
      </trkpt>
      <trkpt lat="43.70027" lon="5.80865">
        <ele>358</ele>
        <time>2016-01-03T09:40:25.635Z</time>
      </trkpt>
      <trkpt lat="43.70031" lon="5.8086">
        <ele>358</ele>
        <time>2016-01-03T09:40:26.610Z</time>
      </trkpt>
      <trkpt lat="43.70033" lon="5.80854">
        <ele>358</ele>
        <time>2016-01-03T09:40:27.635Z</time>
      </trkpt>
      <trkpt lat="43.70036" lon="5.80848">
        <ele>359</ele>
        <time>2016-01-03T09:40:28.842Z</time>
      </trkpt>
      <trkpt lat="43.7004" lon="5.80842">
        <ele>359</ele>
        <time>2016-01-03T09:40:29.696Z</time>
      </trkpt>
      <trkpt lat="43.70039" lon="5.80834">
        <ele>360</ele>
        <time>2016-01-03T09:40:30.614Z</time>
      </trkpt>
      <trkpt lat="43.70042" lon="5.80827">
        <ele>359</ele>
        <time>2016-01-03T09:40:31.639Z</time>
      </trkpt>
      <trkpt lat="43.70044" lon="5.80819">
        <ele>360</ele>
        <time>2016-01-03T09:40:32.623Z</time>
      </trkpt>
      <trkpt lat="43.70045" lon="5.80812">
        <ele>359</ele>
        <time>2016-01-03T09:40:33.635Z</time>
      </trkpt>
      <trkpt lat="43.70047" lon="5.80807">
        <ele>360</ele>
        <time>2016-01-03T09:40:34.617Z</time>
      </trkpt>
      <trkpt lat="43.70055" lon="5.80802">
        <ele>360</ele>
        <time>2016-01-03T09:40:36.873Z</time>
      </trkpt>
      <trkpt lat="43.7006" lon="5.80802">
        <ele>360</ele>
        <time>2016-01-03T09:40:37.616Z</time>
      </trkpt>
      <trkpt lat="43.70066" lon="5.80802">
        <ele>360</ele>
        <time>2016-01-03T09:40:38.638Z</time>
      </trkpt>
      <trkpt lat="43.70071" lon="5.80802">
        <ele>360</ele>
        <time>2016-01-03T09:40:39.614Z</time>
      </trkpt>
      <trkpt lat="43.70077" lon="5.80802">
        <ele>360</ele>
        <time>2016-01-03T09:40:40.664Z</time>
      </trkpt>
      <trkpt lat="43.70082" lon="5.80801">
        <ele>361</ele>
        <time>2016-01-03T09:40:41.614Z</time>
      </trkpt>
      <trkpt lat="43.7009" lon="5.80798">
        <ele>361</ele>
        <time>2016-01-03T09:40:43.635Z</time>
      </trkpt>
      <trkpt lat="43.70092" lon="5.808">
        <ele>361</ele>
        <time>2016-01-03T09:40:44.613Z</time>
      </trkpt>
      <trkpt lat="43.70095" lon="5.80805">
        <ele>361</ele>
        <time>2016-01-03T09:40:45.637Z</time>
      </trkpt>
      <trkpt lat="43.70096" lon="5.80811">
        <ele>360</ele>
        <time>2016-01-03T09:40:46.614Z</time>
      </trkpt>
      <trkpt lat="43.70101" lon="5.80816">
        <ele>359</ele>
        <time>2016-01-03T09:40:48.637Z</time>
      </trkpt>
      <trkpt lat="43.70105" lon="5.80815">
        <ele>359</ele>
        <time>2016-01-03T09:40:49.613Z</time>
      </trkpt>
      <trkpt lat="43.70112" lon="5.80816">
        <ele>360</ele>
        <time>2016-01-03T09:40:51.674Z</time>
      </trkpt>
      <trkpt lat="43.70116" lon="5.80815">
        <ele>360</ele>
        <time>2016-01-03T09:40:52.615Z</time>
      </trkpt>
      <trkpt lat="43.7012" lon="5.80813">
        <ele>360</ele>
        <time>2016-01-03T09:40:53.636Z</time>
      </trkpt>
      <trkpt lat="43.70124" lon="5.8081">
        <ele>361</ele>
        <time>2016-01-03T09:40:54.613Z</time>
      </trkpt>
      <trkpt lat="43.70128" lon="5.80806">
        <ele>360</ele>
        <time>2016-01-03T09:40:55.636Z</time>
      </trkpt>
      <trkpt lat="43.70133" lon="5.80803">
        <ele>360</ele>
        <time>2016-01-03T09:40:56.612Z</time>
      </trkpt>
      <trkpt lat="43.70137" lon="5.808">
        <ele>361</ele>
        <time>2016-01-03T09:40:57.862Z</time>
      </trkpt>
      <trkpt lat="43.70142" lon="5.80797">
        <ele>361</ele>
        <time>2016-01-03T09:40:58.614Z</time>
      </trkpt>
      <trkpt lat="43.70147" lon="5.80794">
        <ele>361</ele>
        <time>2016-01-03T09:40:59.636Z</time>
      </trkpt>
      <trkpt lat="43.70151" lon="5.80791">
        <ele>361</ele>
        <time>2016-01-03T09:41:00.614Z</time>
      </trkpt>
      <trkpt lat="43.70155" lon="5.80786">
        <ele>362</ele>
        <time>2016-01-03T09:41:01.706Z</time>
      </trkpt>
      <trkpt lat="43.7016" lon="5.80781">
        <ele>363</ele>
        <time>2016-01-03T09:41:02.640Z</time>
      </trkpt>
      <trkpt lat="43.70164" lon="5.80779">
        <ele>363</ele>
        <time>2016-01-03T09:41:03.636Z</time>
      </trkpt>
      <trkpt lat="43.70169" lon="5.80776">
        <ele>364</ele>
        <time>2016-01-03T09:41:04.613Z</time>
      </trkpt>
      <trkpt lat="43.70172" lon="5.80772">
        <ele>364</ele>
        <time>2016-01-03T09:41:05.637Z</time>
      </trkpt>
      <trkpt lat="43.70176" lon="5.80767">
        <ele>364</ele>
        <time>2016-01-03T09:41:06.614Z</time>
      </trkpt>
      <trkpt lat="43.7018" lon="5.80762">
        <ele>364</ele>
        <time>2016-01-03T09:41:07.636Z</time>
      </trkpt>
      <trkpt lat="43.70185" lon="5.80758">
        <ele>364</ele>
        <time>2016-01-03T09:41:08.615Z</time>
      </trkpt>
      <trkpt lat="43.70188" lon="5.80753">
        <ele>363</ele>
        <time>2016-01-03T09:41:09.636Z</time>
      </trkpt>
      <trkpt lat="43.70191" lon="5.80747">
        <ele>363</ele>
        <time>2016-01-03T09:41:10.614Z</time>
      </trkpt>
      <trkpt lat="43.70198" lon="5.80739">
        <ele>362</ele>
        <time>2016-01-03T09:41:13.662Z</time>
      </trkpt>
      <trkpt lat="43.70198" lon="5.80735">
        <ele>362</ele>
        <time>2016-01-03T09:41:14.612Z</time>
      </trkpt>
      <trkpt lat="43.70197" lon="5.80726">
        <ele>361</ele>
        <time>2016-01-03T09:41:16.640Z</time>
      </trkpt>
      <trkpt lat="43.70197" lon="5.80721">
        <ele>361</ele>
        <time>2016-01-03T09:41:17.614Z</time>
      </trkpt>
      <trkpt lat="43.70201" lon="5.80716">
        <ele>361</ele>
        <time>2016-01-03T09:41:18.642Z</time>
      </trkpt>
      <trkpt lat="43.70204" lon="5.80712">
        <ele>361</ele>
        <time>2016-01-03T09:41:19.616Z</time>
      </trkpt>
      <trkpt lat="43.70205" lon="5.807">
        <ele>360</ele>
        <time>2016-01-03T09:41:21.635Z</time>
      </trkpt>
      <trkpt lat="43.70205" lon="5.80694">
        <ele>360</ele>
        <time>2016-01-03T09:41:22.619Z</time>
      </trkpt>
      <trkpt lat="43.70204" lon="5.80688">
        <ele>360</ele>
        <time>2016-01-03T09:41:23.636Z</time>
      </trkpt>
      <trkpt lat="43.702" lon="5.80682">
        <ele>360</ele>
        <time>2016-01-03T09:41:24.646Z</time>
      </trkpt>
      <trkpt lat="43.70201" lon="5.80675">
        <ele>360</ele>
        <time>2016-01-03T09:41:25.635Z</time>
      </trkpt>
      <trkpt lat="43.70199" lon="5.80668">
        <ele>360</ele>
        <time>2016-01-03T09:41:26.614Z</time>
      </trkpt>
      <trkpt lat="43.70202" lon="5.80658">
        <ele>358</ele>
        <time>2016-01-03T09:41:29.635Z</time>
      </trkpt>
      <trkpt lat="43.70203" lon="5.80656">
        <ele>359</ele>
        <time>2016-01-03T09:41:30.614Z</time>
      </trkpt>
      <trkpt lat="43.70207" lon="5.80647">
        <ele>360</ele>
        <time>2016-01-03T09:41:33.706Z</time>
      </trkpt>
      <trkpt lat="43.70208" lon="5.80643">
        <ele>360</ele>
        <time>2016-01-03T09:41:34.613Z</time>
      </trkpt>
      <trkpt lat="43.70214" lon="5.80634">
        <ele>359</ele>
        <time>2016-01-03T09:41:36.636Z</time>
      </trkpt>
      <trkpt lat="43.70217" lon="5.80631">
        <ele>359</ele>
        <time>2016-01-03T09:41:37.613Z</time>
      </trkpt>
      <trkpt lat="43.70224" lon="5.80628">
        <ele>359</ele>
        <time>2016-01-03T09:41:39.638Z</time>
      </trkpt>
      <trkpt lat="43.70228" lon="5.80628">
        <ele>359</ele>
        <time>2016-01-03T09:41:40.613Z</time>
      </trkpt>
      <trkpt lat="43.70234" lon="5.80622">
        <ele>360</ele>
        <time>2016-01-03T09:41:42.679Z</time>
      </trkpt>
      <trkpt lat="43.70237" lon="5.80617">
        <ele>360</ele>
        <time>2016-01-03T09:41:43.613Z</time>
      </trkpt>
      <trkpt lat="43.7024" lon="5.80609">
        <ele>360</ele>
        <time>2016-01-03T09:41:44.641Z</time>
      </trkpt>
      <trkpt lat="43.70244" lon="5.80606">
        <ele>360</ele>
        <time>2016-01-03T09:41:45.613Z</time>
      </trkpt>
      <trkpt lat="43.70248" lon="5.80603">
        <ele>360</ele>
        <time>2016-01-03T09:41:46.663Z</time>
      </trkpt>
      <trkpt lat="43.70253" lon="5.80602">
        <ele>360</ele>
        <time>2016-01-03T09:41:47.613Z</time>
      </trkpt>
      <trkpt lat="43.70259" lon="5.806">
        <ele>361</ele>
        <time>2016-01-03T09:41:48.634Z</time>
      </trkpt>
      <trkpt lat="43.70263" lon="5.80597">
        <ele>360</ele>
        <time>2016-01-03T09:41:49.613Z</time>
      </trkpt>
      <trkpt lat="43.70268" lon="5.80594">
        <ele>361</ele>
        <time>2016-01-03T09:41:50.637Z</time>
      </trkpt>
      <trkpt lat="43.70272" lon="5.8059">
        <ele>361</ele>
        <time>2016-01-03T09:41:51.613Z</time>
      </trkpt>
      <trkpt lat="43.70277" lon="5.80585">
        <ele>360</ele>
        <time>2016-01-03T09:41:52.637Z</time>
      </trkpt>
      <trkpt lat="43.70281" lon="5.8058">
        <ele>360</ele>
        <time>2016-01-03T09:41:53.615Z</time>
      </trkpt>
      <trkpt lat="43.70284" lon="5.80574">
        <ele>360</ele>
        <time>2016-01-03T09:41:54.635Z</time>
      </trkpt>
      <trkpt lat="43.70287" lon="5.80568">
        <ele>358</ele>
        <time>2016-01-03T09:41:55.613Z</time>
      </trkpt>
      <trkpt lat="43.70289" lon="5.8056">
        <ele>358</ele>
        <time>2016-01-03T09:41:56.636Z</time>
      </trkpt>
      <trkpt lat="43.70292" lon="5.80553">
        <ele>358</ele>
        <time>2016-01-03T09:41:57.640Z</time>
      </trkpt>
      <trkpt lat="43.70298" lon="5.80545">
        <ele>354</ele>
        <time>2016-01-03T09:41:59.637Z</time>
      </trkpt>
      <trkpt lat="43.70301" lon="5.80541">
        <ele>354</ele>
        <time>2016-01-03T09:42:00.612Z</time>
      </trkpt>
      <trkpt lat="43.70308" lon="5.80534">
        <ele>354</ele>
        <time>2016-01-03T09:42:02.637Z</time>
      </trkpt>
      <trkpt lat="43.70312" lon="5.80532">
        <ele>354</ele>
        <time>2016-01-03T09:42:03.614Z</time>
      </trkpt>
      <trkpt lat="43.70316" lon="5.8053">
        <ele>353</ele>
        <time>2016-01-03T09:42:04.853Z</time>
      </trkpt>
      <trkpt lat="43.70321" lon="5.80528">
        <ele>353</ele>
        <time>2016-01-03T09:42:05.614Z</time>
      </trkpt>
      <trkpt lat="43.70325" lon="5.80527">
        <ele>353</ele>
        <time>2016-01-03T09:42:06.637Z</time>
      </trkpt>
      <trkpt lat="43.7033" lon="5.80526">
        <ele>352</ele>
        <time>2016-01-03T09:42:07.614Z</time>
      </trkpt>
      <trkpt lat="43.70336" lon="5.80526">
        <ele>352</ele>
        <time>2016-01-03T09:42:08.709Z</time>
      </trkpt>
      <trkpt lat="43.70341" lon="5.80526">
        <ele>352</ele>
        <time>2016-01-03T09:42:09.614Z</time>
      </trkpt>
      <trkpt lat="43.70349" lon="5.80529">
        <ele>352</ele>
        <time>2016-01-03T09:42:11.625Z</time>
      </trkpt>
      <trkpt lat="43.70354" lon="5.80531">
        <ele>354</ele>
        <time>2016-01-03T09:42:12.611Z</time>
      </trkpt>
      <trkpt lat="43.70358" lon="5.80534">
        <ele>354</ele>
        <time>2016-01-03T09:42:13.842Z</time>
      </trkpt>
      <trkpt lat="43.7036" lon="5.80541">
        <ele>353</ele>
        <time>2016-01-03T09:42:14.609Z</time>
      </trkpt>
      <trkpt lat="43.70362" lon="5.80546">
        <ele>353</ele>
        <time>2016-01-03T09:42:15.628Z</time>
      </trkpt>
      <trkpt lat="43.70365" lon="5.80552">
        <ele>353</ele>
        <time>2016-01-03T09:42:16.612Z</time>
      </trkpt>
      <trkpt lat="43.70368" lon="5.80558">
        <ele>353</ele>
        <time>2016-01-03T09:42:17.631Z</time>
      </trkpt>
      <trkpt lat="43.7037" lon="5.80565">
        <ele>352</ele>
        <time>2016-01-03T09:42:18.613Z</time>
      </trkpt>
      <trkpt lat="43.70372" lon="5.80571">
        <ele>354</ele>
        <time>2016-01-03T09:42:19.748Z</time>
      </trkpt>
      <trkpt lat="43.70375" lon="5.80578">
        <ele>353</ele>
        <time>2016-01-03T09:42:20.613Z</time>
      </trkpt>
      <trkpt lat="43.70378" lon="5.80584">
        <ele>353</ele>
        <time>2016-01-03T09:42:21.635Z</time>
      </trkpt>
      <trkpt lat="43.70382" lon="5.80591">
        <ele>352</ele>
        <time>2016-01-03T09:42:22.856Z</time>
      </trkpt>
      <trkpt lat="43.70386" lon="5.80597">
        <ele>353</ele>
        <time>2016-01-03T09:42:23.657Z</time>
      </trkpt>
      <trkpt lat="43.70389" lon="5.80604">
        <ele>351</ele>
        <time>2016-01-03T09:42:24.618Z</time>
      </trkpt>
      <trkpt lat="43.70391" lon="5.80611">
        <ele>351</ele>
        <time>2016-01-03T09:42:25.645Z</time>
      </trkpt>
      <trkpt lat="43.70392" lon="5.80617">
        <ele>350</ele>
        <time>2016-01-03T09:42:26.616Z</time>
      </trkpt>
      <trkpt lat="43.70393" lon="5.80625">
        <ele>350</ele>
        <time>2016-01-03T09:42:27.645Z</time>
      </trkpt>
      <trkpt lat="43.70396" lon="5.80632">
        <ele>351</ele>
        <time>2016-01-03T09:42:28.618Z</time>
      </trkpt>
      <trkpt lat="43.70397" lon="5.80639">
        <ele>350</ele>
        <time>2016-01-03T09:42:29.677Z</time>
      </trkpt>
      <trkpt lat="43.704" lon="5.80644">
        <ele>350</ele>
        <time>2016-01-03T09:42:30.612Z</time>
      </trkpt>
      <trkpt lat="43.70404" lon="5.80648">
        <ele>350</ele>
        <time>2016-01-03T09:42:31.642Z</time>
      </trkpt>
      <trkpt lat="43.70407" lon="5.80653">
        <ele>350</ele>
        <time>2016-01-03T09:42:32.613Z</time>
      </trkpt>
      <trkpt lat="43.7041" lon="5.80657">
        <ele>351</ele>
        <time>2016-01-03T09:42:33.639Z</time>
      </trkpt>
      <trkpt lat="43.70414" lon="5.80662">
        <ele>350</ele>
        <time>2016-01-03T09:42:34.617Z</time>
      </trkpt>
      <trkpt lat="43.70419" lon="5.80667">
        <ele>349</ele>
        <time>2016-01-03T09:42:35.641Z</time>
      </trkpt>
      <trkpt lat="43.70423" lon="5.80671">
        <ele>349</ele>
        <time>2016-01-03T09:42:36.617Z</time>
      </trkpt>
      <trkpt lat="43.70428" lon="5.80674">
        <ele>349</ele>
        <time>2016-01-03T09:42:37.702Z</time>
      </trkpt>
      <trkpt lat="43.70433" lon="5.80676">
        <ele>350</ele>
        <time>2016-01-03T09:42:38.613Z</time>
      </trkpt>
      <trkpt lat="43.70438" lon="5.80677">
        <ele>349</ele>
        <time>2016-01-03T09:42:39.639Z</time>
      </trkpt>
      <trkpt lat="43.70443" lon="5.80676">
        <ele>351</ele>
        <time>2016-01-03T09:42:40.637Z</time>
      </trkpt>
      <trkpt lat="43.70449" lon="5.80676">
        <ele>351</ele>
        <time>2016-01-03T09:42:41.635Z</time>
      </trkpt>
      <trkpt lat="43.70454" lon="5.80677">
        <ele>351</ele>
        <time>2016-01-03T09:42:42.615Z</time>
      </trkpt>
      <trkpt lat="43.70459" lon="5.80678">
        <ele>351</ele>
        <time>2016-01-03T09:42:43.625Z</time>
      </trkpt>
      <trkpt lat="43.70464" lon="5.8068">
        <ele>352</ele>
        <time>2016-01-03T09:42:44.616Z</time>
      </trkpt>
      <trkpt lat="43.70469" lon="5.80683">
        <ele>351</ele>
        <time>2016-01-03T09:42:45.638Z</time>
      </trkpt>
      <trkpt lat="43.70473" lon="5.80684">
        <ele>352</ele>
        <time>2016-01-03T09:42:46.615Z</time>
      </trkpt>
      <trkpt lat="43.70478" lon="5.80687">
        <ele>352</ele>
        <time>2016-01-03T09:42:47.638Z</time>
      </trkpt>
      <trkpt lat="43.70483" lon="5.80689">
        <ele>352</ele>
        <time>2016-01-03T09:42:48.603Z</time>
      </trkpt>
      <trkpt lat="43.70488" lon="5.80691">
        <ele>353</ele>
        <time>2016-01-03T09:42:49.621Z</time>
      </trkpt>
      <trkpt lat="43.70491" lon="5.80696">
        <ele>353</ele>
        <time>2016-01-03T09:42:50.615Z</time>
      </trkpt>
      <trkpt lat="43.70494" lon="5.80702">
        <ele>353</ele>
        <time>2016-01-03T09:42:51.677Z</time>
      </trkpt>
      <trkpt lat="43.70496" lon="5.80707">
        <ele>353</ele>
        <time>2016-01-03T09:42:52.608Z</time>
      </trkpt>
      <trkpt lat="43.70498" lon="5.80713">
        <ele>352</ele>
        <time>2016-01-03T09:42:53.639Z</time>
      </trkpt>
      <trkpt lat="43.70501" lon="5.80719">
        <ele>352</ele>
        <time>2016-01-03T09:42:54.618Z</time>
      </trkpt>
      <trkpt lat="43.70505" lon="5.80725">
        <ele>352</ele>
        <time>2016-01-03T09:42:55.627Z</time>
      </trkpt>
      <trkpt lat="43.70508" lon="5.80731">
        <ele>352</ele>
        <time>2016-01-03T09:42:56.616Z</time>
      </trkpt>
      <trkpt lat="43.70513" lon="5.80736">
        <ele>352</ele>
        <time>2016-01-03T09:42:57.639Z</time>
      </trkpt>
      <trkpt lat="43.70515" lon="5.80742">
        <ele>350</ele>
        <time>2016-01-03T09:42:58.614Z</time>
      </trkpt>
      <trkpt lat="43.70516" lon="5.80751">
        <ele>350</ele>
        <time>2016-01-03T09:42:59.651Z</time>
      </trkpt>
      <trkpt lat="43.70518" lon="5.80758">
        <ele>350</ele>
        <time>2016-01-03T09:43:00.613Z</time>
      </trkpt>
      <trkpt lat="43.70519" lon="5.80765">
        <ele>349</ele>
        <time>2016-01-03T09:43:01.638Z</time>
      </trkpt>
      <trkpt lat="43.70523" lon="5.80771">
        <ele>349</ele>
        <time>2016-01-03T09:43:02.616Z</time>
      </trkpt>
      <trkpt lat="43.70526" lon="5.80776">
        <ele>348</ele>
        <time>2016-01-03T09:43:03.641Z</time>
      </trkpt>
      <trkpt lat="43.7053" lon="5.80783">
        <ele>348</ele>
        <time>2016-01-03T09:43:04.616Z</time>
      </trkpt>
      <trkpt lat="43.70534" lon="5.8079">
        <ele>348</ele>
        <time>2016-01-03T09:43:05.640Z</time>
      </trkpt>
      <trkpt lat="43.70536" lon="5.80796">
        <ele>347</ele>
        <time>2016-01-03T09:43:06.618Z</time>
      </trkpt>
      <trkpt lat="43.7054" lon="5.80803">
        <ele>347</ele>
        <time>2016-01-03T09:43:07.676Z</time>
      </trkpt>
      <trkpt lat="43.70542" lon="5.8081">
        <ele>348</ele>
        <time>2016-01-03T09:43:08.615Z</time>
      </trkpt>
      <trkpt lat="43.70545" lon="5.80816">
        <ele>348</ele>
        <time>2016-01-03T09:43:09.639Z</time>
      </trkpt>
      <trkpt lat="43.70547" lon="5.80823">
        <ele>348</ele>
        <time>2016-01-03T09:43:10.617Z</time>
      </trkpt>
      <trkpt lat="43.7055" lon="5.80828">
        <ele>348</ele>
        <time>2016-01-03T09:43:11.639Z</time>
      </trkpt>
      <trkpt lat="43.70553" lon="5.80833">
        <ele>347</ele>
        <time>2016-01-03T09:43:12.612Z</time>
      </trkpt>
      <trkpt lat="43.70557" lon="5.80838">
        <ele>347</ele>
        <time>2016-01-03T09:43:13.638Z</time>
      </trkpt>
      <trkpt lat="43.70562" lon="5.80841">
        <ele>347</ele>
        <time>2016-01-03T09:43:14.613Z</time>
      </trkpt>
      <trkpt lat="43.70566" lon="5.80844">
        <ele>347</ele>
        <time>2016-01-03T09:43:15.643Z</time>
      </trkpt>
      <trkpt lat="43.70571" lon="5.80845">
        <ele>346</ele>
        <time>2016-01-03T09:43:16.620Z</time>
      </trkpt>
      <trkpt lat="43.7058" lon="5.80846">
        <ele>346</ele>
        <time>2016-01-03T09:43:18.639Z</time>
      </trkpt>
      <trkpt lat="43.70585" lon="5.80846">
        <ele>346</ele>
        <time>2016-01-03T09:43:19.616Z</time>
      </trkpt>
      <trkpt lat="43.7059" lon="5.80844">
        <ele>347</ele>
        <time>2016-01-03T09:43:20.640Z</time>
      </trkpt>
      <trkpt lat="43.70594" lon="5.80842">
        <ele>347</ele>
        <time>2016-01-03T09:43:21.616Z</time>
      </trkpt>
      <trkpt lat="43.70601" lon="5.80839">
        <ele>347</ele>
        <time>2016-01-03T09:43:23.670Z</time>
      </trkpt>
      <trkpt lat="43.70605" lon="5.80837">
        <ele>346</ele>
        <time>2016-01-03T09:43:24.614Z</time>
      </trkpt>
      <trkpt lat="43.70612" lon="5.80833">
        <ele>347</ele>
        <time>2016-01-03T09:43:26.641Z</time>
      </trkpt>
      <trkpt lat="43.70615" lon="5.80832">
        <ele>346</ele>
        <time>2016-01-03T09:43:27.615Z</time>
      </trkpt>
      <trkpt lat="43.70622" lon="5.80829">
        <ele>346</ele>
        <time>2016-01-03T09:43:29.863Z</time>
      </trkpt>
      <trkpt lat="43.70624" lon="5.80827">
        <ele>346</ele>
        <time>2016-01-03T09:43:30.615Z</time>
      </trkpt>
      <trkpt lat="43.7063" lon="5.80823">
        <ele>345</ele>
        <time>2016-01-03T09:43:32.639Z</time>
      </trkpt>
      <trkpt lat="43.70633" lon="5.8082">
        <ele>345</ele>
        <time>2016-01-03T09:43:33.615Z</time>
      </trkpt>
      <trkpt lat="43.70639" lon="5.80814">
        <ele>346</ele>
        <time>2016-01-03T09:43:35.640Z</time>
      </trkpt>
      <trkpt lat="43.70643" lon="5.8081">
        <ele>347</ele>
        <time>2016-01-03T09:43:36.615Z</time>
      </trkpt>
      <trkpt lat="43.70646" lon="5.80806">
        <ele>345</ele>
        <time>2016-01-03T09:43:37.687Z</time>
      </trkpt>
      <trkpt lat="43.7065" lon="5.80801">
        <ele>345</ele>
        <time>2016-01-03T09:43:38.715Z</time>
      </trkpt>
      <trkpt lat="43.70654" lon="5.80795">
        <ele>345</ele>
        <time>2016-01-03T09:43:39.644Z</time>
      </trkpt>
      <trkpt lat="43.70657" lon="5.8079">
        <ele>346</ele>
        <time>2016-01-03T09:43:40.616Z</time>
      </trkpt>
      <trkpt lat="43.70663" lon="5.80782">
        <ele>347</ele>
        <time>2016-01-03T09:43:42.640Z</time>
      </trkpt>
      <trkpt lat="43.70667" lon="5.80777">
        <ele>347</ele>
        <time>2016-01-03T09:43:43.616Z</time>
      </trkpt>
      <trkpt lat="43.70671" lon="5.80772">
        <ele>346</ele>
        <time>2016-01-03T09:43:44.644Z</time>
      </trkpt>
      <trkpt lat="43.70675" lon="5.80768">
        <ele>347</ele>
        <time>2016-01-03T09:43:45.642Z</time>
      </trkpt>
      <trkpt lat="43.70682" lon="5.80761">
        <ele>347</ele>
        <time>2016-01-03T09:43:47.641Z</time>
      </trkpt>
      <trkpt lat="43.70685" lon="5.80758">
        <ele>347</ele>
        <time>2016-01-03T09:43:48.615Z</time>
      </trkpt>
      <trkpt lat="43.70691" lon="5.8075">
        <ele>348</ele>
        <time>2016-01-03T09:43:50.640Z</time>
      </trkpt>
      <trkpt lat="43.70693" lon="5.80747">
        <ele>348</ele>
        <time>2016-01-03T09:43:51.615Z</time>
      </trkpt>
      <trkpt lat="43.707" lon="5.80739">
        <ele>348</ele>
        <time>2016-01-03T09:43:53.639Z</time>
      </trkpt>
      <trkpt lat="43.70703" lon="5.80735">
        <ele>348</ele>
        <time>2016-01-03T09:43:54.617Z</time>
      </trkpt>
      <trkpt lat="43.70709" lon="5.80725">
        <ele>348</ele>
        <time>2016-01-03T09:43:56.666Z</time>
      </trkpt>
      <trkpt lat="43.70712" lon="5.80721">
        <ele>349</ele>
        <time>2016-01-03T09:43:57.616Z</time>
      </trkpt>
      <trkpt lat="43.70717" lon="5.80713">
        <ele>349</ele>
        <time>2016-01-03T09:43:59.640Z</time>
      </trkpt>
      <trkpt lat="43.7072" lon="5.80709">
        <ele>348</ele>
        <time>2016-01-03T09:44:00.616Z</time>
      </trkpt>
      <trkpt lat="43.70726" lon="5.807">
        <ele>351</ele>
        <time>2016-01-03T09:44:02.640Z</time>
      </trkpt>
      <trkpt lat="43.70729" lon="5.80694">
        <ele>351</ele>
        <time>2016-01-03T09:44:03.616Z</time>
      </trkpt>
      <trkpt lat="43.70733" lon="5.80689">
        <ele>351</ele>
        <time>2016-01-03T09:44:04.643Z</time>
      </trkpt>
      <trkpt lat="43.70737" lon="5.80685">
        <ele>352</ele>
        <time>2016-01-03T09:44:05.616Z</time>
      </trkpt>
      <trkpt lat="43.7074" lon="5.8068">
        <ele>352</ele>
        <time>2016-01-03T09:44:06.639Z</time>
      </trkpt>
      <trkpt lat="43.70744" lon="5.80675">
        <ele>351</ele>
        <time>2016-01-03T09:44:07.643Z</time>
      </trkpt>
      <trkpt lat="43.70748" lon="5.80671">
        <ele>351</ele>
        <time>2016-01-03T09:44:08.641Z</time>
      </trkpt>
      <trkpt lat="43.70752" lon="5.80667">
        <ele>350</ele>
        <time>2016-01-03T09:44:09.615Z</time>
      </trkpt>
      <trkpt lat="43.70756" lon="5.80664">
        <ele>350</ele>
        <time>2016-01-03T09:44:10.639Z</time>
      </trkpt>
      <trkpt lat="43.7076" lon="5.8066">
        <ele>349</ele>
        <time>2016-01-03T09:44:11.615Z</time>
      </trkpt>
      <trkpt lat="43.70762" lon="5.80655">
        <ele>349</ele>
        <time>2016-01-03T09:44:12.656Z</time>
      </trkpt>
      <trkpt lat="43.70765" lon="5.80649">
        <ele>350</ele>
        <time>2016-01-03T09:44:13.617Z</time>
      </trkpt>
      <trkpt lat="43.70768" lon="5.80644">
        <ele>349</ele>
        <time>2016-01-03T09:44:14.643Z</time>
      </trkpt>
      <trkpt lat="43.70771" lon="5.80639">
        <ele>348</ele>
        <time>2016-01-03T09:44:15.608Z</time>
      </trkpt>
      <trkpt lat="43.70774" lon="5.80634">
        <ele>347</ele>
        <time>2016-01-03T09:44:16.639Z</time>
      </trkpt>
      <trkpt lat="43.70778" lon="5.80629">
        <ele>348</ele>
        <time>2016-01-03T09:44:17.615Z</time>
      </trkpt>
      <trkpt lat="43.70782" lon="5.80624">
        <ele>347</ele>
        <time>2016-01-03T09:44:18.668Z</time>
      </trkpt>
      <trkpt lat="43.70785" lon="5.80619">
        <ele>347</ele>
        <time>2016-01-03T09:44:19.616Z</time>
      </trkpt>
      <trkpt lat="43.70788" lon="5.80614">
        <ele>347</ele>
        <time>2016-01-03T09:44:20.639Z</time>
      </trkpt>
      <trkpt lat="43.70792" lon="5.80609">
        <ele>346</ele>
        <time>2016-01-03T09:44:21.617Z</time>
      </trkpt>
      <trkpt lat="43.70796" lon="5.80604">
        <ele>346</ele>
        <time>2016-01-03T09:44:22.656Z</time>
      </trkpt>
      <trkpt lat="43.708" lon="5.80599">
        <ele>345</ele>
        <time>2016-01-03T09:44:23.616Z</time>
      </trkpt>
      <trkpt lat="43.70803" lon="5.80594">
        <ele>345</ele>
        <time>2016-01-03T09:44:24.645Z</time>
      </trkpt>
      <trkpt lat="43.70806" lon="5.80588">
        <ele>345</ele>
        <time>2016-01-03T09:44:25.615Z</time>
      </trkpt>
      <trkpt lat="43.7081" lon="5.80584">
        <ele>345</ele>
        <time>2016-01-03T09:44:26.641Z</time>
      </trkpt>
      <trkpt lat="43.70814" lon="5.80579">
        <ele>345</ele>
        <time>2016-01-03T09:44:27.615Z</time>
      </trkpt>
      <trkpt lat="43.70818" lon="5.80575">
        <ele>345</ele>
        <time>2016-01-03T09:44:28.640Z</time>
      </trkpt>
      <trkpt lat="43.70822" lon="5.80569">
        <ele>345</ele>
        <time>2016-01-03T09:44:29.644Z</time>
      </trkpt>
      <trkpt lat="43.70825" lon="5.80565">
        <ele>345</ele>
        <time>2016-01-03T09:44:30.638Z</time>
      </trkpt>
      <trkpt lat="43.70828" lon="5.80559">
        <ele>345</ele>
        <time>2016-01-03T09:44:31.615Z</time>
      </trkpt>
      <trkpt lat="43.7083" lon="5.80553">
        <ele>345</ele>
        <time>2016-01-03T09:44:32.639Z</time>
      </trkpt>
      <trkpt lat="43.70832" lon="5.80548">
        <ele>344</ele>
        <time>2016-01-03T09:44:33.616Z</time>
      </trkpt>
      <trkpt lat="43.70836" lon="5.80542">
        <ele>344</ele>
        <time>2016-01-03T09:44:34.639Z</time>
      </trkpt>
      <trkpt lat="43.70839" lon="5.80537">
        <ele>344</ele>
        <time>2016-01-03T09:44:35.616Z</time>
      </trkpt>
      <trkpt lat="43.70844" lon="5.80527">
        <ele>344</ele>
        <time>2016-01-03T09:44:37.640Z</time>
      </trkpt>
      <trkpt lat="43.70846" lon="5.80523">
        <ele>345</ele>
        <time>2016-01-03T09:44:38.616Z</time>
      </trkpt>
      <trkpt lat="43.7085" lon="5.80515">
        <ele>345</ele>
        <time>2016-01-03T09:44:40.666Z</time>
      </trkpt>
      <trkpt lat="43.70852" lon="5.80512">
        <ele>345</ele>
        <time>2016-01-03T09:44:41.616Z</time>
      </trkpt>
      <trkpt lat="43.70857" lon="5.80502">
        <ele>345</ele>
        <time>2016-01-03T09:44:44.644Z</time>
      </trkpt>
      <trkpt lat="43.70859" lon="5.80499">
        <ele>345</ele>
        <time>2016-01-03T09:44:45.616Z</time>
      </trkpt>
      <trkpt lat="43.70865" lon="5.80491">
        <ele>345</ele>
        <time>2016-01-03T09:44:48.639Z</time>
      </trkpt>
      <trkpt lat="43.70866" lon="5.80489">
        <ele>345</ele>
        <time>2016-01-03T09:44:49.616Z</time>
      </trkpt>
      <trkpt lat="43.70871" lon="5.80482">
        <ele>347</ele>
        <time>2016-01-03T09:46:05.642Z</time>
      </trkpt>
      <trkpt lat="43.70873" lon="5.80478">
        <ele>347</ele>
        <time>2016-01-03T09:46:06.616Z</time>
      </trkpt>
      <trkpt lat="43.70877" lon="5.80469">
        <ele>346</ele>
        <time>2016-01-03T09:46:08.641Z</time>
      </trkpt>
      <trkpt lat="43.70879" lon="5.80464">
        <ele>346</ele>
        <time>2016-01-03T09:46:09.617Z</time>
      </trkpt>
      <trkpt lat="43.70884" lon="5.80454">
        <ele>346</ele>
        <time>2016-01-03T09:46:11.639Z</time>
      </trkpt>
      <trkpt lat="43.70887" lon="5.80448">
        <ele>346</ele>
        <time>2016-01-03T09:46:12.617Z</time>
      </trkpt>
      <trkpt lat="43.7089" lon="5.80441">
        <ele>346</ele>
        <time>2016-01-03T09:46:13.668Z</time>
      </trkpt>
      <trkpt lat="43.70892" lon="5.80435">
        <ele>346</ele>
        <time>2016-01-03T09:46:14.616Z</time>
      </trkpt>
      <trkpt lat="43.70895" lon="5.80429">
        <ele>347</ele>
        <time>2016-01-03T09:46:15.639Z</time>
      </trkpt>
      <trkpt lat="43.70898" lon="5.80423">
        <ele>347</ele>
        <time>2016-01-03T09:46:16.616Z</time>
      </trkpt>
      <trkpt lat="43.709" lon="5.80417">
        <ele>347</ele>
        <time>2016-01-03T09:46:17.640Z</time>
      </trkpt>
      <trkpt lat="43.70902" lon="5.80412">
        <ele>347</ele>
        <time>2016-01-03T09:46:18.615Z</time>
      </trkpt>
      <trkpt lat="43.70905" lon="5.80405">
        <ele>347</ele>
        <time>2016-01-03T09:46:19.639Z</time>
      </trkpt>
      <trkpt lat="43.70906" lon="5.80399">
        <ele>346</ele>
        <time>2016-01-03T09:46:20.616Z</time>
      </trkpt>
      <trkpt lat="43.70908" lon="5.80392">
        <ele>347</ele>
        <time>2016-01-03T09:46:21.640Z</time>
      </trkpt>
      <trkpt lat="43.7091" lon="5.80386">
        <ele>346</ele>
        <time>2016-01-03T09:46:22.633Z</time>
      </trkpt>
      <trkpt lat="43.70912" lon="5.8038">
        <ele>347</ele>
        <time>2016-01-03T09:46:23.641Z</time>
      </trkpt>
      <trkpt lat="43.70915" lon="5.80374">
        <ele>346</ele>
        <time>2016-01-03T09:46:24.647Z</time>
      </trkpt>
      <trkpt lat="43.70917" lon="5.80369">
        <ele>346</ele>
        <time>2016-01-03T09:46:25.638Z</time>
      </trkpt>
      <trkpt lat="43.7092" lon="5.80363">
        <ele>346</ele>
        <time>2016-01-03T09:46:26.617Z</time>
      </trkpt>
      <trkpt lat="43.70922" lon="5.80357">
        <ele>346</ele>
        <time>2016-01-03T09:46:27.639Z</time>
      </trkpt>
      <trkpt lat="43.70925" lon="5.80351">
        <ele>346</ele>
        <time>2016-01-03T09:46:28.616Z</time>
      </trkpt>
      <trkpt lat="43.70927" lon="5.80346">
        <ele>346</ele>
        <time>2016-01-03T09:46:29.640Z</time>
      </trkpt>
      <trkpt lat="43.7093" lon="5.8034">
        <ele>346</ele>
        <time>2016-01-03T09:46:30.616Z</time>
      </trkpt>
      <trkpt lat="43.70932" lon="5.80335">
        <ele>345</ele>
        <time>2016-01-03T09:46:31.639Z</time>
      </trkpt>
      <trkpt lat="43.70935" lon="5.80329">
        <ele>345</ele>
        <time>2016-01-03T09:46:32.616Z</time>
      </trkpt>
      <trkpt lat="43.70937" lon="5.80324">
        <ele>345</ele>
        <time>2016-01-03T09:46:33.639Z</time>
      </trkpt>
      <trkpt lat="43.7094" lon="5.80318">
        <ele>344</ele>
        <time>2016-01-03T09:46:34.617Z</time>
      </trkpt>
      <trkpt lat="43.70944" lon="5.80309">
        <ele>344</ele>
        <time>2016-01-03T09:46:36.639Z</time>
      </trkpt>
      <trkpt lat="43.70946" lon="5.80304">
        <ele>344</ele>
        <time>2016-01-03T09:46:37.616Z</time>
      </trkpt>
      <trkpt lat="43.70949" lon="5.80293">
        <ele>344</ele>
        <time>2016-01-03T09:46:39.640Z</time>
      </trkpt>
      <trkpt lat="43.7095" lon="5.80287">
        <ele>344</ele>
        <time>2016-01-03T09:46:40.617Z</time>
      </trkpt>
      <trkpt lat="43.70951" lon="5.80276">
        <ele>344</ele>
        <time>2016-01-03T09:46:42.720Z</time>
      </trkpt>
      <trkpt lat="43.70951" lon="5.8027">
        <ele>343</ele>
        <time>2016-01-03T09:46:43.617Z</time>
      </trkpt>
      <trkpt lat="43.7095" lon="5.8026">
        <ele>343</ele>
        <time>2016-01-03T09:46:45.639Z</time>
      </trkpt>
      <trkpt lat="43.7095" lon="5.80255">
        <ele>343</ele>
        <time>2016-01-03T09:46:46.643Z</time>
      </trkpt>
      <trkpt lat="43.70951" lon="5.80243">
        <ele>343</ele>
        <time>2016-01-03T09:47:02.642Z</time>
      </trkpt>
      <trkpt lat="43.70952" lon="5.80239">
        <ele>343</ele>
        <time>2016-01-03T09:47:03.623Z</time>
      </trkpt>
      <trkpt lat="43.70955" lon="5.80231">
        <ele>344</ele>
        <time>2016-01-03T09:47:05.639Z</time>
      </trkpt>
      <trkpt lat="43.70956" lon="5.80227">
        <ele>344</ele>
        <time>2016-01-03T09:47:06.616Z</time>
      </trkpt>
      <trkpt lat="43.70959" lon="5.80218">
        <ele>344</ele>
        <time>2016-01-03T09:47:08.675Z</time>
      </trkpt>
      <trkpt lat="43.70961" lon="5.80214">
        <ele>344</ele>
        <time>2016-01-03T09:47:09.615Z</time>
      </trkpt>
      <trkpt lat="43.70966" lon="5.80205">
        <ele>344</ele>
        <time>2016-01-03T09:47:11.640Z</time>
      </trkpt>
      <trkpt lat="43.70969" lon="5.802">
        <ele>344</ele>
        <time>2016-01-03T09:47:12.618Z</time>
      </trkpt>
      <trkpt lat="43.70972" lon="5.80195">
        <ele>344</ele>
        <time>2016-01-03T09:47:13.646Z</time>
      </trkpt>
      <trkpt lat="43.70974" lon="5.8019">
        <ele>344</ele>
        <time>2016-01-03T09:47:14.614Z</time>
      </trkpt>
      <trkpt lat="43.70977" lon="5.80185">
        <ele>345</ele>
        <time>2016-01-03T09:47:15.639Z</time>
      </trkpt>
      <trkpt lat="43.7098" lon="5.8018">
        <ele>345</ele>
        <time>2016-01-03T09:47:16.615Z</time>
      </trkpt>
      <trkpt lat="43.70986" lon="5.80171">
        <ele>344</ele>
        <time>2016-01-03T09:47:18.649Z</time>
      </trkpt>
      <trkpt lat="43.70988" lon="5.80166">
        <ele>344</ele>
        <time>2016-01-03T09:47:19.644Z</time>
      </trkpt>
      <trkpt lat="43.7099" lon="5.80155">
        <ele>344</ele>
        <time>2016-01-03T09:47:21.640Z</time>
      </trkpt>
      <trkpt lat="43.70991" lon="5.8015">
        <ele>344</ele>
        <time>2016-01-03T09:47:22.713Z</time>
      </trkpt>
      <trkpt lat="43.70991" lon="5.8014">
        <ele>345</ele>
        <time>2016-01-03T09:47:24.643Z</time>
      </trkpt>
      <trkpt lat="43.70991" lon="5.80135">
        <ele>345</ele>
        <time>2016-01-03T09:47:25.616Z</time>
      </trkpt>
      <trkpt lat="43.7099" lon="5.80125">
        <ele>345</ele>
        <time>2016-01-03T09:47:27.640Z</time>
      </trkpt>
      <trkpt lat="43.7099" lon="5.80119">
        <ele>345</ele>
        <time>2016-01-03T09:47:28.617Z</time>
      </trkpt>
      <trkpt lat="43.70987" lon="5.80108">
        <ele>344</ele>
        <time>2016-01-03T09:47:30.667Z</time>
      </trkpt>
      <trkpt lat="43.70984" lon="5.80104">
        <ele>344</ele>
        <time>2016-01-03T09:47:31.616Z</time>
      </trkpt>
      <trkpt lat="43.70978" lon="5.80096">
        <ele>345</ele>
        <time>2016-01-03T09:47:33.640Z</time>
      </trkpt>
      <trkpt lat="43.70974" lon="5.80092">
        <ele>345</ele>
        <time>2016-01-03T09:47:34.616Z</time>
      </trkpt>
      <trkpt lat="43.70969" lon="5.80083">
        <ele>345</ele>
        <time>2016-01-03T09:47:36.640Z</time>
      </trkpt>
      <trkpt lat="43.70965" lon="5.80079">
        <ele>345</ele>
        <time>2016-01-03T09:47:37.617Z</time>
      </trkpt>
      <trkpt lat="43.70958" lon="5.80072">
        <ele>347</ele>
        <time>2016-01-03T09:47:39.641Z</time>
      </trkpt>
      <trkpt lat="43.70955" lon="5.80069">
        <ele>347</ele>
        <time>2016-01-03T09:47:40.616Z</time>
      </trkpt>
      <trkpt lat="43.70948" lon="5.80062">
        <ele>348</ele>
        <time>2016-01-03T09:47:42.642Z</time>
      </trkpt>
      <trkpt lat="43.70944" lon="5.80058">
        <ele>348</ele>
        <time>2016-01-03T09:47:43.616Z</time>
      </trkpt>
      <trkpt lat="43.70937" lon="5.80051">
        <ele>349</ele>
        <time>2016-01-03T09:47:45.639Z</time>
      </trkpt>
      <trkpt lat="43.70934" lon="5.80047">
        <ele>348</ele>
        <time>2016-01-03T09:47:46.616Z</time>
      </trkpt>
      <trkpt lat="43.70928" lon="5.80039">
        <ele>348</ele>
        <time>2016-01-03T09:47:48.641Z</time>
      </trkpt>
      <trkpt lat="43.70925" lon="5.80035">
        <ele>346</ele>
        <time>2016-01-03T09:47:49.615Z</time>
      </trkpt>
      <trkpt lat="43.70919" lon="5.80026">
        <ele>346</ele>
        <time>2016-01-03T09:47:51.641Z</time>
      </trkpt>
      <trkpt lat="43.70916" lon="5.80022">
        <ele>346</ele>
        <time>2016-01-03T09:47:52.642Z</time>
      </trkpt>
      <trkpt lat="43.70909" lon="5.80015">
        <ele>346</ele>
        <time>2016-01-03T09:47:54.633Z</time>
      </trkpt>
      <trkpt lat="43.70906" lon="5.80011">
        <ele>346</ele>
        <time>2016-01-03T09:47:55.615Z</time>
      </trkpt>
      <trkpt lat="43.709" lon="5.80003">
        <ele>347</ele>
        <time>2016-01-03T09:47:57.639Z</time>
      </trkpt>
      <trkpt lat="43.70897" lon="5.79998">
        <ele>347</ele>
        <time>2016-01-03T09:47:58.617Z</time>
      </trkpt>
      <trkpt lat="43.70892" lon="5.79991">
        <ele>348</ele>
        <time>2016-01-03T09:48:00.641Z</time>
      </trkpt>
      <trkpt lat="43.7089" lon="5.79987">
        <ele>348</ele>
        <time>2016-01-03T09:48:01.616Z</time>
      </trkpt>
      <trkpt lat="43.70885" lon="5.79982">
        <ele>348</ele>
        <time>2016-01-03T09:48:03.672Z</time>
      </trkpt>
      <trkpt lat="43.70882" lon="5.79979">
        <ele>348</ele>
        <time>2016-01-03T09:48:04.618Z</time>
      </trkpt>
      <trkpt lat="43.70876" lon="5.79974">
        <ele>348</ele>
        <time>2016-01-03T09:48:06.642Z</time>
      </trkpt>
      <trkpt lat="43.70873" lon="5.79971">
        <ele>348</ele>
        <time>2016-01-03T09:48:07.608Z</time>
      </trkpt>
      <trkpt lat="43.70868" lon="5.79966">
        <ele>348</ele>
        <time>2016-01-03T09:48:09.640Z</time>
      </trkpt>
      <trkpt lat="43.70865" lon="5.79964">
        <ele>348</ele>
        <time>2016-01-03T09:48:10.616Z</time>
      </trkpt>
      <trkpt lat="43.70859" lon="5.7996">
        <ele>349</ele>
        <time>2016-01-03T09:48:12.641Z</time>
      </trkpt>
      <trkpt lat="43.70856" lon="5.79958">
        <ele>349</ele>
        <time>2016-01-03T09:48:13.615Z</time>
      </trkpt>
      <trkpt lat="43.7085" lon="5.79954">
        <ele>349</ele>
        <time>2016-01-03T09:48:15.640Z</time>
      </trkpt>
      <trkpt lat="43.70847" lon="5.79954">
        <ele>349</ele>
        <time>2016-01-03T09:48:16.617Z</time>
      </trkpt>
      <trkpt lat="43.70841" lon="5.79954">
        <ele>350</ele>
        <time>2016-01-03T09:48:18.855Z</time>
      </trkpt>
      <trkpt lat="43.70837" lon="5.79955">
        <ele>350</ele>
        <time>2016-01-03T09:48:19.617Z</time>
      </trkpt>
      <trkpt lat="43.70831" lon="5.79957">
        <ele>351</ele>
        <time>2016-01-03T09:48:21.641Z</time>
      </trkpt>
      <trkpt lat="43.70828" lon="5.79956">
        <ele>351</ele>
        <time>2016-01-03T09:48:22.642Z</time>
      </trkpt>
      <trkpt lat="43.70822" lon="5.79955">
        <ele>352</ele>
        <time>2016-01-03T09:48:24.647Z</time>
      </trkpt>
      <trkpt lat="43.70819" lon="5.79954">
        <ele>352</ele>
        <time>2016-01-03T09:48:25.644Z</time>
      </trkpt>
      <trkpt lat="43.70813" lon="5.79952">
        <ele>352</ele>
        <time>2016-01-03T09:48:27.642Z</time>
      </trkpt>
      <trkpt lat="43.70809" lon="5.79951">
        <ele>352</ele>
        <time>2016-01-03T09:48:28.617Z</time>
      </trkpt>
      <trkpt lat="43.70803" lon="5.7995">
        <ele>352</ele>
        <time>2016-01-03T09:48:30.641Z</time>
      </trkpt>
      <trkpt lat="43.708" lon="5.79949">
        <ele>353</ele>
        <time>2016-01-03T09:48:31.619Z</time>
      </trkpt>
      <trkpt lat="43.70793" lon="5.79947">
        <ele>354</ele>
        <time>2016-01-03T09:48:34.640Z</time>
      </trkpt>
      <trkpt lat="43.70791" lon="5.79947">
        <ele>354</ele>
        <time>2016-01-03T09:48:35.615Z</time>
      </trkpt>
      <trkpt lat="43.70782" lon="5.79948">
        <ele>355</ele>
        <time>2016-01-03T09:48:40.641Z</time>
      </trkpt>
      <trkpt lat="43.7078" lon="5.79948">
        <ele>355</ele>
        <time>2016-01-03T09:48:41.617Z</time>
      </trkpt>
      <trkpt lat="43.70772" lon="5.79947">
        <ele>355</ele>
        <time>2016-01-03T09:48:45.640Z</time>
      </trkpt>
      <trkpt lat="43.7077" lon="5.79946">
        <ele>355</ele>
        <time>2016-01-03T09:48:46.616Z</time>
      </trkpt>
      <trkpt lat="43.70763" lon="5.79942">
        <ele>355</ele>
        <time>2016-01-03T09:48:49.640Z</time>
      </trkpt>
      <trkpt lat="43.7076" lon="5.79941">
        <ele>355</ele>
        <time>2016-01-03T09:48:50.618Z</time>
      </trkpt>
      <trkpt lat="43.70753" lon="5.79937">
        <ele>355</ele>
        <time>2016-01-03T09:48:53.637Z</time>
      </trkpt>
      <trkpt lat="43.7075" lon="5.79936">
        <ele>356</ele>
        <time>2016-01-03T09:48:54.616Z</time>
      </trkpt>
      <trkpt lat="43.70742" lon="5.79934">
        <ele>356</ele>
        <time>2016-01-03T09:48:57.640Z</time>
      </trkpt>
      <trkpt lat="43.70739" lon="5.79933">
        <ele>356</ele>
        <time>2016-01-03T09:48:58.643Z</time>
      </trkpt>
      <trkpt lat="43.70732" lon="5.7993">
        <ele>357</ele>
        <time>2016-01-03T09:49:01.640Z</time>
      </trkpt>
      <trkpt lat="43.70729" lon="5.79929">
        <ele>358</ele>
        <time>2016-01-03T09:49:02.615Z</time>
      </trkpt>
      <trkpt lat="43.70721" lon="5.79926">
        <ele>359</ele>
        <time>2016-01-03T09:49:06.638Z</time>
      </trkpt>
      <trkpt lat="43.70719" lon="5.79925">
        <ele>359</ele>
        <time>2016-01-03T09:49:07.617Z</time>
      </trkpt>
      <trkpt lat="43.7071" lon="5.79922">
        <ele>360</ele>
        <time>2016-01-03T09:49:11.638Z</time>
      </trkpt>
      <trkpt lat="43.70708" lon="5.79921">
        <ele>360</ele>
        <time>2016-01-03T09:49:12.616Z</time>
      </trkpt>
      <trkpt lat="43.70701" lon="5.79919">
        <ele>361</ele>
        <time>2016-01-03T09:49:15.641Z</time>
      </trkpt>
      <trkpt lat="43.70698" lon="5.79918">
        <ele>361</ele>
        <time>2016-01-03T09:49:16.616Z</time>
      </trkpt>
      <trkpt lat="43.7069" lon="5.79916">
        <ele>361</ele>
        <time>2016-01-03T09:49:19.864Z</time>
      </trkpt>
      <trkpt lat="43.70688" lon="5.79915">
        <ele>361</ele>
        <time>2016-01-03T09:49:20.639Z</time>
      </trkpt>
      <trkpt lat="43.7068" lon="5.79912">
        <ele>362</ele>
        <time>2016-01-03T09:49:23.664Z</time>
      </trkpt>
      <trkpt lat="43.70678" lon="5.7991">
        <ele>362</ele>
        <time>2016-01-03T09:49:24.619Z</time>
      </trkpt>
      <trkpt lat="43.7067" lon="5.79907">
        <ele>361</ele>
        <time>2016-01-03T09:49:27.641Z</time>
      </trkpt>
      <trkpt lat="43.70667" lon="5.79905">
        <ele>361</ele>
        <time>2016-01-03T09:49:28.617Z</time>
      </trkpt>
      <trkpt lat="43.7066" lon="5.79899">
        <ele>360</ele>
        <time>2016-01-03T09:49:31.667Z</time>
      </trkpt>
      <trkpt lat="43.70657" lon="5.79898">
        <ele>360</ele>
        <time>2016-01-03T09:49:32.616Z</time>
      </trkpt>
      <trkpt lat="43.70652" lon="5.79896">
        <ele>360</ele>
        <time>2016-01-03T09:49:34.640Z</time>
      </trkpt>
      <trkpt lat="43.70648" lon="5.79895">
        <ele>360</ele>
        <time>2016-01-03T09:49:35.617Z</time>
      </trkpt>
      <trkpt lat="43.70641" lon="5.79894">
        <ele>361</ele>
        <time>2016-01-03T09:49:37.641Z</time>
      </trkpt>
      <trkpt lat="43.70638" lon="5.79894">
        <ele>361</ele>
        <time>2016-01-03T09:49:38.617Z</time>
      </trkpt>
      <trkpt lat="43.70631" lon="5.79893">
        <ele>360</ele>
        <time>2016-01-03T09:49:40.640Z</time>
      </trkpt>
      <trkpt lat="43.70628" lon="5.79893">
        <ele>361</ele>
        <time>2016-01-03T09:49:41.616Z</time>
      </trkpt>
      <trkpt lat="43.70621" lon="5.79892">
        <ele>362</ele>
        <time>2016-01-03T09:49:43.640Z</time>
      </trkpt>
      <trkpt lat="43.70617" lon="5.79892">
        <ele>362</ele>
        <time>2016-01-03T09:49:44.617Z</time>
      </trkpt>
      <trkpt lat="43.70611" lon="5.79891">
        <ele>362</ele>
        <time>2016-01-03T09:49:46.639Z</time>
      </trkpt>
      <trkpt lat="43.70607" lon="5.79891">
        <ele>362</ele>
        <time>2016-01-03T09:49:47.617Z</time>
      </trkpt>
      <trkpt lat="43.70601" lon="5.79893">
        <ele>362</ele>
        <time>2016-01-03T09:49:49.639Z</time>
      </trkpt>
      <trkpt lat="43.70598" lon="5.79893">
        <ele>362</ele>
        <time>2016-01-03T09:49:50.616Z</time>
      </trkpt>
      <trkpt lat="43.70591" lon="5.79895">
        <ele>362</ele>
        <time>2016-01-03T09:49:52.639Z</time>
      </trkpt>
      <trkpt lat="43.70588" lon="5.79896">
        <ele>363</ele>
        <time>2016-01-03T09:49:53.644Z</time>
      </trkpt>
      <trkpt lat="43.70582" lon="5.79898">
        <ele>363</ele>
        <time>2016-01-03T09:49:55.639Z</time>
      </trkpt>
      <trkpt lat="43.70579" lon="5.79898">
        <ele>363</ele>
        <time>2016-01-03T09:49:56.616Z</time>
      </trkpt>
      <trkpt lat="43.70572" lon="5.79898">
        <ele>364</ele>
        <time>2016-01-03T09:49:58.640Z</time>
      </trkpt>
      <trkpt lat="43.70569" lon="5.79899">
        <ele>364</ele>
        <time>2016-01-03T09:49:59.617Z</time>
      </trkpt>
      <trkpt lat="43.7056" lon="5.79899">
        <ele>363</ele>
        <time>2016-01-03T09:50:02.639Z</time>
      </trkpt>
      <trkpt lat="43.70558" lon="5.79899">
        <ele>363</ele>
        <time>2016-01-03T09:50:03.616Z</time>
      </trkpt>
      <trkpt lat="43.70549" lon="5.799">
        <ele>363</ele>
        <time>2016-01-03T09:50:06.640Z</time>
      </trkpt>
      <trkpt lat="43.70546" lon="5.799">
        <ele>364</ele>
        <time>2016-01-03T09:50:07.616Z</time>
      </trkpt>
      <trkpt lat="43.70538" lon="5.79899">
        <ele>364</ele>
        <time>2016-01-03T09:50:10.639Z</time>
      </trkpt>
      <trkpt lat="43.70535" lon="5.79899">
        <ele>365</ele>
        <time>2016-01-03T09:50:11.617Z</time>
      </trkpt>
      <trkpt lat="43.70528" lon="5.79898">
        <ele>366</ele>
        <time>2016-01-03T09:50:14.641Z</time>
      </trkpt>
      <trkpt lat="43.70525" lon="5.79897">
        <ele>366</ele>
        <time>2016-01-03T09:50:15.643Z</time>
      </trkpt>
      <trkpt lat="43.70517" lon="5.79898">
        <ele>366</ele>
        <time>2016-01-03T09:50:19.641Z</time>
      </trkpt>
      <trkpt lat="43.70515" lon="5.79897">
        <ele>367</ele>
        <time>2016-01-03T09:50:20.616Z</time>
      </trkpt>
      <trkpt lat="43.70507" lon="5.79894">
        <ele>368</ele>
        <time>2016-01-03T09:50:24.651Z</time>
      </trkpt>
      <trkpt lat="43.70505" lon="5.79894">
        <ele>367</ele>
        <time>2016-01-03T09:50:25.617Z</time>
      </trkpt>
      <trkpt lat="43.70498" lon="5.79894">
        <ele>367</ele>
        <time>2016-01-03T09:50:28.641Z</time>
      </trkpt>
      <trkpt lat="43.70495" lon="5.79894">
        <ele>367</ele>
        <time>2016-01-03T09:50:29.617Z</time>
      </trkpt>
      <trkpt lat="43.70487" lon="5.79893">
        <ele>368</ele>
        <time>2016-01-03T09:50:32.699Z</time>
      </trkpt>
      <trkpt lat="43.70484" lon="5.79891">
        <ele>368</ele>
        <time>2016-01-03T09:50:33.617Z</time>
      </trkpt>
      <trkpt lat="43.70477" lon="5.79888">
        <ele>368</ele>
        <time>2016-01-03T09:50:36.640Z</time>
      </trkpt>
      <trkpt lat="43.70474" lon="5.79887">
        <ele>368</ele>
        <time>2016-01-03T09:50:37.618Z</time>
      </trkpt>
      <trkpt lat="43.70467" lon="5.79884">
        <ele>370</ele>
        <time>2016-01-03T09:50:40.643Z</time>
      </trkpt>
      <trkpt lat="43.70465" lon="5.79884">
        <ele>370</ele>
        <time>2016-01-03T09:50:41.617Z</time>
      </trkpt>
      <trkpt lat="43.70457" lon="5.79883">
        <ele>372</ele>
        <time>2016-01-03T09:50:45.646Z</time>
      </trkpt>
      <trkpt lat="43.70455" lon="5.79883">
        <ele>372</ele>
        <time>2016-01-03T09:50:46.617Z</time>
      </trkpt>
      <trkpt lat="43.70447" lon="5.79886">
        <ele>374</ele>
        <time>2016-01-03T09:50:51.639Z</time>
      </trkpt>
      <trkpt lat="43.70445" lon="5.79887">
        <ele>374</ele>
        <time>2016-01-03T09:50:52.642Z</time>
      </trkpt>
      <trkpt lat="43.70438" lon="5.79892">
        <ele>377</ele>
        <time>2016-01-03T09:50:57.639Z</time>
      </trkpt>
      <trkpt lat="43.70437" lon="5.79894">
        <ele>377</ele>
        <time>2016-01-03T09:50:58.617Z</time>
      </trkpt>
      <trkpt lat="43.70429" lon="5.79893">
        <ele>377</ele>
        <time>2016-01-03T09:51:03.667Z</time>
      </trkpt>
      <trkpt lat="43.70427" lon="5.79891">
        <ele>377</ele>
        <time>2016-01-03T09:51:04.619Z</time>
      </trkpt>
      <trkpt lat="43.70421" lon="5.79883">
        <ele>377</ele>
        <time>2016-01-03T09:51:07.640Z</time>
      </trkpt>
      <trkpt lat="43.70419" lon="5.79881">
        <ele>377</ele>
        <time>2016-01-03T09:51:08.616Z</time>
      </trkpt>
      <trkpt lat="43.70412" lon="5.79876">
        <ele>377</ele>
        <time>2016-01-03T09:51:11.640Z</time>
      </trkpt>
      <trkpt lat="43.7041" lon="5.79876">
        <ele>377</ele>
        <time>2016-01-03T09:51:12.616Z</time>
      </trkpt>
      <trkpt lat="43.70402" lon="5.79873">
        <ele>377</ele>
        <time>2016-01-03T09:51:15.640Z</time>
      </trkpt>
      <trkpt lat="43.704" lon="5.79873">
        <ele>377</ele>
        <time>2016-01-03T09:51:16.616Z</time>
      </trkpt>
      <trkpt lat="43.70393" lon="5.79873">
        <ele>377</ele>
        <time>2016-01-03T09:51:19.639Z</time>
      </trkpt>
      <trkpt lat="43.7039" lon="5.79874">
        <ele>378</ele>
        <time>2016-01-03T09:51:20.616Z</time>
      </trkpt>
      <trkpt lat="43.70383" lon="5.79875">
        <ele>378</ele>
        <time>2016-01-03T09:51:23.643Z</time>
      </trkpt>
      <trkpt lat="43.70381" lon="5.79876">
        <ele>378</ele>
        <time>2016-01-03T09:51:24.618Z</time>
      </trkpt>
      <trkpt lat="43.70374" lon="5.7988">
        <ele>380</ele>
        <time>2016-01-03T09:51:27.638Z</time>
      </trkpt>
      <trkpt lat="43.70372" lon="5.79882">
        <ele>380</ele>
        <time>2016-01-03T09:51:28.614Z</time>
      </trkpt>
      <trkpt lat="43.70365" lon="5.79887">
        <ele>382</ele>
        <time>2016-01-03T09:51:31.641Z</time>
      </trkpt>
      <trkpt lat="43.70364" lon="5.79889">
        <ele>382</ele>
        <time>2016-01-03T09:51:32.616Z</time>
      </trkpt>
      <trkpt lat="43.70357" lon="5.79896">
        <ele>383</ele>
        <time>2016-01-03T09:51:36.642Z</time>
      </trkpt>
      <trkpt lat="43.70355" lon="5.79898">
        <ele>383</ele>
        <time>2016-01-03T09:51:37.615Z</time>
      </trkpt>
      <trkpt lat="43.70348" lon="5.79901">
        <ele>383</ele>
        <time>2016-01-03T09:51:41.669Z</time>
      </trkpt>
      <trkpt lat="43.70346" lon="5.79901">
        <ele>383</ele>
        <time>2016-01-03T09:51:42.616Z</time>
      </trkpt>
      <trkpt lat="43.70337" lon="5.799">
        <ele>383</ele>
        <time>2016-01-03T09:51:46.640Z</time>
      </trkpt>
      <trkpt lat="43.70335" lon="5.799">
        <ele>383</ele>
        <time>2016-01-03T09:51:47.617Z</time>
      </trkpt>
      <trkpt lat="43.70326" lon="5.79897">
        <ele>383</ele>
        <time>2016-01-03T09:51:51.640Z</time>
      </trkpt>
      <trkpt lat="43.70324" lon="5.79897">
        <ele>383</ele>
        <time>2016-01-03T09:51:52.625Z</time>
      </trkpt>
      <trkpt lat="43.70315" lon="5.79895">
        <ele>383</ele>
        <time>2016-01-03T09:51:56.634Z</time>
      </trkpt>
      <trkpt lat="43.70313" lon="5.79894">
        <ele>383</ele>
        <time>2016-01-03T09:51:57.624Z</time>
      </trkpt>
      <trkpt lat="43.70305" lon="5.79895">
        <ele>383</ele>
        <time>2016-01-03T09:52:01.640Z</time>
      </trkpt>
      <trkpt lat="43.70303" lon="5.79896">
        <ele>383</ele>
        <time>2016-01-03T09:52:02.616Z</time>
      </trkpt>
      <trkpt lat="43.70296" lon="5.79896">
        <ele>383</ele>
        <time>2016-01-03T09:52:05.641Z</time>
      </trkpt>
      <trkpt lat="43.70293" lon="5.79896">
        <ele>383</ele>
        <time>2016-01-03T09:52:06.616Z</time>
      </trkpt>
      <trkpt lat="43.70285" lon="5.79899">
        <ele>384</ele>
        <time>2016-01-03T09:52:10.860Z</time>
      </trkpt>
      <trkpt lat="43.70283" lon="5.799">
        <ele>384</ele>
        <time>2016-01-03T09:52:11.617Z</time>
      </trkpt>
      <trkpt lat="43.70274" lon="5.79903">
        <ele>385</ele>
        <time>2016-01-03T09:52:15.641Z</time>
      </trkpt>
      <trkpt lat="43.70272" lon="5.79904">
        <ele>386</ele>
        <time>2016-01-03T09:52:16.618Z</time>
      </trkpt>
      <trkpt lat="43.70266" lon="5.79907">
        <ele>386</ele>
        <time>2016-01-03T09:52:21.643Z</time>
      </trkpt>
      <trkpt lat="43.70263" lon="5.79907">
        <ele>386</ele>
        <time>2016-01-03T09:52:22.642Z</time>
      </trkpt>
      <trkpt lat="43.70255" lon="5.79906">
        <ele>388</ele>
        <time>2016-01-03T09:52:26.641Z</time>
      </trkpt>
      <trkpt lat="43.70253" lon="5.79905">
        <ele>388</ele>
        <time>2016-01-03T09:52:27.617Z</time>
      </trkpt>
      <trkpt lat="43.70246" lon="5.79897">
        <ele>387</ele>
        <time>2016-01-03T09:56:05.644Z</time>
      </trkpt>
      <trkpt lat="43.70246" lon="5.79897">
        <ele>387</ele>
        <time>2016-01-03T09:56:06.619Z</time>
      </trkpt>
      <trkpt lat="43.70239" lon="5.79892">
        <ele>390</ele>
        <time>2016-01-03T09:57:41.638Z</time>
      </trkpt>
      <trkpt lat="43.70237" lon="5.7989">
        <ele>390</ele>
        <time>2016-01-03T09:57:42.626Z</time>
      </trkpt>
      <trkpt lat="43.70231" lon="5.79884">
        <ele>390</ele>
        <time>2016-01-03T09:57:45.641Z</time>
      </trkpt>
      <trkpt lat="43.70229" lon="5.79882">
        <ele>390</ele>
        <time>2016-01-03T09:57:46.618Z</time>
      </trkpt>
      <trkpt lat="43.70222" lon="5.79877">
        <ele>390</ele>
        <time>2016-01-03T09:57:49.641Z</time>
      </trkpt>
      <trkpt lat="43.7022" lon="5.79875">
        <ele>390</ele>
        <time>2016-01-03T09:57:50.612Z</time>
      </trkpt>
      <trkpt lat="43.70214" lon="5.79868">
        <ele>391</ele>
        <time>2016-01-03T09:57:53.642Z</time>
      </trkpt>
      <trkpt lat="43.70213" lon="5.79866">
        <ele>392</ele>
        <time>2016-01-03T09:57:54.617Z</time>
      </trkpt>
      <trkpt lat="43.70208" lon="5.79859">
        <ele>392</ele>
        <time>2016-01-03T09:57:57.643Z</time>
      </trkpt>
      <trkpt lat="43.70206" lon="5.79857">
        <ele>392</ele>
        <time>2016-01-03T09:57:58.623Z</time>
      </trkpt>
      <trkpt lat="43.70199" lon="5.79853">
        <ele>393</ele>
        <time>2016-01-03T09:58:01.641Z</time>
      </trkpt>
      <trkpt lat="43.70197" lon="5.79852">
        <ele>393</ele>
        <time>2016-01-03T09:58:02.647Z</time>
      </trkpt>
      <trkpt lat="43.70189" lon="5.79848">
        <ele>394</ele>
        <time>2016-01-03T09:58:06.642Z</time>
      </trkpt>
      <trkpt lat="43.70187" lon="5.79847">
        <ele>394</ele>
        <time>2016-01-03T09:58:07.618Z</time>
      </trkpt>
      <trkpt lat="43.7018" lon="5.7984">
        <ele>395</ele>
        <time>2016-01-03T09:58:11.815Z</time>
      </trkpt>
      <trkpt lat="43.70178" lon="5.79838">
        <ele>395</ele>
        <time>2016-01-03T09:58:12.618Z</time>
      </trkpt>
      <trkpt lat="43.70173" lon="5.79832">
        <ele>395</ele>
        <time>2016-01-03T09:58:15.641Z</time>
      </trkpt>
      <trkpt lat="43.70172" lon="5.79829">
        <ele>395</ele>
        <time>2016-01-03T09:58:16.620Z</time>
      </trkpt>
      <trkpt lat="43.70169" lon="5.79821">
        <ele>396</ele>
        <time>2016-01-03T09:58:19.641Z</time>
      </trkpt>
      <trkpt lat="43.70167" lon="5.79819">
        <ele>396</ele>
        <time>2016-01-03T09:58:20.620Z</time>
      </trkpt>
      <trkpt lat="43.70161" lon="5.79811">
        <ele>397</ele>
        <time>2016-01-03T09:58:24.635Z</time>
      </trkpt>
      <trkpt lat="43.70159" lon="5.79811">
        <ele>397</ele>
        <time>2016-01-03T09:58:25.620Z</time>
      </trkpt>
      <trkpt lat="43.70151" lon="5.79813">
        <ele>398</ele>
        <time>2016-01-03T09:58:31.641Z</time>
      </trkpt>
      <trkpt lat="43.7015" lon="5.79814">
        <ele>398</ele>
        <time>2016-01-03T09:58:32.619Z</time>
      </trkpt>
      <trkpt lat="43.70142" lon="5.79818">
        <ele>399</ele>
        <time>2016-01-03T09:58:36.641Z</time>
      </trkpt>
      <trkpt lat="43.7014" lon="5.79818">
        <ele>400</ele>
        <time>2016-01-03T09:58:37.619Z</time>
      </trkpt>
      <trkpt lat="43.70132" lon="5.79816">
        <ele>400</ele>
        <time>2016-01-03T09:58:42.642Z</time>
      </trkpt>
      <trkpt lat="43.7013" lon="5.79815">
        <ele>400</ele>
        <time>2016-01-03T09:58:43.620Z</time>
      </trkpt>
      <trkpt lat="43.70123" lon="5.79812">
        <ele>401</ele>
        <time>2016-01-03T09:58:48.640Z</time>
      </trkpt>
      <trkpt lat="43.70121" lon="5.79811">
        <ele>401</ele>
        <time>2016-01-03T09:58:49.618Z</time>
      </trkpt>
      <trkpt lat="43.70114" lon="5.79807">
        <ele>403</ele>
        <time>2016-01-03T09:58:54.642Z</time>
      </trkpt>
      <trkpt lat="43.70112" lon="5.79806">
        <ele>403</ele>
        <time>2016-01-03T09:58:55.620Z</time>
      </trkpt>
      <trkpt lat="43.70103" lon="5.79806">
        <ele>404</ele>
        <time>2016-01-03T09:59:00.685Z</time>
      </trkpt>
      <trkpt lat="43.70102" lon="5.79806">
        <ele>405</ele>
        <time>2016-01-03T09:59:01.617Z</time>
      </trkpt>
      <trkpt lat="43.70093" lon="5.79805">
        <ele>406</ele>
        <time>2016-01-03T09:59:06.642Z</time>
      </trkpt>
      <trkpt lat="43.70092" lon="5.79805">
        <ele>406</ele>
        <time>2016-01-03T09:59:07.619Z</time>
      </trkpt>
      <trkpt lat="43.70084" lon="5.79801">
        <ele>408</ele>
        <time>2016-01-03T09:59:12.669Z</time>
      </trkpt>
      <trkpt lat="43.70083" lon="5.79801">
        <ele>408</ele>
        <time>2016-01-03T09:59:13.624Z</time>
      </trkpt>
      <trkpt lat="43.70074" lon="5.798">
        <ele>409</ele>
        <time>2016-01-03T09:59:18.642Z</time>
      </trkpt>
      <trkpt lat="43.70073" lon="5.79801">
        <ele>409</ele>
        <time>2016-01-03T09:59:19.619Z</time>
      </trkpt>
      <trkpt lat="43.70064" lon="5.79805">
        <ele>410</ele>
        <time>2016-01-03T09:59:25.642Z</time>
      </trkpt>
      <trkpt lat="43.70063" lon="5.79805">
        <ele>410</ele>
        <time>2016-01-03T09:59:26.619Z</time>
      </trkpt>
      <trkpt lat="43.70055" lon="5.79811">
        <ele>413</ele>
        <time>2016-01-03T09:59:32.642Z</time>
      </trkpt>
      <trkpt lat="43.70054" lon="5.79812">
        <ele>414</ele>
        <time>2016-01-03T09:59:33.620Z</time>
      </trkpt>
      <trkpt lat="43.70048" lon="5.7982">
        <ele>415</ele>
        <time>2016-01-03T09:59:39.642Z</time>
      </trkpt>
      <trkpt lat="43.70047" lon="5.79821">
        <ele>416</ele>
        <time>2016-01-03T09:59:40.619Z</time>
      </trkpt>
      <trkpt lat="43.70039" lon="5.79825">
        <ele>417</ele>
        <time>2016-01-03T09:59:47.642Z</time>
      </trkpt>
      <trkpt lat="43.70038" lon="5.79826">
        <ele>417</ele>
        <time>2016-01-03T09:59:48.614Z</time>
      </trkpt>
      <trkpt lat="43.70031" lon="5.79829">
        <ele>418</ele>
        <time>2016-01-03T09:59:55.643Z</time>
      </trkpt>
      <trkpt lat="43.70029" lon="5.79829">
        <ele>419</ele>
        <time>2016-01-03T09:59:56.618Z</time>
      </trkpt>
      <trkpt lat="43.70021" lon="5.79833">
        <ele>420</ele>
        <time>2016-01-03T10:00:03.642Z</time>
      </trkpt>
      <trkpt lat="43.7002" lon="5.79834">
        <ele>420</ele>
        <time>2016-01-03T10:00:04.788Z</time>
      </trkpt>
      <trkpt lat="43.70012" lon="5.79838">
        <ele>421</ele>
        <time>2016-01-03T10:00:11.643Z</time>
      </trkpt>
      <trkpt lat="43.70011" lon="5.79838">
        <ele>420</ele>
        <time>2016-01-03T10:00:12.647Z</time>
      </trkpt>
      <trkpt lat="43.70003" lon="5.7984">
        <ele>421</ele>
        <time>2016-01-03T10:00:18.640Z</time>
      </trkpt>
      <trkpt lat="43.70002" lon="5.7984">
        <ele>420</ele>
        <time>2016-01-03T10:00:19.619Z</time>
      </trkpt>
      <trkpt lat="43.69993" lon="5.79844">
        <ele>421</ele>
        <time>2016-01-03T10:00:25.642Z</time>
      </trkpt>
      <trkpt lat="43.69992" lon="5.79845">
        <ele>422</ele>
        <time>2016-01-03T10:00:26.624Z</time>
      </trkpt>
      <trkpt lat="43.69985" lon="5.79851">
        <ele>423</ele>
        <time>2016-01-03T10:00:31.641Z</time>
      </trkpt>
      <trkpt lat="43.69984" lon="5.79852">
        <ele>423</ele>
        <time>2016-01-03T10:00:32.617Z</time>
      </trkpt>
      <trkpt lat="43.69978" lon="5.79858">
        <ele>424</ele>
        <time>2016-01-03T10:00:37.640Z</time>
      </trkpt>
      <trkpt lat="43.69976" lon="5.79859">
        <ele>424</ele>
        <time>2016-01-03T10:00:38.623Z</time>
      </trkpt>
      <trkpt lat="43.69969" lon="5.79864">
        <ele>425</ele>
        <time>2016-01-03T10:00:43.642Z</time>
      </trkpt>
      <trkpt lat="43.69968" lon="5.79866">
        <ele>425</ele>
        <time>2016-01-03T10:00:44.648Z</time>
      </trkpt>
      <trkpt lat="43.69961" lon="5.7987">
        <ele>427</ele>
        <time>2016-01-03T10:00:49.642Z</time>
      </trkpt>
      <trkpt lat="43.6996" lon="5.79871">
        <ele>427</ele>
        <time>2016-01-03T10:00:50.619Z</time>
      </trkpt>
      <trkpt lat="43.69953" lon="5.79878">
        <ele>429</ele>
        <time>2016-01-03T10:00:56.641Z</time>
      </trkpt>
      <trkpt lat="43.69952" lon="5.79879">
        <ele>429</ele>
        <time>2016-01-03T10:00:57.619Z</time>
      </trkpt>
      <trkpt lat="43.69944" lon="5.79885">
        <ele>430</ele>
        <time>2016-01-03T10:01:03.642Z</time>
      </trkpt>
      <trkpt lat="43.69942" lon="5.79886">
        <ele>430</ele>
        <time>2016-01-03T10:01:04.620Z</time>
      </trkpt>
      <trkpt lat="43.69935" lon="5.79892">
        <ele>431</ele>
        <time>2016-01-03T10:01:10.642Z</time>
      </trkpt>
      <trkpt lat="43.69934" lon="5.79893">
        <ele>431</ele>
        <time>2016-01-03T10:01:11.619Z</time>
      </trkpt>
      <trkpt lat="43.69927" lon="5.79898">
        <ele>432</ele>
        <time>2016-01-03T10:01:17.639Z</time>
      </trkpt>
      <trkpt lat="43.69925" lon="5.79899">
        <ele>432</ele>
        <time>2016-01-03T10:01:18.614Z</time>
      </trkpt>
      <trkpt lat="43.69918" lon="5.79905">
        <ele>433</ele>
        <time>2016-01-03T10:01:24.645Z</time>
      </trkpt>
      <trkpt lat="43.69917" lon="5.79906">
        <ele>433</ele>
        <time>2016-01-03T10:01:25.618Z</time>
      </trkpt>
      <trkpt lat="43.6991" lon="5.79911">
        <ele>433</ele>
        <time>2016-01-03T10:01:30.632Z</time>
      </trkpt>
      <trkpt lat="43.69909" lon="5.79912">
        <ele>433</ele>
        <time>2016-01-03T10:01:31.619Z</time>
      </trkpt>
      <trkpt lat="43.69902" lon="5.79918">
        <ele>433</ele>
        <time>2016-01-03T10:01:36.643Z</time>
      </trkpt>
      <trkpt lat="43.699" lon="5.79919">
        <ele>434</ele>
        <time>2016-01-03T10:01:37.620Z</time>
      </trkpt>
      <trkpt lat="43.69894" lon="5.79927">
        <ele>435</ele>
        <time>2016-01-03T10:01:42.689Z</time>
      </trkpt>
      <trkpt lat="43.69893" lon="5.79929">
        <ele>435</ele>
        <time>2016-01-03T10:01:43.621Z</time>
      </trkpt>
      <trkpt lat="43.69889" lon="5.79938">
        <ele>436</ele>
        <time>2016-01-03T10:01:47.639Z</time>
      </trkpt>
      <trkpt lat="43.69888" lon="5.7994">
        <ele>436</ele>
        <time>2016-01-03T10:01:48.620Z</time>
      </trkpt>
      <trkpt lat="43.69883" lon="5.79949">
        <ele>436</ele>
        <time>2016-01-03T10:01:52.642Z</time>
      </trkpt>
      <trkpt lat="43.69882" lon="5.79951">
        <ele>436</ele>
        <time>2016-01-03T10:01:53.625Z</time>
      </trkpt>
      <trkpt lat="43.69878" lon="5.7996">
        <ele>437</ele>
        <time>2016-01-03T10:01:57.641Z</time>
      </trkpt>
      <trkpt lat="43.69877" lon="5.79962">
        <ele>437</ele>
        <time>2016-01-03T10:01:58.620Z</time>
      </trkpt>
      <trkpt lat="43.69872" lon="5.7997">
        <ele>437</ele>
        <time>2016-01-03T10:02:02.642Z</time>
      </trkpt>
      <trkpt lat="43.69871" lon="5.79972">
        <ele>437</ele>
        <time>2016-01-03T10:02:03.620Z</time>
      </trkpt>
      <trkpt lat="43.69866" lon="5.7998">
        <ele>438</ele>
        <time>2016-01-03T10:02:07.641Z</time>
      </trkpt>
      <trkpt lat="43.69866" lon="5.79982">
        <ele>438</ele>
        <time>2016-01-03T10:02:08.838Z</time>
      </trkpt>
      <trkpt lat="43.69864" lon="5.79993">
        <ele>439</ele>
        <time>2016-01-03T10:02:12.639Z</time>
      </trkpt>
      <trkpt lat="43.69864" lon="5.79996">
        <ele>438</ele>
        <time>2016-01-03T10:02:13.619Z</time>
      </trkpt>
      <trkpt lat="43.69862" lon="5.80006">
        <ele>439</ele>
        <time>2016-01-03T10:02:17.667Z</time>
      </trkpt>
      <trkpt lat="43.69861" lon="5.80008">
        <ele>439</ele>
        <time>2016-01-03T10:02:18.619Z</time>
      </trkpt>
      <trkpt lat="43.69854" lon="5.80017">
        <ele>441</ele>
        <time>2016-01-03T10:02:23.644Z</time>
      </trkpt>
      <trkpt lat="43.69854" lon="5.80019">
        <ele>441</ele>
        <time>2016-01-03T10:02:24.621Z</time>
      </trkpt>
      <trkpt lat="43.69845" lon="5.80017">
        <ele>441</ele>
        <time>2016-01-03T10:02:48.643Z</time>
      </trkpt>
      <trkpt lat="43.69844" lon="5.80015">
        <ele>441</ele>
        <time>2016-01-03T10:02:49.621Z</time>
      </trkpt>
      <trkpt lat="43.69838" lon="5.80006">
        <ele>441</ele>
        <time>2016-01-03T10:02:52.643Z</time>
      </trkpt>
      <trkpt lat="43.69836" lon="5.80004">
        <ele>441</ele>
        <time>2016-01-03T10:02:53.620Z</time>
      </trkpt>
      <trkpt lat="43.69831" lon="5.79996">
        <ele>441</ele>
        <time>2016-01-03T10:02:56.642Z</time>
      </trkpt>
      <trkpt lat="43.69829" lon="5.79994">
        <ele>441</ele>
        <time>2016-01-03T10:02:57.833Z</time>
      </trkpt>
      <trkpt lat="43.69822" lon="5.79987">
        <ele>442</ele>
        <time>2016-01-03T10:03:00.642Z</time>
      </trkpt>
      <trkpt lat="43.6982" lon="5.79985">
        <ele>442</ele>
        <time>2016-01-03T10:03:01.620Z</time>
      </trkpt>
      <trkpt lat="43.69814" lon="5.79979">
        <ele>442</ele>
        <time>2016-01-03T10:03:04.645Z</time>
      </trkpt>
      <trkpt lat="43.69811" lon="5.79978">
        <ele>442</ele>
        <time>2016-01-03T10:03:05.635Z</time>
      </trkpt>
      <trkpt lat="43.69804" lon="5.79976">
        <ele>442</ele>
        <time>2016-01-03T10:03:08.643Z</time>
      </trkpt>
      <trkpt lat="43.69801" lon="5.79975">
        <ele>442</ele>
        <time>2016-01-03T10:03:09.620Z</time>
      </trkpt>
      <trkpt lat="43.69794" lon="5.79974">
        <ele>443</ele>
        <time>2016-01-03T10:03:12.642Z</time>
      </trkpt>
      <trkpt lat="43.69791" lon="5.79974">
        <ele>443</ele>
        <time>2016-01-03T10:03:13.620Z</time>
      </trkpt>
      <trkpt lat="43.69785" lon="5.79973">
        <ele>444</ele>
        <time>2016-01-03T10:03:16.642Z</time>
      </trkpt>
      <trkpt lat="43.69782" lon="5.79972">
        <ele>444</ele>
        <time>2016-01-03T10:03:17.620Z</time>
      </trkpt>
      <trkpt lat="43.69776" lon="5.7997">
        <ele>444</ele>
        <time>2016-01-03T10:03:20.641Z</time>
      </trkpt>
      <trkpt lat="43.69773" lon="5.7997">
        <ele>444</ele>
        <time>2016-01-03T10:03:21.647Z</time>
      </trkpt>
      <trkpt lat="43.69766" lon="5.79971">
        <ele>444</ele>
        <time>2016-01-03T10:03:24.645Z</time>
      </trkpt>
      <trkpt lat="43.69764" lon="5.79971">
        <ele>443</ele>
        <time>2016-01-03T10:03:25.620Z</time>
      </trkpt>
      <trkpt lat="43.69757" lon="5.79974">
        <ele>444</ele>
        <time>2016-01-03T10:03:28.638Z</time>
      </trkpt>
      <trkpt lat="43.69755" lon="5.79975">
        <ele>445</ele>
        <time>2016-01-03T10:03:29.620Z</time>
      </trkpt>
      <trkpt lat="43.69748" lon="5.79979">
        <ele>445</ele>
        <time>2016-01-03T10:03:32.669Z</time>
      </trkpt>
      <trkpt lat="43.69746" lon="5.79979">
        <ele>445</ele>
        <time>2016-01-03T10:03:33.620Z</time>
      </trkpt>
      <trkpt lat="43.69738" lon="5.79981">
        <ele>445</ele>
        <time>2016-01-03T10:03:36.643Z</time>
      </trkpt>
      <trkpt lat="43.69736" lon="5.79982">
        <ele>445</ele>
        <time>2016-01-03T10:03:37.621Z</time>
      </trkpt>
      <trkpt lat="43.69729" lon="5.79983">
        <ele>444</ele>
        <time>2016-01-03T10:03:40.643Z</time>
      </trkpt>
      <trkpt lat="43.69726" lon="5.79983">
        <ele>444</ele>
        <time>2016-01-03T10:03:41.620Z</time>
      </trkpt>
      <trkpt lat="43.69719" lon="5.79983">
        <ele>443</ele>
        <time>2016-01-03T10:03:44.645Z</time>
      </trkpt>
      <trkpt lat="43.69716" lon="5.79982">
        <ele>444</ele>
        <time>2016-01-03T10:03:45.621Z</time>
      </trkpt>
      <trkpt lat="43.69708" lon="5.79983">
        <ele>444</ele>
        <time>2016-01-03T10:03:48.667Z</time>
      </trkpt>
      <trkpt lat="43.69705" lon="5.79984">
        <ele>444</ele>
        <time>2016-01-03T10:03:49.621Z</time>
      </trkpt>
      <trkpt lat="43.69698" lon="5.79985">
        <ele>444</ele>
        <time>2016-01-03T10:03:51.642Z</time>
      </trkpt>
      <trkpt lat="43.69695" lon="5.79986">
        <ele>445</ele>
        <time>2016-01-03T10:03:52.623Z</time>
      </trkpt>
      <trkpt lat="43.69689" lon="5.79987">
        <ele>445</ele>
        <time>2016-01-03T10:03:54.644Z</time>
      </trkpt>
      <trkpt lat="43.69685" lon="5.79988">
        <ele>445</ele>
        <time>2016-01-03T10:03:55.620Z</time>
      </trkpt>
      <trkpt lat="43.69679" lon="5.79992">
        <ele>445</ele>
        <time>2016-01-03T10:03:57.643Z</time>
      </trkpt>
      <trkpt lat="43.69676" lon="5.79994">
        <ele>445</ele>
        <time>2016-01-03T10:03:58.620Z</time>
      </trkpt>
      <trkpt lat="43.69671" lon="5.79999">
        <ele>446</ele>
        <time>2016-01-03T10:04:00.644Z</time>
      </trkpt>
      <trkpt lat="43.69668" lon="5.80001">
        <ele>446</ele>
        <time>2016-01-03T10:04:01.623Z</time>
      </trkpt>
      <trkpt lat="43.69663" lon="5.80006">
        <ele>445</ele>
        <time>2016-01-03T10:04:03.642Z</time>
      </trkpt>
      <trkpt lat="43.6966" lon="5.80009">
        <ele>445</ele>
        <time>2016-01-03T10:04:04.620Z</time>
      </trkpt>
      <trkpt lat="43.69655" lon="5.80014">
        <ele>445</ele>
        <time>2016-01-03T10:04:06.641Z</time>
      </trkpt>
      <trkpt lat="43.69652" lon="5.80016">
        <ele>445</ele>
        <time>2016-01-03T10:04:07.621Z</time>
      </trkpt>
      <trkpt lat="43.69647" lon="5.80021">
        <ele>445</ele>
        <time>2016-01-03T10:04:09.645Z</time>
      </trkpt>
      <trkpt lat="43.69644" lon="5.80024">
        <ele>445</ele>
        <time>2016-01-03T10:04:10.647Z</time>
      </trkpt>
      <trkpt lat="43.69639" lon="5.80029">
        <ele>445</ele>
        <time>2016-01-03T10:04:12.643Z</time>
      </trkpt>
      <trkpt lat="43.69636" lon="5.80031">
        <ele>445</ele>
        <time>2016-01-03T10:04:13.620Z</time>
      </trkpt>
      <trkpt lat="43.69631" lon="5.80037">
        <ele>445</ele>
        <time>2016-01-03T10:04:15.644Z</time>
      </trkpt>
      <trkpt lat="43.69628" lon="5.80039">
        <ele>445</ele>
        <time>2016-01-03T10:04:16.618Z</time>
      </trkpt>
      <trkpt lat="43.69623" lon="5.80044">
        <ele>445</ele>
        <time>2016-01-03T10:04:18.643Z</time>
      </trkpt>
      <trkpt lat="43.6962" lon="5.80046">
        <ele>445</ele>
        <time>2016-01-03T10:04:19.621Z</time>
      </trkpt>
      <trkpt lat="43.69616" lon="5.80053">
        <ele>445</ele>
        <time>2016-01-03T10:04:21.642Z</time>
      </trkpt>
      <trkpt lat="43.69613" lon="5.80057">
        <ele>445</ele>
        <time>2016-01-03T10:04:22.621Z</time>
      </trkpt>
      <trkpt lat="43.69609" lon="5.80064">
        <ele>445</ele>
        <time>2016-01-03T10:04:24.645Z</time>
      </trkpt>
      <trkpt lat="43.69607" lon="5.80067">
        <ele>445</ele>
        <time>2016-01-03T10:04:25.621Z</time>
      </trkpt>
      <trkpt lat="43.69601" lon="5.80071">
        <ele>446</ele>
        <time>2016-01-03T10:04:27.643Z</time>
      </trkpt>
      <trkpt lat="43.69598" lon="5.80073">
        <ele>448</ele>
        <time>2016-01-03T10:04:28.621Z</time>
      </trkpt>
      <trkpt lat="43.69592" lon="5.80075">
        <ele>448</ele>
        <time>2016-01-03T10:04:30.630Z</time>
      </trkpt>
      <trkpt lat="43.69589" lon="5.80075">
        <ele>448</ele>
        <time>2016-01-03T10:04:31.620Z</time>
      </trkpt>
      <trkpt lat="43.6958" lon="5.80071">
        <ele>447</ele>
        <time>2016-01-03T10:04:34.645Z</time>
      </trkpt>
      <trkpt lat="43.69579" lon="5.80068">
        <ele>447</ele>
        <time>2016-01-03T10:04:35.624Z</time>
      </trkpt>
      <trkpt lat="43.69577" lon="5.8006">
        <ele>447</ele>
        <time>2016-01-03T10:04:37.669Z</time>
      </trkpt>
      <trkpt lat="43.69578" lon="5.80055">
        <ele>447</ele>
        <time>2016-01-03T10:04:38.622Z</time>
      </trkpt>
      <trkpt lat="43.69579" lon="5.80047">
        <ele>447</ele>
        <time>2016-01-03T10:04:40.643Z</time>
      </trkpt>
      <trkpt lat="43.6958" lon="5.80043">
        <ele>447</ele>
        <time>2016-01-03T10:04:41.624Z</time>
      </trkpt>
      <trkpt lat="43.69582" lon="5.80034">
        <ele>447</ele>
        <time>2016-01-03T10:04:43.652Z</time>
      </trkpt>
      <trkpt lat="43.69583" lon="5.8003">
        <ele>446</ele>
        <time>2016-01-03T10:04:44.620Z</time>
      </trkpt>
      <trkpt lat="43.69585" lon="5.80021">
        <ele>446</ele>
        <time>2016-01-03T10:04:46.643Z</time>
      </trkpt>
      <trkpt lat="43.69587" lon="5.80015">
        <ele>446</ele>
        <time>2016-01-03T10:04:47.621Z</time>
      </trkpt>
      <trkpt lat="43.69589" lon="5.80005">
        <ele>446</ele>
        <time>2016-01-03T10:04:49.645Z</time>
      </trkpt>
      <trkpt lat="43.69591" lon="5.8">
        <ele>446</ele>
        <time>2016-01-03T10:04:50.621Z</time>
      </trkpt>
      <trkpt lat="43.69594" lon="5.79991">
        <ele>446</ele>
        <time>2016-01-03T10:04:52.647Z</time>
      </trkpt>
      <trkpt lat="43.69597" lon="5.79987">
        <ele>445</ele>
        <time>2016-01-03T10:04:53.621Z</time>
      </trkpt>
      <trkpt lat="43.69602" lon="5.79978">
        <ele>446</ele>
        <time>2016-01-03T10:04:55.644Z</time>
      </trkpt>
      <trkpt lat="43.69605" lon="5.79973">
        <ele>446</ele>
        <time>2016-01-03T10:04:56.621Z</time>
      </trkpt>
      <trkpt lat="43.69609" lon="5.79967">
        <ele>447</ele>
        <time>2016-01-03T10:04:57.643Z</time>
      </trkpt>
      <trkpt lat="43.69611" lon="5.79961">
        <ele>447</ele>
        <time>2016-01-03T10:04:58.621Z</time>
      </trkpt>
      <trkpt lat="43.69613" lon="5.79954">
        <ele>446</ele>
        <time>2016-01-03T10:04:59.670Z</time>
      </trkpt>
      <trkpt lat="43.69614" lon="5.79947">
        <ele>447</ele>
        <time>2016-01-03T10:05:00.620Z</time>
      </trkpt>
      <trkpt lat="43.69614" lon="5.79941">
        <ele>447</ele>
        <time>2016-01-03T10:05:01.642Z</time>
      </trkpt>
      <trkpt lat="43.69615" lon="5.79934">
        <ele>446</ele>
        <time>2016-01-03T10:05:02.620Z</time>
      </trkpt>
      <trkpt lat="43.69619" lon="5.79924">
        <ele>445</ele>
        <time>2016-01-03T10:05:04.644Z</time>
      </trkpt>
      <trkpt lat="43.69621" lon="5.79918">
        <ele>445</ele>
        <time>2016-01-03T10:05:05.618Z</time>
      </trkpt>
      <trkpt lat="43.69623" lon="5.79912">
        <ele>444</ele>
        <time>2016-01-03T10:05:06.643Z</time>
      </trkpt>
      <trkpt lat="43.69625" lon="5.79907">
        <ele>444</ele>
        <time>2016-01-03T10:05:07.628Z</time>
      </trkpt>
      <trkpt lat="43.69625" lon="5.79895">
        <ele>445</ele>
        <time>2016-01-03T10:05:09.643Z</time>
      </trkpt>
      <trkpt lat="43.69623" lon="5.79889">
        <ele>445</ele>
        <time>2016-01-03T10:05:10.647Z</time>
      </trkpt>
      <trkpt lat="43.6962" lon="5.79878">
        <ele>446</ele>
        <time>2016-01-03T10:05:12.644Z</time>
      </trkpt>
      <trkpt lat="43.69619" lon="5.79874">
        <ele>446</ele>
        <time>2016-01-03T10:05:13.621Z</time>
      </trkpt>
      <trkpt lat="43.6961" lon="5.79873">
        <ele>446</ele>
        <time>2016-01-03T10:09:04.677Z</time>
      </trkpt>
      <trkpt lat="43.69608" lon="5.79875">
        <ele>446</ele>
        <time>2016-01-03T10:09:05.622Z</time>
      </trkpt>
      <trkpt lat="43.69604" lon="5.79884">
        <ele>447</ele>
        <time>2016-01-03T10:09:08.639Z</time>
      </trkpt>
      <trkpt lat="43.69603" lon="5.79886">
        <ele>447</ele>
        <time>2016-01-03T10:09:09.622Z</time>
      </trkpt>
      <trkpt lat="43.69597" lon="5.79893">
        <ele>447</ele>
        <time>2016-01-03T10:09:12.644Z</time>
      </trkpt>
      <trkpt lat="43.69595" lon="5.79895">
        <ele>447</ele>
        <time>2016-01-03T10:09:13.620Z</time>
      </trkpt>
      <trkpt lat="43.69589" lon="5.79901">
        <ele>446</ele>
        <time>2016-01-03T10:09:16.644Z</time>
      </trkpt>
      <trkpt lat="43.69587" lon="5.79903">
        <ele>446</ele>
        <time>2016-01-03T10:09:17.624Z</time>
      </trkpt>
      <trkpt lat="43.6958" lon="5.79905">
        <ele>448</ele>
        <time>2016-01-03T10:09:20.638Z</time>
      </trkpt>
      <trkpt lat="43.69578" lon="5.79905">
        <ele>447</ele>
        <time>2016-01-03T10:09:21.624Z</time>
      </trkpt>
      <trkpt lat="43.69569" lon="5.79902">
        <ele>448</ele>
        <time>2016-01-03T10:09:24.648Z</time>
      </trkpt>
      <trkpt lat="43.69566" lon="5.79901">
        <ele>448</ele>
        <time>2016-01-03T10:09:25.623Z</time>
      </trkpt>
      <trkpt lat="43.69558" lon="5.79902">
        <ele>448</ele>
        <time>2016-01-03T10:09:28.645Z</time>
      </trkpt>
      <trkpt lat="43.69555" lon="5.79902">
        <ele>448</ele>
        <time>2016-01-03T10:09:29.622Z</time>
      </trkpt>
      <trkpt lat="43.69547" lon="5.79904">
        <ele>449</ele>
        <time>2016-01-03T10:09:32.644Z</time>
      </trkpt>
      <trkpt lat="43.69544" lon="5.79905">
        <ele>449</ele>
        <time>2016-01-03T10:09:33.622Z</time>
      </trkpt>
      <trkpt lat="43.69537" lon="5.79908">
        <ele>449</ele>
        <time>2016-01-03T10:09:36.647Z</time>
      </trkpt>
      <trkpt lat="43.69534" lon="5.79909">
        <ele>449</ele>
        <time>2016-01-03T10:09:37.623Z</time>
      </trkpt>
      <trkpt lat="43.69527" lon="5.79912">
        <ele>449</ele>
        <time>2016-01-03T10:09:40.646Z</time>
      </trkpt>
      <trkpt lat="43.69525" lon="5.79913">
        <ele>449</ele>
        <time>2016-01-03T10:09:41.622Z</time>
      </trkpt>
      <trkpt lat="43.69517" lon="5.79915">
        <ele>450</ele>
        <time>2016-01-03T10:09:44.649Z</time>
      </trkpt>
      <trkpt lat="43.69515" lon="5.79916">
        <ele>450</ele>
        <time>2016-01-03T10:09:45.617Z</time>
      </trkpt>
      <trkpt lat="43.69507" lon="5.79919">
        <ele>450</ele>
        <time>2016-01-03T10:09:48.646Z</time>
      </trkpt>
      <trkpt lat="43.69504" lon="5.79919">
        <ele>451</ele>
        <time>2016-01-03T10:09:49.623Z</time>
      </trkpt>
      <trkpt lat="43.69496" lon="5.79916">
        <ele>453</ele>
        <time>2016-01-03T10:09:52.672Z</time>
      </trkpt>
      <trkpt lat="43.69494" lon="5.79915">
        <ele>453</ele>
        <time>2016-01-03T10:09:53.621Z</time>
      </trkpt>
      <trkpt lat="43.69486" lon="5.79912">
        <ele>454</ele>
        <time>2016-01-03T10:09:56.644Z</time>
      </trkpt>
      <trkpt lat="43.69484" lon="5.79911">
        <ele>454</ele>
        <time>2016-01-03T10:09:57.623Z</time>
      </trkpt>
      <trkpt lat="43.69475" lon="5.79911">
        <ele>455</ele>
        <time>2016-01-03T10:10:01.644Z</time>
      </trkpt>
      <trkpt lat="43.69473" lon="5.79911">
        <ele>455</ele>
        <time>2016-01-03T10:10:02.621Z</time>
      </trkpt>
      <trkpt lat="43.69465" lon="5.79913">
        <ele>458</ele>
        <time>2016-01-03T10:10:07.646Z</time>
      </trkpt>
      <trkpt lat="43.69463" lon="5.79913">
        <ele>458</ele>
        <time>2016-01-03T10:10:08.621Z</time>
      </trkpt>
      <trkpt lat="43.69456" lon="5.79917">
        <ele>462</ele>
        <time>2016-01-03T10:10:13.645Z</time>
      </trkpt>
      <trkpt lat="43.69454" lon="5.79918">
        <ele>462</ele>
        <time>2016-01-03T10:10:14.650Z</time>
      </trkpt>
      <trkpt lat="43.69446" lon="5.7992">
        <ele>467</ele>
        <time>2016-01-03T10:10:19.645Z</time>
      </trkpt>
      <trkpt lat="43.69444" lon="5.7992">
        <ele>467</ele>
        <time>2016-01-03T10:10:20.621Z</time>
      </trkpt>
      <trkpt lat="43.69436" lon="5.79922">
        <ele>468</ele>
        <time>2016-01-03T10:10:25.672Z</time>
      </trkpt>
      <trkpt lat="43.69434" lon="5.79922">
        <ele>469</ele>
        <time>2016-01-03T10:10:26.622Z</time>
      </trkpt>
      <trkpt lat="43.69426" lon="5.79923">
        <ele>469</ele>
        <time>2016-01-03T10:10:31.645Z</time>
      </trkpt>
      <trkpt lat="43.69424" lon="5.79924">
        <ele>470</ele>
        <time>2016-01-03T10:10:32.621Z</time>
      </trkpt>
      <trkpt lat="43.69417" lon="5.79925">
        <ele>472</ele>
        <time>2016-01-03T10:10:37.638Z</time>
      </trkpt>
      <trkpt lat="43.69415" lon="5.79925">
        <ele>472</ele>
        <time>2016-01-03T10:10:38.612Z</time>
      </trkpt>
      <trkpt lat="43.69406" lon="5.79925">
        <ele>474</ele>
        <time>2016-01-03T10:10:44.657Z</time>
      </trkpt>
      <trkpt lat="43.69405" lon="5.79926">
        <ele>474</ele>
        <time>2016-01-03T10:10:45.639Z</time>
      </trkpt>
      <trkpt lat="43.69396" lon="5.79927">
        <ele>474</ele>
        <time>2016-01-03T10:10:52.648Z</time>
      </trkpt>
      <trkpt lat="43.69395" lon="5.79927">
        <ele>475</ele>
        <time>2016-01-03T10:10:53.624Z</time>
      </trkpt>
      <trkpt lat="43.69386" lon="5.79928">
        <ele>476</ele>
        <time>2016-01-03T10:11:22.738Z</time>
      </trkpt>
      <trkpt lat="43.69385" lon="5.79928">
        <ele>477</ele>
        <time>2016-01-03T10:11:23.622Z</time>
      </trkpt>
      <trkpt lat="43.69377" lon="5.79928">
        <ele>479</ele>
        <time>2016-01-03T10:11:28.645Z</time>
      </trkpt>
      <trkpt lat="43.69375" lon="5.79928">
        <ele>479</ele>
        <time>2016-01-03T10:11:29.622Z</time>
      </trkpt>
      <trkpt lat="43.69368" lon="5.79928">
        <ele>478</ele>
        <time>2016-01-03T10:11:34.646Z</time>
      </trkpt>
      <trkpt lat="43.69366" lon="5.79928">
        <ele>478</ele>
        <time>2016-01-03T10:11:35.622Z</time>
      </trkpt>
      <trkpt lat="43.69358" lon="5.7993">
        <ele>479</ele>
        <time>2016-01-03T10:11:41.644Z</time>
      </trkpt>
      <trkpt lat="43.69357" lon="5.7993">
        <ele>480</ele>
        <time>2016-01-03T10:11:42.649Z</time>
      </trkpt>
      <trkpt lat="43.69349" lon="5.79927">
        <ele>482</ele>
        <time>2016-01-03T10:11:48.644Z</time>
      </trkpt>
      <trkpt lat="43.69348" lon="5.79927">
        <ele>483</ele>
        <time>2016-01-03T10:11:49.621Z</time>
      </trkpt>
      <trkpt lat="43.6934" lon="5.79926">
        <ele>485</ele>
        <time>2016-01-03T10:11:55.646Z</time>
      </trkpt>
      <trkpt lat="43.69338" lon="5.79926">
        <ele>485</ele>
        <time>2016-01-03T10:11:56.622Z</time>
      </trkpt>
      <trkpt lat="43.6933" lon="5.79927">
        <ele>488</ele>
        <time>2016-01-03T10:12:02.699Z</time>
      </trkpt>
      <trkpt lat="43.69328" lon="5.79927">
        <ele>488</ele>
        <time>2016-01-03T10:12:03.622Z</time>
      </trkpt>
      <trkpt lat="43.69321" lon="5.7993">
        <ele>491</ele>
        <time>2016-01-03T10:12:07.645Z</time>
      </trkpt>
      <trkpt lat="43.6932" lon="5.79931">
        <ele>490</ele>
        <time>2016-01-03T10:12:08.627Z</time>
      </trkpt>
      <trkpt lat="43.69316" lon="5.79942">
        <ele>484</ele>
        <time>2016-01-03T10:12:12.646Z</time>
      </trkpt>
      <trkpt lat="43.69317" lon="5.79945">
        <ele>483</ele>
        <time>2016-01-03T10:12:13.623Z</time>
      </trkpt>
      <trkpt lat="43.69318" lon="5.79957">
        <ele>481</ele>
        <time>2016-01-03T10:12:16.646Z</time>
      </trkpt>
      <trkpt lat="43.69318" lon="5.79962">
        <ele>480</ele>
        <time>2016-01-03T10:12:17.621Z</time>
      </trkpt>
      <trkpt lat="43.69319" lon="5.79973">
        <ele>480</ele>
        <time>2016-01-03T10:12:19.656Z</time>
      </trkpt>
      <trkpt lat="43.6932" lon="5.79978">
        <ele>480</ele>
        <time>2016-01-03T10:12:20.648Z</time>
      </trkpt>
      <trkpt lat="43.6932" lon="5.79989">
        <ele>479</ele>
        <time>2016-01-03T10:12:22.672Z</time>
      </trkpt>
      <trkpt lat="43.69321" lon="5.79994">
        <ele>478</ele>
        <time>2016-01-03T10:12:23.622Z</time>
      </trkpt>
      <trkpt lat="43.69323" lon="5.80002">
        <ele>478</ele>
        <time>2016-01-03T10:12:25.645Z</time>
      </trkpt>
      <trkpt lat="43.69324" lon="5.80007">
        <ele>478</ele>
        <time>2016-01-03T10:12:26.624Z</time>
      </trkpt>
      <trkpt lat="43.69325" lon="5.80016">
        <ele>476</ele>
        <time>2016-01-03T10:12:28.646Z</time>
      </trkpt>
      <trkpt lat="43.69327" lon="5.80021">
        <ele>476</ele>
        <time>2016-01-03T10:12:29.623Z</time>
      </trkpt>
      <trkpt lat="43.69329" lon="5.80031">
        <ele>476</ele>
        <time>2016-01-03T10:12:31.674Z</time>
      </trkpt>
      <trkpt lat="43.69329" lon="5.80036">
        <ele>476</ele>
        <time>2016-01-03T10:12:32.622Z</time>
      </trkpt>
      <trkpt lat="43.69331" lon="5.80045">
        <ele>477</ele>
        <time>2016-01-03T10:12:34.646Z</time>
      </trkpt>
      <trkpt lat="43.69332" lon="5.8005">
        <ele>476</ele>
        <time>2016-01-03T10:12:35.623Z</time>
      </trkpt>
      <trkpt lat="43.69333" lon="5.80059">
        <ele>475</ele>
        <time>2016-01-03T10:12:37.645Z</time>
      </trkpt>
      <trkpt lat="43.69334" lon="5.80064">
        <ele>476</ele>
        <time>2016-01-03T10:12:38.622Z</time>
      </trkpt>
      <trkpt lat="43.69336" lon="5.80074">
        <ele>475</ele>
        <time>2016-01-03T10:12:40.646Z</time>
      </trkpt>
      <trkpt lat="43.69337" lon="5.80078">
        <ele>476</ele>
        <time>2016-01-03T10:12:41.623Z</time>
      </trkpt>
      <trkpt lat="43.69339" lon="5.80087">
        <ele>476</ele>
        <time>2016-01-03T10:12:43.646Z</time>
      </trkpt>
      <trkpt lat="43.6934" lon="5.80091">
        <ele>477</ele>
        <time>2016-01-03T10:12:44.623Z</time>
      </trkpt>
      <trkpt lat="43.69343" lon="5.801">
        <ele>477</ele>
        <time>2016-01-03T10:12:46.644Z</time>
      </trkpt>
      <trkpt lat="43.69344" lon="5.80105">
        <ele>476</ele>
        <time>2016-01-03T10:12:47.622Z</time>
      </trkpt>
      <trkpt lat="43.69346" lon="5.80114">
        <ele>477</ele>
        <time>2016-01-03T10:12:49.648Z</time>
      </trkpt>
      <trkpt lat="43.69348" lon="5.80117">
        <ele>477</ele>
        <time>2016-01-03T10:12:50.626Z</time>
      </trkpt>
      <trkpt lat="43.69352" lon="5.80125">
        <ele>477</ele>
        <time>2016-01-03T10:12:52.651Z</time>
      </trkpt>
      <trkpt lat="43.69353" lon="5.8013">
        <ele>477</ele>
        <time>2016-01-03T10:12:53.651Z</time>
      </trkpt>
      <trkpt lat="43.69357" lon="5.80139">
        <ele>477</ele>
        <time>2016-01-03T10:12:55.649Z</time>
      </trkpt>
      <trkpt lat="43.69358" lon="5.80143">
        <ele>477</ele>
        <time>2016-01-03T10:12:56.621Z</time>
      </trkpt>
      <trkpt lat="43.69361" lon="5.80152">
        <ele>476</ele>
        <time>2016-01-03T10:12:58.647Z</time>
      </trkpt>
      <trkpt lat="43.69362" lon="5.80157">
        <ele>476</ele>
        <time>2016-01-03T10:12:59.623Z</time>
      </trkpt>
      <trkpt lat="43.69364" lon="5.80167">
        <ele>476</ele>
        <time>2016-01-03T10:13:01.647Z</time>
      </trkpt>
      <trkpt lat="43.69365" lon="5.80172">
        <ele>476</ele>
        <time>2016-01-03T10:13:02.623Z</time>
      </trkpt>
      <trkpt lat="43.69365" lon="5.80181">
        <ele>475</ele>
        <time>2016-01-03T10:13:04.676Z</time>
      </trkpt>
      <trkpt lat="43.69365" lon="5.80186">
        <ele>475</ele>
        <time>2016-01-03T10:13:05.623Z</time>
      </trkpt>
      <trkpt lat="43.69363" lon="5.80196">
        <ele>476</ele>
        <time>2016-01-03T10:13:07.646Z</time>
      </trkpt>
      <trkpt lat="43.69362" lon="5.80201">
        <ele>476</ele>
        <time>2016-01-03T10:13:08.623Z</time>
      </trkpt>
      <trkpt lat="43.69361" lon="5.80211">
        <ele>476</ele>
        <time>2016-01-03T10:13:10.699Z</time>
      </trkpt>
      <trkpt lat="43.6936" lon="5.80216">
        <ele>477</ele>
        <time>2016-01-03T10:13:11.623Z</time>
      </trkpt>
      <trkpt lat="43.69359" lon="5.80226">
        <ele>478</ele>
        <time>2016-01-03T10:13:13.646Z</time>
      </trkpt>
      <trkpt lat="43.69358" lon="5.8023">
        <ele>479</ele>
        <time>2016-01-03T10:13:14.623Z</time>
      </trkpt>
      <trkpt lat="43.69358" lon="5.8024">
        <ele>479</ele>
        <time>2016-01-03T10:13:16.645Z</time>
      </trkpt>
      <trkpt lat="43.69358" lon="5.80245">
        <ele>480</ele>
        <time>2016-01-03T10:13:17.623Z</time>
      </trkpt>
      <trkpt lat="43.69357" lon="5.80254">
        <ele>480</ele>
        <time>2016-01-03T10:13:19.646Z</time>
      </trkpt>
      <trkpt lat="43.69357" lon="5.80258">
        <ele>481</ele>
        <time>2016-01-03T10:13:20.624Z</time>
      </trkpt>
      <trkpt lat="43.69357" lon="5.80267">
        <ele>483</ele>
        <time>2016-01-03T10:13:22.674Z</time>
      </trkpt>
      <trkpt lat="43.69357" lon="5.80271">
        <ele>483</ele>
        <time>2016-01-03T10:13:23.623Z</time>
      </trkpt>
      <trkpt lat="43.69356" lon="5.8028">
        <ele>483</ele>
        <time>2016-01-03T10:13:25.715Z</time>
      </trkpt>
      <trkpt lat="43.69356" lon="5.80284">
        <ele>483</ele>
        <time>2016-01-03T10:13:26.622Z</time>
      </trkpt>
      <trkpt lat="43.69356" lon="5.80293">
        <ele>484</ele>
        <time>2016-01-03T10:13:28.645Z</time>
      </trkpt>
      <trkpt lat="43.69356" lon="5.80297">
        <ele>485</ele>
        <time>2016-01-03T10:13:29.622Z</time>
      </trkpt>
      <trkpt lat="43.69355" lon="5.80306">
        <ele>486</ele>
        <time>2016-01-03T10:13:31.671Z</time>
      </trkpt>
      <trkpt lat="43.69355" lon="5.8031">
        <ele>486</ele>
        <time>2016-01-03T10:13:32.622Z</time>
      </trkpt>
      <trkpt lat="43.69355" lon="5.80319">
        <ele>486</ele>
        <time>2016-01-03T10:13:34.645Z</time>
      </trkpt>
      <trkpt lat="43.69354" lon="5.80323">
        <ele>488</ele>
        <time>2016-01-03T10:13:35.624Z</time>
      </trkpt>
      <trkpt lat="43.69353" lon="5.80334">
        <ele>489</ele>
        <time>2016-01-03T10:13:38.646Z</time>
      </trkpt>
      <trkpt lat="43.69353" lon="5.80338">
        <ele>490</ele>
        <time>2016-01-03T10:13:39.623Z</time>
      </trkpt>
      <trkpt lat="43.69352" lon="5.80349">
        <ele>490</ele>
        <time>2016-01-03T10:13:42.673Z</time>
      </trkpt>
      <trkpt lat="43.69352" lon="5.80353">
        <ele>491</ele>
        <time>2016-01-03T10:13:43.623Z</time>
      </trkpt>
      <trkpt lat="43.69352" lon="5.80365">
        <ele>492</ele>
        <time>2016-01-03T10:13:46.645Z</time>
      </trkpt>
      <trkpt lat="43.69352" lon="5.80369">
        <ele>491</ele>
        <time>2016-01-03T10:13:47.622Z</time>
      </trkpt>
      <trkpt lat="43.69351" lon="5.80378">
        <ele>490</ele>
        <time>2016-01-03T10:13:49.632Z</time>
      </trkpt>
      <trkpt lat="43.69351" lon="5.80382">
        <ele>490</ele>
        <time>2016-01-03T10:13:50.623Z</time>
      </trkpt>
      <trkpt lat="43.69351" lon="5.80391">
        <ele>491</ele>
        <time>2016-01-03T10:13:52.647Z</time>
      </trkpt>
      <trkpt lat="43.69351" lon="5.80395">
        <ele>491</ele>
        <time>2016-01-03T10:13:53.649Z</time>
      </trkpt>
      <trkpt lat="43.69351" lon="5.80405">
        <ele>488</ele>
        <time>2016-01-03T10:13:55.645Z</time>
      </trkpt>
      <trkpt lat="43.69351" lon="5.80409">
        <ele>489</ele>
        <time>2016-01-03T10:13:56.623Z</time>
      </trkpt>
      <trkpt lat="43.69351" lon="5.80418">
        <ele>490</ele>
        <time>2016-01-03T10:13:58.645Z</time>
      </trkpt>
      <trkpt lat="43.6935" lon="5.80422">
        <ele>490</ele>
        <time>2016-01-03T10:13:59.624Z</time>
      </trkpt>
      <trkpt lat="43.6935" lon="5.80431">
        <ele>491</ele>
        <time>2016-01-03T10:14:01.645Z</time>
      </trkpt>
      <trkpt lat="43.6935" lon="5.80435">
        <ele>490</ele>
        <time>2016-01-03T10:14:02.623Z</time>
      </trkpt>
      <trkpt lat="43.69349" lon="5.80444">
        <ele>490</ele>
        <time>2016-01-03T10:14:04.669Z</time>
      </trkpt>
      <trkpt lat="43.69349" lon="5.80448">
        <ele>490</ele>
        <time>2016-01-03T10:14:05.623Z</time>
      </trkpt>
      <trkpt lat="43.69348" lon="5.80458">
        <ele>491</ele>
        <time>2016-01-03T10:14:07.645Z</time>
      </trkpt>
      <trkpt lat="43.69348" lon="5.80462">
        <ele>490</ele>
        <time>2016-01-03T10:14:08.623Z</time>
      </trkpt>
      <trkpt lat="43.69347" lon="5.80472">
        <ele>490</ele>
        <time>2016-01-03T10:14:10.646Z</time>
      </trkpt>
      <trkpt lat="43.69347" lon="5.80478">
        <ele>488</ele>
        <time>2016-01-03T10:14:11.623Z</time>
      </trkpt>
      <trkpt lat="43.69347" lon="5.80488">
        <ele>488</ele>
        <time>2016-01-03T10:14:13.645Z</time>
      </trkpt>
      <trkpt lat="43.69347" lon="5.80494">
        <ele>488</ele>
        <time>2016-01-03T10:14:14.622Z</time>
      </trkpt>
      <trkpt lat="43.69346" lon="5.80504">
        <ele>487</ele>
        <time>2016-01-03T10:14:16.646Z</time>
      </trkpt>
      <trkpt lat="43.69346" lon="5.8051">
        <ele>488</ele>
        <time>2016-01-03T10:14:17.622Z</time>
      </trkpt>
      <trkpt lat="43.69347" lon="5.8052">
        <ele>488</ele>
        <time>2016-01-03T10:14:19.646Z</time>
      </trkpt>
      <trkpt lat="43.69348" lon="5.80525">
        <ele>487</ele>
        <time>2016-01-03T10:14:20.622Z</time>
      </trkpt>
      <trkpt lat="43.6935" lon="5.80535">
        <ele>486</ele>
        <time>2016-01-03T10:14:22.671Z</time>
      </trkpt>
      <trkpt lat="43.69351" lon="5.8054">
        <ele>486</ele>
        <time>2016-01-03T10:14:23.622Z</time>
      </trkpt>
      <trkpt lat="43.69352" lon="5.80551">
        <ele>488</ele>
        <time>2016-01-03T10:14:25.646Z</time>
      </trkpt>
      <trkpt lat="43.69352" lon="5.80556">
        <ele>488</ele>
        <time>2016-01-03T10:14:26.645Z</time>
      </trkpt>
      <trkpt lat="43.69351" lon="5.80563">
        <ele>489</ele>
        <time>2016-01-03T10:14:27.647Z</time>
      </trkpt>
      <trkpt lat="43.6935" lon="5.80569">
        <ele>488</ele>
        <time>2016-01-03T10:14:28.617Z</time>
      </trkpt>
      <trkpt lat="43.6935" lon="5.80576">
        <ele>488</ele>
        <time>2016-01-03T10:14:29.646Z</time>
      </trkpt>
      <trkpt lat="43.69349" lon="5.80582">
        <ele>488</ele>
        <time>2016-01-03T10:14:30.623Z</time>
      </trkpt>
      <trkpt lat="43.69345" lon="5.80591">
        <ele>489</ele>
        <time>2016-01-03T10:14:31.646Z</time>
      </trkpt>
      <trkpt lat="43.69343" lon="5.80597">
        <ele>489</ele>
        <time>2016-01-03T10:14:32.831Z</time>
      </trkpt>
      <trkpt lat="43.69341" lon="5.80604">
        <ele>489</ele>
        <time>2016-01-03T10:14:33.643Z</time>
      </trkpt>
      <trkpt lat="43.69338" lon="5.8061">
        <ele>489</ele>
        <time>2016-01-03T10:14:34.624Z</time>
      </trkpt>
      <trkpt lat="43.69335" lon="5.80616">
        <ele>489</ele>
        <time>2016-01-03T10:14:35.647Z</time>
      </trkpt>
      <trkpt lat="43.69332" lon="5.80621">
        <ele>488</ele>
        <time>2016-01-03T10:14:36.625Z</time>
      </trkpt>
      <trkpt lat="43.69329" lon="5.80627">
        <ele>488</ele>
        <time>2016-01-03T10:14:37.664Z</time>
      </trkpt>
      <trkpt lat="43.69326" lon="5.80633">
        <ele>488</ele>
        <time>2016-01-03T10:14:38.624Z</time>
      </trkpt>
      <trkpt lat="43.69323" lon="5.80639">
        <ele>488</ele>
        <time>2016-01-03T10:14:39.648Z</time>
      </trkpt>
      <trkpt lat="43.6932" lon="5.80645">
        <ele>488</ele>
        <time>2016-01-03T10:14:40.626Z</time>
      </trkpt>
      <trkpt lat="43.69317" lon="5.8065">
        <ele>488</ele>
        <time>2016-01-03T10:14:41.646Z</time>
      </trkpt>
      <trkpt lat="43.69313" lon="5.80656">
        <ele>488</ele>
        <time>2016-01-03T10:14:42.625Z</time>
      </trkpt>
      <trkpt lat="43.69309" lon="5.80662">
        <ele>487</ele>
        <time>2016-01-03T10:14:43.676Z</time>
      </trkpt>
      <trkpt lat="43.69305" lon="5.80668">
        <ele>488</ele>
        <time>2016-01-03T10:14:44.623Z</time>
      </trkpt>
      <trkpt lat="43.69301" lon="5.80674">
        <ele>487</ele>
        <time>2016-01-03T10:14:45.648Z</time>
      </trkpt>
      <trkpt lat="43.69297" lon="5.8068">
        <ele>487</ele>
        <time>2016-01-03T10:14:46.623Z</time>
      </trkpt>
      <trkpt lat="43.69293" lon="5.80686">
        <ele>487</ele>
        <time>2016-01-03T10:14:47.649Z</time>
      </trkpt>
      <trkpt lat="43.69288" lon="5.80692">
        <ele>486</ele>
        <time>2016-01-03T10:14:48.623Z</time>
      </trkpt>
      <trkpt lat="43.69283" lon="5.80698">
        <ele>485</ele>
        <time>2016-01-03T10:14:49.647Z</time>
      </trkpt>
      <trkpt lat="43.69278" lon="5.80703">
        <ele>485</ele>
        <time>2016-01-03T10:14:50.623Z</time>
      </trkpt>
      <trkpt lat="43.69273" lon="5.80708">
        <ele>485</ele>
        <time>2016-01-03T10:14:51.648Z</time>
      </trkpt>
      <trkpt lat="43.69266" lon="5.80713">
        <ele>484</ele>
        <time>2016-01-03T10:14:52.622Z</time>
      </trkpt>
      <trkpt lat="43.6926" lon="5.80719">
        <ele>484</ele>
        <time>2016-01-03T10:14:53.632Z</time>
      </trkpt>
      <trkpt lat="43.69253" lon="5.80727">
        <ele>484</ele>
        <time>2016-01-03T10:14:54.647Z</time>
      </trkpt>
      <trkpt lat="43.69249" lon="5.80735">
        <ele>483</ele>
        <time>2016-01-03T10:14:55.646Z</time>
      </trkpt>
      <trkpt lat="43.69243" lon="5.80743">
        <ele>482</ele>
        <time>2016-01-03T10:14:56.625Z</time>
      </trkpt>
      <trkpt lat="43.69236" lon="5.8075">
        <ele>482</ele>
        <time>2016-01-03T10:14:57.646Z</time>
      </trkpt>
      <trkpt lat="43.69229" lon="5.80756">
        <ele>481</ele>
        <time>2016-01-03T10:14:58.623Z</time>
      </trkpt>
      <trkpt lat="43.69222" lon="5.80761">
        <ele>479</ele>
        <time>2016-01-03T10:14:59.646Z</time>
      </trkpt>
      <trkpt lat="43.69214" lon="5.80766">
        <ele>479</ele>
        <time>2016-01-03T10:15:00.623Z</time>
      </trkpt>
      <trkpt lat="43.69207" lon="5.80771">
        <ele>479</ele>
        <time>2016-01-03T10:15:01.647Z</time>
      </trkpt>
      <trkpt lat="43.692" lon="5.80776">
        <ele>478</ele>
        <time>2016-01-03T10:15:02.622Z</time>
      </trkpt>
      <trkpt lat="43.69194" lon="5.80781">
        <ele>477</ele>
        <time>2016-01-03T10:15:03.644Z</time>
      </trkpt>
      <trkpt lat="43.69187" lon="5.80787">
        <ele>477</ele>
        <time>2016-01-03T10:15:04.622Z</time>
      </trkpt>
      <trkpt lat="43.69182" lon="5.80792">
        <ele>477</ele>
        <time>2016-01-03T10:15:05.645Z</time>
      </trkpt>
      <trkpt lat="43.69176" lon="5.80797">
        <ele>477</ele>
        <time>2016-01-03T10:15:06.623Z</time>
      </trkpt>
      <trkpt lat="43.69171" lon="5.808">
        <ele>477</ele>
        <time>2016-01-03T10:15:07.645Z</time>
      </trkpt>
      <trkpt lat="43.69164" lon="5.80804">
        <ele>478</ele>
        <time>2016-01-03T10:15:08.623Z</time>
      </trkpt>
      <trkpt lat="43.69159" lon="5.8081">
        <ele>478</ele>
        <time>2016-01-03T10:15:09.645Z</time>
      </trkpt>
      <trkpt lat="43.69153" lon="5.80815">
        <ele>479</ele>
        <time>2016-01-03T10:15:10.648Z</time>
      </trkpt>
      <trkpt lat="43.69147" lon="5.80818">
        <ele>479</ele>
        <time>2016-01-03T10:15:11.647Z</time>
      </trkpt>
      <trkpt lat="43.69141" lon="5.80823">
        <ele>479</ele>
        <time>2016-01-03T10:15:12.623Z</time>
      </trkpt>
      <trkpt lat="43.69134" lon="5.80826">
        <ele>480</ele>
        <time>2016-01-03T10:15:13.646Z</time>
      </trkpt>
      <trkpt lat="43.69128" lon="5.8083">
        <ele>479</ele>
        <time>2016-01-03T10:15:14.624Z</time>
      </trkpt>
      <trkpt lat="43.69122" lon="5.80835">
        <ele>479</ele>
        <time>2016-01-03T10:15:15.878Z</time>
      </trkpt>
      <trkpt lat="43.69116" lon="5.8084">
        <ele>478</ele>
        <time>2016-01-03T10:15:16.623Z</time>
      </trkpt>
      <trkpt lat="43.69111" lon="5.80844">
        <ele>479</ele>
        <time>2016-01-03T10:15:17.645Z</time>
      </trkpt>
      <trkpt lat="43.69105" lon="5.80848">
        <ele>479</ele>
        <time>2016-01-03T10:15:18.623Z</time>
      </trkpt>
      <trkpt lat="43.69101" lon="5.80853">
        <ele>479</ele>
        <time>2016-01-03T10:15:19.646Z</time>
      </trkpt>
      <trkpt lat="43.69097" lon="5.80857">
        <ele>479</ele>
        <time>2016-01-03T10:15:20.623Z</time>
      </trkpt>
      <trkpt lat="43.69092" lon="5.8086">
        <ele>479</ele>
        <time>2016-01-03T10:15:21.645Z</time>
      </trkpt>
      <trkpt lat="43.69088" lon="5.80865">
        <ele>479</ele>
        <time>2016-01-03T10:15:22.623Z</time>
      </trkpt>
      <trkpt lat="43.69083" lon="5.80868">
        <ele>479</ele>
        <time>2016-01-03T10:15:23.721Z</time>
      </trkpt>
      <trkpt lat="43.69079" lon="5.80872">
        <ele>480</ele>
        <time>2016-01-03T10:15:24.623Z</time>
      </trkpt>
      <trkpt lat="43.69074" lon="5.80875">
        <ele>479</ele>
        <time>2016-01-03T10:15:25.646Z</time>
      </trkpt>
      <trkpt lat="43.69068" lon="5.80878">
        <ele>479</ele>
        <time>2016-01-03T10:15:26.647Z</time>
      </trkpt>
      <trkpt lat="43.69063" lon="5.80881">
        <ele>479</ele>
        <time>2016-01-03T10:15:27.644Z</time>
      </trkpt>
      <trkpt lat="43.69057" lon="5.80884">
        <ele>480</ele>
        <time>2016-01-03T10:15:28.624Z</time>
      </trkpt>
      <trkpt lat="43.69052" lon="5.80887">
        <ele>480</ele>
        <time>2016-01-03T10:15:29.648Z</time>
      </trkpt>
      <trkpt lat="43.69047" lon="5.80891">
        <ele>480</ele>
        <time>2016-01-03T10:15:30.624Z</time>
      </trkpt>
      <trkpt lat="43.69043" lon="5.80895">
        <ele>480</ele>
        <time>2016-01-03T10:15:31.647Z</time>
      </trkpt>
      <trkpt lat="43.69038" lon="5.809">
        <ele>480</ele>
        <time>2016-01-03T10:15:32.624Z</time>
      </trkpt>
      <trkpt lat="43.69034" lon="5.80905">
        <ele>480</ele>
        <time>2016-01-03T10:15:33.647Z</time>
      </trkpt>
      <trkpt lat="43.69031" lon="5.80911">
        <ele>480</ele>
        <time>2016-01-03T10:15:34.625Z</time>
      </trkpt>
      <trkpt lat="43.69027" lon="5.80918">
        <ele>480</ele>
        <time>2016-01-03T10:15:35.648Z</time>
      </trkpt>
      <trkpt lat="43.69023" lon="5.80924">
        <ele>480</ele>
        <time>2016-01-03T10:15:36.623Z</time>
      </trkpt>
      <trkpt lat="43.69019" lon="5.8093">
        <ele>480</ele>
        <time>2016-01-03T10:15:37.693Z</time>
      </trkpt>
      <trkpt lat="43.69016" lon="5.80936">
        <ele>480</ele>
        <time>2016-01-03T10:15:38.625Z</time>
      </trkpt>
      <trkpt lat="43.69012" lon="5.80941">
        <ele>480</ele>
        <time>2016-01-03T10:15:39.648Z</time>
      </trkpt>
      <trkpt lat="43.69008" lon="5.80945">
        <ele>480</ele>
        <time>2016-01-03T10:15:40.624Z</time>
      </trkpt>
      <trkpt lat="43.69003" lon="5.80949">
        <ele>480</ele>
        <time>2016-01-03T10:15:41.640Z</time>
      </trkpt>
      <trkpt lat="43.68999" lon="5.80954">
        <ele>479</ele>
        <time>2016-01-03T10:15:42.623Z</time>
      </trkpt>
      <trkpt lat="43.68995" lon="5.80961">
        <ele>479</ele>
        <time>2016-01-03T10:15:43.648Z</time>
      </trkpt>
      <trkpt lat="43.68993" lon="5.80969">
        <ele>480</ele>
        <time>2016-01-03T10:15:44.622Z</time>
      </trkpt>
      <trkpt lat="43.68991" lon="5.80977">
        <ele>479</ele>
        <time>2016-01-03T10:15:45.646Z</time>
      </trkpt>
      <trkpt lat="43.68989" lon="5.80986">
        <ele>478</ele>
        <time>2016-01-03T10:15:46.624Z</time>
      </trkpt>
      <trkpt lat="43.68986" lon="5.80995">
        <ele>478</ele>
        <time>2016-01-03T10:15:47.647Z</time>
      </trkpt>
      <trkpt lat="43.68984" lon="5.81004">
        <ele>477</ele>
        <time>2016-01-03T10:15:48.648Z</time>
      </trkpt>
      <trkpt lat="43.68983" lon="5.81012">
        <ele>476</ele>
        <time>2016-01-03T10:15:49.647Z</time>
      </trkpt>
      <trkpt lat="43.68981" lon="5.8102">
        <ele>476</ele>
        <time>2016-01-03T10:15:50.624Z</time>
      </trkpt>
      <trkpt lat="43.68979" lon="5.81028">
        <ele>476</ele>
        <time>2016-01-03T10:15:51.649Z</time>
      </trkpt>
      <trkpt lat="43.68979" lon="5.81035">
        <ele>476</ele>
        <time>2016-01-03T10:15:52.623Z</time>
      </trkpt>
      <trkpt lat="43.68978" lon="5.81042">
        <ele>476</ele>
        <time>2016-01-03T10:15:53.647Z</time>
      </trkpt>
      <trkpt lat="43.68976" lon="5.81048">
        <ele>476</ele>
        <time>2016-01-03T10:15:54.623Z</time>
      </trkpt>
      <trkpt lat="43.68973" lon="5.81059">
        <ele>475</ele>
        <time>2016-01-03T10:15:56.647Z</time>
      </trkpt>
      <trkpt lat="43.68972" lon="5.81063">
        <ele>475</ele>
        <time>2016-01-03T10:15:57.625Z</time>
      </trkpt>
      <trkpt lat="43.68969" lon="5.81072">
        <ele>476</ele>
        <time>2016-01-03T10:15:59.867Z</time>
      </trkpt>
      <trkpt lat="43.68968" lon="5.81078">
        <ele>476</ele>
        <time>2016-01-03T10:16:00.625Z</time>
      </trkpt>
      <trkpt lat="43.68965" lon="5.81088">
        <ele>476</ele>
        <time>2016-01-03T10:16:02.645Z</time>
      </trkpt>
      <trkpt lat="43.68964" lon="5.81094">
        <ele>476</ele>
        <time>2016-01-03T10:16:03.623Z</time>
      </trkpt>
      <trkpt lat="43.68962" lon="5.81099">
        <ele>476</ele>
        <time>2016-01-03T10:16:04.684Z</time>
      </trkpt>
      <trkpt lat="43.68961" lon="5.81105">
        <ele>477</ele>
        <time>2016-01-03T10:16:05.623Z</time>
      </trkpt>
      <trkpt lat="43.68957" lon="5.81117">
        <ele>478</ele>
        <time>2016-01-03T10:16:07.649Z</time>
      </trkpt>
      <trkpt lat="43.68956" lon="5.81122">
        <ele>478</ele>
        <time>2016-01-03T10:16:08.624Z</time>
      </trkpt>
      <trkpt lat="43.68953" lon="5.81134">
        <ele>478</ele>
        <time>2016-01-03T10:16:10.646Z</time>
      </trkpt>
      <trkpt lat="43.68953" lon="5.8114">
        <ele>479</ele>
        <time>2016-01-03T10:16:11.623Z</time>
      </trkpt>
      <trkpt lat="43.68952" lon="5.81151">
        <ele>480</ele>
        <time>2016-01-03T10:16:13.647Z</time>
      </trkpt>
      <trkpt lat="43.68951" lon="5.81157">
        <ele>479</ele>
        <time>2016-01-03T10:16:14.624Z</time>
      </trkpt>
      <trkpt lat="43.68948" lon="5.81168">
        <ele>479</ele>
        <time>2016-01-03T10:16:16.632Z</time>
      </trkpt>
      <trkpt lat="43.68946" lon="5.81174">
        <ele>479</ele>
        <time>2016-01-03T10:16:17.622Z</time>
      </trkpt>
      <trkpt lat="43.68943" lon="5.81184">
        <ele>479</ele>
        <time>2016-01-03T10:16:19.644Z</time>
      </trkpt>
      <trkpt lat="43.68941" lon="5.8119">
        <ele>479</ele>
        <time>2016-01-03T10:16:20.621Z</time>
      </trkpt>
      <trkpt lat="43.6894" lon="5.81195">
        <ele>479</ele>
        <time>2016-01-03T10:16:21.643Z</time>
      </trkpt>
      <trkpt lat="43.68938" lon="5.81201">
        <ele>478</ele>
        <time>2016-01-03T10:16:22.621Z</time>
      </trkpt>
      <trkpt lat="43.68937" lon="5.81209">
        <ele>478</ele>
        <time>2016-01-03T10:16:23.718Z</time>
      </trkpt>
      <trkpt lat="43.68935" lon="5.81216">
        <ele>478</ele>
        <time>2016-01-03T10:16:24.625Z</time>
      </trkpt>
      <trkpt lat="43.68934" lon="5.81223">
        <ele>477</ele>
        <time>2016-01-03T10:16:25.643Z</time>
      </trkpt>
      <trkpt lat="43.68932" lon="5.8123">
        <ele>477</ele>
        <time>2016-01-03T10:16:26.644Z</time>
      </trkpt>
      <trkpt lat="43.6893" lon="5.81238">
        <ele>477</ele>
        <time>2016-01-03T10:16:27.642Z</time>
      </trkpt>
      <trkpt lat="43.68929" lon="5.81245">
        <ele>476</ele>
        <time>2016-01-03T10:16:28.620Z</time>
      </trkpt>
      <trkpt lat="43.68927" lon="5.81252">
        <ele>476</ele>
        <time>2016-01-03T10:16:29.643Z</time>
      </trkpt>
      <trkpt lat="43.68925" lon="5.81259">
        <ele>475</ele>
        <time>2016-01-03T10:16:30.621Z</time>
      </trkpt>
      <trkpt lat="43.68924" lon="5.81267">
        <ele>475</ele>
        <time>2016-01-03T10:16:31.643Z</time>
      </trkpt>
      <trkpt lat="43.68924" lon="5.81275">
        <ele>475</ele>
        <time>2016-01-03T10:16:32.616Z</time>
      </trkpt>
      <trkpt lat="43.68923" lon="5.81284">
        <ele>475</ele>
        <time>2016-01-03T10:16:33.642Z</time>
      </trkpt>
      <trkpt lat="43.68923" lon="5.81292">
        <ele>475</ele>
        <time>2016-01-03T10:16:34.622Z</time>
      </trkpt>
      <trkpt lat="43.68922" lon="5.813">
        <ele>475</ele>
        <time>2016-01-03T10:16:35.631Z</time>
      </trkpt>
      <trkpt lat="43.68921" lon="5.81308">
        <ele>474</ele>
        <time>2016-01-03T10:16:36.621Z</time>
      </trkpt>
      <trkpt lat="43.68921" lon="5.81317">
        <ele>475</ele>
        <time>2016-01-03T10:16:37.669Z</time>
      </trkpt>
      <trkpt lat="43.68921" lon="5.81326">
        <ele>475</ele>
        <time>2016-01-03T10:16:38.624Z</time>
      </trkpt>
      <trkpt lat="43.68921" lon="5.81334">
        <ele>475</ele>
        <time>2016-01-03T10:16:39.647Z</time>
      </trkpt>
      <trkpt lat="43.6892" lon="5.81342">
        <ele>474</ele>
        <time>2016-01-03T10:16:40.623Z</time>
      </trkpt>
      <trkpt lat="43.68918" lon="5.8135">
        <ele>474</ele>
        <time>2016-01-03T10:16:41.646Z</time>
      </trkpt>
      <trkpt lat="43.68915" lon="5.81357">
        <ele>475</ele>
        <time>2016-01-03T10:16:42.624Z</time>
      </trkpt>
      <trkpt lat="43.68912" lon="5.81361">
        <ele>474</ele>
        <time>2016-01-03T10:17:36.825Z</time>
      </trkpt>
      <trkpt lat="43.68913" lon="5.81347">
        <ele>474</ele>
        <time>2016-01-03T10:20:43.983Z</time>
      </trkpt>
      <trkpt lat="43.68911" lon="5.81353">
        <ele>472</ele>
        <time>2016-01-03T10:20:51.705Z</time>
      </trkpt>
      <trkpt lat="43.68909" lon="5.81361">
        <ele>472</ele>
        <time>2016-01-03T10:20:52.684Z</time>
      </trkpt>
      <trkpt lat="43.68915" lon="5.81355">
        <ele>475</ele>
        <time>2016-01-03T10:23:03.691Z</time>
      </trkpt>
      <trkpt lat="43.68916" lon="5.81352">
        <ele>475</ele>
        <time>2016-01-03T10:23:04.624Z</time>
      </trkpt>
      <trkpt lat="43.68918" lon="5.81343">
        <ele>475</ele>
        <time>2016-01-03T10:23:07.631Z</time>
      </trkpt>
      <trkpt lat="43.68918" lon="5.8134">
        <ele>475</ele>
        <time>2016-01-03T10:23:08.624Z</time>
      </trkpt>
      <trkpt lat="43.68918" lon="5.81329">
        <ele>474</ele>
        <time>2016-01-03T10:23:11.646Z</time>
      </trkpt>
      <trkpt lat="43.68919" lon="5.81325">
        <ele>474</ele>
        <time>2016-01-03T10:23:12.623Z</time>
      </trkpt>
      <trkpt lat="43.6892" lon="5.81316">
        <ele>474</ele>
        <time>2016-01-03T10:23:14.672Z</time>
      </trkpt>
      <trkpt lat="43.6892" lon="5.81312">
        <ele>474</ele>
        <time>2016-01-03T10:23:15.624Z</time>
      </trkpt>
      <trkpt lat="43.68921" lon="5.81301">
        <ele>474</ele>
        <time>2016-01-03T10:23:18.649Z</time>
      </trkpt>
      <trkpt lat="43.68922" lon="5.81297">
        <ele>474</ele>
        <time>2016-01-03T10:23:19.625Z</time>
      </trkpt>
      <trkpt lat="43.68924" lon="5.81286">
        <ele>475</ele>
        <time>2016-01-03T10:23:22.639Z</time>
      </trkpt>
      <trkpt lat="43.68924" lon="5.81283">
        <ele>475</ele>
        <time>2016-01-03T10:23:23.624Z</time>
      </trkpt>
      <trkpt lat="43.68924" lon="5.81272">
        <ele>475</ele>
        <time>2016-01-03T10:23:26.647Z</time>
      </trkpt>
      <trkpt lat="43.68924" lon="5.81268">
        <ele>475</ele>
        <time>2016-01-03T10:23:27.624Z</time>
      </trkpt>
      <trkpt lat="43.68926" lon="5.81257">
        <ele>475</ele>
        <time>2016-01-03T10:23:30.657Z</time>
      </trkpt>
      <trkpt lat="43.68927" lon="5.81254">
        <ele>475</ele>
        <time>2016-01-03T10:23:31.626Z</time>
      </trkpt>
      <trkpt lat="43.6893" lon="5.81244">
        <ele>475</ele>
        <time>2016-01-03T10:23:34.648Z</time>
      </trkpt>
      <trkpt lat="43.68931" lon="5.81241">
        <ele>475</ele>
        <time>2016-01-03T10:23:35.624Z</time>
      </trkpt>
      <trkpt lat="43.68934" lon="5.8123">
        <ele>476</ele>
        <time>2016-01-03T10:23:38.646Z</time>
      </trkpt>
      <trkpt lat="43.68935" lon="5.81226">
        <ele>476</ele>
        <time>2016-01-03T10:23:39.626Z</time>
      </trkpt>
      <trkpt lat="43.68937" lon="5.81214">
        <ele>475</ele>
        <time>2016-01-03T10:23:42.648Z</time>
      </trkpt>
      <trkpt lat="43.68938" lon="5.8121">
        <ele>475</ele>
        <time>2016-01-03T10:23:43.624Z</time>
      </trkpt>
      <trkpt lat="43.6894" lon="5.81199">
        <ele>475</ele>
        <time>2016-01-03T10:23:46.648Z</time>
      </trkpt>
      <trkpt lat="43.68941" lon="5.81196">
        <ele>475</ele>
        <time>2016-01-03T10:23:47.649Z</time>
      </trkpt>
      <trkpt lat="43.68943" lon="5.81185">
        <ele>475</ele>
        <time>2016-01-03T10:23:50.648Z</time>
      </trkpt>
      <trkpt lat="43.68944" lon="5.81181">
        <ele>475</ele>
        <time>2016-01-03T10:23:51.624Z</time>
      </trkpt>
      <trkpt lat="43.68948" lon="5.8117">
        <ele>475</ele>
        <time>2016-01-03T10:23:54.649Z</time>
      </trkpt>
      <trkpt lat="43.68949" lon="5.81166">
        <ele>475</ele>
        <time>2016-01-03T10:23:55.625Z</time>
      </trkpt>
      <trkpt lat="43.68952" lon="5.81155">
        <ele>475</ele>
        <time>2016-01-03T10:23:58.650Z</time>
      </trkpt>
      <trkpt lat="43.68953" lon="5.81151">
        <ele>475</ele>
        <time>2016-01-03T10:23:59.625Z</time>
      </trkpt>
      <trkpt lat="43.68955" lon="5.8114">
        <ele>475</ele>
        <time>2016-01-03T10:24:02.659Z</time>
      </trkpt>
      <trkpt lat="43.68955" lon="5.81136">
        <ele>475</ele>
        <time>2016-01-03T10:24:03.624Z</time>
      </trkpt>
      <trkpt lat="43.68958" lon="5.81124">
        <ele>474</ele>
        <time>2016-01-03T10:24:06.647Z</time>
      </trkpt>
      <trkpt lat="43.68959" lon="5.8112">
        <ele>475</ele>
        <time>2016-01-03T10:24:07.625Z</time>
      </trkpt>
      <trkpt lat="43.68961" lon="5.81109">
        <ele>476</ele>
        <time>2016-01-03T10:24:09.648Z</time>
      </trkpt>
      <trkpt lat="43.68962" lon="5.81103">
        <ele>476</ele>
        <time>2016-01-03T10:24:10.624Z</time>
      </trkpt>
      <trkpt lat="43.68962" lon="5.81091">
        <ele>476</ele>
        <time>2016-01-03T10:24:12.647Z</time>
      </trkpt>
      <trkpt lat="43.68963" lon="5.81086">
        <ele>475</ele>
        <time>2016-01-03T10:24:13.616Z</time>
      </trkpt>
      <trkpt lat="43.68966" lon="5.81075">
        <ele>475</ele>
        <time>2016-01-03T10:24:15.648Z</time>
      </trkpt>
      <trkpt lat="43.68967" lon="5.81071">
        <ele>475</ele>
        <time>2016-01-03T10:24:16.624Z</time>
      </trkpt>
      <trkpt lat="43.68968" lon="5.81061">
        <ele>473</ele>
        <time>2016-01-03T10:24:18.636Z</time>
      </trkpt>
      <trkpt lat="43.68969" lon="5.81056">
        <ele>473</ele>
        <time>2016-01-03T10:24:19.625Z</time>
      </trkpt>
      <trkpt lat="43.6897" lon="5.81046">
        <ele>473</ele>
        <time>2016-01-03T10:24:21.646Z</time>
      </trkpt>
      <trkpt lat="43.68971" lon="5.81041">
        <ele>473</ele>
        <time>2016-01-03T10:24:22.624Z</time>
      </trkpt>
      <trkpt lat="43.68973" lon="5.81032">
        <ele>473</ele>
        <time>2016-01-03T10:24:24.866Z</time>
      </trkpt>
      <trkpt lat="43.68974" lon="5.81027">
        <ele>473</ele>
        <time>2016-01-03T10:24:25.649Z</time>
      </trkpt>
      <trkpt lat="43.68978" lon="5.81019">
        <ele>473</ele>
        <time>2016-01-03T10:24:27.649Z</time>
      </trkpt>
      <trkpt lat="43.6898" lon="5.81015">
        <ele>473</ele>
        <time>2016-01-03T10:24:28.625Z</time>
      </trkpt>
      <trkpt lat="43.68983" lon="5.81009">
        <ele>474</ele>
        <time>2016-01-03T10:24:30.648Z</time>
      </trkpt>
      <trkpt lat="43.68985" lon="5.81005">
        <ele>474</ele>
        <time>2016-01-03T10:24:31.624Z</time>
      </trkpt>
      <trkpt lat="43.68987" lon="5.80996">
        <ele>475</ele>
        <time>2016-01-03T10:24:33.647Z</time>
      </trkpt>
      <trkpt lat="43.68989" lon="5.80991">
        <ele>475</ele>
        <time>2016-01-03T10:24:34.624Z</time>
      </trkpt>
      <trkpt lat="43.68991" lon="5.80981">
        <ele>476</ele>
        <time>2016-01-03T10:24:36.897Z</time>
      </trkpt>
      <trkpt lat="43.68993" lon="5.80977">
        <ele>476</ele>
        <time>2016-01-03T10:24:37.625Z</time>
      </trkpt>
      <trkpt lat="43.68995" lon="5.80968">
        <ele>477</ele>
        <time>2016-01-03T10:24:39.649Z</time>
      </trkpt>
      <trkpt lat="43.68996" lon="5.80964">
        <ele>477</ele>
        <time>2016-01-03T10:24:40.618Z</time>
      </trkpt>
      <trkpt lat="43.68999" lon="5.80956">
        <ele>477</ele>
        <time>2016-01-03T10:24:42.647Z</time>
      </trkpt>
      <trkpt lat="43.69001" lon="5.80952">
        <ele>477</ele>
        <time>2016-01-03T10:24:43.624Z</time>
      </trkpt>
      <trkpt lat="43.69009" lon="5.80945">
        <ele>476</ele>
        <time>2016-01-03T10:24:46.648Z</time>
      </trkpt>
      <trkpt lat="43.69011" lon="5.80943">
        <ele>476</ele>
        <time>2016-01-03T10:24:47.650Z</time>
      </trkpt>
      <trkpt lat="43.69018" lon="5.80936">
        <ele>476</ele>
        <time>2016-01-03T10:24:50.648Z</time>
      </trkpt>
      <trkpt lat="43.6902" lon="5.80933">
        <ele>476</ele>
        <time>2016-01-03T10:24:51.624Z</time>
      </trkpt>
      <trkpt lat="43.69023" lon="5.80926">
        <ele>477</ele>
        <time>2016-01-03T10:24:53.647Z</time>
      </trkpt>
      <trkpt lat="43.69025" lon="5.80923">
        <ele>477</ele>
        <time>2016-01-03T10:24:54.621Z</time>
      </trkpt>
      <trkpt lat="43.6903" lon="5.80916">
        <ele>478</ele>
        <time>2016-01-03T10:24:56.648Z</time>
      </trkpt>
      <trkpt lat="43.69032" lon="5.80912">
        <ele>478</ele>
        <time>2016-01-03T10:24:57.624Z</time>
      </trkpt>
      <trkpt lat="43.69038" lon="5.80905">
        <ele>478</ele>
        <time>2016-01-03T10:24:59.646Z</time>
      </trkpt>
      <trkpt lat="43.69041" lon="5.80901">
        <ele>478</ele>
        <time>2016-01-03T10:25:00.624Z</time>
      </trkpt>
      <trkpt lat="43.69046" lon="5.80895">
        <ele>478</ele>
        <time>2016-01-03T10:25:02.647Z</time>
      </trkpt>
      <trkpt lat="43.6905" lon="5.80892">
        <ele>478</ele>
        <time>2016-01-03T10:25:03.625Z</time>
      </trkpt>
      <trkpt lat="43.69056" lon="5.80888">
        <ele>478</ele>
        <time>2016-01-03T10:25:05.648Z</time>
      </trkpt>
      <trkpt lat="43.69059" lon="5.80886">
        <ele>479</ele>
        <time>2016-01-03T10:25:06.624Z</time>
      </trkpt>
      <trkpt lat="43.69066" lon="5.80882">
        <ele>479</ele>
        <time>2016-01-03T10:25:08.649Z</time>
      </trkpt>
      <trkpt lat="43.69069" lon="5.80881">
        <ele>479</ele>
        <time>2016-01-03T10:25:09.648Z</time>
      </trkpt>
      <trkpt lat="43.69076" lon="5.80877">
        <ele>479</ele>
        <time>2016-01-03T10:25:11.651Z</time>
      </trkpt>
      <trkpt lat="43.69079" lon="5.80874">
        <ele>479</ele>
        <time>2016-01-03T10:25:12.617Z</time>
      </trkpt>
      <trkpt lat="43.69085" lon="5.8087">
        <ele>479</ele>
        <time>2016-01-03T10:25:14.649Z</time>
      </trkpt>
      <trkpt lat="43.69088" lon="5.80867">
        <ele>479</ele>
        <time>2016-01-03T10:25:15.628Z</time>
      </trkpt>
      <trkpt lat="43.69095" lon="5.80862">
        <ele>479</ele>
        <time>2016-01-03T10:25:17.648Z</time>
      </trkpt>
      <trkpt lat="43.69098" lon="5.80859">
        <ele>479</ele>
        <time>2016-01-03T10:25:18.623Z</time>
      </trkpt>
      <trkpt lat="43.69105" lon="5.80853">
        <ele>478</ele>
        <time>2016-01-03T10:25:20.673Z</time>
      </trkpt>
      <trkpt lat="43.69108" lon="5.8085">
        <ele>477</ele>
        <time>2016-01-03T10:25:21.624Z</time>
      </trkpt>
      <trkpt lat="43.69112" lon="5.80846">
        <ele>477</ele>
        <time>2016-01-03T10:25:22.648Z</time>
      </trkpt>
      <trkpt lat="43.69116" lon="5.80843">
        <ele>478</ele>
        <time>2016-01-03T10:25:23.637Z</time>
      </trkpt>
      <trkpt lat="43.6912" lon="5.8084">
        <ele>477</ele>
        <time>2016-01-03T10:25:24.868Z</time>
      </trkpt>
      <trkpt lat="43.69124" lon="5.80837">
        <ele>478</ele>
        <time>2016-01-03T10:25:25.625Z</time>
      </trkpt>
      <trkpt lat="43.69132" lon="5.80831">
        <ele>477</ele>
        <time>2016-01-03T10:25:27.632Z</time>
      </trkpt>
      <trkpt lat="43.69136" lon="5.80828">
        <ele>478</ele>
        <time>2016-01-03T10:25:28.624Z</time>
      </trkpt>
      <trkpt lat="43.69143" lon="5.80824">
        <ele>478</ele>
        <time>2016-01-03T10:25:30.649Z</time>
      </trkpt>
      <trkpt lat="43.69147" lon="5.80821">
        <ele>477</ele>
        <time>2016-01-03T10:25:31.649Z</time>
      </trkpt>
      <trkpt lat="43.69153" lon="5.80816">
        <ele>478</ele>
        <time>2016-01-03T10:25:33.647Z</time>
      </trkpt>
      <trkpt lat="43.69157" lon="5.80814">
        <ele>478</ele>
        <time>2016-01-03T10:25:34.624Z</time>
      </trkpt>
      <trkpt lat="43.69163" lon="5.80808">
        <ele>479</ele>
        <time>2016-01-03T10:25:36.698Z</time>
      </trkpt>
      <trkpt lat="43.69166" lon="5.80806">
        <ele>479</ele>
        <time>2016-01-03T10:25:37.626Z</time>
      </trkpt>
      <trkpt lat="43.69172" lon="5.80801">
        <ele>480</ele>
        <time>2016-01-03T10:25:39.649Z</time>
      </trkpt>
      <trkpt lat="43.69176" lon="5.80799">
        <ele>480</ele>
        <time>2016-01-03T10:25:40.624Z</time>
      </trkpt>
      <trkpt lat="43.69182" lon="5.80794">
        <ele>479</ele>
        <time>2016-01-03T10:25:42.651Z</time>
      </trkpt>
      <trkpt lat="43.69184" lon="5.80791">
        <ele>480</ele>
        <time>2016-01-03T10:25:43.626Z</time>
      </trkpt>
      <trkpt lat="43.6919" lon="5.80787">
        <ele>480</ele>
        <time>2016-01-03T10:25:45.650Z</time>
      </trkpt>
      <trkpt lat="43.69193" lon="5.80784">
        <ele>480</ele>
        <time>2016-01-03T10:25:46.629Z</time>
      </trkpt>
      <trkpt lat="43.69198" lon="5.8078">
        <ele>479</ele>
        <time>2016-01-03T10:25:48.649Z</time>
      </trkpt>
      <trkpt lat="43.69202" lon="5.80778">
        <ele>479</ele>
        <time>2016-01-03T10:25:49.625Z</time>
      </trkpt>
      <trkpt lat="43.69208" lon="5.80772">
        <ele>479</ele>
        <time>2016-01-03T10:25:51.649Z</time>
      </trkpt>
      <trkpt lat="43.69212" lon="5.8077">
        <ele>480</ele>
        <time>2016-01-03T10:25:52.626Z</time>
      </trkpt>
      <trkpt lat="43.6922" lon="5.80765">
        <ele>481</ele>
        <time>2016-01-03T10:25:54.647Z</time>
      </trkpt>
      <trkpt lat="43.69223" lon="5.80762">
        <ele>481</ele>
        <time>2016-01-03T10:25:55.626Z</time>
      </trkpt>
      <trkpt lat="43.6923" lon="5.80757">
        <ele>482</ele>
        <time>2016-01-03T10:25:57.648Z</time>
      </trkpt>
      <trkpt lat="43.69232" lon="5.80755">
        <ele>483</ele>
        <time>2016-01-03T10:25:58.652Z</time>
      </trkpt>
      <trkpt lat="43.69239" lon="5.80748">
        <ele>483</ele>
        <time>2016-01-03T10:26:01.648Z</time>
      </trkpt>
      <trkpt lat="43.69241" lon="5.80746">
        <ele>483</ele>
        <time>2016-01-03T10:26:02.625Z</time>
      </trkpt>
      <trkpt lat="43.69248" lon="5.8074">
        <ele>483</ele>
        <time>2016-01-03T10:26:05.650Z</time>
      </trkpt>
      <trkpt lat="43.69249" lon="5.80737">
        <ele>483</ele>
        <time>2016-01-03T10:26:06.626Z</time>
      </trkpt>
      <trkpt lat="43.69255" lon="5.80729">
        <ele>484</ele>
        <time>2016-01-03T10:26:10.649Z</time>
      </trkpt>
      <trkpt lat="43.69256" lon="5.80728">
        <ele>483</ele>
        <time>2016-01-03T10:26:11.624Z</time>
      </trkpt>
      <trkpt lat="43.69261" lon="5.80721">
        <ele>485</ele>
        <time>2016-01-03T10:26:15.649Z</time>
      </trkpt>
      <trkpt lat="43.69263" lon="5.80719">
        <ele>485</ele>
        <time>2016-01-03T10:26:16.618Z</time>
      </trkpt>
      <trkpt lat="43.69269" lon="5.80713">
        <ele>486</ele>
        <time>2016-01-03T10:26:19.649Z</time>
      </trkpt>
      <trkpt lat="43.69271" lon="5.80711">
        <ele>486</ele>
        <time>2016-01-03T10:26:20.650Z</time>
      </trkpt>
      <trkpt lat="43.69278" lon="5.80705">
        <ele>487</ele>
        <time>2016-01-03T10:26:23.646Z</time>
      </trkpt>
      <trkpt lat="43.6928" lon="5.80703">
        <ele>488</ele>
        <time>2016-01-03T10:26:24.625Z</time>
      </trkpt>
      <trkpt lat="43.69286" lon="5.80696">
        <ele>487</ele>
        <time>2016-01-03T10:26:27.647Z</time>
      </trkpt>
      <trkpt lat="43.69287" lon="5.80694">
        <ele>488</ele>
        <time>2016-01-03T10:26:28.624Z</time>
      </trkpt>
      <trkpt lat="43.69293" lon="5.80687">
        <ele>489</ele>
        <time>2016-01-03T10:26:31.673Z</time>
      </trkpt>
      <trkpt lat="43.69294" lon="5.80685">
        <ele>490</ele>
        <time>2016-01-03T10:26:32.626Z</time>
      </trkpt>
      <trkpt lat="43.69299" lon="5.80678">
        <ele>490</ele>
        <time>2016-01-03T10:26:35.649Z</time>
      </trkpt>
      <trkpt lat="43.69301" lon="5.80676">
        <ele>490</ele>
        <time>2016-01-03T10:26:36.625Z</time>
      </trkpt>
      <trkpt lat="43.69305" lon="5.80669">
        <ele>490</ele>
        <time>2016-01-03T10:26:39.650Z</time>
      </trkpt>
      <trkpt lat="43.69307" lon="5.80666">
        <ele>490</ele>
        <time>2016-01-03T10:26:40.626Z</time>
      </trkpt>
      <trkpt lat="43.69313" lon="5.80657">
        <ele>489</ele>
        <time>2016-01-03T10:26:43.650Z</time>
      </trkpt>
      <trkpt lat="43.69315" lon="5.80654">
        <ele>489</ele>
        <time>2016-01-03T10:26:44.625Z</time>
      </trkpt>
      <trkpt lat="43.6932" lon="5.80645">
        <ele>489</ele>
        <time>2016-01-03T10:26:47.674Z</time>
      </trkpt>
      <trkpt lat="43.69322" lon="5.80642">
        <ele>490</ele>
        <time>2016-01-03T10:26:48.621Z</time>
      </trkpt>
      <trkpt lat="43.69327" lon="5.80632">
        <ele>490</ele>
        <time>2016-01-03T10:26:51.649Z</time>
      </trkpt>
      <trkpt lat="43.69329" lon="5.80628">
        <ele>490</ele>
        <time>2016-01-03T10:26:52.622Z</time>
      </trkpt>
      <trkpt lat="43.69334" lon="5.80619">
        <ele>490</ele>
        <time>2016-01-03T10:26:55.646Z</time>
      </trkpt>
      <trkpt lat="43.69335" lon="5.80616">
        <ele>490</ele>
        <time>2016-01-03T10:26:56.625Z</time>
      </trkpt>
      <trkpt lat="43.69339" lon="5.80609">
        <ele>490</ele>
        <time>2016-01-03T10:26:58.649Z</time>
      </trkpt>
      <trkpt lat="43.6934" lon="5.80605">
        <ele>490</ele>
        <time>2016-01-03T10:26:59.626Z</time>
      </trkpt>
      <trkpt lat="43.69343" lon="5.80597">
        <ele>491</ele>
        <time>2016-01-03T10:27:01.652Z</time>
      </trkpt>
      <trkpt lat="43.69344" lon="5.80592">
        <ele>491</ele>
        <time>2016-01-03T10:27:02.626Z</time>
      </trkpt>
      <trkpt lat="43.69347" lon="5.80584">
        <ele>491</ele>
        <time>2016-01-03T10:27:04.651Z</time>
      </trkpt>
      <trkpt lat="43.69348" lon="5.80579">
        <ele>491</ele>
        <time>2016-01-03T10:27:05.626Z</time>
      </trkpt>
      <trkpt lat="43.69349" lon="5.8057">
        <ele>491</ele>
        <time>2016-01-03T10:27:07.649Z</time>
      </trkpt>
      <trkpt lat="43.69349" lon="5.80566">
        <ele>491</ele>
        <time>2016-01-03T10:27:08.624Z</time>
      </trkpt>
      <trkpt lat="43.6935" lon="5.80557">
        <ele>492</ele>
        <time>2016-01-03T10:27:10.648Z</time>
      </trkpt>
      <trkpt lat="43.6935" lon="5.80553">
        <ele>491</ele>
        <time>2016-01-03T10:27:11.626Z</time>
      </trkpt>
      <trkpt lat="43.6935" lon="5.80543">
        <ele>492</ele>
        <time>2016-01-03T10:27:13.649Z</time>
      </trkpt>
      <trkpt lat="43.6935" lon="5.80538">
        <ele>492</ele>
        <time>2016-01-03T10:27:14.650Z</time>
      </trkpt>
      <trkpt lat="43.69349" lon="5.80528">
        <ele>492</ele>
        <time>2016-01-03T10:27:16.636Z</time>
      </trkpt>
      <trkpt lat="43.69348" lon="5.80524">
        <ele>492</ele>
        <time>2016-01-03T10:27:17.626Z</time>
      </trkpt>
      <trkpt lat="43.69347" lon="5.80514">
        <ele>492</ele>
        <time>2016-01-03T10:27:19.649Z</time>
      </trkpt>
      <trkpt lat="43.69347" lon="5.80509">
        <ele>491</ele>
        <time>2016-01-03T10:27:20.627Z</time>
      </trkpt>
      <trkpt lat="43.69348" lon="5.80499">
        <ele>491</ele>
        <time>2016-01-03T10:27:22.651Z</time>
      </trkpt>
      <trkpt lat="43.69349" lon="5.80493">
        <ele>491</ele>
        <time>2016-01-03T10:27:23.628Z</time>
      </trkpt>
      <trkpt lat="43.69349" lon="5.80486">
        <ele>491</ele>
        <time>2016-01-03T10:27:24.651Z</time>
      </trkpt>
      <trkpt lat="43.69349" lon="5.8048">
        <ele>491</ele>
        <time>2016-01-03T10:27:25.649Z</time>
      </trkpt>
      <trkpt lat="43.6935" lon="5.80468">
        <ele>489</ele>
        <time>2016-01-03T10:27:27.689Z</time>
      </trkpt>
      <trkpt lat="43.69351" lon="5.80462">
        <ele>490</ele>
        <time>2016-01-03T10:27:28.627Z</time>
      </trkpt>
      <trkpt lat="43.69352" lon="5.8045">
        <ele>490</ele>
        <time>2016-01-03T10:27:30.650Z</time>
      </trkpt>
      <trkpt lat="43.69352" lon="5.80443">
        <ele>490</ele>
        <time>2016-01-03T10:27:31.629Z</time>
      </trkpt>
      <trkpt lat="43.69353" lon="5.80431">
        <ele>490</ele>
        <time>2016-01-03T10:27:33.650Z</time>
      </trkpt>
      <trkpt lat="43.69354" lon="5.80424">
        <ele>491</ele>
        <time>2016-01-03T10:27:34.626Z</time>
      </trkpt>
      <trkpt lat="43.69355" lon="5.80413">
        <ele>491</ele>
        <time>2016-01-03T10:27:36.680Z</time>
      </trkpt>
      <trkpt lat="43.69356" lon="5.80407">
        <ele>491</ele>
        <time>2016-01-03T10:27:37.626Z</time>
      </trkpt>
      <trkpt lat="43.69356" lon="5.80394">
        <ele>490</ele>
        <time>2016-01-03T10:27:39.650Z</time>
      </trkpt>
      <trkpt lat="43.69355" lon="5.80389">
        <ele>491</ele>
        <time>2016-01-03T10:27:40.623Z</time>
      </trkpt>
      <trkpt lat="43.69355" lon="5.80383">
        <ele>491</ele>
        <time>2016-01-03T10:27:41.651Z</time>
      </trkpt>
      <trkpt lat="43.69356" lon="5.80376">
        <ele>491</ele>
        <time>2016-01-03T10:27:42.627Z</time>
      </trkpt>
      <trkpt lat="43.69356" lon="5.8037">
        <ele>490</ele>
        <time>2016-01-03T10:27:43.650Z</time>
      </trkpt>
      <trkpt lat="43.69356" lon="5.80363">
        <ele>489</ele>
        <time>2016-01-03T10:27:44.626Z</time>
      </trkpt>
      <trkpt lat="43.69356" lon="5.80357">
        <ele>488</ele>
        <time>2016-01-03T10:27:45.649Z</time>
      </trkpt>
      <trkpt lat="43.69356" lon="5.80351">
        <ele>487</ele>
        <time>2016-01-03T10:27:46.627Z</time>
      </trkpt>
      <trkpt lat="43.69356" lon="5.80344">
        <ele>486</ele>
        <time>2016-01-03T10:27:47.673Z</time>
      </trkpt>
      <trkpt lat="43.69356" lon="5.80335">
        <ele>486</ele>
        <time>2016-01-03T10:27:48.626Z</time>
      </trkpt>
      <trkpt lat="43.69356" lon="5.80328">
        <ele>486</ele>
        <time>2016-01-03T10:27:49.644Z</time>
      </trkpt>
      <trkpt lat="43.69357" lon="5.8032">
        <ele>486</ele>
        <time>2016-01-03T10:27:50.626Z</time>
      </trkpt>
      <trkpt lat="43.69357" lon="5.80313">
        <ele>486</ele>
        <time>2016-01-03T10:27:51.650Z</time>
      </trkpt>
      <trkpt lat="43.69358" lon="5.80306">
        <ele>485</ele>
        <time>2016-01-03T10:27:52.625Z</time>
      </trkpt>
      <trkpt lat="43.69358" lon="5.80299">
        <ele>485</ele>
        <time>2016-01-03T10:27:53.650Z</time>
      </trkpt>
      <trkpt lat="43.69359" lon="5.80291">
        <ele>484</ele>
        <time>2016-01-03T10:27:54.626Z</time>
      </trkpt>
      <trkpt lat="43.69359" lon="5.80283">
        <ele>484</ele>
        <time>2016-01-03T10:27:55.648Z</time>
      </trkpt>
      <trkpt lat="43.69359" lon="5.80276">
        <ele>484</ele>
        <time>2016-01-03T10:27:56.625Z</time>
      </trkpt>
      <trkpt lat="43.69359" lon="5.80268">
        <ele>484</ele>
        <time>2016-01-03T10:27:57.648Z</time>
      </trkpt>
      <trkpt lat="43.69359" lon="5.80261">
        <ele>484</ele>
        <time>2016-01-03T10:27:58.859Z</time>
      </trkpt>
      <trkpt lat="43.69358" lon="5.80254">
        <ele>484</ele>
        <time>2016-01-03T10:27:59.649Z</time>
      </trkpt>
      <trkpt lat="43.69359" lon="5.80246">
        <ele>483</ele>
        <time>2016-01-03T10:28:00.626Z</time>
      </trkpt>
      <trkpt lat="43.69359" lon="5.80238">
        <ele>483</ele>
        <time>2016-01-03T10:28:01.649Z</time>
      </trkpt>
      <trkpt lat="43.69359" lon="5.8023">
        <ele>483</ele>
        <time>2016-01-03T10:28:02.625Z</time>
      </trkpt>
      <trkpt lat="43.6936" lon="5.80222">
        <ele>482</ele>
        <time>2016-01-03T10:28:03.647Z</time>
      </trkpt>
      <trkpt lat="43.6936" lon="5.80213">
        <ele>482</ele>
        <time>2016-01-03T10:28:04.624Z</time>
      </trkpt>
      <trkpt lat="43.69362" lon="5.80205">
        <ele>481</ele>
        <time>2016-01-03T10:28:05.648Z</time>
      </trkpt>
      <trkpt lat="43.69363" lon="5.80197">
        <ele>481</ele>
        <time>2016-01-03T10:28:06.619Z</time>
      </trkpt>
      <trkpt lat="43.69365" lon="5.80189">
        <ele>481</ele>
        <time>2016-01-03T10:28:07.649Z</time>
      </trkpt>
      <trkpt lat="43.69365" lon="5.80181">
        <ele>481</ele>
        <time>2016-01-03T10:28:08.624Z</time>
      </trkpt>
      <trkpt lat="43.69365" lon="5.80174">
        <ele>480</ele>
        <time>2016-01-03T10:28:09.674Z</time>
      </trkpt>
      <trkpt lat="43.69365" lon="5.80166">
        <ele>481</ele>
        <time>2016-01-03T10:28:10.626Z</time>
      </trkpt>
      <trkpt lat="43.69363" lon="5.80158">
        <ele>481</ele>
        <time>2016-01-03T10:28:11.650Z</time>
      </trkpt>
      <trkpt lat="43.69361" lon="5.80151">
        <ele>482</ele>
        <time>2016-01-03T10:28:12.626Z</time>
      </trkpt>
      <trkpt lat="43.69359" lon="5.80145">
        <ele>483</ele>
        <time>2016-01-03T10:28:13.649Z</time>
      </trkpt>
      <trkpt lat="43.69356" lon="5.80139">
        <ele>483</ele>
        <time>2016-01-03T10:28:14.624Z</time>
      </trkpt>
      <trkpt lat="43.69354" lon="5.80134">
        <ele>484</ele>
        <time>2016-01-03T10:28:15.648Z</time>
      </trkpt>
      <trkpt lat="43.69351" lon="5.80128">
        <ele>483</ele>
        <time>2016-01-03T10:28:16.626Z</time>
      </trkpt>
      <trkpt lat="43.69348" lon="5.80121">
        <ele>484</ele>
        <time>2016-01-03T10:28:17.650Z</time>
      </trkpt>
      <trkpt lat="43.69345" lon="5.80115">
        <ele>485</ele>
        <time>2016-01-03T10:28:18.618Z</time>
      </trkpt>
      <trkpt lat="43.69345" lon="5.80106">
        <ele>484</ele>
        <time>2016-01-03T10:28:19.736Z</time>
      </trkpt>
      <trkpt lat="43.69343" lon="5.801">
        <ele>484</ele>
        <time>2016-01-03T10:28:20.626Z</time>
      </trkpt>
      <trkpt lat="43.69341" lon="5.80093">
        <ele>483</ele>
        <time>2016-01-03T10:28:21.650Z</time>
      </trkpt>
      <trkpt lat="43.69339" lon="5.80086">
        <ele>483</ele>
        <time>2016-01-03T10:28:22.625Z</time>
      </trkpt>
      <trkpt lat="43.69337" lon="5.80079">
        <ele>483</ele>
        <time>2016-01-03T10:28:23.650Z</time>
      </trkpt>
      <trkpt lat="43.69335" lon="5.80072">
        <ele>483</ele>
        <time>2016-01-03T10:28:24.626Z</time>
      </trkpt>
      <trkpt lat="43.69334" lon="5.80065">
        <ele>483</ele>
        <time>2016-01-03T10:28:25.650Z</time>
      </trkpt>
      <trkpt lat="43.69333" lon="5.80057">
        <ele>483</ele>
        <time>2016-01-03T10:28:26.619Z</time>
      </trkpt>
      <trkpt lat="43.69332" lon="5.80049">
        <ele>482</ele>
        <time>2016-01-03T10:28:27.650Z</time>
      </trkpt>
      <trkpt lat="43.69331" lon="5.80042">
        <ele>481</ele>
        <time>2016-01-03T10:28:28.626Z</time>
      </trkpt>
      <trkpt lat="43.69329" lon="5.80035">
        <ele>480</ele>
        <time>2016-01-03T10:28:29.650Z</time>
      </trkpt>
      <trkpt lat="43.69328" lon="5.80028">
        <ele>480</ele>
        <time>2016-01-03T10:28:30.651Z</time>
      </trkpt>
      <trkpt lat="43.69326" lon="5.80021">
        <ele>480</ele>
        <time>2016-01-03T10:28:31.650Z</time>
      </trkpt>
      <trkpt lat="43.69325" lon="5.80013">
        <ele>479</ele>
        <time>2016-01-03T10:28:32.626Z</time>
      </trkpt>
      <trkpt lat="43.69323" lon="5.80006">
        <ele>479</ele>
        <time>2016-01-03T10:28:33.649Z</time>
      </trkpt>
      <trkpt lat="43.69322" lon="5.79998">
        <ele>479</ele>
        <time>2016-01-03T10:28:34.624Z</time>
      </trkpt>
      <trkpt lat="43.69321" lon="5.79991">
        <ele>479</ele>
        <time>2016-01-03T10:28:35.650Z</time>
      </trkpt>
      <trkpt lat="43.6932" lon="5.79983">
        <ele>479</ele>
        <time>2016-01-03T10:28:36.625Z</time>
      </trkpt>
      <trkpt lat="43.6932" lon="5.79975">
        <ele>480</ele>
        <time>2016-01-03T10:28:37.651Z</time>
      </trkpt>
      <trkpt lat="43.69319" lon="5.79968">
        <ele>480</ele>
        <time>2016-01-03T10:28:38.628Z</time>
      </trkpt>
      <trkpt lat="43.69319" lon="5.7996">
        <ele>481</ele>
        <time>2016-01-03T10:28:39.651Z</time>
      </trkpt>
      <trkpt lat="43.69319" lon="5.79953">
        <ele>480</ele>
        <time>2016-01-03T10:28:40.629Z</time>
      </trkpt>
      <trkpt lat="43.69315" lon="5.79943">
        <ele>481</ele>
        <time>2016-01-03T10:28:42.648Z</time>
      </trkpt>
      <trkpt lat="43.69315" lon="5.79935">
        <ele>481</ele>
        <time>2016-01-03T10:28:43.626Z</time>
      </trkpt>
      <trkpt lat="43.69314" lon="5.79929">
        <ele>481</ele>
        <time>2016-01-03T10:28:44.652Z</time>
      </trkpt>
      <trkpt lat="43.69314" lon="5.79922">
        <ele>481</ele>
        <time>2016-01-03T10:28:45.626Z</time>
      </trkpt>
      <trkpt lat="43.69313" lon="5.79911">
        <ele>481</ele>
        <time>2016-01-03T10:28:47.639Z</time>
      </trkpt>
      <trkpt lat="43.69312" lon="5.79905">
        <ele>481</ele>
        <time>2016-01-03T10:28:48.627Z</time>
      </trkpt>
      <trkpt lat="43.69312" lon="5.79895">
        <ele>481</ele>
        <time>2016-01-03T10:28:50.651Z</time>
      </trkpt>
      <trkpt lat="43.69312" lon="5.7989">
        <ele>481</ele>
        <time>2016-01-03T10:28:51.626Z</time>
      </trkpt>
      <trkpt lat="43.69312" lon="5.79878">
        <ele>481</ele>
        <time>2016-01-03T10:28:53.859Z</time>
      </trkpt>
      <trkpt lat="43.69311" lon="5.79873">
        <ele>481</ele>
        <time>2016-01-03T10:28:54.625Z</time>
      </trkpt>
      <trkpt lat="43.6931" lon="5.79861">
        <ele>481</ele>
        <time>2016-01-03T10:28:56.651Z</time>
      </trkpt>
      <trkpt lat="43.6931" lon="5.79855">
        <ele>480</ele>
        <time>2016-01-03T10:28:57.626Z</time>
      </trkpt>
      <trkpt lat="43.6931" lon="5.79846">
        <ele>479</ele>
        <time>2016-01-03T10:28:58.649Z</time>
      </trkpt>
      <trkpt lat="43.69309" lon="5.7984">
        <ele>479</ele>
        <time>2016-01-03T10:28:59.618Z</time>
      </trkpt>
      <trkpt lat="43.69309" lon="5.79833">
        <ele>479</ele>
        <time>2016-01-03T10:29:00.649Z</time>
      </trkpt>
      <trkpt lat="43.69308" lon="5.79827">
        <ele>479</ele>
        <time>2016-01-03T10:29:01.626Z</time>
      </trkpt>
      <trkpt lat="43.69308" lon="5.79816">
        <ele>478</ele>
        <time>2016-01-03T10:29:03.650Z</time>
      </trkpt>
      <trkpt lat="43.69308" lon="5.79812">
        <ele>477</ele>
        <time>2016-01-03T10:29:04.626Z</time>
      </trkpt>
      <trkpt lat="43.69308" lon="5.79805">
        <ele>478</ele>
        <time>2016-01-03T10:29:05.649Z</time>
      </trkpt>
      <trkpt lat="43.69309" lon="5.79799">
        <ele>479</ele>
        <time>2016-01-03T10:29:06.627Z</time>
      </trkpt>
      <trkpt lat="43.69308" lon="5.79787">
        <ele>479</ele>
        <time>2016-01-03T10:29:08.675Z</time>
      </trkpt>
      <trkpt lat="43.69308" lon="5.79781">
        <ele>480</ele>
        <time>2016-01-03T10:29:09.619Z</time>
      </trkpt>
      <trkpt lat="43.69305" lon="5.79773">
        <ele>479</ele>
        <time>2016-01-03T10:29:11.649Z</time>
      </trkpt>
      <trkpt lat="43.69303" lon="5.79768">
        <ele>480</ele>
        <time>2016-01-03T10:29:12.626Z</time>
      </trkpt>
      <trkpt lat="43.69299" lon="5.79759">
        <ele>481</ele>
        <time>2016-01-03T10:29:14.650Z</time>
      </trkpt>
      <trkpt lat="43.69297" lon="5.79754">
        <ele>480</ele>
        <time>2016-01-03T10:29:15.619Z</time>
      </trkpt>
      <trkpt lat="43.69294" lon="5.79744">
        <ele>481</ele>
        <time>2016-01-03T10:29:17.650Z</time>
      </trkpt>
      <trkpt lat="43.69293" lon="5.79738">
        <ele>481</ele>
        <time>2016-01-03T10:29:18.627Z</time>
      </trkpt>
      <trkpt lat="43.69293" lon="5.79727">
        <ele>482</ele>
        <time>2016-01-03T10:29:20.634Z</time>
      </trkpt>
      <trkpt lat="43.69293" lon="5.79722">
        <ele>482</ele>
        <time>2016-01-03T10:29:21.627Z</time>
      </trkpt>
      <trkpt lat="43.69289" lon="5.79712">
        <ele>482</ele>
        <time>2016-01-03T10:29:23.648Z</time>
      </trkpt>
      <trkpt lat="43.69285" lon="5.79709">
        <ele>482</ele>
        <time>2016-01-03T10:29:24.625Z</time>
      </trkpt>
      <trkpt lat="43.69279" lon="5.79702">
        <ele>481</ele>
        <time>2016-01-03T10:29:26.651Z</time>
      </trkpt>
      <trkpt lat="43.69276" lon="5.79698">
        <ele>481</ele>
        <time>2016-01-03T10:29:27.627Z</time>
      </trkpt>
      <trkpt lat="43.69273" lon="5.79693">
        <ele>481</ele>
        <time>2016-01-03T10:29:28.639Z</time>
      </trkpt>
      <trkpt lat="43.69271" lon="5.79686">
        <ele>481</ele>
        <time>2016-01-03T10:29:29.626Z</time>
      </trkpt>
      <trkpt lat="43.69269" lon="5.79674">
        <ele>480</ele>
        <time>2016-01-03T10:29:31.650Z</time>
      </trkpt>
      <trkpt lat="43.69268" lon="5.79669">
        <ele>481</ele>
        <time>2016-01-03T10:29:32.626Z</time>
      </trkpt>
      <trkpt lat="43.69269" lon="5.79656">
        <ele>480</ele>
        <time>2016-01-03T10:29:34.651Z</time>
      </trkpt>
      <trkpt lat="43.69269" lon="5.79652">
        <ele>480</ele>
        <time>2016-01-03T10:29:35.626Z</time>
      </trkpt>
      <trkpt lat="43.69271" lon="5.79641">
        <ele>480</ele>
        <time>2016-01-03T10:29:38.652Z</time>
      </trkpt>
      <trkpt lat="43.6927" lon="5.79639">
        <ele>480</ele>
        <time>2016-01-03T10:29:39.627Z</time>
      </trkpt>
      <trkpt lat="43.69267" lon="5.79629">
        <ele>480</ele>
        <time>2016-01-03T10:29:42.649Z</time>
      </trkpt>
      <trkpt lat="43.69267" lon="5.79625">
        <ele>480</ele>
        <time>2016-01-03T10:29:43.627Z</time>
      </trkpt>
      <trkpt lat="43.69266" lon="5.79616">
        <ele>480</ele>
        <time>2016-01-03T10:29:45.652Z</time>
      </trkpt>
      <trkpt lat="43.69265" lon="5.7961">
        <ele>480</ele>
        <time>2016-01-03T10:29:46.627Z</time>
      </trkpt>
      <trkpt lat="43.69265" lon="5.79597">
        <ele>481</ele>
        <time>2016-01-03T10:29:48.650Z</time>
      </trkpt>
      <trkpt lat="43.69264" lon="5.79591">
        <ele>481</ele>
        <time>2016-01-03T10:29:49.626Z</time>
      </trkpt>
      <trkpt lat="43.69263" lon="5.79579">
        <ele>481</ele>
        <time>2016-01-03T10:29:51.645Z</time>
      </trkpt>
      <trkpt lat="43.69262" lon="5.79573">
        <ele>481</ele>
        <time>2016-01-03T10:29:52.651Z</time>
      </trkpt>
      <trkpt lat="43.6926" lon="5.79562">
        <ele>481</ele>
        <time>2016-01-03T10:29:54.650Z</time>
      </trkpt>
      <trkpt lat="43.69259" lon="5.79556">
        <ele>481</ele>
        <time>2016-01-03T10:29:55.629Z</time>
      </trkpt>
      <trkpt lat="43.69257" lon="5.79545">
        <ele>481</ele>
        <time>2016-01-03T10:29:57.650Z</time>
      </trkpt>
      <trkpt lat="43.69256" lon="5.7954">
        <ele>481</ele>
        <time>2016-01-03T10:29:58.627Z</time>
      </trkpt>
      <trkpt lat="43.69255" lon="5.7953">
        <ele>482</ele>
        <time>2016-01-03T10:30:00.648Z</time>
      </trkpt>
      <trkpt lat="43.69254" lon="5.79525">
        <ele>482</ele>
        <time>2016-01-03T10:30:01.621Z</time>
      </trkpt>
      <trkpt lat="43.69253" lon="5.79516">
        <ele>482</ele>
        <time>2016-01-03T10:30:03.674Z</time>
      </trkpt>
      <trkpt lat="43.69252" lon="5.79511">
        <ele>482</ele>
        <time>2016-01-03T10:30:04.627Z</time>
      </trkpt>
      <trkpt lat="43.69251" lon="5.79501">
        <ele>481</ele>
        <time>2016-01-03T10:30:06.658Z</time>
      </trkpt>
      <trkpt lat="43.69251" lon="5.79496">
        <ele>481</ele>
        <time>2016-01-03T10:30:07.626Z</time>
      </trkpt>
      <trkpt lat="43.6925" lon="5.79486">
        <ele>481</ele>
        <time>2016-01-03T10:30:09.649Z</time>
      </trkpt>
      <trkpt lat="43.69249" lon="5.7948">
        <ele>481</ele>
        <time>2016-01-03T10:30:10.627Z</time>
      </trkpt>
      <trkpt lat="43.69248" lon="5.7947">
        <ele>481</ele>
        <time>2016-01-03T10:30:12.650Z</time>
      </trkpt>
      <trkpt lat="43.69248" lon="5.79465">
        <ele>481</ele>
        <time>2016-01-03T10:30:13.627Z</time>
      </trkpt>
      <trkpt lat="43.69247" lon="5.79454">
        <ele>481</ele>
        <time>2016-01-03T10:30:15.651Z</time>
      </trkpt>
      <trkpt lat="43.69246" lon="5.79449">
        <ele>481</ele>
        <time>2016-01-03T10:30:16.626Z</time>
      </trkpt>
      <trkpt lat="43.69245" lon="5.79438">
        <ele>480</ele>
        <time>2016-01-03T10:35:15.649Z</time>
      </trkpt>
      <trkpt lat="43.69245" lon="5.79435">
        <ele>479</ele>
        <time>2016-01-03T10:35:16.629Z</time>
      </trkpt>
      <trkpt lat="43.69245" lon="5.79425">
        <ele>479</ele>
        <time>2016-01-03T10:35:19.654Z</time>
      </trkpt>
      <trkpt lat="43.69245" lon="5.79421">
        <ele>479</ele>
        <time>2016-01-03T10:35:20.627Z</time>
      </trkpt>
      <trkpt lat="43.69244" lon="5.79409">
        <ele>479</ele>
        <time>2016-01-03T10:35:23.653Z</time>
      </trkpt>
      <trkpt lat="43.69244" lon="5.79405">
        <ele>479</ele>
        <time>2016-01-03T10:35:24.629Z</time>
      </trkpt>
      <trkpt lat="43.69244" lon="5.79394">
        <ele>480</ele>
        <time>2016-01-03T10:35:27.653Z</time>
      </trkpt>
      <trkpt lat="43.69244" lon="5.7939">
        <ele>480</ele>
        <time>2016-01-03T10:35:28.629Z</time>
      </trkpt>
      <trkpt lat="43.69244" lon="5.7938">
        <ele>481</ele>
        <time>2016-01-03T10:35:30.652Z</time>
      </trkpt>
      <trkpt lat="43.69243" lon="5.79376">
        <ele>481</ele>
        <time>2016-01-03T10:35:31.628Z</time>
      </trkpt>
      <trkpt lat="43.69243" lon="5.79366">
        <ele>482</ele>
        <time>2016-01-03T10:35:33.680Z</time>
      </trkpt>
      <trkpt lat="43.69242" lon="5.79361">
        <ele>482</ele>
        <time>2016-01-03T10:35:34.630Z</time>
      </trkpt>
      <trkpt lat="43.69242" lon="5.79352">
        <ele>482</ele>
        <time>2016-01-03T10:35:36.654Z</time>
      </trkpt>
      <trkpt lat="43.69242" lon="5.79347">
        <ele>482</ele>
        <time>2016-01-03T10:35:37.629Z</time>
      </trkpt>
      <trkpt lat="43.69242" lon="5.79337">
        <ele>482</ele>
        <time>2016-01-03T10:35:39.654Z</time>
      </trkpt>
      <trkpt lat="43.69242" lon="5.79333">
        <ele>482</ele>
        <time>2016-01-03T10:35:40.629Z</time>
      </trkpt>
      <trkpt lat="43.69242" lon="5.79323">
        <ele>482</ele>
        <time>2016-01-03T10:35:42.654Z</time>
      </trkpt>
      <trkpt lat="43.69242" lon="5.79318">
        <ele>482</ele>
        <time>2016-01-03T10:35:43.629Z</time>
      </trkpt>
      <trkpt lat="43.69242" lon="5.79308">
        <ele>482</ele>
        <time>2016-01-03T10:35:45.655Z</time>
      </trkpt>
      <trkpt lat="43.69242" lon="5.79303">
        <ele>482</ele>
        <time>2016-01-03T10:35:46.628Z</time>
      </trkpt>
      <trkpt lat="43.69242" lon="5.79293">
        <ele>482</ele>
        <time>2016-01-03T10:35:48.653Z</time>
      </trkpt>
      <trkpt lat="43.69242" lon="5.79288">
        <ele>482</ele>
        <time>2016-01-03T10:35:49.629Z</time>
      </trkpt>
      <trkpt lat="43.69242" lon="5.79278">
        <ele>483</ele>
        <time>2016-01-03T10:35:51.653Z</time>
      </trkpt>
      <trkpt lat="43.69242" lon="5.79273">
        <ele>482</ele>
        <time>2016-01-03T10:35:52.630Z</time>
      </trkpt>
      <trkpt lat="43.69242" lon="5.79263">
        <ele>482</ele>
        <time>2016-01-03T10:35:54.655Z</time>
      </trkpt>
      <trkpt lat="43.69242" lon="5.79258">
        <ele>482</ele>
        <time>2016-01-03T10:35:55.655Z</time>
      </trkpt>
      <trkpt lat="43.69241" lon="5.79248">
        <ele>483</ele>
        <time>2016-01-03T10:35:57.645Z</time>
      </trkpt>
      <trkpt lat="43.69241" lon="5.79243">
        <ele>483</ele>
        <time>2016-01-03T10:35:58.629Z</time>
      </trkpt>
      <trkpt lat="43.6924" lon="5.79233">
        <ele>483</ele>
        <time>2016-01-03T10:36:00.642Z</time>
      </trkpt>
      <trkpt lat="43.69239" lon="5.79228">
        <ele>483</ele>
        <time>2016-01-03T10:36:01.628Z</time>
      </trkpt>
      <trkpt lat="43.69238" lon="5.79217">
        <ele>482</ele>
        <time>2016-01-03T10:36:03.653Z</time>
      </trkpt>
      <trkpt lat="43.69237" lon="5.79212">
        <ele>482</ele>
        <time>2016-01-03T10:36:04.630Z</time>
      </trkpt>
      <trkpt lat="43.69236" lon="5.792">
        <ele>482</ele>
        <time>2016-01-03T10:36:06.682Z</time>
      </trkpt>
      <trkpt lat="43.69235" lon="5.79194">
        <ele>482</ele>
        <time>2016-01-03T10:36:07.629Z</time>
      </trkpt>
      <trkpt lat="43.69234" lon="5.79182">
        <ele>482</ele>
        <time>2016-01-03T10:36:09.645Z</time>
      </trkpt>
      <trkpt lat="43.69234" lon="5.79177">
        <ele>481</ele>
        <time>2016-01-03T10:36:10.629Z</time>
      </trkpt>
      <trkpt lat="43.69233" lon="5.79165">
        <ele>481</ele>
        <time>2016-01-03T10:36:12.636Z</time>
      </trkpt>
      <trkpt lat="43.69233" lon="5.79159">
        <ele>481</ele>
        <time>2016-01-03T10:36:13.628Z</time>
      </trkpt>
      <trkpt lat="43.69233" lon="5.79148">
        <ele>480</ele>
        <time>2016-01-03T10:36:15.654Z</time>
      </trkpt>
      <trkpt lat="43.69234" lon="5.79142">
        <ele>480</ele>
        <time>2016-01-03T10:36:16.629Z</time>
      </trkpt>
      <trkpt lat="43.69235" lon="5.7913">
        <ele>480</ele>
        <time>2016-01-03T10:36:18.653Z</time>
      </trkpt>
      <trkpt lat="43.69235" lon="5.79124">
        <ele>480</ele>
        <time>2016-01-03T10:36:19.629Z</time>
      </trkpt>
      <trkpt lat="43.69237" lon="5.79113">
        <ele>479</ele>
        <time>2016-01-03T10:36:21.653Z</time>
      </trkpt>
      <trkpt lat="43.69237" lon="5.79107">
        <ele>479</ele>
        <time>2016-01-03T10:36:22.620Z</time>
      </trkpt>
      <trkpt lat="43.69238" lon="5.79101">
        <ele>479</ele>
        <time>2016-01-03T10:36:23.656Z</time>
      </trkpt>
      <trkpt lat="43.69237" lon="5.79094">
        <ele>479</ele>
        <time>2016-01-03T10:36:24.629Z</time>
      </trkpt>
      <trkpt lat="43.69238" lon="5.79087">
        <ele>479</ele>
        <time>2016-01-03T10:36:25.655Z</time>
      </trkpt>
      <trkpt lat="43.69238" lon="5.79081">
        <ele>479</ele>
        <time>2016-01-03T10:36:26.629Z</time>
      </trkpt>
      <trkpt lat="43.69238" lon="5.79074">
        <ele>478</ele>
        <time>2016-01-03T10:36:27.650Z</time>
      </trkpt>
      <trkpt lat="43.69238" lon="5.79067">
        <ele>478</ele>
        <time>2016-01-03T10:36:28.629Z</time>
      </trkpt>
      <trkpt lat="43.69238" lon="5.7906">
        <ele>477</ele>
        <time>2016-01-03T10:36:29.654Z</time>
      </trkpt>
      <trkpt lat="43.69237" lon="5.79053">
        <ele>477</ele>
        <time>2016-01-03T10:36:30.846Z</time>
      </trkpt>
      <trkpt lat="43.69238" lon="5.79046">
        <ele>476</ele>
        <time>2016-01-03T10:36:31.653Z</time>
      </trkpt>
      <trkpt lat="43.69237" lon="5.79039">
        <ele>475</ele>
        <time>2016-01-03T10:36:32.628Z</time>
      </trkpt>
      <trkpt lat="43.69237" lon="5.7903">
        <ele>475</ele>
        <time>2016-01-03T10:36:33.682Z</time>
      </trkpt>
      <trkpt lat="43.69238" lon="5.79022">
        <ele>475</ele>
        <time>2016-01-03T10:36:34.628Z</time>
      </trkpt>
      <trkpt lat="43.69237" lon="5.79012">
        <ele>474</ele>
        <time>2016-01-03T10:36:35.652Z</time>
      </trkpt>
      <trkpt lat="43.69236" lon="5.79004">
        <ele>474</ele>
        <time>2016-01-03T10:36:36.630Z</time>
      </trkpt>
      <trkpt lat="43.69236" lon="5.78995">
        <ele>474</ele>
        <time>2016-01-03T10:36:37.655Z</time>
      </trkpt>
      <trkpt lat="43.69235" lon="5.78985">
        <ele>475</ele>
        <time>2016-01-03T10:36:38.629Z</time>
      </trkpt>
      <trkpt lat="43.69235" lon="5.78977">
        <ele>474</ele>
        <time>2016-01-03T10:36:39.655Z</time>
      </trkpt>
      <trkpt lat="43.69234" lon="5.78969">
        <ele>474</ele>
        <time>2016-01-03T10:36:40.630Z</time>
      </trkpt>
      <trkpt lat="43.69233" lon="5.78961">
        <ele>474</ele>
        <time>2016-01-03T10:36:41.864Z</time>
      </trkpt>
      <trkpt lat="43.69233" lon="5.78953">
        <ele>474</ele>
        <time>2016-01-03T10:36:42.630Z</time>
      </trkpt>
      <trkpt lat="43.69233" lon="5.78946">
        <ele>474</ele>
        <time>2016-01-03T10:36:43.653Z</time>
      </trkpt>
      <trkpt lat="43.69233" lon="5.78939">
        <ele>474</ele>
        <time>2016-01-03T10:36:44.659Z</time>
      </trkpt>
      <trkpt lat="43.69233" lon="5.78932">
        <ele>474</ele>
        <time>2016-01-03T10:36:45.654Z</time>
      </trkpt>
      <trkpt lat="43.69234" lon="5.78926">
        <ele>474</ele>
        <time>2016-01-03T10:36:46.630Z</time>
      </trkpt>
      <trkpt lat="43.69236" lon="5.78914">
        <ele>474</ele>
        <time>2016-01-03T10:36:48.655Z</time>
      </trkpt>
      <trkpt lat="43.69237" lon="5.78908">
        <ele>474</ele>
        <time>2016-01-03T10:36:49.629Z</time>
      </trkpt>
      <trkpt lat="43.69239" lon="5.78896">
        <ele>475</ele>
        <time>2016-01-03T10:36:51.655Z</time>
      </trkpt>
      <trkpt lat="43.6924" lon="5.78891">
        <ele>475</ele>
        <time>2016-01-03T10:36:52.630Z</time>
      </trkpt>
      <trkpt lat="43.69242" lon="5.7888">
        <ele>475</ele>
        <time>2016-01-03T10:36:54.653Z</time>
      </trkpt>
      <trkpt lat="43.69243" lon="5.78876">
        <ele>475</ele>
        <time>2016-01-03T10:36:55.628Z</time>
      </trkpt>
      <trkpt lat="43.69244" lon="5.78867">
        <ele>475</ele>
        <time>2016-01-03T10:36:57.655Z</time>
      </trkpt>
      <trkpt lat="43.69245" lon="5.78862">
        <ele>475</ele>
        <time>2016-01-03T10:36:58.628Z</time>
      </trkpt>
      <trkpt lat="43.69246" lon="5.78851">
        <ele>475</ele>
        <time>2016-01-03T10:37:00.690Z</time>
      </trkpt>
      <trkpt lat="43.69247" lon="5.78845">
        <ele>475</ele>
        <time>2016-01-03T10:37:01.638Z</time>
      </trkpt>
      <trkpt lat="43.69248" lon="5.78834">
        <ele>475</ele>
        <time>2016-01-03T10:37:03.652Z</time>
      </trkpt>
      <trkpt lat="43.69249" lon="5.78828">
        <ele>475</ele>
        <time>2016-01-03T10:37:04.630Z</time>
      </trkpt>
      <trkpt lat="43.6925" lon="5.78823">
        <ele>474</ele>
        <time>2016-01-03T10:37:05.653Z</time>
      </trkpt>
      <trkpt lat="43.69251" lon="5.78816">
        <ele>475</ele>
        <time>2016-01-03T10:37:06.638Z</time>
      </trkpt>
      <trkpt lat="43.69253" lon="5.78809">
        <ele>475</ele>
        <time>2016-01-03T10:37:07.652Z</time>
      </trkpt>
      <trkpt lat="43.69253" lon="5.78804">
        <ele>475</ele>
        <time>2016-01-03T10:37:08.629Z</time>
      </trkpt>
      <trkpt lat="43.69253" lon="5.78793">
        <ele>474</ele>
        <time>2016-01-03T10:37:10.654Z</time>
      </trkpt>
      <trkpt lat="43.69253" lon="5.78788">
        <ele>474</ele>
        <time>2016-01-03T10:37:11.664Z</time>
      </trkpt>
      <trkpt lat="43.69252" lon="5.78776">
        <ele>474</ele>
        <time>2016-01-03T10:37:13.722Z</time>
      </trkpt>
      <trkpt lat="43.69252" lon="5.7877">
        <ele>475</ele>
        <time>2016-01-03T10:37:14.631Z</time>
      </trkpt>
      <trkpt lat="43.69251" lon="5.7876">
        <ele>476</ele>
        <time>2016-01-03T10:37:16.899Z</time>
      </trkpt>
      <trkpt lat="43.6925" lon="5.78755">
        <ele>476</ele>
        <time>2016-01-03T10:37:17.619Z</time>
      </trkpt>
      <trkpt lat="43.6925" lon="5.78745">
        <ele>475</ele>
        <time>2016-01-03T10:37:19.654Z</time>
      </trkpt>
      <trkpt lat="43.6925" lon="5.7874">
        <ele>475</ele>
        <time>2016-01-03T10:37:20.637Z</time>
      </trkpt>
      <trkpt lat="43.69249" lon="5.78731">
        <ele>475</ele>
        <time>2016-01-03T10:37:22.654Z</time>
      </trkpt>
      <trkpt lat="43.69249" lon="5.78727">
        <ele>475</ele>
        <time>2016-01-03T10:37:23.630Z</time>
      </trkpt>
      <trkpt lat="43.69248" lon="5.78717">
        <ele>475</ele>
        <time>2016-01-03T10:37:25.654Z</time>
      </trkpt>
      <trkpt lat="43.69248" lon="5.78713">
        <ele>475</ele>
        <time>2016-01-03T10:37:26.621Z</time>
      </trkpt>
      <trkpt lat="43.69247" lon="5.78703">
        <ele>475</ele>
        <time>2016-01-03T10:37:28.653Z</time>
      </trkpt>
      <trkpt lat="43.69247" lon="5.78698">
        <ele>474</ele>
        <time>2016-01-03T10:37:29.628Z</time>
      </trkpt>
      <trkpt lat="43.69246" lon="5.78686">
        <ele>473</ele>
        <time>2016-01-03T10:37:31.653Z</time>
      </trkpt>
      <trkpt lat="43.69246" lon="5.7868">
        <ele>474</ele>
        <time>2016-01-03T10:37:32.628Z</time>
      </trkpt>
      <trkpt lat="43.69245" lon="5.78672">
        <ele>473</ele>
        <time>2016-01-03T10:37:33.653Z</time>
      </trkpt>
      <trkpt lat="43.69244" lon="5.78664">
        <ele>472</ele>
        <time>2016-01-03T10:37:34.629Z</time>
      </trkpt>
      <trkpt lat="43.69243" lon="5.78656">
        <ele>472</ele>
        <time>2016-01-03T10:37:35.653Z</time>
      </trkpt>
      <trkpt lat="43.69242" lon="5.78647">
        <ele>471</ele>
        <time>2016-01-03T10:37:36.628Z</time>
      </trkpt>
      <trkpt lat="43.69241" lon="5.78638">
        <ele>470</ele>
        <time>2016-01-03T10:37:37.653Z</time>
      </trkpt>
      <trkpt lat="43.69239" lon="5.7863">
        <ele>470</ele>
        <time>2016-01-03T10:37:38.655Z</time>
      </trkpt>
      <trkpt lat="43.69237" lon="5.78622">
        <ele>470</ele>
        <time>2016-01-03T10:37:39.651Z</time>
      </trkpt>
      <trkpt lat="43.69235" lon="5.78613">
        <ele>470</ele>
        <time>2016-01-03T10:37:40.629Z</time>
      </trkpt>
      <trkpt lat="43.69234" lon="5.78606">
        <ele>470</ele>
        <time>2016-01-03T10:37:41.654Z</time>
      </trkpt>
      <trkpt lat="43.69232" lon="5.78598">
        <ele>470</ele>
        <time>2016-01-03T10:37:42.630Z</time>
      </trkpt>
      <trkpt lat="43.6923" lon="5.78591">
        <ele>471</ele>
        <time>2016-01-03T10:37:43.655Z</time>
      </trkpt>
      <trkpt lat="43.69227" lon="5.78584">
        <ele>471</ele>
        <time>2016-01-03T10:37:44.630Z</time>
      </trkpt>
      <trkpt lat="43.69224" lon="5.78573">
        <ele>471</ele>
        <time>2016-01-03T10:37:46.655Z</time>
      </trkpt>
      <trkpt lat="43.69222" lon="5.78569">
        <ele>471</ele>
        <time>2016-01-03T10:37:47.628Z</time>
      </trkpt>
      <trkpt lat="43.69218" lon="5.7856">
        <ele>472</ele>
        <time>2016-01-03T10:37:49.681Z</time>
      </trkpt>
      <trkpt lat="43.69216" lon="5.78555">
        <ele>472</ele>
        <time>2016-01-03T10:37:50.630Z</time>
      </trkpt>
      <trkpt lat="43.69214" lon="5.78549">
        <ele>472</ele>
        <time>2016-01-03T10:37:51.655Z</time>
      </trkpt>
      <trkpt lat="43.69212" lon="5.78544">
        <ele>472</ele>
        <time>2016-01-03T10:37:52.629Z</time>
      </trkpt>
      <trkpt lat="43.6921" lon="5.78532">
        <ele>472</ele>
        <time>2016-01-03T10:37:54.654Z</time>
      </trkpt>
      <trkpt lat="43.69209" lon="5.78526">
        <ele>473</ele>
        <time>2016-01-03T10:37:55.630Z</time>
      </trkpt>
      <trkpt lat="43.69209" lon="5.78515">
        <ele>473</ele>
        <time>2016-01-03T10:37:57.655Z</time>
      </trkpt>
      <trkpt lat="43.69209" lon="5.78509">
        <ele>473</ele>
        <time>2016-01-03T10:37:58.630Z</time>
      </trkpt>
      <trkpt lat="43.69209" lon="5.78499">
        <ele>473</ele>
        <time>2016-01-03T10:38:00.683Z</time>
      </trkpt>
      <trkpt lat="43.6921" lon="5.78493">
        <ele>473</ele>
        <time>2016-01-03T10:38:01.630Z</time>
      </trkpt>
      <trkpt lat="43.69212" lon="5.78483">
        <ele>474</ele>
        <time>2016-01-03T10:38:03.653Z</time>
      </trkpt>
      <trkpt lat="43.69213" lon="5.78479">
        <ele>474</ele>
        <time>2016-01-03T10:38:04.621Z</time>
      </trkpt>
      <trkpt lat="43.69216" lon="5.78471">
        <ele>473</ele>
        <time>2016-01-03T10:38:06.654Z</time>
      </trkpt>
      <trkpt lat="43.69217" lon="5.78467">
        <ele>474</ele>
        <time>2016-01-03T10:38:07.630Z</time>
      </trkpt>
      <trkpt lat="43.6922" lon="5.7846">
        <ele>474</ele>
        <time>2016-01-03T10:38:09.655Z</time>
      </trkpt>
      <trkpt lat="43.69222" lon="5.78456">
        <ele>474</ele>
        <time>2016-01-03T10:38:10.629Z</time>
      </trkpt>
      <trkpt lat="43.69225" lon="5.78448">
        <ele>474</ele>
        <time>2016-01-03T10:38:12.654Z</time>
      </trkpt>
      <trkpt lat="43.69227" lon="5.78444">
        <ele>474</ele>
        <time>2016-01-03T10:38:13.630Z</time>
      </trkpt>
      <trkpt lat="43.6923" lon="5.78437">
        <ele>475</ele>
        <time>2016-01-03T10:38:15.655Z</time>
      </trkpt>
      <trkpt lat="43.69232" lon="5.78433">
        <ele>475</ele>
        <time>2016-01-03T10:38:16.629Z</time>
      </trkpt>
      <trkpt lat="43.69236" lon="5.78426">
        <ele>475</ele>
        <time>2016-01-03T10:38:18.719Z</time>
      </trkpt>
      <trkpt lat="43.69237" lon="5.78422">
        <ele>475</ele>
        <time>2016-01-03T10:38:19.629Z</time>
      </trkpt>
      <trkpt lat="43.6924" lon="5.78414">
        <ele>475</ele>
        <time>2016-01-03T10:38:21.655Z</time>
      </trkpt>
      <trkpt lat="43.69241" lon="5.7841">
        <ele>475</ele>
        <time>2016-01-03T10:38:22.630Z</time>
      </trkpt>
      <trkpt lat="43.69243" lon="5.78398">
        <ele>476</ele>
        <time>2016-01-03T10:38:43.657Z</time>
      </trkpt>
      <trkpt lat="43.69244" lon="5.78394">
        <ele>476</ele>
        <time>2016-01-03T10:38:44.631Z</time>
      </trkpt>
      <trkpt lat="43.69247" lon="5.78386">
        <ele>475</ele>
        <time>2016-01-03T10:38:46.655Z</time>
      </trkpt>
      <trkpt lat="43.69248" lon="5.78382">
        <ele>475</ele>
        <time>2016-01-03T10:38:47.629Z</time>
      </trkpt>
      <trkpt lat="43.69252" lon="5.7837">
        <ele>475</ele>
        <time>2016-01-03T10:38:50.654Z</time>
      </trkpt>
      <trkpt lat="43.69253" lon="5.78368">
        <ele>475</ele>
        <time>2016-01-03T10:38:51.628Z</time>
      </trkpt>
      <trkpt lat="43.69256" lon="5.78359">
        <ele>475</ele>
        <time>2016-01-03T10:38:55.654Z</time>
      </trkpt>
      <trkpt lat="43.69256" lon="5.78356">
        <ele>475</ele>
        <time>2016-01-03T10:38:56.629Z</time>
      </trkpt>
      <trkpt lat="43.69259" lon="5.78346">
        <ele>474</ele>
        <time>2016-01-03T10:38:59.727Z</time>
      </trkpt>
      <trkpt lat="43.6926" lon="5.78342">
        <ele>474</ele>
        <time>2016-01-03T10:39:00.620Z</time>
      </trkpt>
      <trkpt lat="43.69262" lon="5.78333">
        <ele>474</ele>
        <time>2016-01-03T10:39:02.653Z</time>
      </trkpt>
      <trkpt lat="43.69263" lon="5.78328">
        <ele>474</ele>
        <time>2016-01-03T10:39:03.630Z</time>
      </trkpt>
      <trkpt lat="43.69265" lon="5.78316">
        <ele>474</ele>
        <time>2016-01-03T10:39:06.653Z</time>
      </trkpt>
      <trkpt lat="43.69265" lon="5.78312">
        <ele>474</ele>
        <time>2016-01-03T10:39:07.627Z</time>
      </trkpt>
      <trkpt lat="43.69264" lon="5.78301">
        <ele>474</ele>
        <time>2016-01-03T10:39:10.656Z</time>
      </trkpt>
      <trkpt lat="43.69263" lon="5.78297">
        <ele>473</ele>
        <time>2016-01-03T10:39:11.656Z</time>
      </trkpt>
      <trkpt lat="43.6926" lon="5.78288">
        <ele>473</ele>
        <time>2016-01-03T10:39:13.673Z</time>
      </trkpt>
      <trkpt lat="43.69258" lon="5.78283">
        <ele>473</ele>
        <time>2016-01-03T10:39:14.630Z</time>
      </trkpt>
      <trkpt lat="43.69254" lon="5.78273">
        <ele>472</ele>
        <time>2016-01-03T10:39:16.654Z</time>
      </trkpt>
      <trkpt lat="43.69251" lon="5.78268">
        <ele>472</ele>
        <time>2016-01-03T10:39:17.630Z</time>
      </trkpt>
      <trkpt lat="43.69249" lon="5.78263">
        <ele>472</ele>
        <time>2016-01-03T10:39:18.655Z</time>
      </trkpt>
      <trkpt lat="43.69247" lon="5.78257">
        <ele>472</ele>
        <time>2016-01-03T10:39:19.631Z</time>
      </trkpt>
      <trkpt lat="43.69245" lon="5.78249">
        <ele>472</ele>
        <time>2016-01-03T10:39:20.654Z</time>
      </trkpt>
      <trkpt lat="43.69242" lon="5.78244">
        <ele>471</ele>
        <time>2016-01-03T10:39:21.630Z</time>
      </trkpt>
      <trkpt lat="43.6924" lon="5.78237">
        <ele>471</ele>
        <time>2016-01-03T10:39:22.653Z</time>
      </trkpt>
      <trkpt lat="43.69238" lon="5.78231">
        <ele>471</ele>
        <time>2016-01-03T10:39:23.625Z</time>
      </trkpt>
      <trkpt lat="43.69236" lon="5.78225">
        <ele>471</ele>
        <time>2016-01-03T10:39:24.686Z</time>
      </trkpt>
      <trkpt lat="43.69233" lon="5.78219">
        <ele>470</ele>
        <time>2016-01-03T10:39:25.628Z</time>
      </trkpt>
      <trkpt lat="43.6923" lon="5.78213">
        <ele>470</ele>
        <time>2016-01-03T10:39:26.652Z</time>
      </trkpt>
      <trkpt lat="43.69227" lon="5.78208">
        <ele>470</ele>
        <time>2016-01-03T10:39:27.656Z</time>
      </trkpt>
      <trkpt lat="43.69223" lon="5.78203">
        <ele>469</ele>
        <time>2016-01-03T10:39:28.653Z</time>
      </trkpt>
      <trkpt lat="43.69219" lon="5.78198">
        <ele>469</ele>
        <time>2016-01-03T10:39:29.630Z</time>
      </trkpt>
      <trkpt lat="43.69215" lon="5.78193">
        <ele>469</ele>
        <time>2016-01-03T10:39:30.653Z</time>
      </trkpt>
      <trkpt lat="43.69212" lon="5.78188">
        <ele>469</ele>
        <time>2016-01-03T10:39:31.629Z</time>
      </trkpt>
      <trkpt lat="43.69208" lon="5.7818">
        <ele>468</ele>
        <time>2016-01-03T10:39:33.653Z</time>
      </trkpt>
      <trkpt lat="43.69206" lon="5.78175">
        <ele>468</ele>
        <time>2016-01-03T10:39:34.629Z</time>
      </trkpt>
      <trkpt lat="43.69204" lon="5.78169">
        <ele>468</ele>
        <time>2016-01-03T10:39:35.654Z</time>
      </trkpt>
      <trkpt lat="43.69202" lon="5.78164">
        <ele>469</ele>
        <time>2016-01-03T10:39:36.628Z</time>
      </trkpt>
      <trkpt lat="43.69196" lon="5.78154">
        <ele>469</ele>
        <time>2016-01-03T10:39:38.682Z</time>
      </trkpt>
      <trkpt lat="43.69193" lon="5.7815">
        <ele>469</ele>
        <time>2016-01-03T10:39:39.631Z</time>
      </trkpt>
      <trkpt lat="43.69187" lon="5.78142">
        <ele>470</ele>
        <time>2016-01-03T10:39:41.653Z</time>
      </trkpt>
      <trkpt lat="43.69184" lon="5.78139">
        <ele>470</ele>
        <time>2016-01-03T10:39:42.630Z</time>
      </trkpt>
      <trkpt lat="43.69178" lon="5.78132">
        <ele>470</ele>
        <time>2016-01-03T10:39:44.657Z</time>
      </trkpt>
      <trkpt lat="43.69175" lon="5.78129">
        <ele>470</ele>
        <time>2016-01-03T10:39:45.630Z</time>
      </trkpt>
      <trkpt lat="43.69168" lon="5.78122">
        <ele>470</ele>
        <time>2016-01-03T10:39:47.655Z</time>
      </trkpt>
      <trkpt lat="43.69165" lon="5.78119">
        <ele>470</ele>
        <time>2016-01-03T10:39:48.630Z</time>
      </trkpt>
      <trkpt lat="43.69159" lon="5.78113">
        <ele>470</ele>
        <time>2016-01-03T10:39:50.655Z</time>
      </trkpt>
      <trkpt lat="43.69155" lon="5.7811">
        <ele>471</ele>
        <time>2016-01-03T10:39:51.630Z</time>
      </trkpt>
      <trkpt lat="43.69149" lon="5.78103">
        <ele>471</ele>
        <time>2016-01-03T10:39:53.654Z</time>
      </trkpt>
      <trkpt lat="43.69145" lon="5.781">
        <ele>471</ele>
        <time>2016-01-03T10:39:54.630Z</time>
      </trkpt>
      <trkpt lat="43.69138" lon="5.78093">
        <ele>470</ele>
        <time>2016-01-03T10:39:56.654Z</time>
      </trkpt>
      <trkpt lat="43.69135" lon="5.7809">
        <ele>470</ele>
        <time>2016-01-03T10:39:57.629Z</time>
      </trkpt>
      <trkpt lat="43.69128" lon="5.78083">
        <ele>470</ele>
        <time>2016-01-03T10:39:59.653Z</time>
      </trkpt>
      <trkpt lat="43.69125" lon="5.7808">
        <ele>470</ele>
        <time>2016-01-03T10:40:00.656Z</time>
      </trkpt>
      <trkpt lat="43.69117" lon="5.78073">
        <ele>470</ele>
        <time>2016-01-03T10:40:02.653Z</time>
      </trkpt>
      <trkpt lat="43.69114" lon="5.7807">
        <ele>470</ele>
        <time>2016-01-03T10:40:03.629Z</time>
      </trkpt>
      <trkpt lat="43.69106" lon="5.78064">
        <ele>469</ele>
        <time>2016-01-03T10:40:05.649Z</time>
      </trkpt>
      <trkpt lat="43.69102" lon="5.78061">
        <ele>469</ele>
        <time>2016-01-03T10:40:06.629Z</time>
      </trkpt>
      <trkpt lat="43.69097" lon="5.78057">
        <ele>469</ele>
        <time>2016-01-03T10:40:07.653Z</time>
      </trkpt>
      <trkpt lat="43.69093" lon="5.78054">
        <ele>470</ele>
        <time>2016-01-03T10:40:08.629Z</time>
      </trkpt>
      <trkpt lat="43.69089" lon="5.7805">
        <ele>469</ele>
        <time>2016-01-03T10:40:09.654Z</time>
      </trkpt>
      <trkpt lat="43.69086" lon="5.78046">
        <ele>469</ele>
        <time>2016-01-03T10:40:10.624Z</time>
      </trkpt>
      <trkpt lat="43.69082" lon="5.78042">
        <ele>469</ele>
        <time>2016-01-03T10:40:11.680Z</time>
      </trkpt>
      <trkpt lat="43.69078" lon="5.78039">
        <ele>469</ele>
        <time>2016-01-03T10:40:12.629Z</time>
      </trkpt>
      <trkpt lat="43.69074" lon="5.78035">
        <ele>469</ele>
        <time>2016-01-03T10:40:13.697Z</time>
      </trkpt>
      <trkpt lat="43.6907" lon="5.78031">
        <ele>470</ele>
        <time>2016-01-03T10:40:14.631Z</time>
      </trkpt>
      <trkpt lat="43.69066" lon="5.78027">
        <ele>469</ele>
        <time>2016-01-03T10:40:15.656Z</time>
      </trkpt>
      <trkpt lat="43.69062" lon="5.78023">
        <ele>469</ele>
        <time>2016-01-03T10:40:16.630Z</time>
      </trkpt>
      <trkpt lat="43.69058" lon="5.78019">
        <ele>469</ele>
        <time>2016-01-03T10:40:17.725Z</time>
      </trkpt>
      <trkpt lat="43.69055" lon="5.78015">
        <ele>469</ele>
        <time>2016-01-03T10:40:18.631Z</time>
      </trkpt>
      <trkpt lat="43.69052" lon="5.7801">
        <ele>469</ele>
        <time>2016-01-03T10:40:19.656Z</time>
      </trkpt>
      <trkpt lat="43.69049" lon="5.78005">
        <ele>468</ele>
        <time>2016-01-03T10:40:20.631Z</time>
      </trkpt>
      <trkpt lat="43.69045" lon="5.77995">
        <ele>468</ele>
        <time>2016-01-03T10:40:22.652Z</time>
      </trkpt>
      <trkpt lat="43.69042" lon="5.77989">
        <ele>468</ele>
        <time>2016-01-03T10:40:23.628Z</time>
      </trkpt>
      <trkpt lat="43.69038" lon="5.77983">
        <ele>468</ele>
        <time>2016-01-03T10:40:24.873Z</time>
      </trkpt>
      <trkpt lat="43.69035" lon="5.77978">
        <ele>467</ele>
        <time>2016-01-03T10:40:25.630Z</time>
      </trkpt>
      <trkpt lat="43.69031" lon="5.77973">
        <ele>467</ele>
        <time>2016-01-03T10:40:26.654Z</time>
      </trkpt>
      <trkpt lat="43.69027" lon="5.77967">
        <ele>467</ele>
        <time>2016-01-03T10:40:27.659Z</time>
      </trkpt>
      <trkpt lat="43.69022" lon="5.77962">
        <ele>466</ele>
        <time>2016-01-03T10:40:28.655Z</time>
      </trkpt>
      <trkpt lat="43.69018" lon="5.77958">
        <ele>466</ele>
        <time>2016-01-03T10:40:29.630Z</time>
      </trkpt>
      <trkpt lat="43.69012" lon="5.77953">
        <ele>465</ele>
        <time>2016-01-03T10:40:30.653Z</time>
      </trkpt>
      <trkpt lat="43.69007" lon="5.77949">
        <ele>465</ele>
        <time>2016-01-03T10:40:31.630Z</time>
      </trkpt>
      <trkpt lat="43.69002" lon="5.77945">
        <ele>465</ele>
        <time>2016-01-03T10:40:32.654Z</time>
      </trkpt>
      <trkpt lat="43.68996" lon="5.77941">
        <ele>464</ele>
        <time>2016-01-03T10:40:33.622Z</time>
      </trkpt>
      <trkpt lat="43.68991" lon="5.77936">
        <ele>464</ele>
        <time>2016-01-03T10:40:34.654Z</time>
      </trkpt>
      <trkpt lat="43.68986" lon="5.77932">
        <ele>464</ele>
        <time>2016-01-03T10:40:35.631Z</time>
      </trkpt>
      <trkpt lat="43.68981" lon="5.77929">
        <ele>464</ele>
        <time>2016-01-03T10:40:36.655Z</time>
      </trkpt>
      <trkpt lat="43.68976" lon="5.77926">
        <ele>464</ele>
        <time>2016-01-03T10:40:37.629Z</time>
      </trkpt>
      <trkpt lat="43.68971" lon="5.77925">
        <ele>464</ele>
        <time>2016-01-03T10:40:38.688Z</time>
      </trkpt>
      <trkpt lat="43.68965" lon="5.77925">
        <ele>464</ele>
        <time>2016-01-03T10:40:39.630Z</time>
      </trkpt>
      <trkpt lat="43.6896" lon="5.77925">
        <ele>464</ele>
        <time>2016-01-03T10:40:40.655Z</time>
      </trkpt>
      <trkpt lat="43.68954" lon="5.77926">
        <ele>464</ele>
        <time>2016-01-03T10:40:41.630Z</time>
      </trkpt>
      <trkpt lat="43.68947" lon="5.77929">
        <ele>463</ele>
        <time>2016-01-03T10:40:42.650Z</time>
      </trkpt>
      <trkpt lat="43.68941" lon="5.77931">
        <ele>463</ele>
        <time>2016-01-03T10:40:43.629Z</time>
      </trkpt>
      <trkpt lat="43.68935" lon="5.77934">
        <ele>463</ele>
        <time>2016-01-03T10:40:44.663Z</time>
      </trkpt>
      <trkpt lat="43.68929" lon="5.77936">
        <ele>462</ele>
        <time>2016-01-03T10:40:45.631Z</time>
      </trkpt>
      <trkpt lat="43.68923" lon="5.77939">
        <ele>462</ele>
        <time>2016-01-03T10:40:46.654Z</time>
      </trkpt>
      <trkpt lat="43.68917" lon="5.77941">
        <ele>462</ele>
        <time>2016-01-03T10:40:47.631Z</time>
      </trkpt>
      <trkpt lat="43.68911" lon="5.77944">
        <ele>462</ele>
        <time>2016-01-03T10:40:48.656Z</time>
      </trkpt>
      <trkpt lat="43.68905" lon="5.77946">
        <ele>462</ele>
        <time>2016-01-03T10:40:49.640Z</time>
      </trkpt>
      <trkpt lat="43.68899" lon="5.77948">
        <ele>462</ele>
        <time>2016-01-03T10:40:50.656Z</time>
      </trkpt>
      <trkpt lat="43.68893" lon="5.77948">
        <ele>462</ele>
        <time>2016-01-03T10:40:51.629Z</time>
      </trkpt>
      <trkpt lat="43.68888" lon="5.77948">
        <ele>462</ele>
        <time>2016-01-03T10:40:52.654Z</time>
      </trkpt>
      <trkpt lat="43.68883" lon="5.77947">
        <ele>462</ele>
        <time>2016-01-03T10:40:53.628Z</time>
      </trkpt>
      <trkpt lat="43.68878" lon="5.77947">
        <ele>463</ele>
        <time>2016-01-03T10:40:54.669Z</time>
      </trkpt>
      <trkpt lat="43.68873" lon="5.77946">
        <ele>463</ele>
        <time>2016-01-03T10:40:55.630Z</time>
      </trkpt>
      <trkpt lat="43.68869" lon="5.77945">
        <ele>463</ele>
        <time>2016-01-03T10:40:56.655Z</time>
      </trkpt>
      <trkpt lat="43.68864" lon="5.77943">
        <ele>463</ele>
        <time>2016-01-03T10:40:57.630Z</time>
      </trkpt>
      <trkpt lat="43.68859" lon="5.77942">
        <ele>463</ele>
        <time>2016-01-03T10:40:58.653Z</time>
      </trkpt>
      <trkpt lat="43.68855" lon="5.77941">
        <ele>463</ele>
        <time>2016-01-03T10:40:59.629Z</time>
      </trkpt>
      <trkpt lat="43.6885" lon="5.77939">
        <ele>463</ele>
        <time>2016-01-03T10:41:00.654Z</time>
      </trkpt>
      <trkpt lat="43.68846" lon="5.77938">
        <ele>463</ele>
        <time>2016-01-03T10:41:01.629Z</time>
      </trkpt>
      <trkpt lat="43.68837" lon="5.77935">
        <ele>463</ele>
        <time>2016-01-03T10:41:03.654Z</time>
      </trkpt>
      <trkpt lat="43.68833" lon="5.77933">
        <ele>463</ele>
        <time>2016-01-03T10:41:04.630Z</time>
      </trkpt>
      <trkpt lat="43.68825" lon="5.77929">
        <ele>463</ele>
        <time>2016-01-03T10:41:06.714Z</time>
      </trkpt>
      <trkpt lat="43.68822" lon="5.77926">
        <ele>463</ele>
        <time>2016-01-03T10:41:07.629Z</time>
      </trkpt>
      <trkpt lat="43.68815" lon="5.77921">
        <ele>463</ele>
        <time>2016-01-03T10:41:09.654Z</time>
      </trkpt>
      <trkpt lat="43.68811" lon="5.77918">
        <ele>463</ele>
        <time>2016-01-03T10:41:10.658Z</time>
      </trkpt>
      <trkpt lat="43.68807" lon="5.77916">
        <ele>463</ele>
        <time>2016-01-03T10:41:11.655Z</time>
      </trkpt>
      <trkpt lat="43.68802" lon="5.77913">
        <ele>462</ele>
        <time>2016-01-03T10:41:12.628Z</time>
      </trkpt>
      <trkpt lat="43.68798" lon="5.7791">
        <ele>462</ele>
        <time>2016-01-03T10:41:13.659Z</time>
      </trkpt>
      <trkpt lat="43.68793" lon="5.77907">
        <ele>462</ele>
        <time>2016-01-03T10:41:14.630Z</time>
      </trkpt>
      <trkpt lat="43.68788" lon="5.77904">
        <ele>462</ele>
        <time>2016-01-03T10:41:15.652Z</time>
      </trkpt>
      <trkpt lat="43.68784" lon="5.77902">
        <ele>461</ele>
        <time>2016-01-03T10:41:16.630Z</time>
      </trkpt>
      <trkpt lat="43.68779" lon="5.77898">
        <ele>461</ele>
        <time>2016-01-03T10:41:17.656Z</time>
      </trkpt>
      <trkpt lat="43.68774" lon="5.77893">
        <ele>461</ele>
        <time>2016-01-03T10:41:18.633Z</time>
      </trkpt>
      <trkpt lat="43.68771" lon="5.77887">
        <ele>461</ele>
        <time>2016-01-03T10:41:19.635Z</time>
      </trkpt>
      <trkpt lat="43.68767" lon="5.77882">
        <ele>461</ele>
        <time>2016-01-03T10:41:20.621Z</time>
      </trkpt>
      <trkpt lat="43.68765" lon="5.77876">
        <ele>462</ele>
        <time>2016-01-03T10:41:21.681Z</time>
      </trkpt>
      <trkpt lat="43.68762" lon="5.77871">
        <ele>462</ele>
        <time>2016-01-03T10:41:22.628Z</time>
      </trkpt>
      <trkpt lat="43.6876" lon="5.77866">
        <ele>462</ele>
        <time>2016-01-03T10:41:23.654Z</time>
      </trkpt>
      <trkpt lat="43.68757" lon="5.7786">
        <ele>462</ele>
        <time>2016-01-03T10:41:24.630Z</time>
      </trkpt>
      <trkpt lat="43.68751" lon="5.77851">
        <ele>462</ele>
        <time>2016-01-03T10:41:26.751Z</time>
      </trkpt>
      <trkpt lat="43.68748" lon="5.77846">
        <ele>462</ele>
        <time>2016-01-03T10:41:27.631Z</time>
      </trkpt>
      <trkpt lat="43.68744" lon="5.77842">
        <ele>461</ele>
        <time>2016-01-03T10:41:28.654Z</time>
      </trkpt>
      <trkpt lat="43.68741" lon="5.77838">
        <ele>460</ele>
        <time>2016-01-03T10:41:29.630Z</time>
      </trkpt>
      <trkpt lat="43.68737" lon="5.77833">
        <ele>460</ele>
        <time>2016-01-03T10:41:30.653Z</time>
      </trkpt>
      <trkpt lat="43.68733" lon="5.77828">
        <ele>460</ele>
        <time>2016-01-03T10:41:31.630Z</time>
      </trkpt>
      <trkpt lat="43.68728" lon="5.77823">
        <ele>459</ele>
        <time>2016-01-03T10:41:32.655Z</time>
      </trkpt>
      <trkpt lat="43.68723" lon="5.77819">
        <ele>459</ele>
        <time>2016-01-03T10:41:33.630Z</time>
      </trkpt>
      <trkpt lat="43.68718" lon="5.77815">
        <ele>459</ele>
        <time>2016-01-03T10:41:34.659Z</time>
      </trkpt>
      <trkpt lat="43.68712" lon="5.77811">
        <ele>459</ele>
        <time>2016-01-03T10:41:35.631Z</time>
      </trkpt>
      <trkpt lat="43.68706" lon="5.77808">
        <ele>458</ele>
        <time>2016-01-03T10:41:36.656Z</time>
      </trkpt>
      <trkpt lat="43.68699" lon="5.77807">
        <ele>458</ele>
        <time>2016-01-03T10:41:37.657Z</time>
      </trkpt>
      <trkpt lat="43.68692" lon="5.77807">
        <ele>457</ele>
        <time>2016-01-03T10:41:38.654Z</time>
      </trkpt>
      <trkpt lat="43.68686" lon="5.77806">
        <ele>457</ele>
        <time>2016-01-03T10:41:39.630Z</time>
      </trkpt>
      <trkpt lat="43.68678" lon="5.77806">
        <ele>456</ele>
        <time>2016-01-03T10:41:40.652Z</time>
      </trkpt>
      <trkpt lat="43.6867" lon="5.77805">
        <ele>456</ele>
        <time>2016-01-03T10:41:41.630Z</time>
      </trkpt>
      <trkpt lat="43.68663" lon="5.77803">
        <ele>455</ele>
        <time>2016-01-03T10:41:42.653Z</time>
      </trkpt>
      <trkpt lat="43.68656" lon="5.77798">
        <ele>455</ele>
        <time>2016-01-03T10:41:43.630Z</time>
      </trkpt>
      <trkpt lat="43.68649" lon="5.77791">
        <ele>454</ele>
        <time>2016-01-03T10:41:44.655Z</time>
      </trkpt>
      <trkpt lat="43.68644" lon="5.77783">
        <ele>454</ele>
        <time>2016-01-03T10:41:45.630Z</time>
      </trkpt>
      <trkpt lat="43.68639" lon="5.77774">
        <ele>453</ele>
        <time>2016-01-03T10:41:46.654Z</time>
      </trkpt>
      <trkpt lat="43.68637" lon="5.77764">
        <ele>452</ele>
        <time>2016-01-03T10:41:47.629Z</time>
      </trkpt>
      <trkpt lat="43.68634" lon="5.77753">
        <ele>451</ele>
        <time>2016-01-03T10:41:48.680Z</time>
      </trkpt>
      <trkpt lat="43.68633" lon="5.77741">
        <ele>450</ele>
        <time>2016-01-03T10:41:49.627Z</time>
      </trkpt>
      <trkpt lat="43.68632" lon="5.7773">
        <ele>450</ele>
        <time>2016-01-03T10:41:50.652Z</time>
      </trkpt>
      <trkpt lat="43.68632" lon="5.7772">
        <ele>449</ele>
        <time>2016-01-03T10:41:51.630Z</time>
      </trkpt>
      <trkpt lat="43.68634" lon="5.77709">
        <ele>448</ele>
        <time>2016-01-03T10:41:52.654Z</time>
      </trkpt>
      <trkpt lat="43.68637" lon="5.77698">
        <ele>447</ele>
        <time>2016-01-03T10:41:53.625Z</time>
      </trkpt>
      <trkpt lat="43.68641" lon="5.77688">
        <ele>447</ele>
        <time>2016-01-03T10:41:54.654Z</time>
      </trkpt>
      <trkpt lat="43.68646" lon="5.77679">
        <ele>446</ele>
        <time>2016-01-03T10:41:55.630Z</time>
      </trkpt>
      <trkpt lat="43.68652" lon="5.77672">
        <ele>446</ele>
        <time>2016-01-03T10:41:56.652Z</time>
      </trkpt>
      <trkpt lat="43.68659" lon="5.77667">
        <ele>445</ele>
        <time>2016-01-03T10:41:57.630Z</time>
      </trkpt>
      <trkpt lat="43.68667" lon="5.77663">
        <ele>444</ele>
        <time>2016-01-03T10:41:58.654Z</time>
      </trkpt>
      <trkpt lat="43.68675" lon="5.7766">
        <ele>445</ele>
        <time>2016-01-03T10:41:59.653Z</time>
      </trkpt>
      <trkpt lat="43.68684" lon="5.77661">
        <ele>444</ele>
        <time>2016-01-03T10:42:00.636Z</time>
      </trkpt>
      <trkpt lat="43.68692" lon="5.77664">
        <ele>443</ele>
        <time>2016-01-03T10:42:01.630Z</time>
      </trkpt>
      <trkpt lat="43.687" lon="5.77668">
        <ele>444</ele>
        <time>2016-01-03T10:42:02.653Z</time>
      </trkpt>
      <trkpt lat="43.68708" lon="5.77673">
        <ele>444</ele>
        <time>2016-01-03T10:42:03.630Z</time>
      </trkpt>
      <trkpt lat="43.68715" lon="5.7768">
        <ele>444</ele>
        <time>2016-01-03T10:42:04.657Z</time>
      </trkpt>
      <trkpt lat="43.68722" lon="5.77687">
        <ele>444</ele>
        <time>2016-01-03T10:42:05.630Z</time>
      </trkpt>
      <trkpt lat="43.6873" lon="5.77694">
        <ele>443</ele>
        <time>2016-01-03T10:42:06.655Z</time>
      </trkpt>
      <trkpt lat="43.68738" lon="5.77699">
        <ele>443</ele>
        <time>2016-01-03T10:42:07.629Z</time>
      </trkpt>
      <trkpt lat="43.68746" lon="5.77702">
        <ele>441</ele>
        <time>2016-01-03T10:42:08.654Z</time>
      </trkpt>
      <trkpt lat="43.68753" lon="5.777">
        <ele>440</ele>
        <time>2016-01-03T10:42:09.627Z</time>
      </trkpt>
      <trkpt lat="43.68761" lon="5.77695">
        <ele>439</ele>
        <time>2016-01-03T10:42:10.680Z</time>
      </trkpt>
      <trkpt lat="43.68768" lon="5.77689">
        <ele>438</ele>
        <time>2016-01-03T10:42:11.631Z</time>
      </trkpt>
      <trkpt lat="43.68776" lon="5.77684">
        <ele>437</ele>
        <time>2016-01-03T10:42:12.699Z</time>
      </trkpt>
      <trkpt lat="43.68783" lon="5.77678">
        <ele>436</ele>
        <time>2016-01-03T10:42:13.628Z</time>
      </trkpt>
      <trkpt lat="43.68791" lon="5.77671">
        <ele>435</ele>
        <time>2016-01-03T10:42:14.653Z</time>
      </trkpt>
      <trkpt lat="43.68798" lon="5.77665">
        <ele>434</ele>
        <time>2016-01-03T10:42:15.630Z</time>
      </trkpt>
      <trkpt lat="43.68798" lon="5.77665">
        <ele>434</ele>
        <time>2016-01-03T10:42:15.659Z</time>
      </trkpt>
      <trkpt lat="43.68806" lon="5.77658">
        <ele>434</ele>
        <time>2016-01-03T10:42:16.631Z</time>
      </trkpt>
      <trkpt lat="43.68806" lon="5.77658">
        <ele>434</ele>
        <time>2016-01-03T10:42:16.659Z</time>
      </trkpt>
      <trkpt lat="43.68813" lon="5.7765">
        <ele>433</ele>
        <time>2016-01-03T10:42:17.629Z</time>
      </trkpt>
      <trkpt lat="43.68813" lon="5.7765">
        <ele>433</ele>
        <time>2016-01-03T10:42:17.657Z</time>
      </trkpt>
      <trkpt lat="43.6882" lon="5.7764">
        <ele>432</ele>
        <time>2016-01-03T10:42:18.623Z</time>
      </trkpt>
      <trkpt lat="43.6882" lon="5.7764">
        <ele>432</ele>
        <time>2016-01-03T10:42:18.646Z</time>
      </trkpt>
      <trkpt lat="43.68824" lon="5.77629">
        <ele>431</ele>
        <time>2016-01-03T10:42:19.623Z</time>
      </trkpt>
      <trkpt lat="43.68824" lon="5.77629">
        <ele>431</ele>
        <time>2016-01-03T10:42:19.645Z</time>
      </trkpt>
      <trkpt lat="43.68828" lon="5.77617">
        <ele>430</ele>
        <time>2016-01-03T10:42:20.636Z</time>
      </trkpt>
      <trkpt lat="43.68828" lon="5.77617">
        <ele>430</ele>
        <time>2016-01-03T10:42:20.663Z</time>
      </trkpt>
      <trkpt lat="43.68832" lon="5.77605">
        <ele>429</ele>
        <time>2016-01-03T10:42:21.670Z</time>
      </trkpt>
      <trkpt lat="43.68832" lon="5.77605">
        <ele>429</ele>
        <time>2016-01-03T10:42:21.700Z</time>
      </trkpt>
      <trkpt lat="43.68837" lon="5.77594">
        <ele>428</ele>
        <time>2016-01-03T10:42:22.630Z</time>
      </trkpt>
      <trkpt lat="43.68837" lon="5.77594">
        <ele>428</ele>
        <time>2016-01-03T10:42:22.658Z</time>
      </trkpt>
      <trkpt lat="43.68843" lon="5.77585">
        <ele>427</ele>
        <time>2016-01-03T10:42:23.629Z</time>
      </trkpt>
      <trkpt lat="43.68843" lon="5.77585">
        <ele>427</ele>
        <time>2016-01-03T10:42:23.658Z</time>
      </trkpt>
      <trkpt lat="43.68851" lon="5.77578">
        <ele>425</ele>
        <time>2016-01-03T10:42:24.629Z</time>
      </trkpt>
      <trkpt lat="43.68851" lon="5.77578">
        <ele>425</ele>
        <time>2016-01-03T10:42:24.662Z</time>
      </trkpt>
      <trkpt lat="43.6886" lon="5.77571">
        <ele>424</ele>
        <time>2016-01-03T10:42:25.630Z</time>
      </trkpt>
      <trkpt lat="43.68868" lon="5.77567">
        <ele>424</ele>
        <time>2016-01-03T10:42:26.637Z</time>
      </trkpt>
      <trkpt lat="43.68875" lon="5.77564">
        <ele>423</ele>
        <time>2016-01-03T10:42:27.635Z</time>
      </trkpt>
      <trkpt lat="43.68881" lon="5.77564">
        <ele>423</ele>
        <time>2016-01-03T10:42:28.868Z</time>
      </trkpt>
      <trkpt lat="43.68887" lon="5.77566">
        <ele>422</ele>
        <time>2016-01-03T10:42:29.630Z</time>
      </trkpt>
      <trkpt lat="43.68891" lon="5.77569">
        <ele>421</ele>
        <time>2016-01-03T10:42:30.648Z</time>
      </trkpt>
      <trkpt lat="43.68896" lon="5.77573">
        <ele>420</ele>
        <time>2016-01-03T10:42:31.629Z</time>
      </trkpt>
      <trkpt lat="43.68901" lon="5.77576">
        <ele>420</ele>
        <time>2016-01-03T10:42:32.681Z</time>
      </trkpt>
      <trkpt lat="43.68905" lon="5.77579">
        <ele>419</ele>
        <time>2016-01-03T10:42:33.629Z</time>
      </trkpt>
      <trkpt lat="43.6891" lon="5.77583">
        <ele>419</ele>
        <time>2016-01-03T10:42:34.655Z</time>
      </trkpt>
      <trkpt lat="43.68915" lon="5.77586">
        <ele>418</ele>
        <time>2016-01-03T10:42:35.631Z</time>
      </trkpt>
      <trkpt lat="43.68923" lon="5.77587">
        <ele>417</ele>
        <time>2016-01-03T10:42:37.656Z</time>
      </trkpt>
      <trkpt lat="43.68928" lon="5.77582">
        <ele>416</ele>
        <time>2016-01-03T10:42:38.633Z</time>
      </trkpt>
      <trkpt lat="43.68931" lon="5.77575">
        <ele>415</ele>
        <time>2016-01-03T10:42:39.656Z</time>
      </trkpt>
      <trkpt lat="43.68934" lon="5.77567">
        <ele>414</ele>
        <time>2016-01-03T10:42:40.629Z</time>
      </trkpt>
      <trkpt lat="43.68936" lon="5.77558">
        <ele>413</ele>
        <time>2016-01-03T10:42:41.655Z</time>
      </trkpt>
      <trkpt lat="43.68937" lon="5.77549">
        <ele>413</ele>
        <time>2016-01-03T10:42:42.630Z</time>
      </trkpt>
      <trkpt lat="43.68938" lon="5.77539">
        <ele>413</ele>
        <time>2016-01-03T10:42:43.654Z</time>
      </trkpt>
      <trkpt lat="43.68939" lon="5.77529">
        <ele>412</ele>
        <time>2016-01-03T10:42:44.631Z</time>
      </trkpt>
      <trkpt lat="43.68939" lon="5.77518">
        <ele>411</ele>
        <time>2016-01-03T10:42:45.655Z</time>
      </trkpt>
      <trkpt lat="43.68938" lon="5.77506">
        <ele>410</ele>
        <time>2016-01-03T10:42:46.632Z</time>
      </trkpt>
      <trkpt lat="43.68935" lon="5.77495">
        <ele>410</ele>
        <time>2016-01-03T10:42:47.658Z</time>
      </trkpt>
      <trkpt lat="43.68931" lon="5.77485">
        <ele>409</ele>
        <time>2016-01-03T10:42:48.658Z</time>
      </trkpt>
      <trkpt lat="43.68927" lon="5.77479">
        <ele>408</ele>
        <time>2016-01-03T10:42:49.652Z</time>
      </trkpt>
      <trkpt lat="43.68923" lon="5.77475">
        <ele>408</ele>
        <time>2016-01-03T10:42:50.630Z</time>
      </trkpt>
      <trkpt lat="43.68914" lon="5.77472">
        <ele>407</ele>
        <time>2016-01-03T10:42:52.656Z</time>
      </trkpt>
      <trkpt lat="43.68911" lon="5.77473">
        <ele>407</ele>
        <time>2016-01-03T10:42:53.631Z</time>
      </trkpt>
      <trkpt lat="43.68904" lon="5.77473">
        <ele>408</ele>
        <time>2016-01-03T10:42:55.655Z</time>
      </trkpt>
      <trkpt lat="43.68902" lon="5.77473">
        <ele>408</ele>
        <time>2016-01-03T10:42:56.631Z</time>
      </trkpt>
      <trkpt lat="43.68893" lon="5.77473">
        <ele>409</ele>
        <time>2016-01-03T10:42:59.684Z</time>
      </trkpt>
      <trkpt lat="43.68891" lon="5.77473">
        <ele>409</ele>
        <time>2016-01-03T10:43:00.630Z</time>
      </trkpt>
      <trkpt lat="43.68884" lon="5.77475">
        <ele>410</ele>
        <time>2016-01-03T10:43:03.655Z</time>
      </trkpt>
      <trkpt lat="43.68882" lon="5.77476">
        <ele>410</ele>
        <time>2016-01-03T10:43:04.630Z</time>
      </trkpt>
      <trkpt lat="43.68875" lon="5.77481">
        <ele>411</ele>
        <time>2016-01-03T10:43:07.655Z</time>
      </trkpt>
      <trkpt lat="43.68873" lon="5.77483">
        <ele>411</ele>
        <time>2016-01-03T10:43:08.630Z</time>
      </trkpt>
      <trkpt lat="43.68868" lon="5.7749">
        <ele>412</ele>
        <time>2016-01-03T10:43:11.655Z</time>
      </trkpt>
      <trkpt lat="43.68866" lon="5.77492">
        <ele>413</ele>
        <time>2016-01-03T10:43:12.631Z</time>
      </trkpt>
      <trkpt lat="43.68861" lon="5.77501">
        <ele>413</ele>
        <time>2016-01-03T10:43:15.656Z</time>
      </trkpt>
      <trkpt lat="43.6886" lon="5.77504">
        <ele>413</ele>
        <time>2016-01-03T10:43:16.631Z</time>
      </trkpt>
      <trkpt lat="43.68855" lon="5.77512">
        <ele>414</ele>
        <time>2016-01-03T10:43:19.655Z</time>
      </trkpt>
      <trkpt lat="43.68853" lon="5.77514">
        <ele>414</ele>
        <time>2016-01-03T10:43:20.630Z</time>
      </trkpt>
      <trkpt lat="43.68848" lon="5.77521">
        <ele>415</ele>
        <time>2016-01-03T10:43:23.657Z</time>
      </trkpt>
      <trkpt lat="43.68846" lon="5.77524">
        <ele>415</ele>
        <time>2016-01-03T10:43:24.626Z</time>
      </trkpt>
      <trkpt lat="43.6884" lon="5.77529">
        <ele>416</ele>
        <time>2016-01-03T10:43:27.654Z</time>
      </trkpt>
      <trkpt lat="43.68838" lon="5.77531">
        <ele>416</ele>
        <time>2016-01-03T10:43:28.630Z</time>
      </trkpt>
      <trkpt lat="43.68832" lon="5.77536">
        <ele>417</ele>
        <time>2016-01-03T10:43:31.655Z</time>
      </trkpt>
      <trkpt lat="43.68831" lon="5.77538">
        <ele>417</ele>
        <time>2016-01-03T10:43:32.657Z</time>
      </trkpt>
      <trkpt lat="43.68826" lon="5.77548">
        <ele>418</ele>
        <time>2016-01-03T10:43:36.656Z</time>
      </trkpt>
      <trkpt lat="43.68825" lon="5.77551">
        <ele>419</ele>
        <time>2016-01-03T10:43:37.631Z</time>
      </trkpt>
      <trkpt lat="43.68823" lon="5.77562">
        <ele>419</ele>
        <time>2016-01-03T10:43:41.656Z</time>
      </trkpt>
      <trkpt lat="43.68822" lon="5.77565">
        <ele>420</ele>
        <time>2016-01-03T10:43:42.632Z</time>
      </trkpt>
      <trkpt lat="43.68819" lon="5.77576">
        <ele>420</ele>
        <time>2016-01-03T10:43:46.654Z</time>
      </trkpt>
      <trkpt lat="43.68818" lon="5.77579">
        <ele>421</ele>
        <time>2016-01-03T10:43:47.630Z</time>
      </trkpt>
      <trkpt lat="43.68814" lon="5.77589">
        <ele>421</ele>
        <time>2016-01-03T10:43:51.656Z</time>
      </trkpt>
      <trkpt lat="43.68812" lon="5.77591">
        <ele>421</ele>
        <time>2016-01-03T10:43:52.636Z</time>
      </trkpt>
      <trkpt lat="43.68808" lon="5.77601">
        <ele>422</ele>
        <time>2016-01-03T10:43:56.654Z</time>
      </trkpt>
      <trkpt lat="43.68807" lon="5.77603">
        <ele>422</ele>
        <time>2016-01-03T10:43:57.630Z</time>
      </trkpt>
      <trkpt lat="43.68801" lon="5.77611">
        <ele>423</ele>
        <time>2016-01-03T10:44:01.651Z</time>
      </trkpt>
      <trkpt lat="43.68799" lon="5.77612">
        <ele>423</ele>
        <time>2016-01-03T10:44:02.631Z</time>
      </trkpt>
      <trkpt lat="43.68792" lon="5.77618">
        <ele>424</ele>
        <time>2016-01-03T10:44:06.653Z</time>
      </trkpt>
      <trkpt lat="43.6879" lon="5.7762">
        <ele>424</ele>
        <time>2016-01-03T10:44:07.630Z</time>
      </trkpt>
      <trkpt lat="43.68782" lon="5.77626">
        <ele>425</ele>
        <time>2016-01-03T10:44:11.651Z</time>
      </trkpt>
      <trkpt lat="43.6878" lon="5.77627">
        <ele>425</ele>
        <time>2016-01-03T10:44:12.631Z</time>
      </trkpt>
      <trkpt lat="43.68771" lon="5.77627">
        <ele>426</ele>
        <time>2016-01-03T10:44:16.650Z</time>
      </trkpt>
      <trkpt lat="43.68769" lon="5.77626">
        <ele>426</ele>
        <time>2016-01-03T10:44:17.630Z</time>
      </trkpt>
      <trkpt lat="43.68761" lon="5.7762">
        <ele>427</ele>
        <time>2016-01-03T10:44:21.689Z</time>
      </trkpt>
      <trkpt lat="43.68759" lon="5.77619">
        <ele>427</ele>
        <time>2016-01-03T10:44:22.631Z</time>
      </trkpt>
      <trkpt lat="43.68752" lon="5.77612">
        <ele>427</ele>
        <time>2016-01-03T10:44:26.653Z</time>
      </trkpt>
      <trkpt lat="43.68751" lon="5.7761">
        <ele>427</ele>
        <time>2016-01-03T10:44:27.630Z</time>
      </trkpt>
      <trkpt lat="43.68743" lon="5.77604">
        <ele>428</ele>
        <time>2016-01-03T10:44:31.655Z</time>
      </trkpt>
      <trkpt lat="43.68741" lon="5.77603">
        <ele>428</ele>
        <time>2016-01-03T10:44:32.644Z</time>
      </trkpt>
      <trkpt lat="43.68735" lon="5.77598">
        <ele>427</ele>
        <time>2016-01-03T10:44:35.657Z</time>
      </trkpt>
      <trkpt lat="43.68733" lon="5.77596">
        <ele>427</ele>
        <time>2016-01-03T10:44:36.631Z</time>
      </trkpt>
      <trkpt lat="43.68726" lon="5.7759">
        <ele>426</ele>
        <time>2016-01-03T10:44:39.657Z</time>
      </trkpt>
      <trkpt lat="43.68723" lon="5.77588">
        <ele>427</ele>
        <time>2016-01-03T10:44:40.631Z</time>
      </trkpt>
      <trkpt lat="43.68716" lon="5.77583">
        <ele>427</ele>
        <time>2016-01-03T10:44:43.656Z</time>
      </trkpt>
      <trkpt lat="43.68714" lon="5.77581">
        <ele>427</ele>
        <time>2016-01-03T10:44:44.630Z</time>
      </trkpt>
      <trkpt lat="43.68707" lon="5.77576">
        <ele>427</ele>
        <time>2016-01-03T10:44:47.657Z</time>
      </trkpt>
      <trkpt lat="43.68704" lon="5.77574">
        <ele>427</ele>
        <time>2016-01-03T10:44:48.657Z</time>
      </trkpt>
      <trkpt lat="43.68697" lon="5.77569">
        <ele>427</ele>
        <time>2016-01-03T10:44:51.655Z</time>
      </trkpt>
      <trkpt lat="43.68694" lon="5.77567">
        <ele>427</ele>
        <time>2016-01-03T10:44:52.632Z</time>
      </trkpt>
      <trkpt lat="43.68689" lon="5.77562">
        <ele>426</ele>
        <time>2016-01-03T10:44:54.654Z</time>
      </trkpt>
      <trkpt lat="43.68686" lon="5.77559">
        <ele>426</ele>
        <time>2016-01-03T10:44:55.631Z</time>
      </trkpt>
      <trkpt lat="43.68682" lon="5.77551">
        <ele>426</ele>
        <time>2016-01-03T10:44:57.655Z</time>
      </trkpt>
      <trkpt lat="43.68681" lon="5.77547">
        <ele>425</ele>
        <time>2016-01-03T10:44:58.631Z</time>
      </trkpt>
      <trkpt lat="43.68678" lon="5.77539">
        <ele>426</ele>
        <time>2016-01-03T10:45:00.656Z</time>
      </trkpt>
      <trkpt lat="43.68676" lon="5.77535">
        <ele>426</ele>
        <time>2016-01-03T10:45:01.631Z</time>
      </trkpt>
      <trkpt lat="43.68672" lon="5.77528">
        <ele>426</ele>
        <time>2016-01-03T10:45:03.656Z</time>
      </trkpt>
      <trkpt lat="43.68669" lon="5.77527">
        <ele>426</ele>
        <time>2016-01-03T10:45:04.631Z</time>
      </trkpt>
      <trkpt lat="43.68663" lon="5.77526">
        <ele>426</ele>
        <time>2016-01-03T10:45:06.654Z</time>
      </trkpt>
      <trkpt lat="43.6866" lon="5.77527">
        <ele>426</ele>
        <time>2016-01-03T10:45:07.631Z</time>
      </trkpt>
      <trkpt lat="43.68652" lon="5.7753">
        <ele>425</ele>
        <time>2016-01-03T10:45:09.655Z</time>
      </trkpt>
      <trkpt lat="43.68648" lon="5.77532">
        <ele>425</ele>
        <time>2016-01-03T10:45:10.657Z</time>
      </trkpt>
      <trkpt lat="43.68639" lon="5.77535">
        <ele>424</ele>
        <time>2016-01-03T10:45:12.656Z</time>
      </trkpt>
      <trkpt lat="43.68635" lon="5.77537">
        <ele>424</ele>
        <time>2016-01-03T10:45:13.631Z</time>
      </trkpt>
      <trkpt lat="43.68627" lon="5.77541">
        <ele>425</ele>
        <time>2016-01-03T10:45:15.654Z</time>
      </trkpt>
      <trkpt lat="43.68622" lon="5.77542">
        <ele>425</ele>
        <time>2016-01-03T10:45:16.639Z</time>
      </trkpt>
      <trkpt lat="43.68615" lon="5.77546">
        <ele>425</ele>
        <time>2016-01-03T10:45:18.655Z</time>
      </trkpt>
      <trkpt lat="43.68611" lon="5.77547">
        <ele>425</ele>
        <time>2016-01-03T10:45:19.631Z</time>
      </trkpt>
      <trkpt lat="43.68603" lon="5.77549">
        <ele>425</ele>
        <time>2016-01-03T10:45:21.690Z</time>
      </trkpt>
      <trkpt lat="43.68599" lon="5.7755">
        <ele>425</ele>
        <time>2016-01-03T10:45:22.631Z</time>
      </trkpt>
      <trkpt lat="43.68591" lon="5.7755">
        <ele>425</ele>
        <time>2016-01-03T10:45:24.645Z</time>
      </trkpt>
      <trkpt lat="43.68587" lon="5.7755">
        <ele>425</ele>
        <time>2016-01-03T10:45:25.629Z</time>
      </trkpt>
      <trkpt lat="43.6858" lon="5.77549">
        <ele>425</ele>
        <time>2016-01-03T10:45:27.652Z</time>
      </trkpt>
      <trkpt lat="43.68576" lon="5.77549">
        <ele>425</ele>
        <time>2016-01-03T10:45:28.629Z</time>
      </trkpt>
      <trkpt lat="43.68569" lon="5.77549">
        <ele>426</ele>
        <time>2016-01-03T10:45:30.656Z</time>
      </trkpt>
      <trkpt lat="43.68566" lon="5.77549">
        <ele>426</ele>
        <time>2016-01-03T10:45:31.632Z</time>
      </trkpt>
      <trkpt lat="43.6856" lon="5.77553">
        <ele>426</ele>
        <time>2016-01-03T10:45:33.656Z</time>
      </trkpt>
      <trkpt lat="43.68557" lon="5.77556">
        <ele>426</ele>
        <time>2016-01-03T10:45:34.636Z</time>
      </trkpt>
      <trkpt lat="43.68554" lon="5.77565">
        <ele>427</ele>
        <time>2016-01-03T10:45:36.657Z</time>
      </trkpt>
      <trkpt lat="43.68554" lon="5.7757">
        <ele>427</ele>
        <time>2016-01-03T10:45:37.632Z</time>
      </trkpt>
      <trkpt lat="43.68556" lon="5.7758">
        <ele>427</ele>
        <time>2016-01-03T10:45:39.656Z</time>
      </trkpt>
      <trkpt lat="43.68558" lon="5.77585">
        <ele>427</ele>
        <time>2016-01-03T10:45:40.632Z</time>
      </trkpt>
      <trkpt lat="43.68562" lon="5.77593">
        <ele>427</ele>
        <time>2016-01-03T10:45:42.656Z</time>
      </trkpt>
      <trkpt lat="43.68564" lon="5.77598">
        <ele>428</ele>
        <time>2016-01-03T10:45:43.631Z</time>
      </trkpt>
      <trkpt lat="43.68568" lon="5.77607">
        <ele>428</ele>
        <time>2016-01-03T10:45:45.654Z</time>
      </trkpt>
      <trkpt lat="43.6857" lon="5.77611">
        <ele>428</ele>
        <time>2016-01-03T10:45:46.631Z</time>
      </trkpt>
      <trkpt lat="43.68573" lon="5.77621">
        <ele>428</ele>
        <time>2016-01-03T10:45:48.681Z</time>
      </trkpt>
      <trkpt lat="43.68575" lon="5.77625">
        <ele>429</ele>
        <time>2016-01-03T10:45:49.631Z</time>
      </trkpt>
      <trkpt lat="43.68577" lon="5.77635">
        <ele>429</ele>
        <time>2016-01-03T10:45:51.651Z</time>
      </trkpt>
      <trkpt lat="43.68578" lon="5.7764">
        <ele>430</ele>
        <time>2016-01-03T10:45:52.631Z</time>
      </trkpt>
      <trkpt lat="43.6858" lon="5.7765">
        <ele>430</ele>
        <time>2016-01-03T10:45:54.655Z</time>
      </trkpt>
      <trkpt lat="43.68581" lon="5.77655">
        <ele>430</ele>
        <time>2016-01-03T10:45:55.631Z</time>
      </trkpt>
      <trkpt lat="43.68582" lon="5.77663">
        <ele>430</ele>
        <time>2016-01-03T10:45:57.655Z</time>
      </trkpt>
      <trkpt lat="43.68582" lon="5.77668">
        <ele>430</ele>
        <time>2016-01-03T10:45:58.635Z</time>
      </trkpt>
      <trkpt lat="43.68582" lon="5.77676">
        <ele>430</ele>
        <time>2016-01-03T10:46:00.656Z</time>
      </trkpt>
      <trkpt lat="43.68582" lon="5.7768">
        <ele>431</ele>
        <time>2016-01-03T10:46:01.631Z</time>
      </trkpt>
      <trkpt lat="43.68581" lon="5.77689">
        <ele>431</ele>
        <time>2016-01-03T10:46:03.655Z</time>
      </trkpt>
      <trkpt lat="43.6858" lon="5.77693">
        <ele>432</ele>
        <time>2016-01-03T10:46:04.659Z</time>
      </trkpt>
      <trkpt lat="43.68579" lon="5.77701">
        <ele>432</ele>
        <time>2016-01-03T10:46:06.656Z</time>
      </trkpt>
      <trkpt lat="43.68579" lon="5.77705">
        <ele>432</ele>
        <time>2016-01-03T10:46:07.632Z</time>
      </trkpt>
      <trkpt lat="43.68576" lon="5.77717">
        <ele>432</ele>
        <time>2016-01-03T10:46:10.653Z</time>
      </trkpt>
      <trkpt lat="43.68575" lon="5.77721">
        <ele>432</ele>
        <time>2016-01-03T10:46:11.632Z</time>
      </trkpt>
      <trkpt lat="43.68573" lon="5.77729">
        <ele>433</ele>
        <time>2016-01-03T10:46:13.655Z</time>
      </trkpt>
      <trkpt lat="43.68572" lon="5.77733">
        <ele>433</ele>
        <time>2016-01-03T10:46:14.631Z</time>
      </trkpt>
      <trkpt lat="43.6857" lon="5.77741">
        <ele>433</ele>
        <time>2016-01-03T10:46:16.654Z</time>
      </trkpt>
      <trkpt lat="43.68569" lon="5.77745">
        <ele>433</ele>
        <time>2016-01-03T10:46:17.629Z</time>
      </trkpt>
      <trkpt lat="43.68568" lon="5.77753">
        <ele>434</ele>
        <time>2016-01-03T10:46:19.656Z</time>
      </trkpt>
      <trkpt lat="43.68567" lon="5.77757">
        <ele>435</ele>
        <time>2016-01-03T10:46:20.632Z</time>
      </trkpt>
      <trkpt lat="43.68566" lon="5.77765">
        <ele>435</ele>
        <time>2016-01-03T10:46:22.651Z</time>
      </trkpt>
      <trkpt lat="43.68565" lon="5.77769">
        <ele>435</ele>
        <time>2016-01-03T10:46:23.631Z</time>
      </trkpt>
      <trkpt lat="43.68565" lon="5.77778">
        <ele>435</ele>
        <time>2016-01-03T10:46:25.655Z</time>
      </trkpt>
      <trkpt lat="43.68566" lon="5.77782">
        <ele>435</ele>
        <time>2016-01-03T10:46:26.657Z</time>
      </trkpt>
      <trkpt lat="43.68568" lon="5.77791">
        <ele>435</ele>
        <time>2016-01-03T10:46:28.654Z</time>
      </trkpt>
      <trkpt lat="43.68569" lon="5.77796">
        <ele>435</ele>
        <time>2016-01-03T10:46:29.632Z</time>
      </trkpt>
      <trkpt lat="43.68572" lon="5.77806">
        <ele>436</ele>
        <time>2016-01-03T10:46:31.655Z</time>
      </trkpt>
      <trkpt lat="43.68573" lon="5.77812">
        <ele>436</ele>
        <time>2016-01-03T10:46:32.631Z</time>
      </trkpt>
      <trkpt lat="43.68574" lon="5.77823">
        <ele>435</ele>
        <time>2016-01-03T10:46:34.656Z</time>
      </trkpt>
      <trkpt lat="43.68575" lon="5.77829">
        <ele>435</ele>
        <time>2016-01-03T10:46:35.632Z</time>
      </trkpt>
      <trkpt lat="43.68574" lon="5.77841">
        <ele>435</ele>
        <time>2016-01-03T10:46:37.683Z</time>
      </trkpt>
      <trkpt lat="43.68574" lon="5.77846">
        <ele>435</ele>
        <time>2016-01-03T10:46:38.631Z</time>
      </trkpt>
      <trkpt lat="43.68575" lon="5.77856">
        <ele>435</ele>
        <time>2016-01-03T10:46:40.653Z</time>
      </trkpt>
      <trkpt lat="43.68576" lon="5.77861">
        <ele>435</ele>
        <time>2016-01-03T10:46:41.632Z</time>
      </trkpt>
      <trkpt lat="43.68579" lon="5.77871">
        <ele>434</ele>
        <time>2016-01-03T10:46:43.651Z</time>
      </trkpt>
      <trkpt lat="43.68582" lon="5.77875">
        <ele>434</ele>
        <time>2016-01-03T10:46:44.629Z</time>
      </trkpt>
      <trkpt lat="43.68587" lon="5.77884">
        <ele>434</ele>
        <time>2016-01-03T10:46:46.650Z</time>
      </trkpt>
      <trkpt lat="43.6859" lon="5.77888">
        <ele>434</ele>
        <time>2016-01-03T10:46:47.632Z</time>
      </trkpt>
      <trkpt lat="43.68595" lon="5.77896">
        <ele>434</ele>
        <time>2016-01-03T10:46:49.657Z</time>
      </trkpt>
      <trkpt lat="43.68598" lon="5.779">
        <ele>434</ele>
        <time>2016-01-03T10:46:50.633Z</time>
      </trkpt>
      <trkpt lat="43.68603" lon="5.7791">
        <ele>433</ele>
        <time>2016-01-03T10:46:52.656Z</time>
      </trkpt>
      <trkpt lat="43.68606" lon="5.77915">
        <ele>433</ele>
        <time>2016-01-03T10:46:53.631Z</time>
      </trkpt>
      <trkpt lat="43.68609" lon="5.77926">
        <ele>433</ele>
        <time>2016-01-03T10:46:55.656Z</time>
      </trkpt>
      <trkpt lat="43.68609" lon="5.77932">
        <ele>433</ele>
        <time>2016-01-03T10:46:56.632Z</time>
      </trkpt>
      <trkpt lat="43.68611" lon="5.77943">
        <ele>433</ele>
        <time>2016-01-03T10:46:58.656Z</time>
      </trkpt>
      <trkpt lat="43.68612" lon="5.77948">
        <ele>433</ele>
        <time>2016-01-03T10:46:59.658Z</time>
      </trkpt>
      <trkpt lat="43.68614" lon="5.77959">
        <ele>434</ele>
        <time>2016-01-03T10:47:01.656Z</time>
      </trkpt>
      <trkpt lat="43.68615" lon="5.77965">
        <ele>434</ele>
        <time>2016-01-03T10:47:02.643Z</time>
      </trkpt>
      <trkpt lat="43.68617" lon="5.77974">
        <ele>434</ele>
        <time>2016-01-03T10:47:04.657Z</time>
      </trkpt>
      <trkpt lat="43.68619" lon="5.77979">
        <ele>434</ele>
        <time>2016-01-03T10:47:05.632Z</time>
      </trkpt>
      <trkpt lat="43.68623" lon="5.77987">
        <ele>435</ele>
        <time>2016-01-03T10:47:07.657Z</time>
      </trkpt>
      <trkpt lat="43.68626" lon="5.77991">
        <ele>435</ele>
        <time>2016-01-03T10:47:08.632Z</time>
      </trkpt>
      <trkpt lat="43.68631" lon="5.77999">
        <ele>436</ele>
        <time>2016-01-03T10:47:10.690Z</time>
      </trkpt>
      <trkpt lat="43.68634" lon="5.78002">
        <ele>436</ele>
        <time>2016-01-03T10:47:11.631Z</time>
      </trkpt>
      <trkpt lat="43.68639" lon="5.78007">
        <ele>436</ele>
        <time>2016-01-03T10:47:13.657Z</time>
      </trkpt>
      <trkpt lat="43.68642" lon="5.78009">
        <ele>436</ele>
        <time>2016-01-03T10:47:14.643Z</time>
      </trkpt>
      <trkpt lat="43.68648" lon="5.78013">
        <ele>436</ele>
        <time>2016-01-03T10:47:16.655Z</time>
      </trkpt>
      <trkpt lat="43.68652" lon="5.78014">
        <ele>436</ele>
        <time>2016-01-03T10:47:17.632Z</time>
      </trkpt>
      <trkpt lat="43.68657" lon="5.78016">
        <ele>436</ele>
        <time>2016-01-03T10:47:18.654Z</time>
      </trkpt>
      <trkpt lat="43.68663" lon="5.78015">
        <ele>436</ele>
        <time>2016-01-03T10:47:19.632Z</time>
      </trkpt>
      <trkpt lat="43.68668" lon="5.78015">
        <ele>436</ele>
        <time>2016-01-03T10:47:20.655Z</time>
      </trkpt>
      <trkpt lat="43.68672" lon="5.78015">
        <ele>435</ele>
        <time>2016-01-03T10:47:21.657Z</time>
      </trkpt>
      <trkpt lat="43.68681" lon="5.78017">
        <ele>435</ele>
        <time>2016-01-03T10:47:23.655Z</time>
      </trkpt>
      <trkpt lat="43.68684" lon="5.78019">
        <ele>435</ele>
        <time>2016-01-03T10:47:24.631Z</time>
      </trkpt>
      <trkpt lat="43.68689" lon="5.78028">
        <ele>436</ele>
        <time>2016-01-03T10:47:26.872Z</time>
      </trkpt>
      <trkpt lat="43.68689" lon="5.78033">
        <ele>436</ele>
        <time>2016-01-03T10:47:27.632Z</time>
      </trkpt>
      <trkpt lat="43.68688" lon="5.78044">
        <ele>436</ele>
        <time>2016-01-03T10:47:29.655Z</time>
      </trkpt>
      <trkpt lat="43.68687" lon="5.7805">
        <ele>436</ele>
        <time>2016-01-03T10:47:30.632Z</time>
      </trkpt>
      <trkpt lat="43.68684" lon="5.78061">
        <ele>435</ele>
        <time>2016-01-03T10:47:32.655Z</time>
      </trkpt>
      <trkpt lat="43.68683" lon="5.78066">
        <ele>436</ele>
        <time>2016-01-03T10:47:33.632Z</time>
      </trkpt>
      <trkpt lat="43.68679" lon="5.78077">
        <ele>435</ele>
        <time>2016-01-03T10:47:35.672Z</time>
      </trkpt>
      <trkpt lat="43.68677" lon="5.78083">
        <ele>435</ele>
        <time>2016-01-03T10:47:36.632Z</time>
      </trkpt>
      <trkpt lat="43.68677" lon="5.78094">
        <ele>435</ele>
        <time>2016-01-03T10:47:38.657Z</time>
      </trkpt>
      <trkpt lat="43.68677" lon="5.781">
        <ele>435</ele>
        <time>2016-01-03T10:47:39.632Z</time>
      </trkpt>
      <trkpt lat="43.68679" lon="5.78111">
        <ele>435</ele>
        <time>2016-01-03T10:47:41.655Z</time>
      </trkpt>
      <trkpt lat="43.68681" lon="5.78116">
        <ele>435</ele>
        <time>2016-01-03T10:47:42.632Z</time>
      </trkpt>
      <trkpt lat="43.68685" lon="5.78127">
        <ele>435</ele>
        <time>2016-01-03T10:47:44.658Z</time>
      </trkpt>
      <trkpt lat="43.68686" lon="5.78132">
        <ele>435</ele>
        <time>2016-01-03T10:47:45.632Z</time>
      </trkpt>
      <trkpt lat="43.68688" lon="5.78138">
        <ele>435</ele>
        <time>2016-01-03T10:47:46.654Z</time>
      </trkpt>
      <trkpt lat="43.68691" lon="5.78143">
        <ele>435</ele>
        <time>2016-01-03T10:47:47.633Z</time>
      </trkpt>
      <trkpt lat="43.68695" lon="5.78149">
        <ele>434</ele>
        <time>2016-01-03T10:47:48.682Z</time>
      </trkpt>
      <trkpt lat="43.68699" lon="5.78154">
        <ele>434</ele>
        <time>2016-01-03T10:47:49.632Z</time>
      </trkpt>
      <trkpt lat="43.68704" lon="5.78158">
        <ele>433</ele>
        <time>2016-01-03T10:47:50.654Z</time>
      </trkpt>
      <trkpt lat="43.68709" lon="5.78162">
        <ele>433</ele>
        <time>2016-01-03T10:47:51.634Z</time>
      </trkpt>
      <trkpt lat="43.68715" lon="5.78165">
        <ele>433</ele>
        <time>2016-01-03T10:47:52.655Z</time>
      </trkpt>
      <trkpt lat="43.68721" lon="5.78167">
        <ele>432</ele>
        <time>2016-01-03T10:47:53.634Z</time>
      </trkpt>
      <trkpt lat="43.68727" lon="5.78169">
        <ele>432</ele>
        <time>2016-01-03T10:47:54.657Z</time>
      </trkpt>
      <trkpt lat="43.68733" lon="5.7817">
        <ele>431</ele>
        <time>2016-01-03T10:47:55.649Z</time>
      </trkpt>
      <trkpt lat="43.68739" lon="5.78171">
        <ele>431</ele>
        <time>2016-01-03T10:47:56.653Z</time>
      </trkpt>
      <trkpt lat="43.68745" lon="5.78171">
        <ele>430</ele>
        <time>2016-01-03T10:47:57.631Z</time>
      </trkpt>
      <trkpt lat="43.68751" lon="5.78169">
        <ele>430</ele>
        <time>2016-01-03T10:47:58.656Z</time>
      </trkpt>
      <trkpt lat="43.68757" lon="5.78167">
        <ele>430</ele>
        <time>2016-01-03T10:47:59.657Z</time>
      </trkpt>
      <trkpt lat="43.68762" lon="5.78165">
        <ele>430</ele>
        <time>2016-01-03T10:48:00.648Z</time>
      </trkpt>
      <trkpt lat="43.68767" lon="5.78162">
        <ele>430</ele>
        <time>2016-01-03T10:48:01.630Z</time>
      </trkpt>
      <trkpt lat="43.68772" lon="5.78159">
        <ele>430</ele>
        <time>2016-01-03T10:48:02.649Z</time>
      </trkpt>
      <trkpt lat="43.68778" lon="5.78156">
        <ele>430</ele>
        <time>2016-01-03T10:48:03.630Z</time>
      </trkpt>
      <trkpt lat="43.68783" lon="5.78154">
        <ele>430</ele>
        <time>2016-01-03T10:48:04.652Z</time>
      </trkpt>
      <trkpt lat="43.68789" lon="5.78151">
        <ele>430</ele>
        <time>2016-01-03T10:48:05.630Z</time>
      </trkpt>
      <trkpt lat="43.68794" lon="5.78149">
        <ele>430</ele>
        <time>2016-01-03T10:48:06.649Z</time>
      </trkpt>
      <trkpt lat="43.688" lon="5.78146">
        <ele>430</ele>
        <time>2016-01-03T10:48:07.630Z</time>
      </trkpt>
      <trkpt lat="43.68805" lon="5.78144">
        <ele>431</ele>
        <time>2016-01-03T10:48:08.651Z</time>
      </trkpt>
      <trkpt lat="43.6881" lon="5.78143">
        <ele>431</ele>
        <time>2016-01-03T10:48:09.629Z</time>
      </trkpt>
      <trkpt lat="43.68815" lon="5.78143">
        <ele>430</ele>
        <time>2016-01-03T10:48:10.673Z</time>
      </trkpt>
      <trkpt lat="43.6882" lon="5.78144">
        <ele>430</ele>
        <time>2016-01-03T10:48:11.630Z</time>
      </trkpt>
      <trkpt lat="43.68825" lon="5.78147">
        <ele>430</ele>
        <time>2016-01-03T10:48:12.643Z</time>
      </trkpt>
      <trkpt lat="43.68829" lon="5.7815">
        <ele>431</ele>
        <time>2016-01-03T10:48:13.629Z</time>
      </trkpt>
      <trkpt lat="43.68834" lon="5.78153">
        <ele>430</ele>
        <time>2016-01-03T10:48:14.648Z</time>
      </trkpt>
      <trkpt lat="43.68837" lon="5.78157">
        <ele>430</ele>
        <time>2016-01-03T10:48:15.629Z</time>
      </trkpt>
      <trkpt lat="43.68841" lon="5.78161">
        <ele>430</ele>
        <time>2016-01-03T10:48:16.651Z</time>
      </trkpt>
      <trkpt lat="43.68843" lon="5.78167">
        <ele>429</ele>
        <time>2016-01-03T10:48:17.629Z</time>
      </trkpt>
      <trkpt lat="43.68844" lon="5.78179">
        <ele>429</ele>
        <time>2016-01-03T10:48:19.651Z</time>
      </trkpt>
      <trkpt lat="43.68841" lon="5.78182">
        <ele>429</ele>
        <time>2016-01-03T10:48:20.629Z</time>
      </trkpt>
      <trkpt lat="43.68832" lon="5.78187">
        <ele>429</ele>
        <time>2016-01-03T10:48:22.823Z</time>
      </trkpt>
      <trkpt lat="43.68828" lon="5.78188">
        <ele>428</ele>
        <time>2016-01-03T10:48:23.630Z</time>
      </trkpt>
      <trkpt lat="43.68821" lon="5.78193">
        <ele>428</ele>
        <time>2016-01-03T10:48:25.650Z</time>
      </trkpt>
      <trkpt lat="43.68818" lon="5.78196">
        <ele>428</ele>
        <time>2016-01-03T10:48:26.636Z</time>
      </trkpt>
      <trkpt lat="43.68815" lon="5.782">
        <ele>428</ele>
        <time>2016-01-03T10:48:27.650Z</time>
      </trkpt>
      <trkpt lat="43.68812" lon="5.78206">
        <ele>428</ele>
        <time>2016-01-03T10:48:28.630Z</time>
      </trkpt>
      <trkpt lat="43.68809" lon="5.78212">
        <ele>428</ele>
        <time>2016-01-03T10:48:29.648Z</time>
      </trkpt>
      <trkpt lat="43.68806" lon="5.78217">
        <ele>428</ele>
        <time>2016-01-03T10:48:30.630Z</time>
      </trkpt>
      <trkpt lat="43.68801" lon="5.78227">
        <ele>429</ele>
        <time>2016-01-03T10:48:32.649Z</time>
      </trkpt>
      <trkpt lat="43.68798" lon="5.78231">
        <ele>429</ele>
        <time>2016-01-03T10:48:33.631Z</time>
      </trkpt>
      <trkpt lat="43.68793" lon="5.7824">
        <ele>429</ele>
        <time>2016-01-03T10:48:35.653Z</time>
      </trkpt>
      <trkpt lat="43.6879" lon="5.78244">
        <ele>429</ele>
        <time>2016-01-03T10:48:36.629Z</time>
      </trkpt>
      <trkpt lat="43.68784" lon="5.78253">
        <ele>429</ele>
        <time>2016-01-03T10:48:38.653Z</time>
      </trkpt>
      <trkpt lat="43.68781" lon="5.78256">
        <ele>429</ele>
        <time>2016-01-03T10:48:39.628Z</time>
      </trkpt>
      <trkpt lat="43.68775" lon="5.78263">
        <ele>429</ele>
        <time>2016-01-03T10:48:41.651Z</time>
      </trkpt>
      <trkpt lat="43.68772" lon="5.78267">
        <ele>429</ele>
        <time>2016-01-03T10:48:42.630Z</time>
      </trkpt>
      <trkpt lat="43.68765" lon="5.78275">
        <ele>428</ele>
        <time>2016-01-03T10:48:44.829Z</time>
      </trkpt>
      <trkpt lat="43.6876" lon="5.78279">
        <ele>428</ele>
        <time>2016-01-03T10:48:45.633Z</time>
      </trkpt>
      <trkpt lat="43.68756" lon="5.78283">
        <ele>428</ele>
        <time>2016-01-03T10:48:46.650Z</time>
      </trkpt>
      <trkpt lat="43.68752" lon="5.78288">
        <ele>428</ele>
        <time>2016-01-03T10:48:47.653Z</time>
      </trkpt>
      <trkpt lat="43.68748" lon="5.78291">
        <ele>428</ele>
        <time>2016-01-03T10:48:48.650Z</time>
      </trkpt>
      <trkpt lat="43.68744" lon="5.78295">
        <ele>428</ele>
        <time>2016-01-03T10:48:49.629Z</time>
      </trkpt>
      <trkpt lat="43.6874" lon="5.78299">
        <ele>428</ele>
        <time>2016-01-03T10:48:50.650Z</time>
      </trkpt>
      <trkpt lat="43.68737" lon="5.78303">
        <ele>428</ele>
        <time>2016-01-03T10:48:51.632Z</time>
      </trkpt>
      <trkpt lat="43.68732" lon="5.78313">
        <ele>428</ele>
        <time>2016-01-03T10:48:53.650Z</time>
      </trkpt>
      <trkpt lat="43.6873" lon="5.78318">
        <ele>428</ele>
        <time>2016-01-03T10:48:54.630Z</time>
      </trkpt>
      <trkpt lat="43.68729" lon="5.78324">
        <ele>428</ele>
        <time>2016-01-03T10:48:55.651Z</time>
      </trkpt>
      <trkpt lat="43.68729" lon="5.7833">
        <ele>428</ele>
        <time>2016-01-03T10:48:56.631Z</time>
      </trkpt>
      <trkpt lat="43.68729" lon="5.78337">
        <ele>428</ele>
        <time>2016-01-03T10:48:57.650Z</time>
      </trkpt>
      <trkpt lat="43.6873" lon="5.78344">
        <ele>428</ele>
        <time>2016-01-03T10:48:58.652Z</time>
      </trkpt>
      <trkpt lat="43.68732" lon="5.7835">
        <ele>428</ele>
        <time>2016-01-03T10:48:59.648Z</time>
      </trkpt>
      <trkpt lat="43.68733" lon="5.78356">
        <ele>428</ele>
        <time>2016-01-03T10:49:00.633Z</time>
      </trkpt>
      <trkpt lat="43.68735" lon="5.78362">
        <ele>428</ele>
        <time>2016-01-03T10:49:01.650Z</time>
      </trkpt>
      <trkpt lat="43.68738" lon="5.78367">
        <ele>429</ele>
        <time>2016-01-03T10:49:02.630Z</time>
      </trkpt>
      <trkpt lat="43.6874" lon="5.78373">
        <ele>429</ele>
        <time>2016-01-03T10:49:03.650Z</time>
      </trkpt>
      <trkpt lat="43.68743" lon="5.78378">
        <ele>428</ele>
        <time>2016-01-03T10:49:04.630Z</time>
      </trkpt>
      <trkpt lat="43.68747" lon="5.78382">
        <ele>428</ele>
        <time>2016-01-03T10:49:05.678Z</time>
      </trkpt>
      <trkpt lat="43.6875" lon="5.78386">
        <ele>428</ele>
        <time>2016-01-03T10:49:06.630Z</time>
      </trkpt>
      <trkpt lat="43.68754" lon="5.7839">
        <ele>428</ele>
        <time>2016-01-03T10:49:07.650Z</time>
      </trkpt>
      <trkpt lat="43.68758" lon="5.78394">
        <ele>428</ele>
        <time>2016-01-03T10:49:08.629Z</time>
      </trkpt>
      <trkpt lat="43.68761" lon="5.78398">
        <ele>428</ele>
        <time>2016-01-03T10:49:09.672Z</time>
      </trkpt>
      <trkpt lat="43.68765" lon="5.78403">
        <ele>429</ele>
        <time>2016-01-03T10:49:10.630Z</time>
      </trkpt>
      <trkpt lat="43.68768" lon="5.78408">
        <ele>428</ele>
        <time>2016-01-03T10:49:11.649Z</time>
      </trkpt>
      <trkpt lat="43.68771" lon="5.78414">
        <ele>429</ele>
        <time>2016-01-03T10:49:12.629Z</time>
      </trkpt>
      <trkpt lat="43.68773" lon="5.78419">
        <ele>429</ele>
        <time>2016-01-03T10:49:13.651Z</time>
      </trkpt>
      <trkpt lat="43.68775" lon="5.78425">
        <ele>429</ele>
        <time>2016-01-03T10:49:14.630Z</time>
      </trkpt>
      <trkpt lat="43.68778" lon="5.78436">
        <ele>430</ele>
        <time>2016-01-03T10:49:16.650Z</time>
      </trkpt>
      <trkpt lat="43.68779" lon="5.78442">
        <ele>430</ele>
        <time>2016-01-03T10:49:17.629Z</time>
      </trkpt>
      <trkpt lat="43.6878" lon="5.78454">
        <ele>431</ele>
        <time>2016-01-03T10:49:19.649Z</time>
      </trkpt>
      <trkpt lat="43.68781" lon="5.7846">
        <ele>431</ele>
        <time>2016-01-03T10:49:20.653Z</time>
      </trkpt>
      <trkpt lat="43.68784" lon="5.78471">
        <ele>431</ele>
        <time>2016-01-03T10:49:22.650Z</time>
      </trkpt>
      <trkpt lat="43.68786" lon="5.78476">
        <ele>431</ele>
        <time>2016-01-03T10:49:23.629Z</time>
      </trkpt>
      <trkpt lat="43.68791" lon="5.78486">
        <ele>432</ele>
        <time>2016-01-03T10:49:25.651Z</time>
      </trkpt>
      <trkpt lat="43.68794" lon="5.7849">
        <ele>432</ele>
        <time>2016-01-03T10:49:26.631Z</time>
      </trkpt>
      <trkpt lat="43.68799" lon="5.78499">
        <ele>432</ele>
        <time>2016-01-03T10:49:28.650Z</time>
      </trkpt>
      <trkpt lat="43.68802" lon="5.78504">
        <ele>432</ele>
        <time>2016-01-03T10:49:29.630Z</time>
      </trkpt>
      <trkpt lat="43.68806" lon="5.78514">
        <ele>431</ele>
        <time>2016-01-03T10:49:31.669Z</time>
      </trkpt>
      <trkpt lat="43.68807" lon="5.7852">
        <ele>432</ele>
        <time>2016-01-03T10:49:32.631Z</time>
      </trkpt>
      <trkpt lat="43.68807" lon="5.78532">
        <ele>432</ele>
        <time>2016-01-03T10:49:34.650Z</time>
      </trkpt>
      <trkpt lat="43.68806" lon="5.78538">
        <ele>431</ele>
        <time>2016-01-03T10:49:35.629Z</time>
      </trkpt>
      <trkpt lat="43.68801" lon="5.78544">
        <ele>431</ele>
        <time>2016-01-03T10:49:36.645Z</time>
      </trkpt>
      <trkpt lat="43.68797" lon="5.78548">
        <ele>431</ele>
        <time>2016-01-03T10:49:37.627Z</time>
      </trkpt>
      <trkpt lat="43.68792" lon="5.78549">
        <ele>431</ele>
        <time>2016-01-03T10:49:38.649Z</time>
      </trkpt>
      <trkpt lat="43.68787" lon="5.78549">
        <ele>431</ele>
        <time>2016-01-03T10:49:39.629Z</time>
      </trkpt>
      <trkpt lat="43.68779" lon="5.78544">
        <ele>431</ele>
        <time>2016-01-03T10:49:41.650Z</time>
      </trkpt>
      <trkpt lat="43.68775" lon="5.78541">
        <ele>430</ele>
        <time>2016-01-03T10:49:42.729Z</time>
      </trkpt>
      <trkpt lat="43.68769" lon="5.78535">
        <ele>431</ele>
        <time>2016-01-03T10:49:44.651Z</time>
      </trkpt>
      <trkpt lat="43.68765" lon="5.78532">
        <ele>431</ele>
        <time>2016-01-03T10:49:45.631Z</time>
      </trkpt>
      <trkpt lat="43.68758" lon="5.78525">
        <ele>431</ele>
        <time>2016-01-03T10:49:47.650Z</time>
      </trkpt>
      <trkpt lat="43.68755" lon="5.78521">
        <ele>431</ele>
        <time>2016-01-03T10:49:48.629Z</time>
      </trkpt>
      <trkpt lat="43.6875" lon="5.78514">
        <ele>431</ele>
        <time>2016-01-03T10:49:50.651Z</time>
      </trkpt>
      <trkpt lat="43.68747" lon="5.7851">
        <ele>431</ele>
        <time>2016-01-03T10:49:51.630Z</time>
      </trkpt>
      <trkpt lat="43.68742" lon="5.78501">
        <ele>431</ele>
        <time>2016-01-03T10:49:53.673Z</time>
      </trkpt>
      <trkpt lat="43.68739" lon="5.78497">
        <ele>431</ele>
        <time>2016-01-03T10:49:54.630Z</time>
      </trkpt>
      <trkpt lat="43.68735" lon="5.78487">
        <ele>431</ele>
        <time>2016-01-03T10:49:56.650Z</time>
      </trkpt>
      <trkpt lat="43.68732" lon="5.78482">
        <ele>431</ele>
        <time>2016-01-03T10:49:57.631Z</time>
      </trkpt>
      <trkpt lat="43.68726" lon="5.78474">
        <ele>431</ele>
        <time>2016-01-03T10:49:59.650Z</time>
      </trkpt>
      <trkpt lat="43.68722" lon="5.78471">
        <ele>431</ele>
        <time>2016-01-03T10:50:00.630Z</time>
      </trkpt>
      <trkpt lat="43.68713" lon="5.78467">
        <ele>430</ele>
        <time>2016-01-03T10:50:02.651Z</time>
      </trkpt>
      <trkpt lat="43.68706" lon="5.7847">
        <ele>430</ele>
        <time>2016-01-03T10:50:03.631Z</time>
      </trkpt>
      <trkpt lat="43.68701" lon="5.78472">
        <ele>429</ele>
        <time>2016-01-03T10:50:04.678Z</time>
      </trkpt>
      <trkpt lat="43.68696" lon="5.78474">
        <ele>429</ele>
        <time>2016-01-03T10:50:05.636Z</time>
      </trkpt>
      <trkpt lat="43.68692" lon="5.78476">
        <ele>429</ele>
        <time>2016-01-03T10:50:06.650Z</time>
      </trkpt>
      <trkpt lat="43.68687" lon="5.78479">
        <ele>428</ele>
        <time>2016-01-03T10:50:07.629Z</time>
      </trkpt>
      <trkpt lat="43.68682" lon="5.78481">
        <ele>429</ele>
        <time>2016-01-03T10:50:08.649Z</time>
      </trkpt>
      <trkpt lat="43.68676" lon="5.78482">
        <ele>428</ele>
        <time>2016-01-03T10:50:09.630Z</time>
      </trkpt>
      <trkpt lat="43.68669" lon="5.78475">
        <ele>428</ele>
        <time>2016-01-03T10:50:11.652Z</time>
      </trkpt>
      <trkpt lat="43.68668" lon="5.7847">
        <ele>428</ele>
        <time>2016-01-03T10:50:12.632Z</time>
      </trkpt>
      <trkpt lat="43.68667" lon="5.78458">
        <ele>429</ele>
        <time>2016-01-03T10:50:14.650Z</time>
      </trkpt>
      <trkpt lat="43.68667" lon="5.78453">
        <ele>429</ele>
        <time>2016-01-03T10:50:15.652Z</time>
      </trkpt>
      <trkpt lat="43.68665" lon="5.78442">
        <ele>430</ele>
        <time>2016-01-03T10:50:17.645Z</time>
      </trkpt>
      <trkpt lat="43.68662" lon="5.78437">
        <ele>430</ele>
        <time>2016-01-03T10:50:18.630Z</time>
      </trkpt>
      <trkpt lat="43.68658" lon="5.78429">
        <ele>430</ele>
        <time>2016-01-03T10:50:20.649Z</time>
      </trkpt>
      <trkpt lat="43.68655" lon="5.78425">
        <ele>430</ele>
        <time>2016-01-03T10:50:21.630Z</time>
      </trkpt>
      <trkpt lat="43.68649" lon="5.7842">
        <ele>430</ele>
        <time>2016-01-03T10:50:23.657Z</time>
      </trkpt>
      <trkpt lat="43.68645" lon="5.78417">
        <ele>430</ele>
        <time>2016-01-03T10:50:24.634Z</time>
      </trkpt>
      <trkpt lat="43.68639" lon="5.78413">
        <ele>431</ele>
        <time>2016-01-03T10:50:26.693Z</time>
      </trkpt>
      <trkpt lat="43.68635" lon="5.78411">
        <ele>431</ele>
        <time>2016-01-03T10:50:27.632Z</time>
      </trkpt>
      <trkpt lat="43.68629" lon="5.78405">
        <ele>431</ele>
        <time>2016-01-03T10:50:29.647Z</time>
      </trkpt>
      <trkpt lat="43.68626" lon="5.78401">
        <ele>432</ele>
        <time>2016-01-03T10:50:30.634Z</time>
      </trkpt>
      <trkpt lat="43.68622" lon="5.78393">
        <ele>432</ele>
        <time>2016-01-03T10:50:32.658Z</time>
      </trkpt>
      <trkpt lat="43.6862" lon="5.78388">
        <ele>433</ele>
        <time>2016-01-03T10:50:33.633Z</time>
      </trkpt>
      <trkpt lat="43.68617" lon="5.78379">
        <ele>433</ele>
        <time>2016-01-03T10:50:35.663Z</time>
      </trkpt>
      <trkpt lat="43.68615" lon="5.78374">
        <ele>433</ele>
        <time>2016-01-03T10:50:36.633Z</time>
      </trkpt>
      <trkpt lat="43.68611" lon="5.78366">
        <ele>434</ele>
        <time>2016-01-03T10:50:38.658Z</time>
      </trkpt>
      <trkpt lat="43.68609" lon="5.78363">
        <ele>434</ele>
        <time>2016-01-03T10:50:39.631Z</time>
      </trkpt>
      <trkpt lat="43.68604" lon="5.78356">
        <ele>434</ele>
        <time>2016-01-03T10:50:41.658Z</time>
      </trkpt>
      <trkpt lat="43.68601" lon="5.78354">
        <ele>434</ele>
        <time>2016-01-03T10:50:42.632Z</time>
      </trkpt>
      <trkpt lat="43.68596" lon="5.78349">
        <ele>434</ele>
        <time>2016-01-03T10:50:44.658Z</time>
      </trkpt>
      <trkpt lat="43.68593" lon="5.78346">
        <ele>435</ele>
        <time>2016-01-03T10:50:45.632Z</time>
      </trkpt>
      <trkpt lat="43.68587" lon="5.78342">
        <ele>435</ele>
        <time>2016-01-03T10:50:47.656Z</time>
      </trkpt>
      <trkpt lat="43.68583" lon="5.78339">
        <ele>435</ele>
        <time>2016-01-03T10:50:48.632Z</time>
      </trkpt>
      <trkpt lat="43.68577" lon="5.78335">
        <ele>435</ele>
        <time>2016-01-03T10:50:50.784Z</time>
      </trkpt>
      <trkpt lat="43.68574" lon="5.78333">
        <ele>435</ele>
        <time>2016-01-03T10:50:51.632Z</time>
      </trkpt>
      <trkpt lat="43.68566" lon="5.78328">
        <ele>435</ele>
        <time>2016-01-03T10:50:53.655Z</time>
      </trkpt>
      <trkpt lat="43.68562" lon="5.78326">
        <ele>435</ele>
        <time>2016-01-03T10:50:54.636Z</time>
      </trkpt>
      <trkpt lat="43.68554" lon="5.78323">
        <ele>435</ele>
        <time>2016-01-03T10:50:56.655Z</time>
      </trkpt>
      <trkpt lat="43.6855" lon="5.78322">
        <ele>434</ele>
        <time>2016-01-03T10:50:57.633Z</time>
      </trkpt>
      <trkpt lat="43.68542" lon="5.78319">
        <ele>435</ele>
        <time>2016-01-03T10:50:59.657Z</time>
      </trkpt>
      <trkpt lat="43.68538" lon="5.78318">
        <ele>435</ele>
        <time>2016-01-03T10:51:00.634Z</time>
      </trkpt>
      <trkpt lat="43.6853" lon="5.78317">
        <ele>436</ele>
        <time>2016-01-03T10:51:02.656Z</time>
      </trkpt>
      <trkpt lat="43.68526" lon="5.78316">
        <ele>436</ele>
        <time>2016-01-03T10:51:03.633Z</time>
      </trkpt>
      <trkpt lat="43.68518" lon="5.78314">
        <ele>437</ele>
        <time>2016-01-03T10:51:05.657Z</time>
      </trkpt>
      <trkpt lat="43.68514" lon="5.78313">
        <ele>436</ele>
        <time>2016-01-03T10:51:06.633Z</time>
      </trkpt>
      <trkpt lat="43.68507" lon="5.78311">
        <ele>436</ele>
        <time>2016-01-03T10:51:08.657Z</time>
      </trkpt>
      <trkpt lat="43.68504" lon="5.7831">
        <ele>436</ele>
        <time>2016-01-03T10:51:09.644Z</time>
      </trkpt>
      <trkpt lat="43.68496" lon="5.78309">
        <ele>436</ele>
        <time>2016-01-03T10:51:11.657Z</time>
      </trkpt>
      <trkpt lat="43.68493" lon="5.78309">
        <ele>437</ele>
        <time>2016-01-03T10:51:12.634Z</time>
      </trkpt>
      <trkpt lat="43.68485" lon="5.78309">
        <ele>437</ele>
        <time>2016-01-03T10:51:14.652Z</time>
      </trkpt>
      <trkpt lat="43.68481" lon="5.7831">
        <ele>437</ele>
        <time>2016-01-03T10:51:15.633Z</time>
      </trkpt>
      <trkpt lat="43.68474" lon="5.78312">
        <ele>436</ele>
        <time>2016-01-03T10:51:17.656Z</time>
      </trkpt>
      <trkpt lat="43.68471" lon="5.78315">
        <ele>436</ele>
        <time>2016-01-03T10:51:18.632Z</time>
      </trkpt>
      <trkpt lat="43.68464" lon="5.7832">
        <ele>437</ele>
        <time>2016-01-03T10:51:20.688Z</time>
      </trkpt>
      <trkpt lat="43.68462" lon="5.78323">
        <ele>437</ele>
        <time>2016-01-03T10:51:21.633Z</time>
      </trkpt>
      <trkpt lat="43.68456" lon="5.78328">
        <ele>438</ele>
        <time>2016-01-03T10:51:23.657Z</time>
      </trkpt>
      <trkpt lat="43.68453" lon="5.78331">
        <ele>438</ele>
        <time>2016-01-03T10:51:24.633Z</time>
      </trkpt>
      <trkpt lat="43.68448" lon="5.78336">
        <ele>438</ele>
        <time>2016-01-03T10:51:26.656Z</time>
      </trkpt>
      <trkpt lat="43.68444" lon="5.78338">
        <ele>438</ele>
        <time>2016-01-03T10:51:27.633Z</time>
      </trkpt>
      <trkpt lat="43.68438" lon="5.78343">
        <ele>438</ele>
        <time>2016-01-03T10:51:29.657Z</time>
      </trkpt>
      <trkpt lat="43.68435" lon="5.78345">
        <ele>439</ele>
        <time>2016-01-03T10:51:30.633Z</time>
      </trkpt>
      <trkpt lat="43.68428" lon="5.78349">
        <ele>439</ele>
        <time>2016-01-03T10:51:32.656Z</time>
      </trkpt>
      <trkpt lat="43.68425" lon="5.78352">
        <ele>439</ele>
        <time>2016-01-03T10:51:33.632Z</time>
      </trkpt>
      <trkpt lat="43.68419" lon="5.78356">
        <ele>440</ele>
        <time>2016-01-03T10:51:35.644Z</time>
      </trkpt>
      <trkpt lat="43.68416" lon="5.78359">
        <ele>440</ele>
        <time>2016-01-03T10:51:36.632Z</time>
      </trkpt>
      <trkpt lat="43.68409" lon="5.78363">
        <ele>440</ele>
        <time>2016-01-03T10:51:38.656Z</time>
      </trkpt>
      <trkpt lat="43.68407" lon="5.78366">
        <ele>440</ele>
        <time>2016-01-03T10:51:39.634Z</time>
      </trkpt>
      <trkpt lat="43.68402" lon="5.78373">
        <ele>440</ele>
        <time>2016-01-03T10:51:41.656Z</time>
      </trkpt>
      <trkpt lat="43.68401" lon="5.78377">
        <ele>440</ele>
        <time>2016-01-03T10:51:42.662Z</time>
      </trkpt>
      <trkpt lat="43.68399" lon="5.78387">
        <ele>440</ele>
        <time>2016-01-03T10:51:44.668Z</time>
      </trkpt>
      <trkpt lat="43.68399" lon="5.78392">
        <ele>441</ele>
        <time>2016-01-03T10:51:45.633Z</time>
      </trkpt>
      <trkpt lat="43.684" lon="5.78402">
        <ele>440</ele>
        <time>2016-01-03T10:51:47.658Z</time>
      </trkpt>
      <trkpt lat="43.68402" lon="5.78407">
        <ele>441</ele>
        <time>2016-01-03T10:51:48.634Z</time>
      </trkpt>
      <trkpt lat="43.68404" lon="5.78417">
        <ele>441</ele>
        <time>2016-01-03T10:51:50.654Z</time>
      </trkpt>
      <trkpt lat="43.68406" lon="5.78422">
        <ele>441</ele>
        <time>2016-01-03T10:51:51.632Z</time>
      </trkpt>
      <trkpt lat="43.68409" lon="5.78432">
        <ele>441</ele>
        <time>2016-01-03T10:51:53.689Z</time>
      </trkpt>
      <trkpt lat="43.68411" lon="5.78437">
        <ele>441</ele>
        <time>2016-01-03T10:51:54.633Z</time>
      </trkpt>
      <trkpt lat="43.68416" lon="5.78448">
        <ele>441</ele>
        <time>2016-01-03T10:51:56.659Z</time>
      </trkpt>
      <trkpt lat="43.68418" lon="5.78453">
        <ele>441</ele>
        <time>2016-01-03T10:51:57.633Z</time>
      </trkpt>
      <trkpt lat="43.68422" lon="5.78462">
        <ele>441</ele>
        <time>2016-01-03T10:51:59.659Z</time>
      </trkpt>
      <trkpt lat="43.68425" lon="5.78467">
        <ele>441</ele>
        <time>2016-01-03T10:52:00.825Z</time>
      </trkpt>
      <trkpt lat="43.68429" lon="5.78476">
        <ele>442</ele>
        <time>2016-01-03T10:52:02.656Z</time>
      </trkpt>
      <trkpt lat="43.68431" lon="5.7848">
        <ele>441</ele>
        <time>2016-01-03T10:52:03.634Z</time>
      </trkpt>
      <trkpt lat="43.68435" lon="5.7849">
        <ele>442</ele>
        <time>2016-01-03T10:52:05.653Z</time>
      </trkpt>
      <trkpt lat="43.68437" lon="5.78494">
        <ele>442</ele>
        <time>2016-01-03T10:52:06.633Z</time>
      </trkpt>
      <trkpt lat="43.68441" lon="5.78503">
        <ele>442</ele>
        <time>2016-01-03T10:52:08.655Z</time>
      </trkpt>
      <trkpt lat="43.68443" lon="5.78508">
        <ele>442</ele>
        <time>2016-01-03T10:52:09.634Z</time>
      </trkpt>
      <trkpt lat="43.68447" lon="5.78517">
        <ele>442</ele>
        <time>2016-01-03T10:52:11.659Z</time>
      </trkpt>
      <trkpt lat="43.68449" lon="5.78523">
        <ele>442</ele>
        <time>2016-01-03T10:52:12.632Z</time>
      </trkpt>
      <trkpt lat="43.68451" lon="5.78533">
        <ele>442</ele>
        <time>2016-01-03T10:52:14.656Z</time>
      </trkpt>
      <trkpt lat="43.68451" lon="5.78539">
        <ele>442</ele>
        <time>2016-01-03T10:52:15.635Z</time>
      </trkpt>
      <trkpt lat="43.6845" lon="5.7855">
        <ele>443</ele>
        <time>2016-01-03T10:52:17.657Z</time>
      </trkpt>
      <trkpt lat="43.68449" lon="5.78555">
        <ele>443</ele>
        <time>2016-01-03T10:52:18.633Z</time>
      </trkpt>
      <trkpt lat="43.68447" lon="5.78566">
        <ele>443</ele>
        <time>2016-01-03T10:52:20.682Z</time>
      </trkpt>
      <trkpt lat="43.68445" lon="5.7857">
        <ele>443</ele>
        <time>2016-01-03T10:52:21.636Z</time>
      </trkpt>
      <trkpt lat="43.6844" lon="5.7858">
        <ele>443</ele>
        <time>2016-01-03T10:52:23.721Z</time>
      </trkpt>
      <trkpt lat="43.68438" lon="5.78584">
        <ele>443</ele>
        <time>2016-01-03T10:52:24.633Z</time>
      </trkpt>
      <trkpt lat="43.68434" lon="5.78593">
        <ele>443</ele>
        <time>2016-01-03T10:52:26.659Z</time>
      </trkpt>
      <trkpt lat="43.68432" lon="5.78597">
        <ele>443</ele>
        <time>2016-01-03T10:52:27.632Z</time>
      </trkpt>
      <trkpt lat="43.68427" lon="5.78605">
        <ele>443</ele>
        <time>2016-01-03T10:52:29.660Z</time>
      </trkpt>
      <trkpt lat="43.68425" lon="5.78609">
        <ele>443</ele>
        <time>2016-01-03T10:52:30.633Z</time>
      </trkpt>
      <trkpt lat="43.68419" lon="5.78617">
        <ele>443</ele>
        <time>2016-01-03T10:52:32.658Z</time>
      </trkpt>
      <trkpt lat="43.68417" lon="5.78621">
        <ele>443</ele>
        <time>2016-01-03T10:52:33.632Z</time>
      </trkpt>
      <trkpt lat="43.68411" lon="5.78628">
        <ele>443</ele>
        <time>2016-01-03T10:52:35.658Z</time>
      </trkpt>
      <trkpt lat="43.68407" lon="5.78632">
        <ele>443</ele>
        <time>2016-01-03T10:52:36.633Z</time>
      </trkpt>
      <trkpt lat="43.68401" lon="5.78639">
        <ele>443</ele>
        <time>2016-01-03T10:52:38.652Z</time>
      </trkpt>
      <trkpt lat="43.68398" lon="5.78643">
        <ele>443</ele>
        <time>2016-01-03T10:52:39.634Z</time>
      </trkpt>
      <trkpt lat="43.68392" lon="5.78651">
        <ele>443</ele>
        <time>2016-01-03T10:52:41.657Z</time>
      </trkpt>
      <trkpt lat="43.68389" lon="5.78656">
        <ele>443</ele>
        <time>2016-01-03T10:52:42.657Z</time>
      </trkpt>
      <trkpt lat="43.68387" lon="5.78662">
        <ele>443</ele>
        <time>2016-01-03T10:52:43.657Z</time>
      </trkpt>
      <trkpt lat="43.68385" lon="5.7867">
        <ele>443</ele>
        <time>2016-01-03T10:52:44.635Z</time>
      </trkpt>
      <trkpt lat="43.68383" lon="5.78676">
        <ele>443</ele>
        <time>2016-01-03T10:52:45.658Z</time>
      </trkpt>
      <trkpt lat="43.68382" lon="5.78682">
        <ele>443</ele>
        <time>2016-01-03T10:52:46.633Z</time>
      </trkpt>
      <trkpt lat="43.6838" lon="5.78689">
        <ele>443</ele>
        <time>2016-01-03T10:52:47.715Z</time>
      </trkpt>
      <trkpt lat="43.68378" lon="5.78696">
        <ele>443</ele>
        <time>2016-01-03T10:52:48.635Z</time>
      </trkpt>
      <trkpt lat="43.68376" lon="5.78703">
        <ele>442</ele>
        <time>2016-01-03T10:52:49.656Z</time>
      </trkpt>
      <trkpt lat="43.68373" lon="5.78709">
        <ele>441</ele>
        <time>2016-01-03T10:52:50.633Z</time>
      </trkpt>
      <trkpt lat="43.6837" lon="5.78717">
        <ele>441</ele>
        <time>2016-01-03T10:52:51.658Z</time>
      </trkpt>
      <trkpt lat="43.68367" lon="5.78725">
        <ele>441</ele>
        <time>2016-01-03T10:52:52.633Z</time>
      </trkpt>
      <trkpt lat="43.68365" lon="5.78732">
        <ele>441</ele>
        <time>2016-01-03T10:52:53.683Z</time>
      </trkpt>
      <trkpt lat="43.68362" lon="5.7874">
        <ele>441</ele>
        <time>2016-01-03T10:52:54.633Z</time>
      </trkpt>
      <trkpt lat="43.6836" lon="5.78748">
        <ele>441</ele>
        <time>2016-01-03T10:52:55.658Z</time>
      </trkpt>
      <trkpt lat="43.68358" lon="5.78756">
        <ele>441</ele>
        <time>2016-01-03T10:52:56.633Z</time>
      </trkpt>
      <trkpt lat="43.68356" lon="5.78764">
        <ele>440</ele>
        <time>2016-01-03T10:52:57.658Z</time>
      </trkpt>
      <trkpt lat="43.68355" lon="5.78771">
        <ele>441</ele>
        <time>2016-01-03T10:52:58.634Z</time>
      </trkpt>
      <trkpt lat="43.68354" lon="5.78779">
        <ele>440</ele>
        <time>2016-01-03T10:52:59.659Z</time>
      </trkpt>
      <trkpt lat="43.68353" lon="5.78787">
        <ele>440</ele>
        <time>2016-01-03T10:53:00.634Z</time>
      </trkpt>
      <trkpt lat="43.68353" lon="5.78795">
        <ele>440</ele>
        <time>2016-01-03T10:53:01.657Z</time>
      </trkpt>
      <trkpt lat="43.68353" lon="5.78803">
        <ele>440</ele>
        <time>2016-01-03T10:53:02.633Z</time>
      </trkpt>
      <trkpt lat="43.68353" lon="5.78812">
        <ele>440</ele>
        <time>2016-01-03T10:53:03.657Z</time>
      </trkpt>
      <trkpt lat="43.68353" lon="5.7882">
        <ele>440</ele>
        <time>2016-01-03T10:53:04.663Z</time>
      </trkpt>
      <trkpt lat="43.68353" lon="5.78829">
        <ele>439</ele>
        <time>2016-01-03T10:53:05.657Z</time>
      </trkpt>
      <trkpt lat="43.68354" lon="5.78838">
        <ele>439</ele>
        <time>2016-01-03T10:53:06.633Z</time>
      </trkpt>
      <trkpt lat="43.68355" lon="5.78845">
        <ele>439</ele>
        <time>2016-01-03T10:53:07.658Z</time>
      </trkpt>
      <trkpt lat="43.68356" lon="5.78853">
        <ele>440</ele>
        <time>2016-01-03T10:53:08.633Z</time>
      </trkpt>
      <trkpt lat="43.68357" lon="5.7886">
        <ele>439</ele>
        <time>2016-01-03T10:53:09.655Z</time>
      </trkpt>
      <trkpt lat="43.68359" lon="5.78867">
        <ele>440</ele>
        <time>2016-01-03T10:53:10.632Z</time>
      </trkpt>
      <trkpt lat="43.68362" lon="5.78874">
        <ele>440</ele>
        <time>2016-01-03T10:53:11.655Z</time>
      </trkpt>
      <trkpt lat="43.68365" lon="5.78879">
        <ele>440</ele>
        <time>2016-01-03T10:53:12.633Z</time>
      </trkpt>
      <trkpt lat="43.68369" lon="5.78883">
        <ele>440</ele>
        <time>2016-01-03T10:53:13.656Z</time>
      </trkpt>
      <trkpt lat="43.68373" lon="5.78887">
        <ele>440</ele>
        <time>2016-01-03T10:53:14.634Z</time>
      </trkpt>
      <trkpt lat="43.68377" lon="5.78889">
        <ele>441</ele>
        <time>2016-01-03T10:53:15.683Z</time>
      </trkpt>
      <trkpt lat="43.68381" lon="5.78892">
        <ele>442</ele>
        <time>2016-01-03T10:53:16.633Z</time>
      </trkpt>
      <trkpt lat="43.68386" lon="5.78894">
        <ele>441</ele>
        <time>2016-01-03T10:53:17.656Z</time>
      </trkpt>
      <trkpt lat="43.6839" lon="5.78895">
        <ele>442</ele>
        <time>2016-01-03T10:53:18.633Z</time>
      </trkpt>
      <trkpt lat="43.68399" lon="5.78895">
        <ele>443</ele>
        <time>2016-01-03T10:53:20.656Z</time>
      </trkpt>
      <trkpt lat="43.68403" lon="5.78894">
        <ele>443</ele>
        <time>2016-01-03T10:53:21.633Z</time>
      </trkpt>
      <trkpt lat="43.68412" lon="5.78891">
        <ele>444</ele>
        <time>2016-01-03T10:53:23.656Z</time>
      </trkpt>
      <trkpt lat="43.68416" lon="5.7889">
        <ele>445</ele>
        <time>2016-01-03T10:53:24.634Z</time>
      </trkpt>
      <trkpt lat="43.68424" lon="5.7889">
        <ele>446</ele>
        <time>2016-01-03T10:53:26.684Z</time>
      </trkpt>
      <trkpt lat="43.68429" lon="5.78889">
        <ele>445</ele>
        <time>2016-01-03T10:53:27.633Z</time>
      </trkpt>
      <trkpt lat="43.68437" lon="5.78887">
        <ele>445</ele>
        <time>2016-01-03T10:53:29.657Z</time>
      </trkpt>
      <trkpt lat="43.68442" lon="5.78886">
        <ele>445</ele>
        <time>2016-01-03T10:53:30.628Z</time>
      </trkpt>
      <trkpt lat="43.68447" lon="5.78885">
        <ele>445</ele>
        <time>2016-01-03T10:53:31.656Z</time>
      </trkpt>
      <trkpt lat="43.68452" lon="5.78884">
        <ele>445</ele>
        <time>2016-01-03T10:53:32.632Z</time>
      </trkpt>
      <trkpt lat="43.68456" lon="5.78885">
        <ele>445</ele>
        <time>2016-01-03T10:53:33.657Z</time>
      </trkpt>
      <trkpt lat="43.68461" lon="5.78887">
        <ele>446</ele>
        <time>2016-01-03T10:53:34.633Z</time>
      </trkpt>
      <trkpt lat="43.68464" lon="5.7889">
        <ele>446</ele>
        <time>2016-01-03T10:53:35.655Z</time>
      </trkpt>
      <trkpt lat="43.68468" lon="5.78895">
        <ele>446</ele>
        <time>2016-01-03T10:53:36.632Z</time>
      </trkpt>
      <trkpt lat="43.6847" lon="5.78901">
        <ele>447</ele>
        <time>2016-01-03T10:53:37.682Z</time>
      </trkpt>
      <trkpt lat="43.68469" lon="5.78908">
        <ele>447</ele>
        <time>2016-01-03T10:53:38.633Z</time>
      </trkpt>
      <trkpt lat="43.68465" lon="5.78918">
        <ele>447</ele>
        <time>2016-01-03T10:53:40.649Z</time>
      </trkpt>
      <trkpt lat="43.68461" lon="5.78921">
        <ele>447</ele>
        <time>2016-01-03T10:53:41.633Z</time>
      </trkpt>
      <trkpt lat="43.68456" lon="5.78927">
        <ele>447</ele>
        <time>2016-01-03T10:53:43.699Z</time>
      </trkpt>
      <trkpt lat="43.68453" lon="5.7893">
        <ele>447</ele>
        <time>2016-01-03T10:53:44.632Z</time>
      </trkpt>
      <trkpt lat="43.68447" lon="5.78937">
        <ele>447</ele>
        <time>2016-01-03T10:53:46.656Z</time>
      </trkpt>
      <trkpt lat="43.68445" lon="5.78942">
        <ele>446</ele>
        <time>2016-01-03T10:53:47.633Z</time>
      </trkpt>
      <trkpt lat="43.68439" lon="5.78951">
        <ele>446</ele>
        <time>2016-01-03T10:53:49.657Z</time>
      </trkpt>
      <trkpt lat="43.68436" lon="5.78956">
        <ele>446</ele>
        <time>2016-01-03T10:53:50.633Z</time>
      </trkpt>
      <trkpt lat="43.68432" lon="5.78961">
        <ele>446</ele>
        <time>2016-01-03T10:53:51.657Z</time>
      </trkpt>
      <trkpt lat="43.68428" lon="5.78966">
        <ele>445</ele>
        <time>2016-01-03T10:53:52.633Z</time>
      </trkpt>
      <trkpt lat="43.68424" lon="5.7897">
        <ele>445</ele>
        <time>2016-01-03T10:53:53.657Z</time>
      </trkpt>
      <trkpt lat="43.6842" lon="5.78975">
        <ele>444</ele>
        <time>2016-01-03T10:53:54.634Z</time>
      </trkpt>
      <trkpt lat="43.68416" lon="5.7898">
        <ele>444</ele>
        <time>2016-01-03T10:53:55.726Z</time>
      </trkpt>
      <trkpt lat="43.68412" lon="5.78986">
        <ele>443</ele>
        <time>2016-01-03T10:53:56.632Z</time>
      </trkpt>
      <trkpt lat="43.68407" lon="5.78991">
        <ele>443</ele>
        <time>2016-01-03T10:53:57.656Z</time>
      </trkpt>
      <trkpt lat="43.68402" lon="5.78997">
        <ele>442</ele>
        <time>2016-01-03T10:53:58.634Z</time>
      </trkpt>
      <trkpt lat="43.68397" lon="5.79003">
        <ele>441</ele>
        <time>2016-01-03T10:53:59.685Z</time>
      </trkpt>
      <trkpt lat="43.68392" lon="5.79008">
        <ele>441</ele>
        <time>2016-01-03T10:54:00.623Z</time>
      </trkpt>
      <trkpt lat="43.68386" lon="5.79014">
        <ele>440</ele>
        <time>2016-01-03T10:54:01.657Z</time>
      </trkpt>
      <trkpt lat="43.68381" lon="5.7902">
        <ele>439</ele>
        <time>2016-01-03T10:54:02.634Z</time>
      </trkpt>
      <trkpt lat="43.68377" lon="5.79028">
        <ele>439</ele>
        <time>2016-01-03T10:54:03.657Z</time>
      </trkpt>
      <trkpt lat="43.68372" lon="5.79036">
        <ele>438</ele>
        <time>2016-01-03T10:54:04.634Z</time>
      </trkpt>
      <trkpt lat="43.68366" lon="5.79044">
        <ele>438</ele>
        <time>2016-01-03T10:54:05.658Z</time>
      </trkpt>
      <trkpt lat="43.68361" lon="5.79052">
        <ele>438</ele>
        <time>2016-01-03T10:54:06.635Z</time>
      </trkpt>
      <trkpt lat="43.68357" lon="5.79059">
        <ele>438</ele>
        <time>2016-01-03T10:54:07.657Z</time>
      </trkpt>
      <trkpt lat="43.68353" lon="5.79068">
        <ele>438</ele>
        <time>2016-01-03T10:54:08.634Z</time>
      </trkpt>
      <trkpt lat="43.6835" lon="5.79077">
        <ele>437</ele>
        <time>2016-01-03T10:54:09.656Z</time>
      </trkpt>
      <trkpt lat="43.68347" lon="5.79086">
        <ele>438</ele>
        <time>2016-01-03T10:54:10.660Z</time>
      </trkpt>
      <trkpt lat="43.68346" lon="5.79094">
        <ele>437</ele>
        <time>2016-01-03T10:54:11.657Z</time>
      </trkpt>
      <trkpt lat="43.68347" lon="5.79102">
        <ele>438</ele>
        <time>2016-01-03T10:54:12.634Z</time>
      </trkpt>
      <trkpt lat="43.68347" lon="5.7911">
        <ele>437</ele>
        <time>2016-01-03T10:54:13.656Z</time>
      </trkpt>
      <trkpt lat="43.68348" lon="5.79118">
        <ele>437</ele>
        <time>2016-01-03T10:54:14.635Z</time>
      </trkpt>
      <trkpt lat="43.68349" lon="5.79126">
        <ele>436</ele>
        <time>2016-01-03T10:54:15.658Z</time>
      </trkpt>
      <trkpt lat="43.68351" lon="5.79133">
        <ele>436</ele>
        <time>2016-01-03T10:54:16.850Z</time>
      </trkpt>
      <trkpt lat="43.68353" lon="5.79142">
        <ele>435</ele>
        <time>2016-01-03T10:54:17.657Z</time>
      </trkpt>
      <trkpt lat="43.68357" lon="5.79149">
        <ele>435</ele>
        <time>2016-01-03T10:54:18.635Z</time>
      </trkpt>
      <trkpt lat="43.68362" lon="5.79156">
        <ele>435</ele>
        <time>2016-01-03T10:54:19.656Z</time>
      </trkpt>
      <trkpt lat="43.68368" lon="5.79162">
        <ele>436</ele>
        <time>2016-01-03T10:54:20.634Z</time>
      </trkpt>
      <trkpt lat="43.68373" lon="5.79166">
        <ele>436</ele>
        <time>2016-01-03T10:54:21.684Z</time>
      </trkpt>
      <trkpt lat="43.68379" lon="5.7917">
        <ele>436</ele>
        <time>2016-01-03T10:54:22.633Z</time>
      </trkpt>
      <trkpt lat="43.68384" lon="5.79174">
        <ele>435</ele>
        <time>2016-01-03T10:54:23.659Z</time>
      </trkpt>
      <trkpt lat="43.6839" lon="5.79179">
        <ele>435</ele>
        <time>2016-01-03T10:54:24.634Z</time>
      </trkpt>
      <trkpt lat="43.68395" lon="5.79183">
        <ele>435</ele>
        <time>2016-01-03T10:54:25.658Z</time>
      </trkpt>
      <trkpt lat="43.684" lon="5.79188">
        <ele>435</ele>
        <time>2016-01-03T10:54:26.633Z</time>
      </trkpt>
      <trkpt lat="43.68405" lon="5.79192">
        <ele>435</ele>
        <time>2016-01-03T10:54:27.659Z</time>
      </trkpt>
      <trkpt lat="43.6841" lon="5.79195">
        <ele>436</ele>
        <time>2016-01-03T10:54:28.634Z</time>
      </trkpt>
      <trkpt lat="43.68415" lon="5.792">
        <ele>436</ele>
        <time>2016-01-03T10:54:29.656Z</time>
      </trkpt>
      <trkpt lat="43.6842" lon="5.79204">
        <ele>436</ele>
        <time>2016-01-03T10:54:30.633Z</time>
      </trkpt>
      <trkpt lat="43.68425" lon="5.79208">
        <ele>436</ele>
        <time>2016-01-03T10:54:31.656Z</time>
      </trkpt>
      <trkpt lat="43.68428" lon="5.79215">
        <ele>436</ele>
        <time>2016-01-03T10:54:32.633Z</time>
      </trkpt>
      <trkpt lat="43.68432" lon="5.79222">
        <ele>436</ele>
        <time>2016-01-03T10:54:33.657Z</time>
      </trkpt>
      <trkpt lat="43.68433" lon="5.79231">
        <ele>435</ele>
        <time>2016-01-03T10:54:34.633Z</time>
      </trkpt>
      <trkpt lat="43.68432" lon="5.79239">
        <ele>436</ele>
        <time>2016-01-03T10:54:35.656Z</time>
      </trkpt>
      <trkpt lat="43.68431" lon="5.79247">
        <ele>435</ele>
        <time>2016-01-03T10:54:36.634Z</time>
      </trkpt>
      <trkpt lat="43.68428" lon="5.79255">
        <ele>435</ele>
        <time>2016-01-03T10:54:37.684Z</time>
      </trkpt>
      <trkpt lat="43.68425" lon="5.79262">
        <ele>435</ele>
        <time>2016-01-03T10:54:38.632Z</time>
      </trkpt>
      <trkpt lat="43.68421" lon="5.79268">
        <ele>435</ele>
        <time>2016-01-03T10:54:39.656Z</time>
      </trkpt>
      <trkpt lat="43.68417" lon="5.79273">
        <ele>435</ele>
        <time>2016-01-03T10:54:40.634Z</time>
      </trkpt>
      <trkpt lat="43.68412" lon="5.79278">
        <ele>435</ele>
        <time>2016-01-03T10:54:41.655Z</time>
      </trkpt>
      <trkpt lat="43.68408" lon="5.79282">
        <ele>435</ele>
        <time>2016-01-03T10:54:42.634Z</time>
      </trkpt>
      <trkpt lat="43.68404" lon="5.79287">
        <ele>435</ele>
        <time>2016-01-03T10:54:43.656Z</time>
      </trkpt>
      <trkpt lat="43.684" lon="5.79292">
        <ele>435</ele>
        <time>2016-01-03T10:54:44.635Z</time>
      </trkpt>
      <trkpt lat="43.68396" lon="5.79296">
        <ele>435</ele>
        <time>2016-01-03T10:54:45.656Z</time>
      </trkpt>
      <trkpt lat="43.68393" lon="5.79302">
        <ele>435</ele>
        <time>2016-01-03T10:54:46.634Z</time>
      </trkpt>
      <trkpt lat="43.68391" lon="5.79307">
        <ele>435</ele>
        <time>2016-01-03T10:54:47.658Z</time>
      </trkpt>
      <trkpt lat="43.6839" lon="5.79315">
        <ele>435</ele>
        <time>2016-01-03T10:54:48.659Z</time>
      </trkpt>
      <trkpt lat="43.68392" lon="5.79323">
        <ele>435</ele>
        <time>2016-01-03T10:54:49.870Z</time>
      </trkpt>
      <trkpt lat="43.68393" lon="5.7933">
        <ele>434</ele>
        <time>2016-01-03T10:54:50.633Z</time>
      </trkpt>
      <trkpt lat="43.68394" lon="5.79338">
        <ele>434</ele>
        <time>2016-01-03T10:54:51.655Z</time>
      </trkpt>
      <trkpt lat="43.68394" lon="5.79345">
        <ele>435</ele>
        <time>2016-01-03T10:54:52.634Z</time>
      </trkpt>
      <trkpt lat="43.68393" lon="5.79353">
        <ele>435</ele>
        <time>2016-01-03T10:54:53.699Z</time>
      </trkpt>
      <trkpt lat="43.68391" lon="5.7936">
        <ele>435</ele>
        <time>2016-01-03T10:54:54.634Z</time>
      </trkpt>
      <trkpt lat="43.68389" lon="5.79366">
        <ele>435</ele>
        <time>2016-01-03T10:54:55.656Z</time>
      </trkpt>
      <trkpt lat="43.68388" lon="5.79373">
        <ele>435</ele>
        <time>2016-01-03T10:54:56.634Z</time>
      </trkpt>
      <trkpt lat="43.68388" lon="5.7938">
        <ele>435</ele>
        <time>2016-01-03T10:54:57.660Z</time>
      </trkpt>
      <trkpt lat="43.6839" lon="5.79387">
        <ele>435</ele>
        <time>2016-01-03T10:54:58.633Z</time>
      </trkpt>
      <trkpt lat="43.68392" lon="5.79394">
        <ele>436</ele>
        <time>2016-01-03T10:54:59.684Z</time>
      </trkpt>
      <trkpt lat="43.68395" lon="5.794">
        <ele>436</ele>
        <time>2016-01-03T10:55:00.678Z</time>
      </trkpt>
      <trkpt lat="43.68398" lon="5.79406">
        <ele>436</ele>
        <time>2016-01-03T10:55:01.662Z</time>
      </trkpt>
      <trkpt lat="43.684" lon="5.79413">
        <ele>436</ele>
        <time>2016-01-03T10:55:02.634Z</time>
      </trkpt>
      <trkpt lat="43.684" lon="5.79421">
        <ele>436</ele>
        <time>2016-01-03T10:55:03.657Z</time>
      </trkpt>
      <trkpt lat="43.684" lon="5.79428">
        <ele>436</ele>
        <time>2016-01-03T10:55:04.630Z</time>
      </trkpt>
      <trkpt lat="43.68398" lon="5.79434">
        <ele>437</ele>
        <time>2016-01-03T10:55:05.656Z</time>
      </trkpt>
      <trkpt lat="43.68396" lon="5.7944">
        <ele>437</ele>
        <time>2016-01-03T10:55:06.635Z</time>
      </trkpt>
      <trkpt lat="43.68393" lon="5.79446">
        <ele>436</ele>
        <time>2016-01-03T10:55:07.657Z</time>
      </trkpt>
      <trkpt lat="43.6839" lon="5.79452">
        <ele>436</ele>
        <time>2016-01-03T10:55:08.633Z</time>
      </trkpt>
      <trkpt lat="43.68388" lon="5.79458">
        <ele>436</ele>
        <time>2016-01-03T10:55:09.657Z</time>
      </trkpt>
      <trkpt lat="43.68386" lon="5.79463">
        <ele>437</ele>
        <time>2016-01-03T10:55:10.660Z</time>
      </trkpt>
      <trkpt lat="43.68384" lon="5.7947">
        <ele>437</ele>
        <time>2016-01-03T10:55:11.656Z</time>
      </trkpt>
      <trkpt lat="43.68384" lon="5.79476">
        <ele>437</ele>
        <time>2016-01-03T10:55:12.633Z</time>
      </trkpt>
      <trkpt lat="43.68384" lon="5.79483">
        <ele>438</ele>
        <time>2016-01-03T10:55:13.658Z</time>
      </trkpt>
      <trkpt lat="43.68386" lon="5.7949">
        <ele>438</ele>
        <time>2016-01-03T10:55:14.634Z</time>
      </trkpt>
      <trkpt lat="43.68389" lon="5.79495">
        <ele>439</ele>
        <time>2016-01-03T10:55:15.657Z</time>
      </trkpt>
      <trkpt lat="43.68392" lon="5.79499">
        <ele>439</ele>
        <time>2016-01-03T10:55:16.634Z</time>
      </trkpt>
      <trkpt lat="43.68399" lon="5.79507">
        <ele>439</ele>
        <time>2016-01-03T10:55:18.657Z</time>
      </trkpt>
      <trkpt lat="43.68402" lon="5.79512">
        <ele>439</ele>
        <time>2016-01-03T10:55:19.637Z</time>
      </trkpt>
      <trkpt lat="43.68404" lon="5.79517">
        <ele>439</ele>
        <time>2016-01-03T10:55:20.657Z</time>
      </trkpt>
      <trkpt lat="43.68406" lon="5.79523">
        <ele>439</ele>
        <time>2016-01-03T10:55:21.660Z</time>
      </trkpt>
      <trkpt lat="43.68411" lon="5.79532">
        <ele>440</ele>
        <time>2016-01-03T10:55:23.657Z</time>
      </trkpt>
      <trkpt lat="43.68414" lon="5.79537">
        <ele>440</ele>
        <time>2016-01-03T10:55:24.634Z</time>
      </trkpt>
      <trkpt lat="43.68418" lon="5.79547">
        <ele>440</ele>
        <time>2016-01-03T10:55:26.657Z</time>
      </trkpt>
      <trkpt lat="43.6842" lon="5.79552">
        <ele>440</ele>
        <time>2016-01-03T10:55:27.633Z</time>
      </trkpt>
      <trkpt lat="43.68424" lon="5.79562">
        <ele>440</ele>
        <time>2016-01-03T10:55:29.657Z</time>
      </trkpt>
      <trkpt lat="43.68426" lon="5.79567">
        <ele>441</ele>
        <time>2016-01-03T10:55:30.634Z</time>
      </trkpt>
      <trkpt lat="43.6843" lon="5.79577">
        <ele>441</ele>
        <time>2016-01-03T10:55:32.684Z</time>
      </trkpt>
      <trkpt lat="43.68432" lon="5.79583">
        <ele>441</ele>
        <time>2016-01-03T10:55:33.633Z</time>
      </trkpt>
      <trkpt lat="43.68435" lon="5.79594">
        <ele>441</ele>
        <time>2016-01-03T10:55:35.653Z</time>
      </trkpt>
      <trkpt lat="43.68436" lon="5.796">
        <ele>441</ele>
        <time>2016-01-03T10:55:36.634Z</time>
      </trkpt>
      <trkpt lat="43.68437" lon="5.79606">
        <ele>441</ele>
        <time>2016-01-03T10:55:37.658Z</time>
      </trkpt>
      <trkpt lat="43.68436" lon="5.79614">
        <ele>441</ele>
        <time>2016-01-03T10:55:38.633Z</time>
      </trkpt>
      <trkpt lat="43.68436" lon="5.7962">
        <ele>441</ele>
        <time>2016-01-03T10:55:39.657Z</time>
      </trkpt>
      <trkpt lat="43.68435" lon="5.79627">
        <ele>441</ele>
        <time>2016-01-03T10:55:40.639Z</time>
      </trkpt>
      <trkpt lat="43.68432" lon="5.79635">
        <ele>441</ele>
        <time>2016-01-03T10:55:42.657Z</time>
      </trkpt>
      <trkpt lat="43.6843" lon="5.79639">
        <ele>440</ele>
        <time>2016-01-03T10:55:43.658Z</time>
      </trkpt>
      <trkpt lat="43.68427" lon="5.79647">
        <ele>440</ele>
        <time>2016-01-03T10:55:45.719Z</time>
      </trkpt>
      <trkpt lat="43.68425" lon="5.79652">
        <ele>440</ele>
        <time>2016-01-03T10:55:46.634Z</time>
      </trkpt>
      <trkpt lat="43.68422" lon="5.79658">
        <ele>441</ele>
        <time>2016-01-03T10:55:47.656Z</time>
      </trkpt>
      <trkpt lat="43.6842" lon="5.79664">
        <ele>440</ele>
        <time>2016-01-03T10:55:48.633Z</time>
      </trkpt>
      <trkpt lat="43.68419" lon="5.79671">
        <ele>440</ele>
        <time>2016-01-03T10:55:49.657Z</time>
      </trkpt>
      <trkpt lat="43.6842" lon="5.79678">
        <ele>440</ele>
        <time>2016-01-03T10:55:50.634Z</time>
      </trkpt>
      <trkpt lat="43.68421" lon="5.79685">
        <ele>439</ele>
        <time>2016-01-03T10:55:51.657Z</time>
      </trkpt>
      <trkpt lat="43.68425" lon="5.79689">
        <ele>438</ele>
        <time>2016-01-03T10:55:52.635Z</time>
      </trkpt>
      <trkpt lat="43.6843" lon="5.7969">
        <ele>438</ele>
        <time>2016-01-03T10:55:53.657Z</time>
      </trkpt>
      <trkpt lat="43.68435" lon="5.7969">
        <ele>438</ele>
        <time>2016-01-03T10:55:54.661Z</time>
      </trkpt>
      <trkpt lat="43.68441" lon="5.79688">
        <ele>437</ele>
        <time>2016-01-03T10:55:55.658Z</time>
      </trkpt>
      <trkpt lat="43.68447" lon="5.79686">
        <ele>436</ele>
        <time>2016-01-03T10:55:56.636Z</time>
      </trkpt>
      <trkpt lat="43.68453" lon="5.79683">
        <ele>436</ele>
        <time>2016-01-03T10:55:57.657Z</time>
      </trkpt>
      <trkpt lat="43.6846" lon="5.7968">
        <ele>435</ele>
        <time>2016-01-03T10:55:58.634Z</time>
      </trkpt>
      <trkpt lat="43.68466" lon="5.79677">
        <ele>435</ele>
        <time>2016-01-03T10:55:59.658Z</time>
      </trkpt>
      <trkpt lat="43.68472" lon="5.79673">
        <ele>434</ele>
        <time>2016-01-03T10:56:00.634Z</time>
      </trkpt>
      <trkpt lat="43.68479" lon="5.7967">
        <ele>434</ele>
        <time>2016-01-03T10:56:01.656Z</time>
      </trkpt>
      <trkpt lat="43.68485" lon="5.79667">
        <ele>434</ele>
        <time>2016-01-03T10:56:02.634Z</time>
      </trkpt>
      <trkpt lat="43.68491" lon="5.79664">
        <ele>434</ele>
        <time>2016-01-03T10:56:03.657Z</time>
      </trkpt>
      <trkpt lat="43.68497" lon="5.79661">
        <ele>433</ele>
        <time>2016-01-03T10:56:04.635Z</time>
      </trkpt>
      <trkpt lat="43.68503" lon="5.7966">
        <ele>433</ele>
        <time>2016-01-03T10:56:05.657Z</time>
      </trkpt>
      <trkpt lat="43.68509" lon="5.79658">
        <ele>434</ele>
        <time>2016-01-03T10:56:06.633Z</time>
      </trkpt>
      <trkpt lat="43.68514" lon="5.79656">
        <ele>434</ele>
        <time>2016-01-03T10:56:07.658Z</time>
      </trkpt>
      <trkpt lat="43.68519" lon="5.79654">
        <ele>434</ele>
        <time>2016-01-03T10:56:08.634Z</time>
      </trkpt>
      <trkpt lat="43.68524" lon="5.79652">
        <ele>434</ele>
        <time>2016-01-03T10:56:09.657Z</time>
      </trkpt>
      <trkpt lat="43.68529" lon="5.7965">
        <ele>434</ele>
        <time>2016-01-03T10:56:10.640Z</time>
      </trkpt>
      <trkpt lat="43.68535" lon="5.79648">
        <ele>434</ele>
        <time>2016-01-03T10:56:11.656Z</time>
      </trkpt>
      <trkpt lat="43.6854" lon="5.79646">
        <ele>434</ele>
        <time>2016-01-03T10:56:12.634Z</time>
      </trkpt>
      <trkpt lat="43.68544" lon="5.79643">
        <ele>433</ele>
        <time>2016-01-03T10:56:13.656Z</time>
      </trkpt>
      <trkpt lat="43.68549" lon="5.79641">
        <ele>433</ele>
        <time>2016-01-03T10:56:14.635Z</time>
      </trkpt>
      <trkpt lat="43.68554" lon="5.79639">
        <ele>433</ele>
        <time>2016-01-03T10:56:15.687Z</time>
      </trkpt>
      <trkpt lat="43.68559" lon="5.79639">
        <ele>433</ele>
        <time>2016-01-03T10:56:16.635Z</time>
      </trkpt>
      <trkpt lat="43.68565" lon="5.79641">
        <ele>433</ele>
        <time>2016-01-03T10:56:17.659Z</time>
      </trkpt>
      <trkpt lat="43.68569" lon="5.79645">
        <ele>433</ele>
        <time>2016-01-03T10:56:18.635Z</time>
      </trkpt>
      <trkpt lat="43.68572" lon="5.79651">
        <ele>433</ele>
        <time>2016-01-03T10:56:19.659Z</time>
      </trkpt>
      <trkpt lat="43.68574" lon="5.79658">
        <ele>433</ele>
        <time>2016-01-03T10:56:20.635Z</time>
      </trkpt>
      <trkpt lat="43.68575" lon="5.79665">
        <ele>433</ele>
        <time>2016-01-03T10:56:21.656Z</time>
      </trkpt>
      <trkpt lat="43.68575" lon="5.79672">
        <ele>433</ele>
        <time>2016-01-03T10:56:22.634Z</time>
      </trkpt>
      <trkpt lat="43.68573" lon="5.79679">
        <ele>433</ele>
        <time>2016-01-03T10:56:23.658Z</time>
      </trkpt>
      <trkpt lat="43.68571" lon="5.79686">
        <ele>434</ele>
        <time>2016-01-03T10:56:24.634Z</time>
      </trkpt>
      <trkpt lat="43.68569" lon="5.79692">
        <ele>434</ele>
        <time>2016-01-03T10:56:25.658Z</time>
      </trkpt>
      <trkpt lat="43.68566" lon="5.79699">
        <ele>433</ele>
        <time>2016-01-03T10:56:26.679Z</time>
      </trkpt>
      <trkpt lat="43.68563" lon="5.79707">
        <ele>433</ele>
        <time>2016-01-03T10:56:27.657Z</time>
      </trkpt>
      <trkpt lat="43.68561" lon="5.79713">
        <ele>433</ele>
        <time>2016-01-03T10:56:28.634Z</time>
      </trkpt>
      <trkpt lat="43.68558" lon="5.7972">
        <ele>433</ele>
        <time>2016-01-03T10:56:29.656Z</time>
      </trkpt>
      <trkpt lat="43.68555" lon="5.79726">
        <ele>433</ele>
        <time>2016-01-03T10:56:30.633Z</time>
      </trkpt>
      <trkpt lat="43.68552" lon="5.79732">
        <ele>433</ele>
        <time>2016-01-03T10:56:31.657Z</time>
      </trkpt>
      <trkpt lat="43.68548" lon="5.79738">
        <ele>433</ele>
        <time>2016-01-03T10:56:32.635Z</time>
      </trkpt>
      <trkpt lat="43.68545" lon="5.79743">
        <ele>433</ele>
        <time>2016-01-03T10:56:33.657Z</time>
      </trkpt>
      <trkpt lat="43.68542" lon="5.79748">
        <ele>433</ele>
        <time>2016-01-03T10:56:34.635Z</time>
      </trkpt>
      <trkpt lat="43.68538" lon="5.79753">
        <ele>433</ele>
        <time>2016-01-03T10:56:35.657Z</time>
      </trkpt>
      <trkpt lat="43.68535" lon="5.79758">
        <ele>434</ele>
        <time>2016-01-03T10:56:36.634Z</time>
      </trkpt>
      <trkpt lat="43.68528" lon="5.79764">
        <ele>434</ele>
        <time>2016-01-03T10:56:38.658Z</time>
      </trkpt>
      <trkpt lat="43.68525" lon="5.79768">
        <ele>434</ele>
        <time>2016-01-03T10:56:39.635Z</time>
      </trkpt>
      <trkpt lat="43.6852" lon="5.79776">
        <ele>434</ele>
        <time>2016-01-03T10:56:41.657Z</time>
      </trkpt>
      <trkpt lat="43.68518" lon="5.7978">
        <ele>434</ele>
        <time>2016-01-03T10:56:42.635Z</time>
      </trkpt>
      <trkpt lat="43.68517" lon="5.79791">
        <ele>435</ele>
        <time>2016-01-03T10:56:44.660Z</time>
      </trkpt>
      <trkpt lat="43.68517" lon="5.79796">
        <ele>436</ele>
        <time>2016-01-03T10:56:45.635Z</time>
      </trkpt>
      <trkpt lat="43.6852" lon="5.79808">
        <ele>435</ele>
        <time>2016-01-03T10:56:47.659Z</time>
      </trkpt>
      <trkpt lat="43.68522" lon="5.79813">
        <ele>436</ele>
        <time>2016-01-03T10:56:48.660Z</time>
      </trkpt>
      <trkpt lat="43.68525" lon="5.79819">
        <ele>435</ele>
        <time>2016-01-03T10:56:49.657Z</time>
      </trkpt>
      <trkpt lat="43.68529" lon="5.79824">
        <ele>436</ele>
        <time>2016-01-03T10:56:50.634Z</time>
      </trkpt>
      <trkpt lat="43.68533" lon="5.79829">
        <ele>436</ele>
        <time>2016-01-03T10:56:51.658Z</time>
      </trkpt>
      <trkpt lat="43.68536" lon="5.79835">
        <ele>435</ele>
        <time>2016-01-03T10:56:52.639Z</time>
      </trkpt>
      <trkpt lat="43.6854" lon="5.7984">
        <ele>435</ele>
        <time>2016-01-03T10:56:53.709Z</time>
      </trkpt>
      <trkpt lat="43.68544" lon="5.79845">
        <ele>435</ele>
        <time>2016-01-03T10:56:54.634Z</time>
      </trkpt>
      <trkpt lat="43.68548" lon="5.79849">
        <ele>435</ele>
        <time>2016-01-03T10:56:55.656Z</time>
      </trkpt>
      <trkpt lat="43.68551" lon="5.79855">
        <ele>435</ele>
        <time>2016-01-03T10:56:56.634Z</time>
      </trkpt>
      <trkpt lat="43.68554" lon="5.7986">
        <ele>436</ele>
        <time>2016-01-03T10:56:57.660Z</time>
      </trkpt>
      <trkpt lat="43.68557" lon="5.79866">
        <ele>436</ele>
        <time>2016-01-03T10:56:58.636Z</time>
      </trkpt>
      <trkpt lat="43.68559" lon="5.79872">
        <ele>436</ele>
        <time>2016-01-03T10:56:59.687Z</time>
      </trkpt>
      <trkpt lat="43.68561" lon="5.79877">
        <ele>437</ele>
        <time>2016-01-03T10:57:00.627Z</time>
      </trkpt>
      <trkpt lat="43.68564" lon="5.79883">
        <ele>437</ele>
        <time>2016-01-03T10:57:01.657Z</time>
      </trkpt>
      <trkpt lat="43.68565" lon="5.79889">
        <ele>438</ele>
        <time>2016-01-03T10:57:02.635Z</time>
      </trkpt>
      <trkpt lat="43.68567" lon="5.79896">
        <ele>438</ele>
        <time>2016-01-03T10:57:03.656Z</time>
      </trkpt>
      <trkpt lat="43.68568" lon="5.79902">
        <ele>438</ele>
        <time>2016-01-03T10:57:04.632Z</time>
      </trkpt>
      <trkpt lat="43.68569" lon="5.79908">
        <ele>438</ele>
        <time>2016-01-03T10:57:05.657Z</time>
      </trkpt>
      <trkpt lat="43.6857" lon="5.79915">
        <ele>439</ele>
        <time>2016-01-03T10:57:06.634Z</time>
      </trkpt>
      <trkpt lat="43.6857" lon="5.79921">
        <ele>439</ele>
        <time>2016-01-03T10:57:07.658Z</time>
      </trkpt>
      <trkpt lat="43.68571" lon="5.79928">
        <ele>438</ele>
        <time>2016-01-03T10:57:08.635Z</time>
      </trkpt>
      <trkpt lat="43.68572" lon="5.79935">
        <ele>438</ele>
        <time>2016-01-03T10:57:09.658Z</time>
      </trkpt>
      <trkpt lat="43.68572" lon="5.79941">
        <ele>438</ele>
        <time>2016-01-03T10:57:10.660Z</time>
      </trkpt>
      <trkpt lat="43.68572" lon="5.79948">
        <ele>438</ele>
        <time>2016-01-03T10:57:11.658Z</time>
      </trkpt>
      <trkpt lat="43.68571" lon="5.79955">
        <ele>437</ele>
        <time>2016-01-03T10:57:12.630Z</time>
      </trkpt>
      <trkpt lat="43.68571" lon="5.79962">
        <ele>437</ele>
        <time>2016-01-03T10:57:13.709Z</time>
      </trkpt>
      <trkpt lat="43.68571" lon="5.79968">
        <ele>437</ele>
        <time>2016-01-03T10:57:14.634Z</time>
      </trkpt>
      <trkpt lat="43.6857" lon="5.79975">
        <ele>437</ele>
        <time>2016-01-03T10:57:15.657Z</time>
      </trkpt>
      <trkpt lat="43.68569" lon="5.79981">
        <ele>437</ele>
        <time>2016-01-03T10:57:16.634Z</time>
      </trkpt>
      <trkpt lat="43.68569" lon="5.79987">
        <ele>436</ele>
        <time>2016-01-03T10:57:17.657Z</time>
      </trkpt>
      <trkpt lat="43.68568" lon="5.79994">
        <ele>436</ele>
        <time>2016-01-03T10:57:18.635Z</time>
      </trkpt>
      <trkpt lat="43.68567" lon="5.80001">
        <ele>436</ele>
        <time>2016-01-03T10:57:19.658Z</time>
      </trkpt>
      <trkpt lat="43.68567" lon="5.80008">
        <ele>436</ele>
        <time>2016-01-03T10:57:20.634Z</time>
      </trkpt>
      <trkpt lat="43.68566" lon="5.80015">
        <ele>436</ele>
        <time>2016-01-03T10:57:21.686Z</time>
      </trkpt>
      <trkpt lat="43.68566" lon="5.80022">
        <ele>437</ele>
        <time>2016-01-03T10:57:22.635Z</time>
      </trkpt>
      <trkpt lat="43.68568" lon="5.80029">
        <ele>437</ele>
        <time>2016-01-03T10:57:23.657Z</time>
      </trkpt>
      <trkpt lat="43.68571" lon="5.80035">
        <ele>437</ele>
        <time>2016-01-03T10:57:24.632Z</time>
      </trkpt>
      <trkpt lat="43.68575" lon="5.8004">
        <ele>437</ele>
        <time>2016-01-03T10:57:25.655Z</time>
      </trkpt>
      <trkpt lat="43.68578" lon="5.80045">
        <ele>436</ele>
        <time>2016-01-03T10:57:26.634Z</time>
      </trkpt>
      <trkpt lat="43.68582" lon="5.80051">
        <ele>436</ele>
        <time>2016-01-03T10:57:27.658Z</time>
      </trkpt>
      <trkpt lat="43.68583" lon="5.80058">
        <ele>436</ele>
        <time>2016-01-03T10:57:28.634Z</time>
      </trkpt>
      <trkpt lat="43.68582" lon="5.80066">
        <ele>436</ele>
        <time>2016-01-03T10:57:29.658Z</time>
      </trkpt>
      <trkpt lat="43.68578" lon="5.80071">
        <ele>435</ele>
        <time>2016-01-03T10:57:30.635Z</time>
      </trkpt>
      <trkpt lat="43.68573" lon="5.80075">
        <ele>434</ele>
        <time>2016-01-03T10:57:31.658Z</time>
      </trkpt>
      <trkpt lat="43.68568" lon="5.80075">
        <ele>434</ele>
        <time>2016-01-03T10:57:32.661Z</time>
      </trkpt>
      <trkpt lat="43.68562" lon="5.80074">
        <ele>433</ele>
        <time>2016-01-03T10:57:33.657Z</time>
      </trkpt>
      <trkpt lat="43.68557" lon="5.80072">
        <ele>433</ele>
        <time>2016-01-03T10:57:34.633Z</time>
      </trkpt>
      <trkpt lat="43.68552" lon="5.8007">
        <ele>433</ele>
        <time>2016-01-03T10:57:35.657Z</time>
      </trkpt>
      <trkpt lat="43.68547" lon="5.80067">
        <ele>433</ele>
        <time>2016-01-03T10:57:36.633Z</time>
      </trkpt>
      <trkpt lat="43.68543" lon="5.80063">
        <ele>432</ele>
        <time>2016-01-03T10:57:37.658Z</time>
      </trkpt>
      <trkpt lat="43.6854" lon="5.80059">
        <ele>432</ele>
        <time>2016-01-03T10:57:38.635Z</time>
      </trkpt>
      <trkpt lat="43.68536" lon="5.80054">
        <ele>431</ele>
        <time>2016-01-03T10:57:39.659Z</time>
      </trkpt>
      <trkpt lat="43.68533" lon="5.80049">
        <ele>431</ele>
        <time>2016-01-03T10:57:40.636Z</time>
      </trkpt>
      <trkpt lat="43.6853" lon="5.80044">
        <ele>432</ele>
        <time>2016-01-03T10:57:41.658Z</time>
      </trkpt>
      <trkpt lat="43.68528" lon="5.80039">
        <ele>432</ele>
        <time>2016-01-03T10:57:42.636Z</time>
      </trkpt>
      <trkpt lat="43.68525" lon="5.80033">
        <ele>432</ele>
        <time>2016-01-03T10:57:43.684Z</time>
      </trkpt>
      <trkpt lat="43.68522" lon="5.80027">
        <ele>432</ele>
        <time>2016-01-03T10:57:44.635Z</time>
      </trkpt>
      <trkpt lat="43.6852" lon="5.80021">
        <ele>432</ele>
        <time>2016-01-03T10:57:45.677Z</time>
      </trkpt>
      <trkpt lat="43.68518" lon="5.80015">
        <ele>432</ele>
        <time>2016-01-03T10:57:46.634Z</time>
      </trkpt>
      <trkpt lat="43.68515" lon="5.80004">
        <ele>432</ele>
        <time>2016-01-03T10:57:48.658Z</time>
      </trkpt>
      <trkpt lat="43.68514" lon="5.79997">
        <ele>432</ele>
        <time>2016-01-03T10:57:49.635Z</time>
      </trkpt>
      <trkpt lat="43.68512" lon="5.79987">
        <ele>433</ele>
        <time>2016-01-03T10:57:51.715Z</time>
      </trkpt>
      <trkpt lat="43.68511" lon="5.79981">
        <ele>433</ele>
        <time>2016-01-03T10:57:52.635Z</time>
      </trkpt>
      <trkpt lat="43.68509" lon="5.79974">
        <ele>433</ele>
        <time>2016-01-03T10:57:53.657Z</time>
      </trkpt>
      <trkpt lat="43.68507" lon="5.79967">
        <ele>433</ele>
        <time>2016-01-03T10:57:54.660Z</time>
      </trkpt>
      <trkpt lat="43.68504" lon="5.79961">
        <ele>432</ele>
        <time>2016-01-03T10:57:55.658Z</time>
      </trkpt>
      <trkpt lat="43.68501" lon="5.79955">
        <ele>433</ele>
        <time>2016-01-03T10:57:56.635Z</time>
      </trkpt>
      <trkpt lat="43.68498" lon="5.7995">
        <ele>433</ele>
        <time>2016-01-03T10:57:57.660Z</time>
      </trkpt>
      <trkpt lat="43.68495" lon="5.79944">
        <ele>433</ele>
        <time>2016-01-03T10:57:58.636Z</time>
      </trkpt>
      <trkpt lat="43.68492" lon="5.79939">
        <ele>433</ele>
        <time>2016-01-03T10:57:59.660Z</time>
      </trkpt>
      <trkpt lat="43.68489" lon="5.79933">
        <ele>433</ele>
        <time>2016-01-03T10:58:00.634Z</time>
      </trkpt>
      <trkpt lat="43.68486" lon="5.79928">
        <ele>433</ele>
        <time>2016-01-03T10:58:01.655Z</time>
      </trkpt>
      <trkpt lat="43.68482" lon="5.79923">
        <ele>432</ele>
        <time>2016-01-03T10:58:02.633Z</time>
      </trkpt>
      <trkpt lat="43.68479" lon="5.79918">
        <ele>432</ele>
        <time>2016-01-03T10:58:03.658Z</time>
      </trkpt>
      <trkpt lat="43.68476" lon="5.79914">
        <ele>433</ele>
        <time>2016-01-03T10:58:04.634Z</time>
      </trkpt>
      <trkpt lat="43.68472" lon="5.7991">
        <ele>432</ele>
        <time>2016-01-03T10:58:05.657Z</time>
      </trkpt>
      <trkpt lat="43.68468" lon="5.79906">
        <ele>432</ele>
        <time>2016-01-03T10:58:06.634Z</time>
      </trkpt>
      <trkpt lat="43.6846" lon="5.799">
        <ele>433</ele>
        <time>2016-01-03T10:58:08.872Z</time>
      </trkpt>
      <trkpt lat="43.68456" lon="5.79897">
        <ele>433</ele>
        <time>2016-01-03T10:58:09.635Z</time>
      </trkpt>
      <trkpt lat="43.68448" lon="5.79892">
        <ele>433</ele>
        <time>2016-01-03T10:58:11.659Z</time>
      </trkpt>
      <trkpt lat="43.68444" lon="5.7989">
        <ele>433</ele>
        <time>2016-01-03T10:58:12.635Z</time>
      </trkpt>
      <trkpt lat="43.68437" lon="5.79887">
        <ele>433</ele>
        <time>2016-01-03T10:58:14.658Z</time>
      </trkpt>
      <trkpt lat="43.68433" lon="5.79887">
        <ele>433</ele>
        <time>2016-01-03T10:58:15.634Z</time>
      </trkpt>
      <trkpt lat="43.68425" lon="5.79887">
        <ele>434</ele>
        <time>2016-01-03T10:58:17.658Z</time>
      </trkpt>
      <trkpt lat="43.68421" lon="5.79888">
        <ele>434</ele>
        <time>2016-01-03T10:58:18.637Z</time>
      </trkpt>
      <trkpt lat="43.68413" lon="5.79891">
        <ele>435</ele>
        <time>2016-01-03T10:58:20.878Z</time>
      </trkpt>
      <trkpt lat="43.68408" lon="5.79893">
        <ele>434</ele>
        <time>2016-01-03T10:58:21.657Z</time>
      </trkpt>
      <trkpt lat="43.684" lon="5.79899">
        <ele>434</ele>
        <time>2016-01-03T10:58:23.657Z</time>
      </trkpt>
      <trkpt lat="43.68397" lon="5.79901">
        <ele>434</ele>
        <time>2016-01-03T10:58:24.635Z</time>
      </trkpt>
      <trkpt lat="43.68389" lon="5.79906">
        <ele>434</ele>
        <time>2016-01-03T10:58:26.659Z</time>
      </trkpt>
      <trkpt lat="43.68385" lon="5.79909">
        <ele>434</ele>
        <time>2016-01-03T10:58:27.636Z</time>
      </trkpt>
      <trkpt lat="43.6838" lon="5.79914">
        <ele>434</ele>
        <time>2016-01-03T10:58:28.659Z</time>
      </trkpt>
      <trkpt lat="43.68376" lon="5.79917">
        <ele>434</ele>
        <time>2016-01-03T10:58:29.635Z</time>
      </trkpt>
      <trkpt lat="43.68372" lon="5.7992">
        <ele>433</ele>
        <time>2016-01-03T10:58:30.659Z</time>
      </trkpt>
      <trkpt lat="43.68368" lon="5.79924">
        <ele>433</ele>
        <time>2016-01-03T10:58:31.634Z</time>
      </trkpt>
      <trkpt lat="43.68363" lon="5.79929">
        <ele>433</ele>
        <time>2016-01-03T10:58:32.687Z</time>
      </trkpt>
      <trkpt lat="43.68359" lon="5.79933">
        <ele>433</ele>
        <time>2016-01-03T10:58:33.635Z</time>
      </trkpt>
      <trkpt lat="43.68355" lon="5.79937">
        <ele>433</ele>
        <time>2016-01-03T10:58:34.657Z</time>
      </trkpt>
      <trkpt lat="43.68351" lon="5.79942">
        <ele>432</ele>
        <time>2016-01-03T10:58:35.635Z</time>
      </trkpt>
      <trkpt lat="43.68347" lon="5.79946">
        <ele>432</ele>
        <time>2016-01-03T10:58:36.659Z</time>
      </trkpt>
      <trkpt lat="43.68344" lon="5.79951">
        <ele>432</ele>
        <time>2016-01-03T10:58:37.634Z</time>
      </trkpt>
      <trkpt lat="43.6834" lon="5.79955">
        <ele>432</ele>
        <time>2016-01-03T10:58:38.658Z</time>
      </trkpt>
      <trkpt lat="43.68337" lon="5.7996">
        <ele>432</ele>
        <time>2016-01-03T10:58:39.636Z</time>
      </trkpt>
      <trkpt lat="43.68334" lon="5.79965">
        <ele>432</ele>
        <time>2016-01-03T10:58:40.658Z</time>
      </trkpt>
      <trkpt lat="43.68331" lon="5.7997">
        <ele>433</ele>
        <time>2016-01-03T10:58:41.634Z</time>
      </trkpt>
      <trkpt lat="43.68328" lon="5.79975">
        <ele>433</ele>
        <time>2016-01-03T10:58:42.656Z</time>
      </trkpt>
      <trkpt lat="43.68326" lon="5.7998">
        <ele>432</ele>
        <time>2016-01-03T10:58:43.638Z</time>
      </trkpt>
      <trkpt lat="43.68324" lon="5.79986">
        <ele>433</ele>
        <time>2016-01-03T10:58:44.662Z</time>
      </trkpt>
      <trkpt lat="43.68322" lon="5.79992">
        <ele>433</ele>
        <time>2016-01-03T10:58:45.634Z</time>
      </trkpt>
      <trkpt lat="43.68321" lon="5.79999">
        <ele>433</ele>
        <time>2016-01-03T10:58:46.658Z</time>
      </trkpt>
      <trkpt lat="43.6832" lon="5.80005">
        <ele>433</ele>
        <time>2016-01-03T10:58:47.634Z</time>
      </trkpt>
      <trkpt lat="43.6832" lon="5.80011">
        <ele>433</ele>
        <time>2016-01-03T10:58:48.658Z</time>
      </trkpt>
      <trkpt lat="43.68319" lon="5.80018">
        <ele>433</ele>
        <time>2016-01-03T10:58:49.635Z</time>
      </trkpt>
      <trkpt lat="43.68319" lon="5.80024">
        <ele>433</ele>
        <time>2016-01-03T10:58:50.658Z</time>
      </trkpt>
      <trkpt lat="43.68319" lon="5.8003">
        <ele>433</ele>
        <time>2016-01-03T10:58:51.634Z</time>
      </trkpt>
      <trkpt lat="43.6832" lon="5.80037">
        <ele>434</ele>
        <time>2016-01-03T10:58:52.657Z</time>
      </trkpt>
      <trkpt lat="43.68321" lon="5.80043">
        <ele>433</ele>
        <time>2016-01-03T10:58:53.634Z</time>
      </trkpt>
      <trkpt lat="43.68325" lon="5.80053">
        <ele>433</ele>
        <time>2016-01-03T10:58:55.658Z</time>
      </trkpt>
      <trkpt lat="43.68329" lon="5.80054">
        <ele>433</ele>
        <time>2016-01-03T10:58:56.635Z</time>
      </trkpt>
      <trkpt lat="43.68332" lon="5.80054">
        <ele>433</ele>
        <time>2016-01-03T11:00:58.068Z</time>
      </trkpt>
      <trkpt lat="43.68307" lon="5.80056">
        <ele>602</ele>
        <time>2016-01-03T11:04:26.430Z</time>
      </trkpt>
      <trkpt lat="43.68307" lon="5.80056">
        <ele>602</ele>
        <time>2016-01-03T11:04:33.053Z</time>
      </trkpt>
      <trkpt lat="43.68317" lon="5.80044">
        <ele>440</ele>
        <time>2016-01-03T11:04:33.961Z</time>
      </trkpt>
      <trkpt lat="43.68317" lon="5.80044">
        <ele>440</ele>
        <time>2016-01-03T11:04:33.985Z</time>
      </trkpt>
      <trkpt lat="43.68327" lon="5.80053">
        <ele>425</ele>
        <time>2016-01-03T11:04:34.988Z</time>
      </trkpt>
      <trkpt lat="43.68328" lon="5.80063">
        <ele>436</ele>
        <time>2016-01-03T11:07:10.661Z</time>
      </trkpt>
      <trkpt lat="43.68329" lon="5.80067">
        <ele>436</ele>
        <time>2016-01-03T11:07:11.637Z</time>
      </trkpt>
      <trkpt lat="43.68336" lon="5.80075">
        <ele>436</ele>
        <time>2016-01-03T11:07:14.881Z</time>
      </trkpt>
      <trkpt lat="43.68338" lon="5.80077">
        <ele>436</ele>
        <time>2016-01-03T11:07:15.636Z</time>
      </trkpt>
      <trkpt lat="43.68334" lon="5.80071">
        <ele>436</ele>
        <time>2016-01-03T11:07:31.661Z</time>
      </trkpt>
      <trkpt lat="43.68331" lon="5.80066">
        <ele>436</ele>
        <time>2016-01-03T11:07:32.637Z</time>
      </trkpt>
      <trkpt lat="43.68328" lon="5.80056">
        <ele>436</ele>
        <time>2016-01-03T11:07:34.661Z</time>
      </trkpt>
      <trkpt lat="43.68328" lon="5.80051">
        <ele>436</ele>
        <time>2016-01-03T11:07:35.637Z</time>
      </trkpt>
      <trkpt lat="43.68323" lon="5.80061">
        <ele>435</ele>
        <time>2016-01-03T11:07:51.662Z</time>
      </trkpt>
      <trkpt lat="43.68324" lon="5.80065">
        <ele>435</ele>
        <time>2016-01-03T11:07:52.637Z</time>
      </trkpt>
      <trkpt lat="43.68329" lon="5.80072">
        <ele>435</ele>
        <time>2016-01-03T11:07:54.686Z</time>
      </trkpt>
      <trkpt lat="43.68332" lon="5.80074">
        <ele>435</ele>
        <time>2016-01-03T11:07:55.638Z</time>
      </trkpt>
      <trkpt lat="43.68339" lon="5.80079">
        <ele>436</ele>
        <time>2016-01-03T11:07:58.661Z</time>
      </trkpt>
      <trkpt lat="43.68342" lon="5.80081">
        <ele>436</ele>
        <time>2016-01-03T11:07:59.638Z</time>
      </trkpt>
      <trkpt lat="43.68348" lon="5.80087">
        <ele>438</ele>
        <time>2016-01-03T11:08:02.660Z</time>
      </trkpt>
      <trkpt lat="43.6835" lon="5.80089">
        <ele>438</ele>
        <time>2016-01-03T11:08:03.637Z</time>
      </trkpt>
      <trkpt lat="43.68357" lon="5.80095">
        <ele>439</ele>
        <time>2016-01-03T11:08:06.662Z</time>
      </trkpt>
      <trkpt lat="43.68359" lon="5.80097">
        <ele>439</ele>
        <time>2016-01-03T11:08:07.638Z</time>
      </trkpt>
      <trkpt lat="43.68365" lon="5.80102">
        <ele>440</ele>
        <time>2016-01-03T11:08:10.663Z</time>
      </trkpt>
      <trkpt lat="43.68367" lon="5.80104">
        <ele>440</ele>
        <time>2016-01-03T11:08:11.668Z</time>
      </trkpt>
      <trkpt lat="43.68373" lon="5.80109">
        <ele>441</ele>
        <time>2016-01-03T11:08:14.662Z</time>
      </trkpt>
      <trkpt lat="43.68375" lon="5.80111">
        <ele>441</ele>
        <time>2016-01-03T11:08:15.636Z</time>
      </trkpt>
      <trkpt lat="43.68381" lon="5.80116">
        <ele>441</ele>
        <time>2016-01-03T11:08:18.657Z</time>
      </trkpt>
      <trkpt lat="43.68383" lon="5.80118">
        <ele>441</ele>
        <time>2016-01-03T11:08:19.634Z</time>
      </trkpt>
      <trkpt lat="43.68388" lon="5.80125">
        <ele>441</ele>
        <time>2016-01-03T11:08:22.678Z</time>
      </trkpt>
      <trkpt lat="43.6839" lon="5.80127">
        <ele>441</ele>
        <time>2016-01-03T11:08:23.635Z</time>
      </trkpt>
      <trkpt lat="43.68395" lon="5.80133">
        <ele>442</ele>
        <time>2016-01-03T11:08:26.660Z</time>
      </trkpt>
      <trkpt lat="43.68397" lon="5.80135">
        <ele>442</ele>
        <time>2016-01-03T11:08:27.635Z</time>
      </trkpt>
      <trkpt lat="43.68402" lon="5.80143">
        <ele>442</ele>
        <time>2016-01-03T11:08:30.712Z</time>
      </trkpt>
      <trkpt lat="43.68404" lon="5.80146">
        <ele>442</ele>
        <time>2016-01-03T11:08:31.635Z</time>
      </trkpt>
      <trkpt lat="43.68408" lon="5.80154">
        <ele>443</ele>
        <time>2016-01-03T11:08:34.662Z</time>
      </trkpt>
      <trkpt lat="43.6841" lon="5.80156">
        <ele>443</ele>
        <time>2016-01-03T11:08:35.643Z</time>
      </trkpt>
      <trkpt lat="43.68415" lon="5.80164">
        <ele>444</ele>
        <time>2016-01-03T11:08:38.661Z</time>
      </trkpt>
      <trkpt lat="43.68417" lon="5.80166">
        <ele>444</ele>
        <time>2016-01-03T11:08:39.639Z</time>
      </trkpt>
      <trkpt lat="43.68423" lon="5.80172">
        <ele>445</ele>
        <time>2016-01-03T11:08:42.730Z</time>
      </trkpt>
      <trkpt lat="43.68425" lon="5.80174">
        <ele>445</ele>
        <time>2016-01-03T11:08:43.637Z</time>
      </trkpt>
      <trkpt lat="43.68431" lon="5.8018">
        <ele>446</ele>
        <time>2016-01-03T11:08:46.673Z</time>
      </trkpt>
      <trkpt lat="43.68433" lon="5.80182">
        <ele>446</ele>
        <time>2016-01-03T11:08:47.638Z</time>
      </trkpt>
      <trkpt lat="43.6844" lon="5.80186">
        <ele>446</ele>
        <time>2016-01-03T11:08:50.662Z</time>
      </trkpt>
      <trkpt lat="43.68442" lon="5.80187">
        <ele>446</ele>
        <time>2016-01-03T11:08:51.649Z</time>
      </trkpt>
      <trkpt lat="43.68449" lon="5.8019">
        <ele>447</ele>
        <time>2016-01-03T11:08:54.663Z</time>
      </trkpt>
      <trkpt lat="43.68451" lon="5.80191">
        <ele>447</ele>
        <time>2016-01-03T11:08:55.665Z</time>
      </trkpt>
      <trkpt lat="43.68459" lon="5.80193">
        <ele>448</ele>
        <time>2016-01-03T11:08:59.662Z</time>
      </trkpt>
      <trkpt lat="43.68461" lon="5.80194">
        <ele>448</ele>
        <time>2016-01-03T11:09:00.631Z</time>
      </trkpt>
      <trkpt lat="43.68469" lon="5.80197">
        <ele>448</ele>
        <time>2016-01-03T11:09:04.662Z</time>
      </trkpt>
      <trkpt lat="43.6847" lon="5.80197">
        <ele>449</ele>
        <time>2016-01-03T11:09:05.637Z</time>
      </trkpt>
      <trkpt lat="43.68478" lon="5.80199">
        <ele>449</ele>
        <time>2016-01-03T11:09:11.663Z</time>
      </trkpt>
      <trkpt lat="43.68479" lon="5.802">
        <ele>449</ele>
        <time>2016-01-03T11:09:12.635Z</time>
      </trkpt>
      <trkpt lat="43.68487" lon="5.80202">
        <ele>450</ele>
        <time>2016-01-03T11:09:17.690Z</time>
      </trkpt>
      <trkpt lat="43.68488" lon="5.80202">
        <ele>450</ele>
        <time>2016-01-03T11:09:18.636Z</time>
      </trkpt>
      <trkpt lat="43.68496" lon="5.80205">
        <ele>452</ele>
        <time>2016-01-03T11:09:23.662Z</time>
      </trkpt>
      <trkpt lat="43.68498" lon="5.80206">
        <ele>452</ele>
        <time>2016-01-03T11:09:24.649Z</time>
      </trkpt>
      <trkpt lat="43.68507" lon="5.80209">
        <ele>452</ele>
        <time>2016-01-03T11:09:29.660Z</time>
      </trkpt>
      <trkpt lat="43.68509" lon="5.8021">
        <ele>453</ele>
        <time>2016-01-03T11:09:30.638Z</time>
      </trkpt>
      <trkpt lat="43.68516" lon="5.80212">
        <ele>453</ele>
        <time>2016-01-03T11:09:34.662Z</time>
      </trkpt>
      <trkpt lat="43.68518" lon="5.80213">
        <ele>453</ele>
        <time>2016-01-03T11:09:35.637Z</time>
      </trkpt>
      <trkpt lat="43.68525" lon="5.80216">
        <ele>454</ele>
        <time>2016-01-03T11:09:39.690Z</time>
      </trkpt>
      <trkpt lat="43.68527" lon="5.80216">
        <ele>455</ele>
        <time>2016-01-03T11:09:40.660Z</time>
      </trkpt>
      <trkpt lat="43.68534" lon="5.80218">
        <ele>455</ele>
        <time>2016-01-03T11:09:44.662Z</time>
      </trkpt>
      <trkpt lat="43.68536" lon="5.80219">
        <ele>455</ele>
        <time>2016-01-03T11:09:45.638Z</time>
      </trkpt>
      <trkpt lat="43.68543" lon="5.80221">
        <ele>456</ele>
        <time>2016-01-03T11:09:49.662Z</time>
      </trkpt>
      <trkpt lat="43.68545" lon="5.80222">
        <ele>456</ele>
        <time>2016-01-03T11:09:50.664Z</time>
      </trkpt>
      <trkpt lat="43.68553" lon="5.80225">
        <ele>456</ele>
        <time>2016-01-03T11:09:54.651Z</time>
      </trkpt>
      <trkpt lat="43.68554" lon="5.80227">
        <ele>456</ele>
        <time>2016-01-03T11:09:55.638Z</time>
      </trkpt>
      <trkpt lat="43.68562" lon="5.80231">
        <ele>457</ele>
        <time>2016-01-03T11:09:59.660Z</time>
      </trkpt>
      <trkpt lat="43.68563" lon="5.80233">
        <ele>457</ele>
        <time>2016-01-03T11:10:00.637Z</time>
      </trkpt>
      <trkpt lat="43.6857" lon="5.8024">
        <ele>458</ele>
        <time>2016-01-03T11:10:04.674Z</time>
      </trkpt>
      <trkpt lat="43.68571" lon="5.80242">
        <ele>458</ele>
        <time>2016-01-03T11:10:05.638Z</time>
      </trkpt>
      <trkpt lat="43.68576" lon="5.80251">
        <ele>458</ele>
        <time>2016-01-03T11:10:09.661Z</time>
      </trkpt>
      <trkpt lat="43.68578" lon="5.80254">
        <ele>459</ele>
        <time>2016-01-03T11:10:10.637Z</time>
      </trkpt>
      <trkpt lat="43.68582" lon="5.80262">
        <ele>459</ele>
        <time>2016-01-03T11:10:13.674Z</time>
      </trkpt>
      <trkpt lat="43.68584" lon="5.80265">
        <ele>459</ele>
        <time>2016-01-03T11:10:14.638Z</time>
      </trkpt>
      <trkpt lat="43.68589" lon="5.80272">
        <ele>460</ele>
        <time>2016-01-03T11:10:17.690Z</time>
      </trkpt>
      <trkpt lat="43.68591" lon="5.80274">
        <ele>460</ele>
        <time>2016-01-03T11:10:18.638Z</time>
      </trkpt>
      <trkpt lat="43.68596" lon="5.8028">
        <ele>461</ele>
        <time>2016-01-03T11:10:21.661Z</time>
      </trkpt>
      <trkpt lat="43.68598" lon="5.80282">
        <ele>461</ele>
        <time>2016-01-03T11:10:22.638Z</time>
      </trkpt>
      <trkpt lat="43.68603" lon="5.80289">
        <ele>461</ele>
        <time>2016-01-03T11:10:25.673Z</time>
      </trkpt>
      <trkpt lat="43.68605" lon="5.80291">
        <ele>461</ele>
        <time>2016-01-03T11:10:26.636Z</time>
      </trkpt>
      <trkpt lat="43.6861" lon="5.80297">
        <ele>461</ele>
        <time>2016-01-03T11:10:29.660Z</time>
      </trkpt>
      <trkpt lat="43.68612" lon="5.803">
        <ele>461</ele>
        <time>2016-01-03T11:10:30.638Z</time>
      </trkpt>
      <trkpt lat="43.68617" lon="5.80306">
        <ele>461</ele>
        <time>2016-01-03T11:10:32.662Z</time>
      </trkpt>
      <trkpt lat="43.68619" lon="5.80309">
        <ele>461</ele>
        <time>2016-01-03T11:10:33.639Z</time>
      </trkpt>
      <trkpt lat="43.68624" lon="5.80318">
        <ele>461</ele>
        <time>2016-01-03T11:10:35.662Z</time>
      </trkpt>
      <trkpt lat="43.68626" lon="5.80323">
        <ele>461</ele>
        <time>2016-01-03T11:10:36.639Z</time>
      </trkpt>
      <trkpt lat="43.6863" lon="5.80333">
        <ele>461</ele>
        <time>2016-01-03T11:10:38.642Z</time>
      </trkpt>
      <trkpt lat="43.68632" lon="5.80338">
        <ele>461</ele>
        <time>2016-01-03T11:10:39.628Z</time>
      </trkpt>
      <trkpt lat="43.68635" lon="5.80348">
        <ele>460</ele>
        <time>2016-01-03T11:10:41.657Z</time>
      </trkpt>
      <trkpt lat="43.68637" lon="5.80353">
        <ele>460</ele>
        <time>2016-01-03T11:10:42.638Z</time>
      </trkpt>
      <trkpt lat="43.6864" lon="5.80364">
        <ele>459</ele>
        <time>2016-01-03T11:10:44.690Z</time>
      </trkpt>
      <trkpt lat="43.68642" lon="5.8037">
        <ele>460</ele>
        <time>2016-01-03T11:10:45.640Z</time>
      </trkpt>
      <trkpt lat="43.68644" lon="5.80377">
        <ele>459</ele>
        <time>2016-01-03T11:10:46.662Z</time>
      </trkpt>
      <trkpt lat="43.68645" lon="5.80384">
        <ele>458</ele>
        <time>2016-01-03T11:10:47.638Z</time>
      </trkpt>
      <trkpt lat="43.68646" lon="5.80391">
        <ele>458</ele>
        <time>2016-01-03T11:10:48.647Z</time>
      </trkpt>
      <trkpt lat="43.68647" lon="5.80398">
        <ele>458</ele>
        <time>2016-01-03T11:10:49.638Z</time>
      </trkpt>
      <trkpt lat="43.68648" lon="5.80405">
        <ele>458</ele>
        <time>2016-01-03T11:10:50.663Z</time>
      </trkpt>
      <trkpt lat="43.68649" lon="5.80412">
        <ele>458</ele>
        <time>2016-01-03T11:10:51.638Z</time>
      </trkpt>
      <trkpt lat="43.6865" lon="5.80418">
        <ele>457</ele>
        <time>2016-01-03T11:10:52.662Z</time>
      </trkpt>
      <trkpt lat="43.68651" lon="5.80425">
        <ele>457</ele>
        <time>2016-01-03T11:10:53.638Z</time>
      </trkpt>
      <trkpt lat="43.68653" lon="5.80431">
        <ele>458</ele>
        <time>2016-01-03T11:10:54.663Z</time>
      </trkpt>
      <trkpt lat="43.68655" lon="5.80437">
        <ele>457</ele>
        <time>2016-01-03T11:10:55.663Z</time>
      </trkpt>
      <trkpt lat="43.68659" lon="5.80442">
        <ele>457</ele>
        <time>2016-01-03T11:10:56.656Z</time>
      </trkpt>
      <trkpt lat="43.68663" lon="5.80445">
        <ele>457</ele>
        <time>2016-01-03T11:10:57.638Z</time>
      </trkpt>
      <trkpt lat="43.68668" lon="5.80447">
        <ele>456</ele>
        <time>2016-01-03T11:10:58.662Z</time>
      </trkpt>
      <trkpt lat="43.68673" lon="5.80446">
        <ele>456</ele>
        <time>2016-01-03T11:10:59.633Z</time>
      </trkpt>
      <trkpt lat="43.68679" lon="5.80444">
        <ele>455</ele>
        <time>2016-01-03T11:11:00.648Z</time>
      </trkpt>
      <trkpt lat="43.68684" lon="5.80441">
        <ele>454</ele>
        <time>2016-01-03T11:11:01.640Z</time>
      </trkpt>
      <trkpt lat="43.68689" lon="5.80435">
        <ele>454</ele>
        <time>2016-01-03T11:11:02.665Z</time>
      </trkpt>
      <trkpt lat="43.68694" lon="5.80429">
        <ele>454</ele>
        <time>2016-01-03T11:11:03.639Z</time>
      </trkpt>
      <trkpt lat="43.68697" lon="5.80421">
        <ele>453</ele>
        <time>2016-01-03T11:11:04.713Z</time>
      </trkpt>
      <trkpt lat="43.68699" lon="5.80413">
        <ele>453</ele>
        <time>2016-01-03T11:11:05.638Z</time>
      </trkpt>
      <trkpt lat="43.68701" lon="5.80405">
        <ele>453</ele>
        <time>2016-01-03T11:11:06.661Z</time>
      </trkpt>
      <trkpt lat="43.68703" lon="5.80397">
        <ele>452</ele>
        <time>2016-01-03T11:11:07.634Z</time>
      </trkpt>
      <trkpt lat="43.68705" lon="5.80388">
        <ele>452</ele>
        <time>2016-01-03T11:11:08.658Z</time>
      </trkpt>
      <trkpt lat="43.68708" lon="5.80379">
        <ele>451</ele>
        <time>2016-01-03T11:11:09.636Z</time>
      </trkpt>
      <trkpt lat="43.68711" lon="5.80371">
        <ele>450</ele>
        <time>2016-01-03T11:11:10.660Z</time>
      </trkpt>
      <trkpt lat="43.68714" lon="5.80362">
        <ele>450</ele>
        <time>2016-01-03T11:11:11.637Z</time>
      </trkpt>
      <trkpt lat="43.68718" lon="5.80355">
        <ele>450</ele>
        <time>2016-01-03T11:11:12.658Z</time>
      </trkpt>
      <trkpt lat="43.68723" lon="5.80348">
        <ele>450</ele>
        <time>2016-01-03T11:11:13.646Z</time>
      </trkpt>
      <trkpt lat="43.68729" lon="5.80342">
        <ele>450</ele>
        <time>2016-01-03T11:11:14.660Z</time>
      </trkpt>
      <trkpt lat="43.68735" lon="5.80337">
        <ele>450</ele>
        <time>2016-01-03T11:11:15.635Z</time>
      </trkpt>
      <trkpt lat="43.68741" lon="5.80335">
        <ele>450</ele>
        <time>2016-01-03T11:11:16.656Z</time>
      </trkpt>
      <trkpt lat="43.68748" lon="5.80334">
        <ele>450</ele>
        <time>2016-01-03T11:11:17.636Z</time>
      </trkpt>
      <trkpt lat="43.68755" lon="5.80334">
        <ele>449</ele>
        <time>2016-01-03T11:11:18.656Z</time>
      </trkpt>
      <trkpt lat="43.68762" lon="5.80334">
        <ele>449</ele>
        <time>2016-01-03T11:11:19.635Z</time>
      </trkpt>
      <trkpt lat="43.68768" lon="5.80335">
        <ele>449</ele>
        <time>2016-01-03T11:11:20.658Z</time>
      </trkpt>
      <trkpt lat="43.68773" lon="5.80337">
        <ele>449</ele>
        <time>2016-01-03T11:11:21.636Z</time>
      </trkpt>
      <trkpt lat="43.68779" lon="5.80339">
        <ele>449</ele>
        <time>2016-01-03T11:11:22.682Z</time>
      </trkpt>
      <trkpt lat="43.68784" lon="5.8034">
        <ele>449</ele>
        <time>2016-01-03T11:11:23.638Z</time>
      </trkpt>
      <trkpt lat="43.68789" lon="5.80341">
        <ele>449</ele>
        <time>2016-01-03T11:11:24.657Z</time>
      </trkpt>
      <trkpt lat="43.68794" lon="5.80342">
        <ele>449</ele>
        <time>2016-01-03T11:11:25.637Z</time>
      </trkpt>
      <trkpt lat="43.68798" lon="5.80344">
        <ele>449</ele>
        <time>2016-01-03T11:11:26.657Z</time>
      </trkpt>
      <trkpt lat="43.68803" lon="5.80345">
        <ele>449</ele>
        <time>2016-01-03T11:11:27.636Z</time>
      </trkpt>
      <trkpt lat="43.6881" lon="5.80352">
        <ele>449</ele>
        <time>2016-01-03T11:11:29.658Z</time>
      </trkpt>
      <trkpt lat="43.68813" lon="5.80355">
        <ele>450</ele>
        <time>2016-01-03T11:11:30.637Z</time>
      </trkpt>
      <trkpt lat="43.68818" lon="5.80362">
        <ele>450</ele>
        <time>2016-01-03T11:11:32.656Z</time>
      </trkpt>
      <trkpt lat="43.6882" lon="5.80365">
        <ele>451</ele>
        <time>2016-01-03T11:11:33.661Z</time>
      </trkpt>
      <trkpt lat="43.68824" lon="5.80371">
        <ele>451</ele>
        <time>2016-01-03T11:11:35.658Z</time>
      </trkpt>
      <trkpt lat="43.68827" lon="5.80373">
        <ele>451</ele>
        <time>2016-01-03T11:11:36.636Z</time>
      </trkpt>
      <trkpt lat="43.68833" lon="5.80382">
        <ele>451</ele>
        <time>2016-01-03T11:11:39.652Z</time>
      </trkpt>
      <trkpt lat="43.68836" lon="5.80384">
        <ele>451</ele>
        <time>2016-01-03T11:11:40.636Z</time>
      </trkpt>
      <trkpt lat="43.6884" lon="5.8039">
        <ele>452</ele>
        <time>2016-01-03T11:11:42.657Z</time>
      </trkpt>
      <trkpt lat="43.68843" lon="5.80392">
        <ele>452</ele>
        <time>2016-01-03T11:11:43.638Z</time>
      </trkpt>
      <trkpt lat="43.68848" lon="5.80398">
        <ele>452</ele>
        <time>2016-01-03T11:11:45.657Z</time>
      </trkpt>
      <trkpt lat="43.68851" lon="5.804">
        <ele>452</ele>
        <time>2016-01-03T11:11:46.636Z</time>
      </trkpt>
      <trkpt lat="43.68857" lon="5.80405">
        <ele>452</ele>
        <time>2016-01-03T11:11:48.656Z</time>
      </trkpt>
      <trkpt lat="43.68859" lon="5.80408">
        <ele>452</ele>
        <time>2016-01-03T11:11:49.639Z</time>
      </trkpt>
      <trkpt lat="43.68866" lon="5.80414">
        <ele>452</ele>
        <time>2016-01-03T11:11:51.657Z</time>
      </trkpt>
      <trkpt lat="43.68869" lon="5.80417">
        <ele>452</ele>
        <time>2016-01-03T11:11:52.637Z</time>
      </trkpt>
      <trkpt lat="43.68875" lon="5.80423">
        <ele>453</ele>
        <time>2016-01-03T11:11:54.662Z</time>
      </trkpt>
      <trkpt lat="43.68878" lon="5.80426">
        <ele>453</ele>
        <time>2016-01-03T11:11:55.676Z</time>
      </trkpt>
      <trkpt lat="43.68885" lon="5.80432">
        <ele>453</ele>
        <time>2016-01-03T11:11:57.663Z</time>
      </trkpt>
      <trkpt lat="43.68887" lon="5.80435">
        <ele>453</ele>
        <time>2016-01-03T11:11:58.639Z</time>
      </trkpt>
      <trkpt lat="43.68893" lon="5.80441">
        <ele>453</ele>
        <time>2016-01-03T11:12:00.663Z</time>
      </trkpt>
      <trkpt lat="43.68896" lon="5.80444">
        <ele>453</ele>
        <time>2016-01-03T11:12:01.640Z</time>
      </trkpt>
      <trkpt lat="43.68902" lon="5.8045">
        <ele>454</ele>
        <time>2016-01-03T11:12:03.659Z</time>
      </trkpt>
      <trkpt lat="43.68904" lon="5.80453">
        <ele>454</ele>
        <time>2016-01-03T11:12:04.638Z</time>
      </trkpt>
      <trkpt lat="43.6891" lon="5.80458">
        <ele>454</ele>
        <time>2016-01-03T11:12:06.691Z</time>
      </trkpt>
      <trkpt lat="43.68913" lon="5.8046">
        <ele>454</ele>
        <time>2016-01-03T11:12:07.639Z</time>
      </trkpt>
      <trkpt lat="43.68918" lon="5.80465">
        <ele>455</ele>
        <time>2016-01-03T11:12:09.662Z</time>
      </trkpt>
      <trkpt lat="43.6892" lon="5.80468">
        <ele>455</ele>
        <time>2016-01-03T11:12:10.640Z</time>
      </trkpt>
      <trkpt lat="43.68925" lon="5.80473">
        <ele>455</ele>
        <time>2016-01-03T11:12:12.663Z</time>
      </trkpt>
      <trkpt lat="43.68928" lon="5.80476">
        <ele>456</ele>
        <time>2016-01-03T11:12:13.643Z</time>
      </trkpt>
      <trkpt lat="43.68934" lon="5.80482">
        <ele>456</ele>
        <time>2016-01-03T11:12:16.662Z</time>
      </trkpt>
      <trkpt lat="43.68937" lon="5.80484">
        <ele>456</ele>
        <time>2016-01-03T11:12:17.678Z</time>
      </trkpt>
      <trkpt lat="43.68945" lon="5.80489">
        <ele>458</ele>
        <time>2016-01-03T11:12:20.663Z</time>
      </trkpt>
      <trkpt lat="43.68947" lon="5.8049">
        <ele>458</ele>
        <time>2016-01-03T11:12:21.650Z</time>
      </trkpt>
      <trkpt lat="43.68955" lon="5.80493">
        <ele>459</ele>
        <time>2016-01-03T11:12:24.662Z</time>
      </trkpt>
      <trkpt lat="43.68958" lon="5.80492">
        <ele>459</ele>
        <time>2016-01-03T11:12:25.639Z</time>
      </trkpt>
      <trkpt lat="43.68965" lon="5.8049">
        <ele>460</ele>
        <time>2016-01-03T11:12:28.690Z</time>
      </trkpt>
      <trkpt lat="43.68967" lon="5.80489">
        <ele>460</ele>
        <time>2016-01-03T11:12:29.643Z</time>
      </trkpt>
      <trkpt lat="43.68974" lon="5.80483">
        <ele>460</ele>
        <time>2016-01-03T11:12:32.657Z</time>
      </trkpt>
      <trkpt lat="43.68976" lon="5.80481">
        <ele>461</ele>
        <time>2016-01-03T11:12:33.638Z</time>
      </trkpt>
      <trkpt lat="43.68983" lon="5.80475">
        <ele>461</ele>
        <time>2016-01-03T11:12:36.664Z</time>
      </trkpt>
      <trkpt lat="43.68985" lon="5.80473">
        <ele>461</ele>
        <time>2016-01-03T11:12:37.639Z</time>
      </trkpt>
      <trkpt lat="43.6899" lon="5.80464">
        <ele>461</ele>
        <time>2016-01-03T11:12:40.664Z</time>
      </trkpt>
      <trkpt lat="43.68992" lon="5.80461">
        <ele>461</ele>
        <time>2016-01-03T11:12:41.639Z</time>
      </trkpt>
      <trkpt lat="43.68994" lon="5.80452">
        <ele>462</ele>
        <time>2016-01-03T11:12:44.760Z</time>
      </trkpt>
      <trkpt lat="43.68995" lon="5.80448">
        <ele>462</ele>
        <time>2016-01-03T11:12:45.638Z</time>
      </trkpt>
      <trkpt lat="43.68994" lon="5.80438">
        <ele>462</ele>
        <time>2016-01-03T11:12:48.662Z</time>
      </trkpt>
      <trkpt lat="43.68993" lon="5.80435">
        <ele>463</ele>
        <time>2016-01-03T11:12:49.638Z</time>
      </trkpt>
      <trkpt lat="43.6899" lon="5.80426">
        <ele>464</ele>
        <time>2016-01-03T11:12:52.662Z</time>
      </trkpt>
      <trkpt lat="43.68989" lon="5.80423">
        <ele>464</ele>
        <time>2016-01-03T11:12:53.641Z</time>
      </trkpt>
      <trkpt lat="43.68983" lon="5.80415">
        <ele>466</ele>
        <time>2016-01-03T11:12:56.662Z</time>
      </trkpt>
      <trkpt lat="43.68981" lon="5.80413">
        <ele>466</ele>
        <time>2016-01-03T11:12:57.640Z</time>
      </trkpt>
      <trkpt lat="43.68973" lon="5.80408">
        <ele>468</ele>
        <time>2016-01-03T11:13:00.663Z</time>
      </trkpt>
      <trkpt lat="43.68971" lon="5.80407">
        <ele>468</ele>
        <time>2016-01-03T11:13:01.644Z</time>
      </trkpt>
      <trkpt lat="43.68962" lon="5.80404">
        <ele>469</ele>
        <time>2016-01-03T11:13:04.662Z</time>
      </trkpt>
      <trkpt lat="43.68959" lon="5.80403">
        <ele>469</ele>
        <time>2016-01-03T11:13:05.640Z</time>
      </trkpt>
      <trkpt lat="43.68953" lon="5.804">
        <ele>469</ele>
        <time>2016-01-03T11:13:07.663Z</time>
      </trkpt>
      <trkpt lat="43.6895" lon="5.80398">
        <ele>469</ele>
        <time>2016-01-03T11:13:08.640Z</time>
      </trkpt>
      <trkpt lat="43.68944" lon="5.80394">
        <ele>469</ele>
        <time>2016-01-03T11:13:10.664Z</time>
      </trkpt>
      <trkpt lat="43.68941" lon="5.80392">
        <ele>469</ele>
        <time>2016-01-03T11:13:11.667Z</time>
      </trkpt>
      <trkpt lat="43.68935" lon="5.80387">
        <ele>469</ele>
        <time>2016-01-03T11:13:13.665Z</time>
      </trkpt>
      <trkpt lat="43.68932" lon="5.80384">
        <ele>468</ele>
        <time>2016-01-03T11:13:14.640Z</time>
      </trkpt>
      <trkpt lat="43.68929" lon="5.8038">
        <ele>468</ele>
        <time>2016-01-03T11:13:15.662Z</time>
      </trkpt>
      <trkpt lat="43.68925" lon="5.80375">
        <ele>468</ele>
        <time>2016-01-03T11:13:16.640Z</time>
      </trkpt>
      <trkpt lat="43.68922" lon="5.8037">
        <ele>467</ele>
        <time>2016-01-03T11:13:17.664Z</time>
      </trkpt>
      <trkpt lat="43.68919" lon="5.80364">
        <ele>467</ele>
        <time>2016-01-03T11:13:18.640Z</time>
      </trkpt>
      <trkpt lat="43.68916" lon="5.80359">
        <ele>467</ele>
        <time>2016-01-03T11:13:19.652Z</time>
      </trkpt>
      <trkpt lat="43.68912" lon="5.80354">
        <ele>467</ele>
        <time>2016-01-03T11:13:20.640Z</time>
      </trkpt>
      <trkpt lat="43.68907" lon="5.80346">
        <ele>467</ele>
        <time>2016-01-03T11:13:22.691Z</time>
      </trkpt>
      <trkpt lat="43.68904" lon="5.80342">
        <ele>467</ele>
        <time>2016-01-03T11:13:23.640Z</time>
      </trkpt>
      <trkpt lat="43.68896" lon="5.80336">
        <ele>467</ele>
        <time>2016-01-03T11:13:25.664Z</time>
      </trkpt>
      <trkpt lat="43.68893" lon="5.80333">
        <ele>468</ele>
        <time>2016-01-03T11:13:26.641Z</time>
      </trkpt>
      <trkpt lat="43.68886" lon="5.80328">
        <ele>468</ele>
        <time>2016-01-03T11:13:28.651Z</time>
      </trkpt>
      <trkpt lat="43.68883" lon="5.80325">
        <ele>468</ele>
        <time>2016-01-03T11:13:29.640Z</time>
      </trkpt>
      <trkpt lat="43.68878" lon="5.80319">
        <ele>469</ele>
        <time>2016-01-03T11:13:31.665Z</time>
      </trkpt>
      <trkpt lat="43.68876" lon="5.80315">
        <ele>469</ele>
        <time>2016-01-03T11:13:32.640Z</time>
      </trkpt>
      <trkpt lat="43.68873" lon="5.80307">
        <ele>470</ele>
        <time>2016-01-03T11:13:34.665Z</time>
      </trkpt>
      <trkpt lat="43.68872" lon="5.80302">
        <ele>470</ele>
        <time>2016-01-03T11:13:35.641Z</time>
      </trkpt>
      <trkpt lat="43.68873" lon="5.80292">
        <ele>470</ele>
        <time>2016-01-03T11:13:37.665Z</time>
      </trkpt>
      <trkpt lat="43.68874" lon="5.80288">
        <ele>470</ele>
        <time>2016-01-03T11:13:38.640Z</time>
      </trkpt>
      <trkpt lat="43.68876" lon="5.80279">
        <ele>470</ele>
        <time>2016-01-03T11:13:40.648Z</time>
      </trkpt>
      <trkpt lat="43.68878" lon="5.80274">
        <ele>470</ele>
        <time>2016-01-03T11:13:41.639Z</time>
      </trkpt>
      <trkpt lat="43.68881" lon="5.80265">
        <ele>470</ele>
        <time>2016-01-03T11:13:43.662Z</time>
      </trkpt>
      <trkpt lat="43.68882" lon="5.80261">
        <ele>470</ele>
        <time>2016-01-03T11:13:44.665Z</time>
      </trkpt>
      <trkpt lat="43.68886" lon="5.80253">
        <ele>470</ele>
        <time>2016-01-03T11:13:46.664Z</time>
      </trkpt>
      <trkpt lat="43.68887" lon="5.80248">
        <ele>470</ele>
        <time>2016-01-03T11:13:47.640Z</time>
      </trkpt>
      <trkpt lat="43.68889" lon="5.80239">
        <ele>470</ele>
        <time>2016-01-03T11:13:49.663Z</time>
      </trkpt>
      <trkpt lat="43.6889" lon="5.80235">
        <ele>470</ele>
        <time>2016-01-03T11:13:50.635Z</time>
      </trkpt>
      <trkpt lat="43.68889" lon="5.80225">
        <ele>471</ele>
        <time>2016-01-03T11:13:52.656Z</time>
      </trkpt>
      <trkpt lat="43.68888" lon="5.8022">
        <ele>470</ele>
        <time>2016-01-03T11:13:53.637Z</time>
      </trkpt>
      <trkpt lat="43.68884" lon="5.80209">
        <ele>470</ele>
        <time>2016-01-03T11:13:55.656Z</time>
      </trkpt>
      <trkpt lat="43.68882" lon="5.80203">
        <ele>469</ele>
        <time>2016-01-03T11:13:56.638Z</time>
      </trkpt>
      <trkpt lat="43.6888" lon="5.80198">
        <ele>470</ele>
        <time>2016-01-03T11:13:57.658Z</time>
      </trkpt>
      <trkpt lat="43.68878" lon="5.80192">
        <ele>469</ele>
        <time>2016-01-03T11:13:58.637Z</time>
      </trkpt>
      <trkpt lat="43.68873" lon="5.80181">
        <ele>469</ele>
        <time>2016-01-03T11:14:00.680Z</time>
      </trkpt>
      <trkpt lat="43.68871" lon="5.80176">
        <ele>469</ele>
        <time>2016-01-03T11:14:01.634Z</time>
      </trkpt>
      <trkpt lat="43.68868" lon="5.80165">
        <ele>469</ele>
        <time>2016-01-03T11:14:03.662Z</time>
      </trkpt>
      <trkpt lat="43.68866" lon="5.80159">
        <ele>469</ele>
        <time>2016-01-03T11:14:04.640Z</time>
      </trkpt>
      <trkpt lat="43.68865" lon="5.80153">
        <ele>469</ele>
        <time>2016-01-03T11:14:05.663Z</time>
      </trkpt>
      <trkpt lat="43.68865" lon="5.80146">
        <ele>469</ele>
        <time>2016-01-03T11:14:06.638Z</time>
      </trkpt>
      <trkpt lat="43.68865" lon="5.80139">
        <ele>469</ele>
        <time>2016-01-03T11:14:07.665Z</time>
      </trkpt>
      <trkpt lat="43.68865" lon="5.80133">
        <ele>470</ele>
        <time>2016-01-03T11:14:08.641Z</time>
      </trkpt>
      <trkpt lat="43.68867" lon="5.80121">
        <ele>470</ele>
        <time>2016-01-03T11:14:10.665Z</time>
      </trkpt>
      <trkpt lat="43.68869" lon="5.80116">
        <ele>470</ele>
        <time>2016-01-03T11:14:11.641Z</time>
      </trkpt>
      <trkpt lat="43.68872" lon="5.80105">
        <ele>471</ele>
        <time>2016-01-03T11:14:13.652Z</time>
      </trkpt>
      <trkpt lat="43.68874" lon="5.801">
        <ele>471</ele>
        <time>2016-01-03T11:14:14.655Z</time>
      </trkpt>
      <trkpt lat="43.6888" lon="5.80092">
        <ele>471</ele>
        <time>2016-01-03T11:14:16.691Z</time>
      </trkpt>
      <trkpt lat="43.68883" lon="5.80088">
        <ele>471</ele>
        <time>2016-01-03T11:14:17.643Z</time>
      </trkpt>
      <trkpt lat="43.68889" lon="5.80083">
        <ele>471</ele>
        <time>2016-01-03T11:14:19.663Z</time>
      </trkpt>
      <trkpt lat="43.68893" lon="5.80082">
        <ele>471</ele>
        <time>2016-01-03T11:14:20.638Z</time>
      </trkpt>
      <trkpt lat="43.689" lon="5.8008">
        <ele>471</ele>
        <time>2016-01-03T11:14:22.667Z</time>
      </trkpt>
      <trkpt lat="43.68904" lon="5.8008">
        <ele>471</ele>
        <time>2016-01-03T11:14:23.647Z</time>
      </trkpt>
      <trkpt lat="43.68909" lon="5.80081">
        <ele>470</ele>
        <time>2016-01-03T11:14:24.651Z</time>
      </trkpt>
      <trkpt lat="43.68915" lon="5.80083">
        <ele>470</ele>
        <time>2016-01-03T11:14:25.635Z</time>
      </trkpt>
      <trkpt lat="43.68923" lon="5.80087">
        <ele>469</ele>
        <time>2016-01-03T11:14:27.691Z</time>
      </trkpt>
      <trkpt lat="43.68928" lon="5.80089">
        <ele>469</ele>
        <time>2016-01-03T11:14:28.641Z</time>
      </trkpt>
      <trkpt lat="43.68932" lon="5.80091">
        <ele>469</ele>
        <time>2016-01-03T11:14:29.663Z</time>
      </trkpt>
      <trkpt lat="43.68937" lon="5.80094">
        <ele>468</ele>
        <time>2016-01-03T11:14:30.640Z</time>
      </trkpt>
      <trkpt lat="43.68941" lon="5.80096">
        <ele>468</ele>
        <time>2016-01-03T11:14:31.662Z</time>
      </trkpt>
      <trkpt lat="43.68946" lon="5.80099">
        <ele>468</ele>
        <time>2016-01-03T11:14:32.638Z</time>
      </trkpt>
      <trkpt lat="43.6895" lon="5.801">
        <ele>468</ele>
        <time>2016-01-03T11:14:33.665Z</time>
      </trkpt>
      <trkpt lat="43.68955" lon="5.801">
        <ele>468</ele>
        <time>2016-01-03T11:14:34.640Z</time>
      </trkpt>
      <trkpt lat="43.6896" lon="5.801">
        <ele>467</ele>
        <time>2016-01-03T11:14:35.663Z</time>
      </trkpt>
      <trkpt lat="43.68966" lon="5.80099">
        <ele>467</ele>
        <time>2016-01-03T11:14:36.640Z</time>
      </trkpt>
      <trkpt lat="43.68971" lon="5.80098">
        <ele>467</ele>
        <time>2016-01-03T11:14:37.652Z</time>
      </trkpt>
      <trkpt lat="43.68977" lon="5.80095">
        <ele>466</ele>
        <time>2016-01-03T11:14:38.668Z</time>
      </trkpt>
      <trkpt lat="43.68983" lon="5.80093">
        <ele>465</ele>
        <time>2016-01-03T11:14:39.666Z</time>
      </trkpt>
      <trkpt lat="43.68989" lon="5.80091">
        <ele>465</ele>
        <time>2016-01-03T11:14:40.639Z</time>
      </trkpt>
      <trkpt lat="43.68995" lon="5.8009">
        <ele>463</ele>
        <time>2016-01-03T11:14:41.662Z</time>
      </trkpt>
      <trkpt lat="43.69001" lon="5.80089">
        <ele>463</ele>
        <time>2016-01-03T11:14:42.640Z</time>
      </trkpt>
      <trkpt lat="43.69006" lon="5.80088">
        <ele>463</ele>
        <time>2016-01-03T11:14:43.665Z</time>
      </trkpt>
      <trkpt lat="43.69012" lon="5.80086">
        <ele>462</ele>
        <time>2016-01-03T11:14:44.634Z</time>
      </trkpt>
      <trkpt lat="43.69018" lon="5.80083">
        <ele>461</ele>
        <time>2016-01-03T11:14:45.663Z</time>
      </trkpt>
      <trkpt lat="43.69023" lon="5.80079">
        <ele>461</ele>
        <time>2016-01-03T11:14:46.640Z</time>
      </trkpt>
      <trkpt lat="43.69027" lon="5.80072">
        <ele>461</ele>
        <time>2016-01-03T11:14:47.664Z</time>
      </trkpt>
      <trkpt lat="43.69029" lon="5.80066">
        <ele>461</ele>
        <time>2016-01-03T11:14:48.640Z</time>
      </trkpt>
      <trkpt lat="43.69031" lon="5.80059">
        <ele>461</ele>
        <time>2016-01-03T11:14:49.692Z</time>
      </trkpt>
      <trkpt lat="43.69032" lon="5.80052">
        <ele>461</ele>
        <time>2016-01-03T11:14:50.642Z</time>
      </trkpt>
      <trkpt lat="43.69032" lon="5.80045">
        <ele>461</ele>
        <time>2016-01-03T11:14:51.663Z</time>
      </trkpt>
      <trkpt lat="43.69034" lon="5.80038">
        <ele>461</ele>
        <time>2016-01-03T11:14:52.639Z</time>
      </trkpt>
      <trkpt lat="43.69036" lon="5.80032">
        <ele>462</ele>
        <time>2016-01-03T11:14:53.663Z</time>
      </trkpt>
      <trkpt lat="43.69038" lon="5.80026">
        <ele>462</ele>
        <time>2016-01-03T11:14:54.640Z</time>
      </trkpt>
      <trkpt lat="43.69044" lon="5.80017">
        <ele>463</ele>
        <time>2016-01-03T11:14:56.664Z</time>
      </trkpt>
      <trkpt lat="43.69047" lon="5.80013">
        <ele>463</ele>
        <time>2016-01-03T11:14:57.639Z</time>
      </trkpt>
      <trkpt lat="43.69052" lon="5.80006">
        <ele>464</ele>
        <time>2016-01-03T11:14:59.662Z</time>
      </trkpt>
      <trkpt lat="43.69055" lon="5.80002">
        <ele>465</ele>
        <time>2016-01-03T11:15:00.665Z</time>
      </trkpt>
      <trkpt lat="43.6906" lon="5.79996">
        <ele>465</ele>
        <time>2016-01-03T11:15:02.663Z</time>
      </trkpt>
      <trkpt lat="43.69062" lon="5.79993">
        <ele>466</ele>
        <time>2016-01-03T11:15:03.641Z</time>
      </trkpt>
      <trkpt lat="43.69067" lon="5.79987">
        <ele>466</ele>
        <time>2016-01-03T11:15:05.664Z</time>
      </trkpt>
      <trkpt lat="43.69069" lon="5.79983">
        <ele>467</ele>
        <time>2016-01-03T11:15:06.641Z</time>
      </trkpt>
      <trkpt lat="43.69075" lon="5.79974">
        <ele>468</ele>
        <time>2016-01-03T11:15:09.663Z</time>
      </trkpt>
      <trkpt lat="43.69076" lon="5.79971">
        <ele>469</ele>
        <time>2016-01-03T11:15:10.639Z</time>
      </trkpt>
      <trkpt lat="43.6908" lon="5.79961">
        <ele>470</ele>
        <time>2016-01-03T11:15:13.663Z</time>
      </trkpt>
      <trkpt lat="43.6908" lon="5.79957">
        <ele>471</ele>
        <time>2016-01-03T11:15:14.640Z</time>
      </trkpt>
      <trkpt lat="43.6908" lon="5.79946">
        <ele>472</ele>
        <time>2016-01-03T11:15:17.663Z</time>
      </trkpt>
      <trkpt lat="43.69079" lon="5.79942">
        <ele>473</ele>
        <time>2016-01-03T11:15:18.638Z</time>
      </trkpt>
      <trkpt lat="43.69078" lon="5.79931">
        <ele>474</ele>
        <time>2016-01-03T11:15:21.666Z</time>
      </trkpt>
      <trkpt lat="43.69077" lon="5.79928">
        <ele>474</ele>
        <time>2016-01-03T11:15:22.642Z</time>
      </trkpt>
      <trkpt lat="43.69076" lon="5.79917">
        <ele>474</ele>
        <time>2016-01-03T11:15:25.663Z</time>
      </trkpt>
      <trkpt lat="43.69076" lon="5.79913">
        <ele>474</ele>
        <time>2016-01-03T11:15:26.640Z</time>
      </trkpt>
      <trkpt lat="43.6908" lon="5.79902">
        <ele>475</ele>
        <time>2016-01-03T11:15:29.664Z</time>
      </trkpt>
      <trkpt lat="43.69081" lon="5.79898">
        <ele>475</ele>
        <time>2016-01-03T11:15:30.640Z</time>
      </trkpt>
      <trkpt lat="43.69088" lon="5.7989">
        <ele>476</ele>
        <time>2016-01-03T11:15:33.662Z</time>
      </trkpt>
      <trkpt lat="43.6909" lon="5.79888">
        <ele>476</ele>
        <time>2016-01-03T11:15:34.640Z</time>
      </trkpt>
      <trkpt lat="43.69098" lon="5.79882">
        <ele>476</ele>
        <time>2016-01-03T11:15:37.667Z</time>
      </trkpt>
      <trkpt lat="43.691" lon="5.79881">
        <ele>476</ele>
        <time>2016-01-03T11:15:38.642Z</time>
      </trkpt>
      <trkpt lat="43.69108" lon="5.79876">
        <ele>477</ele>
        <time>2016-01-03T11:15:41.659Z</time>
      </trkpt>
      <trkpt lat="43.69111" lon="5.79875">
        <ele>477</ele>
        <time>2016-01-03T11:15:42.641Z</time>
      </trkpt>
      <trkpt lat="43.69119" lon="5.7987">
        <ele>477</ele>
        <time>2016-01-03T11:15:45.666Z</time>
      </trkpt>
      <trkpt lat="43.69122" lon="5.79868">
        <ele>478</ele>
        <time>2016-01-03T11:15:46.641Z</time>
      </trkpt>
      <trkpt lat="43.69129" lon="5.79861">
        <ele>478</ele>
        <time>2016-01-03T11:15:49.652Z</time>
      </trkpt>
      <trkpt lat="43.69131" lon="5.79858">
        <ele>478</ele>
        <time>2016-01-03T11:15:50.640Z</time>
      </trkpt>
      <trkpt lat="43.69136" lon="5.79852">
        <ele>478</ele>
        <time>2016-01-03T11:15:52.666Z</time>
      </trkpt>
      <trkpt lat="43.69138" lon="5.79849">
        <ele>478</ele>
        <time>2016-01-03T11:15:53.641Z</time>
      </trkpt>
      <trkpt lat="43.69143" lon="5.79842">
        <ele>478</ele>
        <time>2016-01-03T11:15:55.666Z</time>
      </trkpt>
      <trkpt lat="43.69146" lon="5.79839">
        <ele>478</ele>
        <time>2016-01-03T11:15:56.640Z</time>
      </trkpt>
      <trkpt lat="43.69151" lon="5.79833">
        <ele>478</ele>
        <time>2016-01-03T11:15:58.665Z</time>
      </trkpt>
      <trkpt lat="43.69154" lon="5.7983">
        <ele>478</ele>
        <time>2016-01-03T11:15:59.642Z</time>
      </trkpt>
      <trkpt lat="43.69159" lon="5.79824">
        <ele>478</ele>
        <time>2016-01-03T11:16:01.663Z</time>
      </trkpt>
      <trkpt lat="43.69162" lon="5.79821">
        <ele>478</ele>
        <time>2016-01-03T11:16:02.640Z</time>
      </trkpt>
      <trkpt lat="43.69167" lon="5.79815">
        <ele>478</ele>
        <time>2016-01-03T11:16:04.661Z</time>
      </trkpt>
      <trkpt lat="43.6917" lon="5.79812">
        <ele>478</ele>
        <time>2016-01-03T11:16:05.639Z</time>
      </trkpt>
      <trkpt lat="43.69176" lon="5.79806">
        <ele>478</ele>
        <time>2016-01-03T11:16:07.664Z</time>
      </trkpt>
      <trkpt lat="43.69179" lon="5.79803">
        <ele>478</ele>
        <time>2016-01-03T11:16:08.639Z</time>
      </trkpt>
      <trkpt lat="43.69185" lon="5.79796">
        <ele>478</ele>
        <time>2016-01-03T11:16:10.690Z</time>
      </trkpt>
      <trkpt lat="43.69188" lon="5.79792">
        <ele>478</ele>
        <time>2016-01-03T11:16:11.639Z</time>
      </trkpt>
      <trkpt lat="43.69194" lon="5.79785">
        <ele>478</ele>
        <time>2016-01-03T11:16:13.686Z</time>
      </trkpt>
      <trkpt lat="43.69197" lon="5.79782">
        <ele>478</ele>
        <time>2016-01-03T11:16:14.641Z</time>
      </trkpt>
      <trkpt lat="43.69203" lon="5.79775">
        <ele>478</ele>
        <time>2016-01-03T11:16:16.664Z</time>
      </trkpt>
      <trkpt lat="43.69206" lon="5.79772">
        <ele>478</ele>
        <time>2016-01-03T11:16:17.638Z</time>
      </trkpt>
      <trkpt lat="43.69212" lon="5.79765">
        <ele>478</ele>
        <time>2016-01-03T11:16:19.665Z</time>
      </trkpt>
      <trkpt lat="43.69215" lon="5.79762">
        <ele>477</ele>
        <time>2016-01-03T11:16:20.640Z</time>
      </trkpt>
      <trkpt lat="43.69222" lon="5.79756">
        <ele>477</ele>
        <time>2016-01-03T11:16:22.664Z</time>
      </trkpt>
      <trkpt lat="43.69225" lon="5.79752">
        <ele>477</ele>
        <time>2016-01-03T11:16:23.641Z</time>
      </trkpt>
      <trkpt lat="43.69231" lon="5.79746">
        <ele>478</ele>
        <time>2016-01-03T11:16:25.664Z</time>
      </trkpt>
      <trkpt lat="43.69234" lon="5.79743">
        <ele>478</ele>
        <time>2016-01-03T11:16:26.640Z</time>
      </trkpt>
      <trkpt lat="43.6924" lon="5.79735">
        <ele>478</ele>
        <time>2016-01-03T11:16:28.665Z</time>
      </trkpt>
      <trkpt lat="43.69242" lon="5.79731">
        <ele>478</ele>
        <time>2016-01-03T11:16:29.640Z</time>
      </trkpt>
      <trkpt lat="43.69245" lon="5.79722">
        <ele>477</ele>
        <time>2016-01-03T11:16:31.664Z</time>
      </trkpt>
      <trkpt lat="43.69245" lon="5.79716">
        <ele>477</ele>
        <time>2016-01-03T11:16:32.667Z</time>
      </trkpt>
      <trkpt lat="43.69244" lon="5.79706">
        <ele>477</ele>
        <time>2016-01-03T11:16:34.663Z</time>
      </trkpt>
      <trkpt lat="43.69243" lon="5.79701">
        <ele>477</ele>
        <time>2016-01-03T11:16:35.640Z</time>
      </trkpt>
      <trkpt lat="43.69241" lon="5.79691">
        <ele>477</ele>
        <time>2016-01-03T11:16:37.664Z</time>
      </trkpt>
      <trkpt lat="43.6924" lon="5.79685">
        <ele>476</ele>
        <time>2016-01-03T11:16:38.641Z</time>
      </trkpt>
      <trkpt lat="43.69241" lon="5.79677">
        <ele>476</ele>
        <time>2016-01-03T11:16:39.677Z</time>
      </trkpt>
      <trkpt lat="43.69242" lon="5.79671">
        <ele>477</ele>
        <time>2016-01-03T11:16:40.640Z</time>
      </trkpt>
      <trkpt lat="43.69244" lon="5.7966">
        <ele>478</ele>
        <time>2016-01-03T11:16:42.662Z</time>
      </trkpt>
      <trkpt lat="43.69244" lon="5.79655">
        <ele>478</ele>
        <time>2016-01-03T11:16:43.666Z</time>
      </trkpt>
      <trkpt lat="43.69246" lon="5.79645">
        <ele>479</ele>
        <time>2016-01-03T11:16:45.665Z</time>
      </trkpt>
      <trkpt lat="43.69247" lon="5.7964">
        <ele>479</ele>
        <time>2016-01-03T11:16:46.638Z</time>
      </trkpt>
      <trkpt lat="43.69251" lon="5.79632">
        <ele>480</ele>
        <time>2016-01-03T11:16:48.663Z</time>
      </trkpt>
      <trkpt lat="43.69254" lon="5.79629">
        <ele>480</ele>
        <time>2016-01-03T11:16:49.634Z</time>
      </trkpt>
      <trkpt lat="43.69259" lon="5.79623">
        <ele>480</ele>
        <time>2016-01-03T11:16:51.663Z</time>
      </trkpt>
      <trkpt lat="43.69262" lon="5.79622">
        <ele>480</ele>
        <time>2016-01-03T11:16:52.640Z</time>
      </trkpt>
      <trkpt lat="43.69268" lon="5.79628">
        <ele>480</ele>
        <time>2016-01-03T11:16:55.664Z</time>
      </trkpt>
      <trkpt lat="43.69269" lon="5.79632">
        <ele>481</ele>
        <time>2016-01-03T11:16:56.640Z</time>
      </trkpt>
      <trkpt lat="43.69271" lon="5.79643">
        <ele>481</ele>
        <time>2016-01-03T11:16:59.899Z</time>
      </trkpt>
      <trkpt lat="43.69271" lon="5.79647">
        <ele>481</ele>
        <time>2016-01-03T11:17:00.640Z</time>
      </trkpt>
      <trkpt lat="43.69269" lon="5.79657">
        <ele>481</ele>
        <time>2016-01-03T11:17:03.671Z</time>
      </trkpt>
      <trkpt lat="43.69269" lon="5.79661">
        <ele>480</ele>
        <time>2016-01-03T11:17:04.640Z</time>
      </trkpt>
      <trkpt lat="43.69269" lon="5.79672">
        <ele>480</ele>
        <time>2016-01-03T11:17:07.663Z</time>
      </trkpt>
      <trkpt lat="43.6927" lon="5.79676">
        <ele>480</ele>
        <time>2016-01-03T11:17:08.639Z</time>
      </trkpt>
      <trkpt lat="43.69272" lon="5.79685">
        <ele>479</ele>
        <time>2016-01-03T11:17:10.697Z</time>
      </trkpt>
      <trkpt lat="43.69273" lon="5.79689">
        <ele>480</ele>
        <time>2016-01-03T11:17:11.640Z</time>
      </trkpt>
      <trkpt lat="43.69276" lon="5.79697">
        <ele>481</ele>
        <time>2016-01-03T11:17:13.664Z</time>
      </trkpt>
      <trkpt lat="43.69277" lon="5.79701">
        <ele>481</ele>
        <time>2016-01-03T11:17:14.640Z</time>
      </trkpt>
      <trkpt lat="43.69283" lon="5.79709">
        <ele>481</ele>
        <time>2016-01-03T11:17:17.663Z</time>
      </trkpt>
      <trkpt lat="43.69286" lon="5.79712">
        <ele>480</ele>
        <time>2016-01-03T11:17:18.632Z</time>
      </trkpt>
      <trkpt lat="43.6929" lon="5.79718">
        <ele>480</ele>
        <time>2016-01-03T11:17:20.665Z</time>
      </trkpt>
      <trkpt lat="43.69292" lon="5.79721">
        <ele>480</ele>
        <time>2016-01-03T11:17:21.666Z</time>
      </trkpt>
      <trkpt lat="43.69294" lon="5.7973">
        <ele>479</ele>
        <time>2016-01-03T11:17:23.664Z</time>
      </trkpt>
      <trkpt lat="43.69294" lon="5.79734">
        <ele>479</ele>
        <time>2016-01-03T11:17:24.640Z</time>
      </trkpt>
      <trkpt lat="43.69294" lon="5.79744">
        <ele>479</ele>
        <time>2016-01-03T11:17:26.663Z</time>
      </trkpt>
      <trkpt lat="43.69295" lon="5.7975">
        <ele>479</ele>
        <time>2016-01-03T11:17:27.640Z</time>
      </trkpt>
      <trkpt lat="43.69299" lon="5.79761">
        <ele>479</ele>
        <time>2016-01-03T11:17:29.668Z</time>
      </trkpt>
      <trkpt lat="43.69301" lon="5.79766">
        <ele>478</ele>
        <time>2016-01-03T11:17:30.640Z</time>
      </trkpt>
      <trkpt lat="43.69303" lon="5.79772">
        <ele>478</ele>
        <time>2016-01-03T11:17:31.664Z</time>
      </trkpt>
      <trkpt lat="43.69304" lon="5.79779">
        <ele>478</ele>
        <time>2016-01-03T11:17:32.667Z</time>
      </trkpt>
      <trkpt lat="43.69305" lon="5.79786">
        <ele>478</ele>
        <time>2016-01-03T11:17:33.664Z</time>
      </trkpt>
      <trkpt lat="43.69305" lon="5.79792">
        <ele>477</ele>
        <time>2016-01-03T11:17:34.640Z</time>
      </trkpt>
      <trkpt lat="43.69305" lon="5.798">
        <ele>476</ele>
        <time>2016-01-03T11:17:35.678Z</time>
      </trkpt>
      <trkpt lat="43.69305" lon="5.79807">
        <ele>477</ele>
        <time>2016-01-03T11:17:36.631Z</time>
      </trkpt>
      <trkpt lat="43.69306" lon="5.79814">
        <ele>476</ele>
        <time>2016-01-03T11:17:37.665Z</time>
      </trkpt>
      <trkpt lat="43.69307" lon="5.79821">
        <ele>477</ele>
        <time>2016-01-03T11:17:38.641Z</time>
      </trkpt>
      <trkpt lat="43.69307" lon="5.79827">
        <ele>477</ele>
        <time>2016-01-03T11:17:39.666Z</time>
      </trkpt>
      <trkpt lat="43.69307" lon="5.79834">
        <ele>476</ele>
        <time>2016-01-03T11:17:40.643Z</time>
      </trkpt>
      <trkpt lat="43.69308" lon="5.79842">
        <ele>476</ele>
        <time>2016-01-03T11:17:41.667Z</time>
      </trkpt>
      <trkpt lat="43.69309" lon="5.79849">
        <ele>475</ele>
        <time>2016-01-03T11:17:42.642Z</time>
      </trkpt>
      <trkpt lat="43.6931" lon="5.79857">
        <ele>475</ele>
        <time>2016-01-03T11:17:43.745Z</time>
      </trkpt>
      <trkpt lat="43.6931" lon="5.79864">
        <ele>475</ele>
        <time>2016-01-03T11:17:44.640Z</time>
      </trkpt>
      <trkpt lat="43.69311" lon="5.79873">
        <ele>475</ele>
        <time>2016-01-03T11:17:46.881Z</time>
      </trkpt>
      <trkpt lat="43.69311" lon="5.79879">
        <ele>474</ele>
        <time>2016-01-03T11:17:47.630Z</time>
      </trkpt>
      <trkpt lat="43.69311" lon="5.7989">
        <ele>473</ele>
        <time>2016-01-03T11:17:49.665Z</time>
      </trkpt>
      <trkpt lat="43.69311" lon="5.79897">
        <ele>473</ele>
        <time>2016-01-03T11:17:50.640Z</time>
      </trkpt>
      <trkpt lat="43.69312" lon="5.79907">
        <ele>475</ele>
        <time>2016-01-03T11:17:52.664Z</time>
      </trkpt>
      <trkpt lat="43.69313" lon="5.79914">
        <ele>475</ele>
        <time>2016-01-03T11:17:53.640Z</time>
      </trkpt>
      <trkpt lat="43.69313" lon="5.79921">
        <ele>475</ele>
        <time>2016-01-03T11:17:54.673Z</time>
      </trkpt>
      <trkpt lat="43.69313" lon="5.79927">
        <ele>475</ele>
        <time>2016-01-03T11:17:55.639Z</time>
      </trkpt>
      <trkpt lat="43.69314" lon="5.79934">
        <ele>475</ele>
        <time>2016-01-03T11:17:56.664Z</time>
      </trkpt>
      <trkpt lat="43.69315" lon="5.7994">
        <ele>476</ele>
        <time>2016-01-03T11:17:57.639Z</time>
      </trkpt>
      <trkpt lat="43.69314" lon="5.79948">
        <ele>476</ele>
        <time>2016-01-03T11:17:58.652Z</time>
      </trkpt>
      <trkpt lat="43.69315" lon="5.79955">
        <ele>476</ele>
        <time>2016-01-03T11:17:59.652Z</time>
      </trkpt>
      <trkpt lat="43.69315" lon="5.79961">
        <ele>477</ele>
        <time>2016-01-03T11:18:00.665Z</time>
      </trkpt>
      <trkpt lat="43.69316" lon="5.7997">
        <ele>477</ele>
        <time>2016-01-03T11:18:01.652Z</time>
      </trkpt>
      <trkpt lat="43.69316" lon="5.79977">
        <ele>476</ele>
        <time>2016-01-03T11:18:02.677Z</time>
      </trkpt>
      <trkpt lat="43.69317" lon="5.79984">
        <ele>476</ele>
        <time>2016-01-03T11:18:03.641Z</time>
      </trkpt>
      <trkpt lat="43.69317" lon="5.7999">
        <ele>476</ele>
        <time>2016-01-03T11:18:04.664Z</time>
      </trkpt>
      <trkpt lat="43.69319" lon="5.79998">
        <ele>476</ele>
        <time>2016-01-03T11:18:05.640Z</time>
      </trkpt>
      <trkpt lat="43.6932" lon="5.80005">
        <ele>476</ele>
        <time>2016-01-03T11:18:06.664Z</time>
      </trkpt>
      <trkpt lat="43.69321" lon="5.80014">
        <ele>475</ele>
        <time>2016-01-03T11:18:07.640Z</time>
      </trkpt>
      <trkpt lat="43.69323" lon="5.80025">
        <ele>477</ele>
        <time>2016-01-03T11:18:09.664Z</time>
      </trkpt>
      <trkpt lat="43.69324" lon="5.80032">
        <ele>477</ele>
        <time>2016-01-03T11:18:10.667Z</time>
      </trkpt>
      <trkpt lat="43.69325" lon="5.80039">
        <ele>477</ele>
        <time>2016-01-03T11:18:11.664Z</time>
      </trkpt>
      <trkpt lat="43.69326" lon="5.80044">
        <ele>478</ele>
        <time>2016-01-03T11:18:12.652Z</time>
      </trkpt>
      <trkpt lat="43.69328" lon="5.80051">
        <ele>478</ele>
        <time>2016-01-03T11:18:13.663Z</time>
      </trkpt>
      <trkpt lat="43.69329" lon="5.80057">
        <ele>478</ele>
        <time>2016-01-03T11:18:14.642Z</time>
      </trkpt>
      <trkpt lat="43.69329" lon="5.80062">
        <ele>477</ele>
        <time>2016-01-03T11:18:15.663Z</time>
      </trkpt>
      <trkpt lat="43.6933" lon="5.80069">
        <ele>478</ele>
        <time>2016-01-03T11:18:16.641Z</time>
      </trkpt>
      <trkpt lat="43.69333" lon="5.8008">
        <ele>481</ele>
        <time>2016-01-03T11:18:18.676Z</time>
      </trkpt>
      <trkpt lat="43.69336" lon="5.80085">
        <ele>480</ele>
        <time>2016-01-03T11:18:19.641Z</time>
      </trkpt>
      <trkpt lat="43.69338" lon="5.80091">
        <ele>480</ele>
        <time>2016-01-03T11:18:20.725Z</time>
      </trkpt>
      <trkpt lat="43.6934" lon="5.80098">
        <ele>479</ele>
        <time>2016-01-03T11:18:21.680Z</time>
      </trkpt>
      <trkpt lat="43.69343" lon="5.80109">
        <ele>481</ele>
        <time>2016-01-03T11:18:23.663Z</time>
      </trkpt>
      <trkpt lat="43.69346" lon="5.80115">
        <ele>481</ele>
        <time>2016-01-03T11:18:24.641Z</time>
      </trkpt>
      <trkpt lat="43.69348" lon="5.80121">
        <ele>480</ele>
        <time>2016-01-03T11:18:25.663Z</time>
      </trkpt>
      <trkpt lat="43.69351" lon="5.80126">
        <ele>480</ele>
        <time>2016-01-03T11:18:26.639Z</time>
      </trkpt>
      <trkpt lat="43.69355" lon="5.80136">
        <ele>480</ele>
        <time>2016-01-03T11:18:28.665Z</time>
      </trkpt>
      <trkpt lat="43.69356" lon="5.80142">
        <ele>480</ele>
        <time>2016-01-03T11:18:29.652Z</time>
      </trkpt>
      <trkpt lat="43.69359" lon="5.80153">
        <ele>480</ele>
        <time>2016-01-03T11:18:31.666Z</time>
      </trkpt>
      <trkpt lat="43.6936" lon="5.80158">
        <ele>480</ele>
        <time>2016-01-03T11:18:32.666Z</time>
      </trkpt>
      <trkpt lat="43.69362" lon="5.8017">
        <ele>481</ele>
        <time>2016-01-03T11:18:34.663Z</time>
      </trkpt>
      <trkpt lat="43.69363" lon="5.80176">
        <ele>481</ele>
        <time>2016-01-03T11:18:35.639Z</time>
      </trkpt>
      <trkpt lat="43.69362" lon="5.80188">
        <ele>482</ele>
        <time>2016-01-03T11:18:37.665Z</time>
      </trkpt>
      <trkpt lat="43.69361" lon="5.80194">
        <ele>482</ele>
        <time>2016-01-03T11:18:38.641Z</time>
      </trkpt>
      <trkpt lat="43.69359" lon="5.80205">
        <ele>484</ele>
        <time>2016-01-03T11:18:40.664Z</time>
      </trkpt>
      <trkpt lat="43.69358" lon="5.80211">
        <ele>485</ele>
        <time>2016-01-03T11:18:41.641Z</time>
      </trkpt>
      <trkpt lat="43.69357" lon="5.80223">
        <ele>487</ele>
        <time>2016-01-03T11:18:43.905Z</time>
      </trkpt>
      <trkpt lat="43.69357" lon="5.80228">
        <ele>488</ele>
        <time>2016-01-03T11:18:44.640Z</time>
      </trkpt>
      <trkpt lat="43.69357" lon="5.80237">
        <ele>489</ele>
        <time>2016-01-03T11:18:46.661Z</time>
      </trkpt>
      <trkpt lat="43.69357" lon="5.80242">
        <ele>489</ele>
        <time>2016-01-03T11:18:47.642Z</time>
      </trkpt>
      <trkpt lat="43.69357" lon="5.80251">
        <ele>488</ele>
        <time>2016-01-03T11:18:49.668Z</time>
      </trkpt>
      <trkpt lat="43.69357" lon="5.80255">
        <ele>488</ele>
        <time>2016-01-03T11:18:50.642Z</time>
      </trkpt>
      <trkpt lat="43.69357" lon="5.80265">
        <ele>488</ele>
        <time>2016-01-03T11:18:52.665Z</time>
      </trkpt>
      <trkpt lat="43.69357" lon="5.80269">
        <ele>488</ele>
        <time>2016-01-03T11:18:53.640Z</time>
      </trkpt>
      <trkpt lat="43.69357" lon="5.80278">
        <ele>489</ele>
        <time>2016-01-03T11:18:55.886Z</time>
      </trkpt>
      <trkpt lat="43.69357" lon="5.80283">
        <ele>489</ele>
        <time>2016-01-03T11:18:56.643Z</time>
      </trkpt>
      <trkpt lat="43.69357" lon="5.80292">
        <ele>489</ele>
        <time>2016-01-03T11:18:58.665Z</time>
      </trkpt>
      <trkpt lat="43.69356" lon="5.80297">
        <ele>490</ele>
        <time>2016-01-03T11:18:59.641Z</time>
      </trkpt>
      <trkpt lat="43.69356" lon="5.80306">
        <ele>491</ele>
        <time>2016-01-03T11:19:01.666Z</time>
      </trkpt>
      <trkpt lat="43.69356" lon="5.8031">
        <ele>491</ele>
        <time>2016-01-03T11:19:02.652Z</time>
      </trkpt>
      <trkpt lat="43.69355" lon="5.80319">
        <ele>491</ele>
        <time>2016-01-03T11:19:04.665Z</time>
      </trkpt>
      <trkpt lat="43.69355" lon="5.80324">
        <ele>491</ele>
        <time>2016-01-03T11:19:05.652Z</time>
      </trkpt>
      <trkpt lat="43.69356" lon="5.80332">
        <ele>491</ele>
        <time>2016-01-03T11:19:07.886Z</time>
      </trkpt>
      <trkpt lat="43.69356" lon="5.80337">
        <ele>491</ele>
        <time>2016-01-03T11:19:08.641Z</time>
      </trkpt>
      <trkpt lat="43.69355" lon="5.80345">
        <ele>493</ele>
        <time>2016-01-03T11:19:10.691Z</time>
      </trkpt>
      <trkpt lat="43.69355" lon="5.8035">
        <ele>492</ele>
        <time>2016-01-03T11:19:11.643Z</time>
      </trkpt>
      <trkpt lat="43.69355" lon="5.80359">
        <ele>491</ele>
        <time>2016-01-03T11:19:13.665Z</time>
      </trkpt>
      <trkpt lat="43.69355" lon="5.80364">
        <ele>490</ele>
        <time>2016-01-03T11:19:14.641Z</time>
      </trkpt>
      <trkpt lat="43.69355" lon="5.80373">
        <ele>489</ele>
        <time>2016-01-03T11:19:16.740Z</time>
      </trkpt>
      <trkpt lat="43.69355" lon="5.80378">
        <ele>490</ele>
        <time>2016-01-03T11:19:17.642Z</time>
      </trkpt>
      <trkpt lat="43.69354" lon="5.80387">
        <ele>490</ele>
        <time>2016-01-03T11:19:19.888Z</time>
      </trkpt>
      <trkpt lat="43.69354" lon="5.80392">
        <ele>491</ele>
        <time>2016-01-03T11:19:20.641Z</time>
      </trkpt>
      <trkpt lat="43.69353" lon="5.80401">
        <ele>492</ele>
        <time>2016-01-03T11:19:22.664Z</time>
      </trkpt>
      <trkpt lat="43.69353" lon="5.80405">
        <ele>492</ele>
        <time>2016-01-03T11:19:23.640Z</time>
      </trkpt>
      <trkpt lat="43.69353" lon="5.80415">
        <ele>491</ele>
        <time>2016-01-03T11:19:25.664Z</time>
      </trkpt>
      <trkpt lat="43.69352" lon="5.80419">
        <ele>491</ele>
        <time>2016-01-03T11:19:26.640Z</time>
      </trkpt>
      <trkpt lat="43.69351" lon="5.80429">
        <ele>490</ele>
        <time>2016-01-03T11:19:28.659Z</time>
      </trkpt>
      <trkpt lat="43.6935" lon="5.80433">
        <ele>489</ele>
        <time>2016-01-03T11:19:29.642Z</time>
      </trkpt>
      <trkpt lat="43.69349" lon="5.80443">
        <ele>490</ele>
        <time>2016-01-03T11:19:31.892Z</time>
      </trkpt>
      <trkpt lat="43.69349" lon="5.80448">
        <ele>491</ele>
        <time>2016-01-03T11:19:32.669Z</time>
      </trkpt>
      <trkpt lat="43.69348" lon="5.80459">
        <ele>492</ele>
        <time>2016-01-03T11:19:34.667Z</time>
      </trkpt>
      <trkpt lat="43.69348" lon="5.80464">
        <ele>492</ele>
        <time>2016-01-03T11:19:35.642Z</time>
      </trkpt>
      <trkpt lat="43.69348" lon="5.80474">
        <ele>490</ele>
        <time>2016-01-03T11:19:37.680Z</time>
      </trkpt>
      <trkpt lat="43.69348" lon="5.80479">
        <ele>491</ele>
        <time>2016-01-03T11:19:38.643Z</time>
      </trkpt>
      <trkpt lat="43.69348" lon="5.80489">
        <ele>492</ele>
        <time>2016-01-03T11:19:40.679Z</time>
      </trkpt>
      <trkpt lat="43.69347" lon="5.80495">
        <ele>491</ele>
        <time>2016-01-03T11:19:41.652Z</time>
      </trkpt>
      <trkpt lat="43.69346" lon="5.80505">
        <ele>489</ele>
        <time>2016-01-03T11:19:43.693Z</time>
      </trkpt>
      <trkpt lat="43.69346" lon="5.8051">
        <ele>490</ele>
        <time>2016-01-03T11:19:44.640Z</time>
      </trkpt>
      <trkpt lat="43.69347" lon="5.8052">
        <ele>490</ele>
        <time>2016-01-03T11:19:46.664Z</time>
      </trkpt>
      <trkpt lat="43.69348" lon="5.80525">
        <ele>490</ele>
        <time>2016-01-03T11:19:47.641Z</time>
      </trkpt>
      <trkpt lat="43.69349" lon="5.80535">
        <ele>489</ele>
        <time>2016-01-03T11:19:49.665Z</time>
      </trkpt>
      <trkpt lat="43.69349" lon="5.80541">
        <ele>487</ele>
        <time>2016-01-03T11:19:50.652Z</time>
      </trkpt>
      <trkpt lat="43.69349" lon="5.80553">
        <ele>487</ele>
        <time>2016-01-03T11:19:52.664Z</time>
      </trkpt>
      <trkpt lat="43.69348" lon="5.80559">
        <ele>487</ele>
        <time>2016-01-03T11:19:53.640Z</time>
      </trkpt>
      <trkpt lat="43.69346" lon="5.8057">
        <ele>486</ele>
        <time>2016-01-03T11:19:55.653Z</time>
      </trkpt>
      <trkpt lat="43.69345" lon="5.80575">
        <ele>486</ele>
        <time>2016-01-03T11:19:56.641Z</time>
      </trkpt>
      <trkpt lat="43.69343" lon="5.80584">
        <ele>487</ele>
        <time>2016-01-03T11:19:58.665Z</time>
      </trkpt>
      <trkpt lat="43.69342" lon="5.80589">
        <ele>488</ele>
        <time>2016-01-03T11:19:59.643Z</time>
      </trkpt>
      <trkpt lat="43.69339" lon="5.80599">
        <ele>487</ele>
        <time>2016-01-03T11:20:01.664Z</time>
      </trkpt>
      <trkpt lat="43.69337" lon="5.80604">
        <ele>487</ele>
        <time>2016-01-03T11:20:02.640Z</time>
      </trkpt>
      <trkpt lat="43.69333" lon="5.80613">
        <ele>486</ele>
        <time>2016-01-03T11:20:04.665Z</time>
      </trkpt>
      <trkpt lat="43.6933" lon="5.80618">
        <ele>486</ele>
        <time>2016-01-03T11:20:05.640Z</time>
      </trkpt>
      <trkpt lat="43.69326" lon="5.80627">
        <ele>486</ele>
        <time>2016-01-03T11:20:07.676Z</time>
      </trkpt>
      <trkpt lat="43.69323" lon="5.80632">
        <ele>485</ele>
        <time>2016-01-03T11:20:08.641Z</time>
      </trkpt>
      <trkpt lat="43.69319" lon="5.80639">
        <ele>485</ele>
        <time>2016-01-03T11:20:09.653Z</time>
      </trkpt>
      <trkpt lat="43.69316" lon="5.80645">
        <ele>486</ele>
        <time>2016-01-03T11:20:10.677Z</time>
      </trkpt>
      <trkpt lat="43.69313" lon="5.8065">
        <ele>486</ele>
        <time>2016-01-03T11:20:11.677Z</time>
      </trkpt>
      <trkpt lat="43.6931" lon="5.80656">
        <ele>485</ele>
        <time>2016-01-03T11:20:12.640Z</time>
      </trkpt>
      <trkpt lat="43.69307" lon="5.80662">
        <ele>485</ele>
        <time>2016-01-03T11:20:13.664Z</time>
      </trkpt>
      <trkpt lat="43.69303" lon="5.80667">
        <ele>485</ele>
        <time>2016-01-03T11:20:14.653Z</time>
      </trkpt>
      <trkpt lat="43.693" lon="5.80672">
        <ele>486</ele>
        <time>2016-01-03T11:20:15.677Z</time>
      </trkpt>
      <trkpt lat="43.69297" lon="5.80677">
        <ele>486</ele>
        <time>2016-01-03T11:20:16.641Z</time>
      </trkpt>
      <trkpt lat="43.69293" lon="5.80682">
        <ele>487</ele>
        <time>2016-01-03T11:20:17.818Z</time>
      </trkpt>
      <trkpt lat="43.69289" lon="5.80688">
        <ele>488</ele>
        <time>2016-01-03T11:20:18.645Z</time>
      </trkpt>
      <trkpt lat="43.69284" lon="5.80695">
        <ele>486</ele>
        <time>2016-01-03T11:20:19.652Z</time>
      </trkpt>
      <trkpt lat="43.69279" lon="5.80701">
        <ele>485</ele>
        <time>2016-01-03T11:20:20.652Z</time>
      </trkpt>
      <trkpt lat="43.69274" lon="5.80706">
        <ele>485</ele>
        <time>2016-01-03T11:20:21.706Z</time>
      </trkpt>
      <trkpt lat="43.69269" lon="5.80711">
        <ele>485</ele>
        <time>2016-01-03T11:20:22.640Z</time>
      </trkpt>
      <trkpt lat="43.69263" lon="5.80717">
        <ele>484</ele>
        <time>2016-01-03T11:20:23.673Z</time>
      </trkpt>
      <trkpt lat="43.69259" lon="5.80721">
        <ele>484</ele>
        <time>2016-01-03T11:20:24.652Z</time>
      </trkpt>
      <trkpt lat="43.69254" lon="5.80729">
        <ele>482</ele>
        <time>2016-01-03T11:20:25.666Z</time>
      </trkpt>
      <trkpt lat="43.69248" lon="5.80736">
        <ele>482</ele>
        <time>2016-01-03T11:20:26.652Z</time>
      </trkpt>
      <trkpt lat="43.69248" lon="5.80736">
        <ele>482</ele>
        <time>2016-01-03T11:20:26.683Z</time>
      </trkpt>
      <trkpt lat="43.69241" lon="5.80743">
        <ele>480</ele>
        <time>2016-01-03T11:20:27.651Z</time>
      </trkpt>
      <trkpt lat="43.69234" lon="5.8075">
        <ele>479</ele>
        <time>2016-01-03T11:20:28.725Z</time>
      </trkpt>
      <trkpt lat="43.69227" lon="5.80756">
        <ele>478</ele>
        <time>2016-01-03T11:20:29.642Z</time>
      </trkpt>
      <trkpt lat="43.69221" lon="5.80762">
        <ele>477</ele>
        <time>2016-01-03T11:20:30.675Z</time>
      </trkpt>
      <trkpt lat="43.69214" lon="5.80767">
        <ele>477</ele>
        <time>2016-01-03T11:20:31.641Z</time>
      </trkpt>
      <trkpt lat="43.69207" lon="5.80771">
        <ele>478</ele>
        <time>2016-01-03T11:20:32.691Z</time>
      </trkpt>
      <trkpt lat="43.69201" lon="5.80776">
        <ele>478</ele>
        <time>2016-01-03T11:20:33.643Z</time>
      </trkpt>
      <trkpt lat="43.69195" lon="5.80782">
        <ele>477</ele>
        <time>2016-01-03T11:20:34.665Z</time>
      </trkpt>
      <trkpt lat="43.69189" lon="5.80787">
        <ele>477</ele>
        <time>2016-01-03T11:20:35.653Z</time>
      </trkpt>
      <trkpt lat="43.69183" lon="5.80792">
        <ele>477</ele>
        <time>2016-01-03T11:20:36.660Z</time>
      </trkpt>
      <trkpt lat="43.69178" lon="5.80797">
        <ele>477</ele>
        <time>2016-01-03T11:20:37.643Z</time>
      </trkpt>
      <trkpt lat="43.69172" lon="5.80801">
        <ele>477</ele>
        <time>2016-01-03T11:20:38.667Z</time>
      </trkpt>
      <trkpt lat="43.69167" lon="5.80804">
        <ele>477</ele>
        <time>2016-01-03T11:20:39.662Z</time>
      </trkpt>
      <trkpt lat="43.69162" lon="5.80809">
        <ele>476</ele>
        <time>2016-01-03T11:20:40.653Z</time>
      </trkpt>
      <trkpt lat="43.69157" lon="5.80813">
        <ele>477</ele>
        <time>2016-01-03T11:20:41.652Z</time>
      </trkpt>
      <trkpt lat="43.69152" lon="5.80817">
        <ele>477</ele>
        <time>2016-01-03T11:20:42.676Z</time>
      </trkpt>
      <trkpt lat="43.69147" lon="5.80821">
        <ele>477</ele>
        <time>2016-01-03T11:20:43.668Z</time>
      </trkpt>
      <trkpt lat="43.69142" lon="5.80825">
        <ele>477</ele>
        <time>2016-01-03T11:20:44.666Z</time>
      </trkpt>
      <trkpt lat="43.69136" lon="5.80829">
        <ele>476</ele>
        <time>2016-01-03T11:20:45.641Z</time>
      </trkpt>
      <trkpt lat="43.6913" lon="5.80831">
        <ele>476</ele>
        <time>2016-01-03T11:20:46.665Z</time>
      </trkpt>
      <trkpt lat="43.69125" lon="5.80835">
        <ele>476</ele>
        <time>2016-01-03T11:20:47.641Z</time>
      </trkpt>
      <trkpt lat="43.69121" lon="5.80839">
        <ele>476</ele>
        <time>2016-01-03T11:20:48.665Z</time>
      </trkpt>
      <trkpt lat="43.69116" lon="5.80843">
        <ele>476</ele>
        <time>2016-01-03T11:20:49.645Z</time>
      </trkpt>
      <trkpt lat="43.69111" lon="5.80848">
        <ele>476</ele>
        <time>2016-01-03T11:20:50.667Z</time>
      </trkpt>
      <trkpt lat="43.69107" lon="5.80852">
        <ele>475</ele>
        <time>2016-01-03T11:20:51.639Z</time>
      </trkpt>
      <trkpt lat="43.69103" lon="5.80855">
        <ele>476</ele>
        <time>2016-01-03T11:20:52.664Z</time>
      </trkpt>
      <trkpt lat="43.69098" lon="5.80859">
        <ele>476</ele>
        <time>2016-01-03T11:20:53.642Z</time>
      </trkpt>
      <trkpt lat="43.69094" lon="5.80862">
        <ele>475</ele>
        <time>2016-01-03T11:20:54.674Z</time>
      </trkpt>
      <trkpt lat="43.6909" lon="5.80865">
        <ele>476</ele>
        <time>2016-01-03T11:20:55.642Z</time>
      </trkpt>
      <trkpt lat="43.69085" lon="5.80868">
        <ele>477</ele>
        <time>2016-01-03T11:20:56.665Z</time>
      </trkpt>
      <trkpt lat="43.69081" lon="5.80871">
        <ele>478</ele>
        <time>2016-01-03T11:20:57.653Z</time>
      </trkpt>
      <trkpt lat="43.69076" lon="5.80875">
        <ele>478</ele>
        <time>2016-01-03T11:20:58.666Z</time>
      </trkpt>
      <trkpt lat="43.69072" lon="5.80878">
        <ele>479</ele>
        <time>2016-01-03T11:20:59.641Z</time>
      </trkpt>
      <trkpt lat="43.69068" lon="5.80881">
        <ele>479</ele>
        <time>2016-01-03T11:21:00.664Z</time>
      </trkpt>
      <trkpt lat="43.69064" lon="5.80883">
        <ele>479</ele>
        <time>2016-01-03T11:21:01.641Z</time>
      </trkpt>
      <trkpt lat="43.69059" lon="5.80886">
        <ele>479</ele>
        <time>2016-01-03T11:21:02.663Z</time>
      </trkpt>
      <trkpt lat="43.69054" lon="5.80888">
        <ele>478</ele>
        <time>2016-01-03T11:21:03.652Z</time>
      </trkpt>
      <trkpt lat="43.69047" lon="5.80894">
        <ele>478</ele>
        <time>2016-01-03T11:21:05.665Z</time>
      </trkpt>
      <trkpt lat="43.69043" lon="5.80898">
        <ele>478</ele>
        <time>2016-01-03T11:21:06.642Z</time>
      </trkpt>
      <trkpt lat="43.69039" lon="5.80902">
        <ele>478</ele>
        <time>2016-01-03T11:21:07.663Z</time>
      </trkpt>
      <trkpt lat="43.69035" lon="5.80906">
        <ele>477</ele>
        <time>2016-01-03T11:21:08.642Z</time>
      </trkpt>
      <trkpt lat="43.69032" lon="5.80912">
        <ele>477</ele>
        <time>2016-01-03T11:21:09.665Z</time>
      </trkpt>
      <trkpt lat="43.69029" lon="5.80916">
        <ele>477</ele>
        <time>2016-01-03T11:21:10.680Z</time>
      </trkpt>
      <trkpt lat="43.69023" lon="5.80926">
        <ele>476</ele>
        <time>2016-01-03T11:21:12.888Z</time>
      </trkpt>
      <trkpt lat="43.6902" lon="5.8093">
        <ele>476</ele>
        <time>2016-01-03T11:21:13.642Z</time>
      </trkpt>
      <trkpt lat="43.69017" lon="5.80935">
        <ele>477</ele>
        <time>2016-01-03T11:21:14.665Z</time>
      </trkpt>
      <trkpt lat="43.69014" lon="5.8094">
        <ele>477</ele>
        <time>2016-01-03T11:21:15.641Z</time>
      </trkpt>
      <trkpt lat="43.6901" lon="5.80944">
        <ele>476</ele>
        <time>2016-01-03T11:21:16.667Z</time>
      </trkpt>
      <trkpt lat="43.69006" lon="5.80948">
        <ele>476</ele>
        <time>2016-01-03T11:21:17.642Z</time>
      </trkpt>
      <trkpt lat="43.69003" lon="5.80953">
        <ele>476</ele>
        <time>2016-01-03T11:21:18.664Z</time>
      </trkpt>
      <trkpt lat="43.68999" lon="5.80957">
        <ele>476</ele>
        <time>2016-01-03T11:21:19.641Z</time>
      </trkpt>
      <trkpt lat="43.68997" lon="5.80963">
        <ele>476</ele>
        <time>2016-01-03T11:21:20.677Z</time>
      </trkpt>
      <trkpt lat="43.68995" lon="5.80971">
        <ele>475</ele>
        <time>2016-01-03T11:21:21.666Z</time>
      </trkpt>
      <trkpt lat="43.68993" lon="5.80977">
        <ele>476</ele>
        <time>2016-01-03T11:21:22.667Z</time>
      </trkpt>
      <trkpt lat="43.6899" lon="5.80984">
        <ele>477</ele>
        <time>2016-01-03T11:21:23.653Z</time>
      </trkpt>
      <trkpt lat="43.68987" lon="5.80991">
        <ele>477</ele>
        <time>2016-01-03T11:21:24.667Z</time>
      </trkpt>
      <trkpt lat="43.68985" lon="5.81">
        <ele>477</ele>
        <time>2016-01-03T11:21:25.641Z</time>
      </trkpt>
      <trkpt lat="43.68982" lon="5.81008">
        <ele>476</ele>
        <time>2016-01-03T11:21:26.681Z</time>
      </trkpt>
      <trkpt lat="43.68979" lon="5.81015">
        <ele>476</ele>
        <time>2016-01-03T11:21:27.644Z</time>
      </trkpt>
      <trkpt lat="43.68975" lon="5.81021">
        <ele>477</ele>
        <time>2016-01-03T11:21:28.667Z</time>
      </trkpt>
      <trkpt lat="43.68973" lon="5.81027">
        <ele>476</ele>
        <time>2016-01-03T11:21:29.642Z</time>
      </trkpt>
      <trkpt lat="43.68971" lon="5.81033">
        <ele>476</ele>
        <time>2016-01-03T11:21:30.669Z</time>
      </trkpt>
      <trkpt lat="43.6897" lon="5.8104">
        <ele>475</ele>
        <time>2016-01-03T11:21:31.654Z</time>
      </trkpt>
      <trkpt lat="43.68968" lon="5.81046">
        <ele>475</ele>
        <time>2016-01-03T11:21:32.717Z</time>
      </trkpt>
      <trkpt lat="43.68967" lon="5.81053">
        <ele>475</ele>
        <time>2016-01-03T11:21:33.642Z</time>
      </trkpt>
      <trkpt lat="43.68965" lon="5.81064">
        <ele>476</ele>
        <time>2016-01-03T11:21:35.661Z</time>
      </trkpt>
      <trkpt lat="43.68964" lon="5.8107">
        <ele>476</ele>
        <time>2016-01-03T11:21:36.643Z</time>
      </trkpt>
      <trkpt lat="43.68962" lon="5.81081">
        <ele>478</ele>
        <time>2016-01-03T11:21:38.678Z</time>
      </trkpt>
      <trkpt lat="43.68961" lon="5.81087">
        <ele>479</ele>
        <time>2016-01-03T11:21:39.641Z</time>
      </trkpt>
      <trkpt lat="43.68961" lon="5.81093">
        <ele>479</ele>
        <time>2016-01-03T11:21:40.666Z</time>
      </trkpt>
      <trkpt lat="43.6896" lon="5.811">
        <ele>478</ele>
        <time>2016-01-03T11:21:41.643Z</time>
      </trkpt>
      <trkpt lat="43.68959" lon="5.81111">
        <ele>478</ele>
        <time>2016-01-03T11:21:43.703Z</time>
      </trkpt>
      <trkpt lat="43.68958" lon="5.81115">
        <ele>479</ele>
        <time>2016-01-03T11:21:44.649Z</time>
      </trkpt>
      <trkpt lat="43.68956" lon="5.81124">
        <ele>481</ele>
        <time>2016-01-03T11:21:46.655Z</time>
      </trkpt>
      <trkpt lat="43.68956" lon="5.81129">
        <ele>481</ele>
        <time>2016-01-03T11:21:47.635Z</time>
      </trkpt>
      <trkpt lat="43.68954" lon="5.8114">
        <ele>482</ele>
        <time>2016-01-03T11:21:49.665Z</time>
      </trkpt>
      <trkpt lat="43.68953" lon="5.81145">
        <ele>483</ele>
        <time>2016-01-03T11:21:50.654Z</time>
      </trkpt>
      <trkpt lat="43.68951" lon="5.81154">
        <ele>484</ele>
        <time>2016-01-03T11:21:52.668Z</time>
      </trkpt>
      <trkpt lat="43.6895" lon="5.81159">
        <ele>484</ele>
        <time>2016-01-03T11:21:53.642Z</time>
      </trkpt>
      <trkpt lat="43.68947" lon="5.81169">
        <ele>484</ele>
        <time>2016-01-03T11:21:55.687Z</time>
      </trkpt>
      <trkpt lat="43.68945" lon="5.81175">
        <ele>484</ele>
        <time>2016-01-03T11:21:56.642Z</time>
      </trkpt>
      <trkpt lat="43.68943" lon="5.8118">
        <ele>484</ele>
        <time>2016-01-03T11:21:57.668Z</time>
      </trkpt>
      <trkpt lat="43.68941" lon="5.81188">
        <ele>479</ele>
        <time>2016-01-03T11:21:58.640Z</time>
      </trkpt>
      <trkpt lat="43.6894" lon="5.81199">
        <ele>479</ele>
        <time>2016-01-03T11:21:59.665Z</time>
      </trkpt>
      <trkpt lat="43.68938" lon="5.81207">
        <ele>477</ele>
        <time>2016-01-03T11:22:00.653Z</time>
      </trkpt>
      <trkpt lat="43.68937" lon="5.81214">
        <ele>477</ele>
        <time>2016-01-03T11:22:01.667Z</time>
      </trkpt>
      <trkpt lat="43.68935" lon="5.8122">
        <ele>477</ele>
        <time>2016-01-03T11:22:02.642Z</time>
      </trkpt>
      <trkpt lat="43.68934" lon="5.81226">
        <ele>476</ele>
        <time>2016-01-03T11:22:03.666Z</time>
      </trkpt>
      <trkpt lat="43.68932" lon="5.81234">
        <ele>477</ele>
        <time>2016-01-03T11:22:04.642Z</time>
      </trkpt>
      <trkpt lat="43.6893" lon="5.81241">
        <ele>477</ele>
        <time>2016-01-03T11:22:05.667Z</time>
      </trkpt>
      <trkpt lat="43.68928" lon="5.81248">
        <ele>476</ele>
        <time>2016-01-03T11:22:06.642Z</time>
      </trkpt>
      <trkpt lat="43.68926" lon="5.81256">
        <ele>477</ele>
        <time>2016-01-03T11:22:07.674Z</time>
      </trkpt>
      <trkpt lat="43.68925" lon="5.81264">
        <ele>476</ele>
        <time>2016-01-03T11:22:08.641Z</time>
      </trkpt>
      <trkpt lat="43.68924" lon="5.81273">
        <ele>475</ele>
        <time>2016-01-03T11:22:09.665Z</time>
      </trkpt>
      <trkpt lat="43.68923" lon="5.8128">
        <ele>475</ele>
        <time>2016-01-03T11:22:10.668Z</time>
      </trkpt>
      <trkpt lat="43.68922" lon="5.81289">
        <ele>474</ele>
        <time>2016-01-03T11:22:11.665Z</time>
      </trkpt>
      <trkpt lat="43.68921" lon="5.81298">
        <ele>474</ele>
        <time>2016-01-03T11:22:12.642Z</time>
      </trkpt>
      <trkpt lat="43.6892" lon="5.81307">
        <ele>473</ele>
        <time>2016-01-03T11:22:13.665Z</time>
      </trkpt>
      <trkpt lat="43.6892" lon="5.81314">
        <ele>474</ele>
        <time>2016-01-03T11:22:14.653Z</time>
      </trkpt>
      <trkpt lat="43.68919" lon="5.81322">
        <ele>474</ele>
        <time>2016-01-03T11:22:15.666Z</time>
      </trkpt>
      <trkpt lat="43.6892" lon="5.8133">
        <ele>473</ele>
        <time>2016-01-03T11:22:16.642Z</time>
      </trkpt>
      <trkpt lat="43.68919" lon="5.81338">
        <ele>472</ele>
        <time>2016-01-03T11:22:17.676Z</time>
      </trkpt>
      <trkpt lat="43.68918" lon="5.81345">
        <ele>472</ele>
        <time>2016-01-03T11:22:18.641Z</time>
      </trkpt>
      <trkpt lat="43.68916" lon="5.81352">
        <ele>471</ele>
        <time>2016-01-03T11:22:19.664Z</time>
      </trkpt>
      <trkpt lat="43.68913" lon="5.81358">
        <ele>471</ele>
        <time>2016-01-03T11:22:20.652Z</time>
      </trkpt>
      <trkpt lat="43.68909" lon="5.81364">
        <ele>471</ele>
        <time>2016-01-03T11:22:21.712Z</time>
      </trkpt>
      <trkpt lat="43.68907" lon="5.8137">
        <ele>471</ele>
        <time>2016-01-03T11:22:22.640Z</time>
      </trkpt>
      <trkpt lat="43.68904" lon="5.81376">
        <ele>471</ele>
        <time>2016-01-03T11:22:23.666Z</time>
      </trkpt>
      <trkpt lat="43.68901" lon="5.81383">
        <ele>471</ele>
        <time>2016-01-03T11:22:24.653Z</time>
      </trkpt>
      <trkpt lat="43.68898" lon="5.81388">
        <ele>472</ele>
        <time>2016-01-03T11:22:25.666Z</time>
      </trkpt>
      <trkpt lat="43.68896" lon="5.81394">
        <ele>472</ele>
        <time>2016-01-03T11:22:26.641Z</time>
      </trkpt>
      <trkpt lat="43.68892" lon="5.814">
        <ele>472</ele>
        <time>2016-01-03T11:22:27.677Z</time>
      </trkpt>
      <trkpt lat="43.6889" lon="5.81405">
        <ele>472</ele>
        <time>2016-01-03T11:22:28.640Z</time>
      </trkpt>
      <trkpt lat="43.68888" lon="5.81411">
        <ele>472</ele>
        <time>2016-01-03T11:22:29.930Z</time>
      </trkpt>
      <trkpt lat="43.68886" lon="5.81418">
        <ele>472</ele>
        <time>2016-01-03T11:22:30.641Z</time>
      </trkpt>
      <trkpt lat="43.68884" lon="5.81423">
        <ele>472</ele>
        <time>2016-01-03T11:22:31.664Z</time>
      </trkpt>
      <trkpt lat="43.68882" lon="5.8143">
        <ele>472</ele>
        <time>2016-01-03T11:22:32.669Z</time>
      </trkpt>
      <trkpt lat="43.68878" lon="5.8144">
        <ele>473</ele>
        <time>2016-01-03T11:22:34.667Z</time>
      </trkpt>
      <trkpt lat="43.68875" lon="5.81445">
        <ele>473</ele>
        <time>2016-01-03T11:22:35.653Z</time>
      </trkpt>
      <trkpt lat="43.68873" lon="5.8145">
        <ele>474</ele>
        <time>2016-01-03T11:22:36.661Z</time>
      </trkpt>
      <trkpt lat="43.6887" lon="5.81456">
        <ele>473</ele>
        <time>2016-01-03T11:22:37.641Z</time>
      </trkpt>
      <trkpt lat="43.68865" lon="5.81466">
        <ele>473</ele>
        <time>2016-01-03T11:22:39.666Z</time>
      </trkpt>
      <trkpt lat="43.68863" lon="5.8147">
        <ele>474</ele>
        <time>2016-01-03T11:22:40.641Z</time>
      </trkpt>
      <trkpt lat="43.6886" lon="5.81475">
        <ele>474</ele>
        <time>2016-01-03T11:22:41.665Z</time>
      </trkpt>
      <trkpt lat="43.68857" lon="5.8148">
        <ele>473</ele>
        <time>2016-01-03T11:22:42.642Z</time>
      </trkpt>
      <trkpt lat="43.68851" lon="5.81488">
        <ele>475</ele>
        <time>2016-01-03T11:22:44.665Z</time>
      </trkpt>
      <trkpt lat="43.68848" lon="5.81492">
        <ele>475</ele>
        <time>2016-01-03T11:22:45.643Z</time>
      </trkpt>
      <trkpt lat="43.68842" lon="5.81501">
        <ele>476</ele>
        <time>2016-01-03T11:22:47.675Z</time>
      </trkpt>
      <trkpt lat="43.6884" lon="5.81506">
        <ele>476</ele>
        <time>2016-01-03T11:22:48.642Z</time>
      </trkpt>
      <trkpt lat="43.68835" lon="5.81515">
        <ele>476</ele>
        <time>2016-01-03T11:22:50.664Z</time>
      </trkpt>
      <trkpt lat="43.68834" lon="5.8152">
        <ele>476</ele>
        <time>2016-01-03T11:22:51.642Z</time>
      </trkpt>
      <trkpt lat="43.68829" lon="5.8153">
        <ele>475</ele>
        <time>2016-01-03T11:22:53.736Z</time>
      </trkpt>
      <trkpt lat="43.68827" lon="5.81535">
        <ele>475</ele>
        <time>2016-01-03T11:22:54.668Z</time>
      </trkpt>
      <trkpt lat="43.68823" lon="5.81545">
        <ele>477</ele>
        <time>2016-01-03T11:22:56.664Z</time>
      </trkpt>
      <trkpt lat="43.68821" lon="5.8155">
        <ele>477</ele>
        <time>2016-01-03T11:22:57.642Z</time>
      </trkpt>
      <trkpt lat="43.68817" lon="5.81561">
        <ele>477</ele>
        <time>2016-01-03T11:22:59.677Z</time>
      </trkpt>
      <trkpt lat="43.68815" lon="5.81566">
        <ele>477</ele>
        <time>2016-01-03T11:23:00.642Z</time>
      </trkpt>
      <trkpt lat="43.68812" lon="5.81577">
        <ele>476</ele>
        <time>2016-01-03T11:23:02.667Z</time>
      </trkpt>
      <trkpt lat="43.6881" lon="5.81582">
        <ele>477</ele>
        <time>2016-01-03T11:23:03.641Z</time>
      </trkpt>
      <trkpt lat="43.68806" lon="5.81593">
        <ele>477</ele>
        <time>2016-01-03T11:23:05.665Z</time>
      </trkpt>
      <trkpt lat="43.68804" lon="5.81598">
        <ele>477</ele>
        <time>2016-01-03T11:23:06.653Z</time>
      </trkpt>
      <trkpt lat="43.688" lon="5.81608">
        <ele>477</ele>
        <time>2016-01-03T11:23:08.739Z</time>
      </trkpt>
      <trkpt lat="43.68798" lon="5.81614">
        <ele>477</ele>
        <time>2016-01-03T11:23:09.642Z</time>
      </trkpt>
      <trkpt lat="43.68794" lon="5.81624">
        <ele>478</ele>
        <time>2016-01-03T11:23:11.666Z</time>
      </trkpt>
      <trkpt lat="43.68792" lon="5.8163">
        <ele>478</ele>
        <time>2016-01-03T11:23:12.642Z</time>
      </trkpt>
      <trkpt lat="43.68788" lon="5.8164">
        <ele>479</ele>
        <time>2016-01-03T11:23:14.666Z</time>
      </trkpt>
      <trkpt lat="43.68786" lon="5.81645">
        <ele>480</ele>
        <time>2016-01-03T11:23:15.641Z</time>
      </trkpt>
      <trkpt lat="43.68783" lon="5.81656">
        <ele>480</ele>
        <time>2016-01-03T11:23:17.666Z</time>
      </trkpt>
      <trkpt lat="43.68781" lon="5.81662">
        <ele>481</ele>
        <time>2016-01-03T11:23:18.642Z</time>
      </trkpt>
      <trkpt lat="43.68778" lon="5.81673">
        <ele>482</ele>
        <time>2016-01-03T11:23:20.666Z</time>
      </trkpt>
      <trkpt lat="43.68776" lon="5.81678">
        <ele>482</ele>
        <time>2016-01-03T11:23:21.644Z</time>
      </trkpt>
      <trkpt lat="43.68772" lon="5.81689">
        <ele>482</ele>
        <time>2016-01-03T11:23:23.669Z</time>
      </trkpt>
      <trkpt lat="43.6877" lon="5.81695">
        <ele>482</ele>
        <time>2016-01-03T11:23:24.644Z</time>
      </trkpt>
      <trkpt lat="43.68768" lon="5.81706">
        <ele>482</ele>
        <time>2016-01-03T11:23:26.695Z</time>
      </trkpt>
      <trkpt lat="43.68767" lon="5.81712">
        <ele>483</ele>
        <time>2016-01-03T11:23:27.641Z</time>
      </trkpt>
      <trkpt lat="43.68766" lon="5.81724">
        <ele>483</ele>
        <time>2016-01-03T11:23:29.668Z</time>
      </trkpt>
      <trkpt lat="43.68766" lon="5.8173">
        <ele>484</ele>
        <time>2016-01-03T11:23:30.652Z</time>
      </trkpt>
      <trkpt lat="43.68765" lon="5.81742">
        <ele>483</ele>
        <time>2016-01-03T11:23:32.667Z</time>
      </trkpt>
      <trkpt lat="43.68765" lon="5.81749">
        <ele>482</ele>
        <time>2016-01-03T11:23:33.642Z</time>
      </trkpt>
      <trkpt lat="43.68765" lon="5.81755">
        <ele>482</ele>
        <time>2016-01-03T11:23:34.667Z</time>
      </trkpt>
      <trkpt lat="43.68764" lon="5.81761">
        <ele>481</ele>
        <time>2016-01-03T11:23:35.645Z</time>
      </trkpt>
      <trkpt lat="43.68763" lon="5.81773">
        <ele>481</ele>
        <time>2016-01-03T11:23:37.693Z</time>
      </trkpt>
      <trkpt lat="43.68762" lon="5.8178">
        <ele>482</ele>
        <time>2016-01-03T11:23:38.642Z</time>
      </trkpt>
      <trkpt lat="43.6876" lon="5.81786">
        <ele>481</ele>
        <time>2016-01-03T11:23:39.665Z</time>
      </trkpt>
      <trkpt lat="43.6876" lon="5.81792">
        <ele>482</ele>
        <time>2016-01-03T11:23:40.641Z</time>
      </trkpt>
      <trkpt lat="43.68758" lon="5.81804">
        <ele>482</ele>
        <time>2016-01-03T11:23:42.666Z</time>
      </trkpt>
      <trkpt lat="43.68758" lon="5.8181">
        <ele>481</ele>
        <time>2016-01-03T11:23:43.642Z</time>
      </trkpt>
      <trkpt lat="43.68758" lon="5.81816">
        <ele>481</ele>
        <time>2016-01-03T11:23:44.677Z</time>
      </trkpt>
      <trkpt lat="43.68758" lon="5.81823">
        <ele>481</ele>
        <time>2016-01-03T11:23:45.641Z</time>
      </trkpt>
      <trkpt lat="43.68757" lon="5.81834">
        <ele>481</ele>
        <time>2016-01-03T11:23:47.665Z</time>
      </trkpt>
      <trkpt lat="43.68756" lon="5.81839">
        <ele>481</ele>
        <time>2016-01-03T11:23:48.668Z</time>
      </trkpt>
      <trkpt lat="43.68755" lon="5.8185">
        <ele>483</ele>
        <time>2016-01-03T11:23:50.742Z</time>
      </trkpt>
      <trkpt lat="43.68754" lon="5.81856">
        <ele>483</ele>
        <time>2016-01-03T11:23:51.643Z</time>
      </trkpt>
      <trkpt lat="43.68753" lon="5.81862">
        <ele>483</ele>
        <time>2016-01-03T11:23:52.678Z</time>
      </trkpt>
      <trkpt lat="43.68751" lon="5.81868">
        <ele>483</ele>
        <time>2016-01-03T11:23:53.643Z</time>
      </trkpt>
      <trkpt lat="43.68746" lon="5.81879">
        <ele>482</ele>
        <time>2016-01-03T11:23:55.665Z</time>
      </trkpt>
      <trkpt lat="43.68745" lon="5.81885">
        <ele>483</ele>
        <time>2016-01-03T11:23:56.653Z</time>
      </trkpt>
      <trkpt lat="43.68742" lon="5.81895">
        <ele>483</ele>
        <time>2016-01-03T11:23:58.665Z</time>
      </trkpt>
      <trkpt lat="43.68741" lon="5.81899">
        <ele>485</ele>
        <time>2016-01-03T11:23:59.668Z</time>
      </trkpt>
      <trkpt lat="43.68739" lon="5.81909">
        <ele>486</ele>
        <time>2016-01-03T11:24:01.667Z</time>
      </trkpt>
      <trkpt lat="43.68738" lon="5.81915">
        <ele>486</ele>
        <time>2016-01-03T11:24:02.768Z</time>
      </trkpt>
      <trkpt lat="43.68735" lon="5.81924">
        <ele>486</ele>
        <time>2016-01-03T11:24:04.664Z</time>
      </trkpt>
      <trkpt lat="43.68735" lon="5.81928">
        <ele>487</ele>
        <time>2016-01-03T11:24:05.641Z</time>
      </trkpt>
      <trkpt lat="43.68733" lon="5.81938">
        <ele>487</ele>
        <time>2016-01-03T11:24:07.665Z</time>
      </trkpt>
      <trkpt lat="43.68733" lon="5.81942">
        <ele>487</ele>
        <time>2016-01-03T11:24:08.643Z</time>
      </trkpt>
      <trkpt lat="43.68733" lon="5.81952">
        <ele>487</ele>
        <time>2016-01-03T11:24:10.695Z</time>
      </trkpt>
      <trkpt lat="43.68732" lon="5.81956">
        <ele>486</ele>
        <time>2016-01-03T11:24:11.652Z</time>
      </trkpt>
      <trkpt lat="43.6873" lon="5.81965">
        <ele>486</ele>
        <time>2016-01-03T11:24:13.735Z</time>
      </trkpt>
      <trkpt lat="43.68728" lon="5.81969">
        <ele>486</ele>
        <time>2016-01-03T11:24:14.642Z</time>
      </trkpt>
      <trkpt lat="43.68725" lon="5.81977">
        <ele>489</ele>
        <time>2016-01-03T11:24:16.666Z</time>
      </trkpt>
      <trkpt lat="43.68723" lon="5.8198">
        <ele>491</ele>
        <time>2016-01-03T11:24:17.652Z</time>
      </trkpt>
      <trkpt lat="43.68718" lon="5.81991">
        <ele>489</ele>
        <time>2016-01-03T11:24:20.668Z</time>
      </trkpt>
      <trkpt lat="43.68718" lon="5.81995">
        <ele>489</ele>
        <time>2016-01-03T11:24:21.669Z</time>
      </trkpt>
      <trkpt lat="43.68717" lon="5.82007">
        <ele>490</ele>
        <time>2016-01-03T11:24:24.665Z</time>
      </trkpt>
      <trkpt lat="43.68717" lon="5.82011">
        <ele>490</ele>
        <time>2016-01-03T11:24:25.653Z</time>
      </trkpt>
      <trkpt lat="43.68717" lon="5.82023">
        <ele>488</ele>
        <time>2016-01-03T11:24:28.667Z</time>
      </trkpt>
      <trkpt lat="43.68717" lon="5.82027">
        <ele>488</ele>
        <time>2016-01-03T11:24:29.652Z</time>
      </trkpt>
      <trkpt lat="43.68718" lon="5.82035">
        <ele>487</ele>
        <time>2016-01-03T11:24:31.666Z</time>
      </trkpt>
      <trkpt lat="43.68718" lon="5.82039">
        <ele>487</ele>
        <time>2016-01-03T11:24:32.642Z</time>
      </trkpt>
      <trkpt lat="43.68718" lon="5.82048">
        <ele>488</ele>
        <time>2016-01-03T11:24:34.665Z</time>
      </trkpt>
      <trkpt lat="43.68718" lon="5.82052">
        <ele>488</ele>
        <time>2016-01-03T11:24:35.652Z</time>
      </trkpt>
      <trkpt lat="43.68717" lon="5.8206">
        <ele>488</ele>
        <time>2016-01-03T11:24:37.695Z</time>
      </trkpt>
      <trkpt lat="43.68717" lon="5.82064">
        <ele>488</ele>
        <time>2016-01-03T11:24:38.642Z</time>
      </trkpt>
      <trkpt lat="43.68717" lon="5.82073">
        <ele>487</ele>
        <time>2016-01-03T11:24:40.666Z</time>
      </trkpt>
      <trkpt lat="43.68718" lon="5.82077">
        <ele>488</ele>
        <time>2016-01-03T11:24:41.637Z</time>
      </trkpt>
      <trkpt lat="43.68721" lon="5.82087">
        <ele>488</ele>
        <time>2016-01-03T11:24:44.661Z</time>
      </trkpt>
      <trkpt lat="43.68721" lon="5.8209">
        <ele>488</ele>
        <time>2016-01-03T11:24:45.641Z</time>
      </trkpt>
      <trkpt lat="43.68721" lon="5.82099">
        <ele>488</ele>
        <time>2016-01-03T11:24:47.665Z</time>
      </trkpt>
      <trkpt lat="43.68721" lon="5.82103">
        <ele>488</ele>
        <time>2016-01-03T11:24:48.682Z</time>
      </trkpt>
      <trkpt lat="43.6872" lon="5.82112">
        <ele>488</ele>
        <time>2016-01-03T11:24:50.665Z</time>
      </trkpt>
      <trkpt lat="43.6872" lon="5.82116">
        <ele>489</ele>
        <time>2016-01-03T11:24:51.654Z</time>
      </trkpt>
      <trkpt lat="43.68718" lon="5.82128">
        <ele>488</ele>
        <time>2016-01-03T11:24:54.658Z</time>
      </trkpt>
      <trkpt lat="43.68716" lon="5.82132">
        <ele>488</ele>
        <time>2016-01-03T11:24:55.642Z</time>
      </trkpt>
      <trkpt lat="43.68713" lon="5.82139">
        <ele>489</ele>
        <time>2016-01-03T11:24:57.666Z</time>
      </trkpt>
      <trkpt lat="43.68711" lon="5.82142">
        <ele>489</ele>
        <time>2016-01-03T11:24:58.642Z</time>
      </trkpt>
      <trkpt lat="43.68708" lon="5.8215">
        <ele>490</ele>
        <time>2016-01-03T11:25:00.667Z</time>
      </trkpt>
      <trkpt lat="43.68706" lon="5.82154">
        <ele>489</ele>
        <time>2016-01-03T11:25:01.652Z</time>
      </trkpt>
      <trkpt lat="43.68703" lon="5.82161">
        <ele>490</ele>
        <time>2016-01-03T11:25:03.665Z</time>
      </trkpt>
      <trkpt lat="43.68701" lon="5.82165">
        <ele>491</ele>
        <time>2016-01-03T11:25:04.654Z</time>
      </trkpt>
      <trkpt lat="43.68696" lon="5.82172">
        <ele>490</ele>
        <time>2016-01-03T11:25:06.744Z</time>
      </trkpt>
      <trkpt lat="43.68693" lon="5.82175">
        <ele>490</ele>
        <time>2016-01-03T11:25:07.645Z</time>
      </trkpt>
      <trkpt lat="43.68688" lon="5.82181">
        <ele>491</ele>
        <time>2016-01-03T11:25:09.678Z</time>
      </trkpt>
      <trkpt lat="43.68686" lon="5.82185">
        <ele>491</ele>
        <time>2016-01-03T11:25:10.642Z</time>
      </trkpt>
      <trkpt lat="43.68681" lon="5.82192">
        <ele>492</ele>
        <time>2016-01-03T11:25:12.664Z</time>
      </trkpt>
      <trkpt lat="43.68678" lon="5.82196">
        <ele>491</ele>
        <time>2016-01-03T11:25:13.642Z</time>
      </trkpt>
      <trkpt lat="43.68673" lon="5.82203">
        <ele>492</ele>
        <time>2016-01-03T11:25:15.695Z</time>
      </trkpt>
      <trkpt lat="43.68671" lon="5.82208">
        <ele>492</ele>
        <time>2016-01-03T11:25:16.643Z</time>
      </trkpt>
      <trkpt lat="43.68666" lon="5.82218">
        <ele>492</ele>
        <time>2016-01-03T11:25:18.669Z</time>
      </trkpt>
      <trkpt lat="43.68664" lon="5.82223">
        <ele>492</ele>
        <time>2016-01-03T11:25:19.656Z</time>
      </trkpt>
      <trkpt lat="43.68662" lon="5.82232">
        <ele>493</ele>
        <time>2016-01-03T11:25:21.669Z</time>
      </trkpt>
      <trkpt lat="43.68661" lon="5.82238">
        <ele>494</ele>
        <time>2016-01-03T11:25:22.642Z</time>
      </trkpt>
      <trkpt lat="43.6866" lon="5.82249">
        <ele>494</ele>
        <time>2016-01-03T11:25:24.668Z</time>
      </trkpt>
      <trkpt lat="43.68659" lon="5.82255">
        <ele>492</ele>
        <time>2016-01-03T11:25:25.643Z</time>
      </trkpt>
      <trkpt lat="43.68657" lon="5.82262">
        <ele>492</ele>
        <time>2016-01-03T11:25:26.697Z</time>
      </trkpt>
      <trkpt lat="43.68654" lon="5.82268">
        <ele>491</ele>
        <time>2016-01-03T11:25:27.642Z</time>
      </trkpt>
      <trkpt lat="43.68651" lon="5.82272">
        <ele>492</ele>
        <time>2016-01-03T11:25:28.667Z</time>
      </trkpt>
      <trkpt lat="43.68647" lon="5.82277">
        <ele>491</ele>
        <time>2016-01-03T11:25:29.654Z</time>
      </trkpt>
      <trkpt lat="43.68642" lon="5.82285">
        <ele>492</ele>
        <time>2016-01-03T11:25:31.677Z</time>
      </trkpt>
      <trkpt lat="43.68639" lon="5.82289">
        <ele>492</ele>
        <time>2016-01-03T11:25:32.643Z</time>
      </trkpt>
      <trkpt lat="43.68633" lon="5.82298">
        <ele>492</ele>
        <time>2016-01-03T11:25:34.678Z</time>
      </trkpt>
      <trkpt lat="43.6863" lon="5.82302">
        <ele>492</ele>
        <time>2016-01-03T11:25:35.641Z</time>
      </trkpt>
      <trkpt lat="43.68624" lon="5.8231">
        <ele>492</ele>
        <time>2016-01-03T11:25:37.693Z</time>
      </trkpt>
      <trkpt lat="43.68621" lon="5.82313">
        <ele>492</ele>
        <time>2016-01-03T11:25:38.644Z</time>
      </trkpt>
      <trkpt lat="43.68614" lon="5.8232">
        <ele>490</ele>
        <time>2016-01-03T11:25:40.667Z</time>
      </trkpt>
      <trkpt lat="43.6861" lon="5.82323">
        <ele>490</ele>
        <time>2016-01-03T11:25:41.643Z</time>
      </trkpt>
      <trkpt lat="43.68603" lon="5.82329">
        <ele>490</ele>
        <time>2016-01-03T11:25:43.667Z</time>
      </trkpt>
      <trkpt lat="43.68599" lon="5.82332">
        <ele>490</ele>
        <time>2016-01-03T11:25:44.647Z</time>
      </trkpt>
      <trkpt lat="43.68593" lon="5.82339">
        <ele>490</ele>
        <time>2016-01-03T11:25:46.655Z</time>
      </trkpt>
      <trkpt lat="43.68589" lon="5.82342">
        <ele>490</ele>
        <time>2016-01-03T11:25:47.642Z</time>
      </trkpt>
      <trkpt lat="43.68582" lon="5.82348">
        <ele>491</ele>
        <time>2016-01-03T11:25:49.668Z</time>
      </trkpt>
      <trkpt lat="43.68579" lon="5.82352">
        <ele>491</ele>
        <time>2016-01-03T11:25:50.657Z</time>
      </trkpt>
      <trkpt lat="43.68572" lon="5.82359">
        <ele>492</ele>
        <time>2016-01-03T11:25:52.668Z</time>
      </trkpt>
      <trkpt lat="43.68568" lon="5.82363">
        <ele>492</ele>
        <time>2016-01-03T11:25:53.654Z</time>
      </trkpt>
      <trkpt lat="43.68563" lon="5.82368">
        <ele>492</ele>
        <time>2016-01-03T11:25:54.661Z</time>
      </trkpt>
      <trkpt lat="43.68559" lon="5.82371">
        <ele>492</ele>
        <time>2016-01-03T11:25:55.643Z</time>
      </trkpt>
      <trkpt lat="43.68554" lon="5.82373">
        <ele>492</ele>
        <time>2016-01-03T11:25:56.668Z</time>
      </trkpt>
      <trkpt lat="43.6855" lon="5.82375">
        <ele>491</ele>
        <time>2016-01-03T11:25:57.638Z</time>
      </trkpt>
      <trkpt lat="43.68545" lon="5.82376">
        <ele>491</ele>
        <time>2016-01-03T11:25:58.725Z</time>
      </trkpt>
      <trkpt lat="43.68541" lon="5.82378">
        <ele>491</ele>
        <time>2016-01-03T11:25:59.642Z</time>
      </trkpt>
      <trkpt lat="43.68536" lon="5.8238">
        <ele>491</ele>
        <time>2016-01-03T11:26:00.668Z</time>
      </trkpt>
      <trkpt lat="43.68532" lon="5.82383">
        <ele>491</ele>
        <time>2016-01-03T11:26:01.634Z</time>
      </trkpt>
      <trkpt lat="43.68528" lon="5.82385">
        <ele>491</ele>
        <time>2016-01-03T11:26:02.656Z</time>
      </trkpt>
      <trkpt lat="43.68524" lon="5.82389">
        <ele>491</ele>
        <time>2016-01-03T11:26:03.653Z</time>
      </trkpt>
      <trkpt lat="43.6852" lon="5.82393">
        <ele>491</ele>
        <time>2016-01-03T11:26:04.671Z</time>
      </trkpt>
      <trkpt lat="43.68516" lon="5.82397">
        <ele>491</ele>
        <time>2016-01-03T11:26:05.642Z</time>
      </trkpt>
      <trkpt lat="43.68512" lon="5.82401">
        <ele>490</ele>
        <time>2016-01-03T11:26:06.668Z</time>
      </trkpt>
      <trkpt lat="43.68508" lon="5.82405">
        <ele>491</ele>
        <time>2016-01-03T11:26:07.643Z</time>
      </trkpt>
      <trkpt lat="43.68504" lon="5.8241">
        <ele>491</ele>
        <time>2016-01-03T11:26:08.669Z</time>
      </trkpt>
      <trkpt lat="43.68501" lon="5.82414">
        <ele>491</ele>
        <time>2016-01-03T11:26:09.643Z</time>
      </trkpt>
      <trkpt lat="43.68497" lon="5.82417">
        <ele>491</ele>
        <time>2016-01-03T11:26:10.667Z</time>
      </trkpt>
      <trkpt lat="43.68494" lon="5.82422">
        <ele>490</ele>
        <time>2016-01-03T11:26:11.642Z</time>
      </trkpt>
      <trkpt lat="43.6849" lon="5.82427">
        <ele>490</ele>
        <time>2016-01-03T11:26:12.666Z</time>
      </trkpt>
      <trkpt lat="43.68487" lon="5.82431">
        <ele>490</ele>
        <time>2016-01-03T11:26:13.652Z</time>
      </trkpt>
      <trkpt lat="43.68484" lon="5.82436">
        <ele>490</ele>
        <time>2016-01-03T11:26:14.667Z</time>
      </trkpt>
      <trkpt lat="43.6848" lon="5.82441">
        <ele>489</ele>
        <time>2016-01-03T11:26:15.643Z</time>
      </trkpt>
      <trkpt lat="43.68477" lon="5.82446">
        <ele>489</ele>
        <time>2016-01-03T11:26:16.668Z</time>
      </trkpt>
      <trkpt lat="43.68474" lon="5.82451">
        <ele>489</ele>
        <time>2016-01-03T11:26:17.642Z</time>
      </trkpt>
      <trkpt lat="43.68471" lon="5.82455">
        <ele>489</ele>
        <time>2016-01-03T11:26:18.668Z</time>
      </trkpt>
      <trkpt lat="43.68468" lon="5.8246">
        <ele>490</ele>
        <time>2016-01-03T11:26:19.633Z</time>
      </trkpt>
      <trkpt lat="43.68464" lon="5.82465">
        <ele>489</ele>
        <time>2016-01-03T11:26:20.693Z</time>
      </trkpt>
      <trkpt lat="43.68459" lon="5.8247">
        <ele>489</ele>
        <time>2016-01-03T11:26:21.642Z</time>
      </trkpt>
      <trkpt lat="43.68455" lon="5.82475">
        <ele>489</ele>
        <time>2016-01-03T11:26:22.679Z</time>
      </trkpt>
      <trkpt lat="43.68451" lon="5.82478">
        <ele>487</ele>
        <time>2016-01-03T11:26:23.642Z</time>
      </trkpt>
      <trkpt lat="43.68447" lon="5.82481">
        <ele>487</ele>
        <time>2016-01-03T11:26:24.667Z</time>
      </trkpt>
      <trkpt lat="43.68443" lon="5.82484">
        <ele>487</ele>
        <time>2016-01-03T11:26:25.643Z</time>
      </trkpt>
      <trkpt lat="43.68438" lon="5.82488">
        <ele>487</ele>
        <time>2016-01-03T11:26:26.669Z</time>
      </trkpt>
      <trkpt lat="43.68435" lon="5.82493">
        <ele>487</ele>
        <time>2016-01-03T11:26:27.644Z</time>
      </trkpt>
      <trkpt lat="43.6843" lon="5.82497">
        <ele>487</ele>
        <time>2016-01-03T11:26:28.668Z</time>
      </trkpt>
      <trkpt lat="43.68427" lon="5.825">
        <ele>487</ele>
        <time>2016-01-03T11:26:29.644Z</time>
      </trkpt>
      <trkpt lat="43.68421" lon="5.82503">
        <ele>486</ele>
        <time>2016-01-03T11:26:30.668Z</time>
      </trkpt>
      <trkpt lat="43.68417" lon="5.82506">
        <ele>486</ele>
        <time>2016-01-03T11:26:31.680Z</time>
      </trkpt>
      <trkpt lat="43.68413" lon="5.8251">
        <ele>486</ele>
        <time>2016-01-03T11:26:32.679Z</time>
      </trkpt>
      <trkpt lat="43.6841" lon="5.82516">
        <ele>485</ele>
        <time>2016-01-03T11:26:33.643Z</time>
      </trkpt>
      <trkpt lat="43.68407" lon="5.82522">
        <ele>485</ele>
        <time>2016-01-03T11:26:34.666Z</time>
      </trkpt>
      <trkpt lat="43.68404" lon="5.82528">
        <ele>485</ele>
        <time>2016-01-03T11:26:35.654Z</time>
      </trkpt>
      <trkpt lat="43.68402" lon="5.82534">
        <ele>485</ele>
        <time>2016-01-03T11:26:36.671Z</time>
      </trkpt>
      <trkpt lat="43.68398" lon="5.8254">
        <ele>484</ele>
        <time>2016-01-03T11:26:37.642Z</time>
      </trkpt>
      <trkpt lat="43.68394" lon="5.82545">
        <ele>485</ele>
        <time>2016-01-03T11:26:38.661Z</time>
      </trkpt>
      <trkpt lat="43.68391" lon="5.82551">
        <ele>486</ele>
        <time>2016-01-03T11:26:39.638Z</time>
      </trkpt>
      <trkpt lat="43.68387" lon="5.82556">
        <ele>485</ele>
        <time>2016-01-03T11:26:40.655Z</time>
      </trkpt>
      <trkpt lat="43.68383" lon="5.82561">
        <ele>485</ele>
        <time>2016-01-03T11:26:41.642Z</time>
      </trkpt>
      <trkpt lat="43.6838" lon="5.82566">
        <ele>487</ele>
        <time>2016-01-03T11:26:42.900Z</time>
      </trkpt>
      <trkpt lat="43.68376" lon="5.82572">
        <ele>487</ele>
        <time>2016-01-03T11:26:43.642Z</time>
      </trkpt>
      <trkpt lat="43.68371" lon="5.82576">
        <ele>487</ele>
        <time>2016-01-03T11:26:44.664Z</time>
      </trkpt>
      <trkpt lat="43.68367" lon="5.82582">
        <ele>488</ele>
        <time>2016-01-03T11:26:45.642Z</time>
      </trkpt>
      <trkpt lat="43.68364" lon="5.82588">
        <ele>488</ele>
        <time>2016-01-03T11:26:46.678Z</time>
      </trkpt>
      <trkpt lat="43.6836" lon="5.82594">
        <ele>488</ele>
        <time>2016-01-03T11:26:47.643Z</time>
      </trkpt>
      <trkpt lat="43.68356" lon="5.82599">
        <ele>488</ele>
        <time>2016-01-03T11:26:48.667Z</time>
      </trkpt>
      <trkpt lat="43.68351" lon="5.82603">
        <ele>488</ele>
        <time>2016-01-03T11:26:49.642Z</time>
      </trkpt>
      <trkpt lat="43.68346" lon="5.82608">
        <ele>488</ele>
        <time>2016-01-03T11:26:50.666Z</time>
      </trkpt>
      <trkpt lat="43.68343" lon="5.82612">
        <ele>488</ele>
        <time>2016-01-03T11:26:51.653Z</time>
      </trkpt>
      <trkpt lat="43.6834" lon="5.82618">
        <ele>488</ele>
        <time>2016-01-03T11:26:52.667Z</time>
      </trkpt>
      <trkpt lat="43.68336" lon="5.82624">
        <ele>487</ele>
        <time>2016-01-03T11:26:53.669Z</time>
      </trkpt>
      <trkpt lat="43.68333" lon="5.8263">
        <ele>487</ele>
        <time>2016-01-03T11:26:54.665Z</time>
      </trkpt>
      <trkpt lat="43.68331" lon="5.82637">
        <ele>488</ele>
        <time>2016-01-03T11:26:55.644Z</time>
      </trkpt>
      <trkpt lat="43.68329" lon="5.82642">
        <ele>489</ele>
        <time>2016-01-03T11:26:56.670Z</time>
      </trkpt>
      <trkpt lat="43.68325" lon="5.82648">
        <ele>489</ele>
        <time>2016-01-03T11:26:57.643Z</time>
      </trkpt>
      <trkpt lat="43.68321" lon="5.82652">
        <ele>490</ele>
        <time>2016-01-03T11:26:58.667Z</time>
      </trkpt>
      <trkpt lat="43.68316" lon="5.82654">
        <ele>490</ele>
        <time>2016-01-03T11:26:59.644Z</time>
      </trkpt>
      <trkpt lat="43.68309" lon="5.82661">
        <ele>490</ele>
        <time>2016-01-03T11:27:01.679Z</time>
      </trkpt>
      <trkpt lat="43.68308" lon="5.82666">
        <ele>490</ele>
        <time>2016-01-03T11:27:02.643Z</time>
      </trkpt>
      <trkpt lat="43.683" lon="5.82668">
        <ele>490</ele>
        <time>2016-01-03T11:27:04.694Z</time>
      </trkpt>
      <trkpt lat="43.68296" lon="5.82667">
        <ele>490</ele>
        <time>2016-01-03T11:27:05.644Z</time>
      </trkpt>
      <trkpt lat="43.68288" lon="5.82664">
        <ele>490</ele>
        <time>2016-01-03T11:27:07.666Z</time>
      </trkpt>
      <trkpt lat="43.68285" lon="5.82661">
        <ele>490</ele>
        <time>2016-01-03T11:27:08.644Z</time>
      </trkpt>
      <trkpt lat="43.68277" lon="5.82659">
        <ele>489</ele>
        <time>2016-01-03T11:27:10.729Z</time>
      </trkpt>
      <trkpt lat="43.68274" lon="5.82663">
        <ele>489</ele>
        <time>2016-01-03T11:27:11.644Z</time>
      </trkpt>
      <trkpt lat="43.68267" lon="5.82671">
        <ele>489</ele>
        <time>2016-01-03T11:27:13.666Z</time>
      </trkpt>
      <trkpt lat="43.68264" lon="5.82675">
        <ele>489</ele>
        <time>2016-01-03T11:27:14.655Z</time>
      </trkpt>
      <trkpt lat="43.68257" lon="5.82682">
        <ele>489</ele>
        <time>2016-01-03T11:27:16.666Z</time>
      </trkpt>
      <trkpt lat="43.68254" lon="5.82686">
        <ele>489</ele>
        <time>2016-01-03T11:27:17.644Z</time>
      </trkpt>
      <trkpt lat="43.68248" lon="5.82694">
        <ele>489</ele>
        <time>2016-01-03T11:27:19.668Z</time>
      </trkpt>
      <trkpt lat="43.68245" lon="5.82698">
        <ele>489</ele>
        <time>2016-01-03T11:27:20.644Z</time>
      </trkpt>
      <trkpt lat="43.68239" lon="5.82708">
        <ele>488</ele>
        <time>2016-01-03T11:27:22.667Z</time>
      </trkpt>
      <trkpt lat="43.68236" lon="5.82712">
        <ele>489</ele>
        <time>2016-01-03T11:27:23.646Z</time>
      </trkpt>
      <trkpt lat="43.68231" lon="5.8272">
        <ele>488</ele>
        <time>2016-01-03T11:27:25.670Z</time>
      </trkpt>
      <trkpt lat="43.68228" lon="5.82724">
        <ele>489</ele>
        <time>2016-01-03T11:27:26.662Z</time>
      </trkpt>
      <trkpt lat="43.68223" lon="5.82732">
        <ele>489</ele>
        <time>2016-01-03T11:27:28.672Z</time>
      </trkpt>
      <trkpt lat="43.68219" lon="5.82736">
        <ele>489</ele>
        <time>2016-01-03T11:27:29.645Z</time>
      </trkpt>
      <trkpt lat="43.68214" lon="5.82743">
        <ele>489</ele>
        <time>2016-01-03T11:27:31.668Z</time>
      </trkpt>
      <trkpt lat="43.68211" lon="5.82747">
        <ele>489</ele>
        <time>2016-01-03T11:27:32.643Z</time>
      </trkpt>
      <trkpt lat="43.68205" lon="5.82756">
        <ele>489</ele>
        <time>2016-01-03T11:27:34.669Z</time>
      </trkpt>
      <trkpt lat="43.68203" lon="5.8276">
        <ele>490</ele>
        <time>2016-01-03T11:27:35.644Z</time>
      </trkpt>
      <trkpt lat="43.68198" lon="5.8277">
        <ele>490</ele>
        <time>2016-01-03T11:27:37.696Z</time>
      </trkpt>
      <trkpt lat="43.68196" lon="5.82775">
        <ele>491</ele>
        <time>2016-01-03T11:27:38.645Z</time>
      </trkpt>
      <trkpt lat="43.68191" lon="5.82785">
        <ele>491</ele>
        <time>2016-01-03T11:27:40.666Z</time>
      </trkpt>
      <trkpt lat="43.68189" lon="5.8279">
        <ele>491</ele>
        <time>2016-01-03T11:27:41.644Z</time>
      </trkpt>
      <trkpt lat="43.68183" lon="5.82799">
        <ele>490</ele>
        <time>2016-01-03T11:27:43.662Z</time>
      </trkpt>
      <trkpt lat="43.6818" lon="5.82803">
        <ele>491</ele>
        <time>2016-01-03T11:27:44.644Z</time>
      </trkpt>
      <trkpt lat="43.68173" lon="5.8281">
        <ele>491</ele>
        <time>2016-01-03T11:27:46.679Z</time>
      </trkpt>
      <trkpt lat="43.6817" lon="5.82813">
        <ele>491</ele>
        <time>2016-01-03T11:27:47.644Z</time>
      </trkpt>
      <trkpt lat="43.68162" lon="5.82819">
        <ele>492</ele>
        <time>2016-01-03T11:27:49.667Z</time>
      </trkpt>
      <trkpt lat="43.68158" lon="5.82821">
        <ele>492</ele>
        <time>2016-01-03T11:27:50.642Z</time>
      </trkpt>
      <trkpt lat="43.68154" lon="5.82825">
        <ele>492</ele>
        <time>2016-01-03T11:27:51.677Z</time>
      </trkpt>
      <trkpt lat="43.68149" lon="5.82829">
        <ele>492</ele>
        <time>2016-01-03T11:27:52.643Z</time>
      </trkpt>
      <trkpt lat="43.68145" lon="5.82832">
        <ele>492</ele>
        <time>2016-01-03T11:27:53.693Z</time>
      </trkpt>
      <trkpt lat="43.68141" lon="5.82836">
        <ele>491</ele>
        <time>2016-01-03T11:27:54.644Z</time>
      </trkpt>
      <trkpt lat="43.68137" lon="5.8284">
        <ele>491</ele>
        <time>2016-01-03T11:27:55.666Z</time>
      </trkpt>
      <trkpt lat="43.68133" lon="5.82844">
        <ele>491</ele>
        <time>2016-01-03T11:27:56.653Z</time>
      </trkpt>
      <trkpt lat="43.68129" lon="5.82847">
        <ele>491</ele>
        <time>2016-01-03T11:27:57.680Z</time>
      </trkpt>
      <trkpt lat="43.68125" lon="5.8285">
        <ele>491</ele>
        <time>2016-01-03T11:27:58.643Z</time>
      </trkpt>
      <trkpt lat="43.68121" lon="5.82853">
        <ele>491</ele>
        <time>2016-01-03T11:27:59.666Z</time>
      </trkpt>
      <trkpt lat="43.68117" lon="5.82856">
        <ele>491</ele>
        <time>2016-01-03T11:28:00.644Z</time>
      </trkpt>
      <trkpt lat="43.68113" lon="5.8286">
        <ele>492</ele>
        <time>2016-01-03T11:28:01.666Z</time>
      </trkpt>
      <trkpt lat="43.68109" lon="5.82863">
        <ele>491</ele>
        <time>2016-01-03T11:28:02.655Z</time>
      </trkpt>
      <trkpt lat="43.68105" lon="5.82866">
        <ele>491</ele>
        <time>2016-01-03T11:28:03.678Z</time>
      </trkpt>
      <trkpt lat="43.681" lon="5.82869">
        <ele>491</ele>
        <time>2016-01-03T11:28:04.670Z</time>
      </trkpt>
      <trkpt lat="43.68095" lon="5.82871">
        <ele>491</ele>
        <time>2016-01-03T11:28:05.667Z</time>
      </trkpt>
      <trkpt lat="43.68091" lon="5.82873">
        <ele>492</ele>
        <time>2016-01-03T11:28:06.655Z</time>
      </trkpt>
      <trkpt lat="43.68087" lon="5.82875">
        <ele>492</ele>
        <time>2016-01-03T11:28:07.679Z</time>
      </trkpt>
      <trkpt lat="43.68082" lon="5.82878">
        <ele>491</ele>
        <time>2016-01-03T11:28:08.642Z</time>
      </trkpt>
      <trkpt lat="43.68078" lon="5.8288">
        <ele>491</ele>
        <time>2016-01-03T11:28:09.667Z</time>
      </trkpt>
      <trkpt lat="43.68074" lon="5.82883">
        <ele>491</ele>
        <time>2016-01-03T11:28:10.641Z</time>
      </trkpt>
      <trkpt lat="43.68069" lon="5.82886">
        <ele>492</ele>
        <time>2016-01-03T11:28:11.665Z</time>
      </trkpt>
      <trkpt lat="43.68065" lon="5.8289">
        <ele>492</ele>
        <time>2016-01-03T11:28:12.856Z</time>
      </trkpt>
      <trkpt lat="43.68061" lon="5.82893">
        <ele>491</ele>
        <time>2016-01-03T11:28:13.715Z</time>
      </trkpt>
      <trkpt lat="43.68057" lon="5.82897">
        <ele>492</ele>
        <time>2016-01-03T11:28:14.643Z</time>
      </trkpt>
      <trkpt lat="43.6805" lon="5.82903">
        <ele>492</ele>
        <time>2016-01-03T11:28:16.668Z</time>
      </trkpt>
      <trkpt lat="43.68045" lon="5.82907">
        <ele>492</ele>
        <time>2016-01-03T11:28:17.644Z</time>
      </trkpt>
      <trkpt lat="43.68038" lon="5.82912">
        <ele>492</ele>
        <time>2016-01-03T11:28:19.667Z</time>
      </trkpt>
      <trkpt lat="43.68033" lon="5.82914">
        <ele>492</ele>
        <time>2016-01-03T11:28:20.643Z</time>
      </trkpt>
      <trkpt lat="43.68029" lon="5.82917">
        <ele>493</ele>
        <time>2016-01-03T11:28:21.668Z</time>
      </trkpt>
      <trkpt lat="43.68025" lon="5.8292">
        <ele>493</ele>
        <time>2016-01-03T11:28:22.644Z</time>
      </trkpt>
      <trkpt lat="43.6802" lon="5.82924">
        <ele>493</ele>
        <time>2016-01-03T11:28:23.715Z</time>
      </trkpt>
      <trkpt lat="43.68017" lon="5.82927">
        <ele>493</ele>
        <time>2016-01-03T11:28:24.644Z</time>
      </trkpt>
      <trkpt lat="43.68013" lon="5.82932">
        <ele>492</ele>
        <time>2016-01-03T11:28:25.668Z</time>
      </trkpt>
      <trkpt lat="43.68009" lon="5.82936">
        <ele>493</ele>
        <time>2016-01-03T11:28:26.654Z</time>
      </trkpt>
      <trkpt lat="43.68004" lon="5.82945">
        <ele>493</ele>
        <time>2016-01-03T11:28:28.667Z</time>
      </trkpt>
      <trkpt lat="43.68001" lon="5.8295">
        <ele>493</ele>
        <time>2016-01-03T11:28:29.642Z</time>
      </trkpt>
      <trkpt lat="43.67996" lon="5.82959">
        <ele>493</ele>
        <time>2016-01-03T11:28:31.704Z</time>
      </trkpt>
      <trkpt lat="43.67992" lon="5.82963">
        <ele>493</ele>
        <time>2016-01-03T11:28:32.643Z</time>
      </trkpt>
      <trkpt lat="43.67986" lon="5.82969">
        <ele>494</ele>
        <time>2016-01-03T11:28:34.878Z</time>
      </trkpt>
      <trkpt lat="43.67983" lon="5.82972">
        <ele>494</ele>
        <time>2016-01-03T11:28:35.644Z</time>
      </trkpt>
      <trkpt lat="43.67975" lon="5.82977">
        <ele>494</ele>
        <time>2016-01-03T11:28:37.666Z</time>
      </trkpt>
      <trkpt lat="43.67972" lon="5.82981">
        <ele>494</ele>
        <time>2016-01-03T11:28:38.642Z</time>
      </trkpt>
      <trkpt lat="43.67966" lon="5.82989">
        <ele>494</ele>
        <time>2016-01-03T11:28:40.679Z</time>
      </trkpt>
      <trkpt lat="43.67963" lon="5.82993">
        <ele>493</ele>
        <time>2016-01-03T11:28:41.643Z</time>
      </trkpt>
      <trkpt lat="43.67957" lon="5.83">
        <ele>493</ele>
        <time>2016-01-03T11:28:43.667Z</time>
      </trkpt>
      <trkpt lat="43.67953" lon="5.83003">
        <ele>493</ele>
        <time>2016-01-03T11:28:44.643Z</time>
      </trkpt>
      <trkpt lat="43.67946" lon="5.83007">
        <ele>493</ele>
        <time>2016-01-03T11:28:46.655Z</time>
      </trkpt>
      <trkpt lat="43.67942" lon="5.83009">
        <ele>493</ele>
        <time>2016-01-03T11:28:47.643Z</time>
      </trkpt>
      <trkpt lat="43.67935" lon="5.83014">
        <ele>493</ele>
        <time>2016-01-03T11:28:49.667Z</time>
      </trkpt>
      <trkpt lat="43.67932" lon="5.83018">
        <ele>493</ele>
        <time>2016-01-03T11:28:50.644Z</time>
      </trkpt>
      <trkpt lat="43.67925" lon="5.83023">
        <ele>493</ele>
        <time>2016-01-03T11:28:52.668Z</time>
      </trkpt>
      <trkpt lat="43.67921" lon="5.83025">
        <ele>493</ele>
        <time>2016-01-03T11:28:53.670Z</time>
      </trkpt>
      <trkpt lat="43.67913" lon="5.83027">
        <ele>493</ele>
        <time>2016-01-03T11:28:55.669Z</time>
      </trkpt>
      <trkpt lat="43.67908" lon="5.83027">
        <ele>492</ele>
        <time>2016-01-03T11:28:56.644Z</time>
      </trkpt>
      <trkpt lat="43.67903" lon="5.83026">
        <ele>492</ele>
        <time>2016-01-03T11:28:57.667Z</time>
      </trkpt>
      <trkpt lat="43.67899" lon="5.83027">
        <ele>492</ele>
        <time>2016-01-03T11:28:58.643Z</time>
      </trkpt>
      <trkpt lat="43.67891" lon="5.83028">
        <ele>492</ele>
        <time>2016-01-03T11:29:00.668Z</time>
      </trkpt>
      <trkpt lat="43.67887" lon="5.83028">
        <ele>493</ele>
        <time>2016-01-03T11:29:01.654Z</time>
      </trkpt>
      <trkpt lat="43.67878" lon="5.83028">
        <ele>493</ele>
        <time>2016-01-03T11:29:03.668Z</time>
      </trkpt>
      <trkpt lat="43.67873" lon="5.83029">
        <ele>493</ele>
        <time>2016-01-03T11:29:04.680Z</time>
      </trkpt>
      <trkpt lat="43.67865" lon="5.83031">
        <ele>493</ele>
        <time>2016-01-03T11:29:06.679Z</time>
      </trkpt>
      <trkpt lat="43.6786" lon="5.83032">
        <ele>493</ele>
        <time>2016-01-03T11:29:07.642Z</time>
      </trkpt>
      <trkpt lat="43.67852" lon="5.83034">
        <ele>493</ele>
        <time>2016-01-03T11:29:09.668Z</time>
      </trkpt>
      <trkpt lat="43.67848" lon="5.83036">
        <ele>493</ele>
        <time>2016-01-03T11:29:10.656Z</time>
      </trkpt>
      <trkpt lat="43.6784" lon="5.83039">
        <ele>493</ele>
        <time>2016-01-03T11:29:12.670Z</time>
      </trkpt>
      <trkpt lat="43.67836" lon="5.83042">
        <ele>493</ele>
        <time>2016-01-03T11:29:13.646Z</time>
      </trkpt>
      <trkpt lat="43.67829" lon="5.83047">
        <ele>494</ele>
        <time>2016-01-03T11:29:15.709Z</time>
      </trkpt>
      <trkpt lat="43.67825" lon="5.83049">
        <ele>493</ele>
        <time>2016-01-03T11:29:16.645Z</time>
      </trkpt>
      <trkpt lat="43.67818" lon="5.83055">
        <ele>494</ele>
        <time>2016-01-03T11:29:18.671Z</time>
      </trkpt>
      <trkpt lat="43.67814" lon="5.83058">
        <ele>494</ele>
        <time>2016-01-03T11:29:19.643Z</time>
      </trkpt>
      <trkpt lat="43.67806" lon="5.83063">
        <ele>494</ele>
        <time>2016-01-03T11:29:21.669Z</time>
      </trkpt>
      <trkpt lat="43.67803" lon="5.83065">
        <ele>494</ele>
        <time>2016-01-03T11:29:22.644Z</time>
      </trkpt>
      <trkpt lat="43.67795" lon="5.83069">
        <ele>495</ele>
        <time>2016-01-03T11:29:24.670Z</time>
      </trkpt>
      <trkpt lat="43.67791" lon="5.83072">
        <ele>495</ele>
        <time>2016-01-03T11:29:25.643Z</time>
      </trkpt>
      <trkpt lat="43.67784" lon="5.83076">
        <ele>496</ele>
        <time>2016-01-03T11:29:27.667Z</time>
      </trkpt>
      <trkpt lat="43.6778" lon="5.83078">
        <ele>496</ele>
        <time>2016-01-03T11:29:28.643Z</time>
      </trkpt>
      <trkpt lat="43.67773" lon="5.83081">
        <ele>496</ele>
        <time>2016-01-03T11:29:30.718Z</time>
      </trkpt>
      <trkpt lat="43.67769" lon="5.83083">
        <ele>496</ele>
        <time>2016-01-03T11:29:31.644Z</time>
      </trkpt>
      <trkpt lat="43.67763" lon="5.83085">
        <ele>496</ele>
        <time>2016-01-03T11:29:33.669Z</time>
      </trkpt>
      <trkpt lat="43.6776" lon="5.83086">
        <ele>496</ele>
        <time>2016-01-03T11:29:34.636Z</time>
      </trkpt>
      <trkpt lat="43.67753" lon="5.83089">
        <ele>496</ele>
        <time>2016-01-03T11:29:36.666Z</time>
      </trkpt>
      <trkpt lat="43.6775" lon="5.83091">
        <ele>496</ele>
        <time>2016-01-03T11:29:37.670Z</time>
      </trkpt>
      <trkpt lat="43.67743" lon="5.83095">
        <ele>496</ele>
        <time>2016-01-03T11:29:39.667Z</time>
      </trkpt>
      <trkpt lat="43.67739" lon="5.83097">
        <ele>496</ele>
        <time>2016-01-03T11:29:40.644Z</time>
      </trkpt>
      <trkpt lat="43.67733" lon="5.83102">
        <ele>497</ele>
        <time>2016-01-03T11:29:42.668Z</time>
      </trkpt>
      <trkpt lat="43.67729" lon="5.83104">
        <ele>497</ele>
        <time>2016-01-03T11:29:43.644Z</time>
      </trkpt>
      <trkpt lat="43.67723" lon="5.83109">
        <ele>497</ele>
        <time>2016-01-03T11:29:45.666Z</time>
      </trkpt>
      <trkpt lat="43.67719" lon="5.83112">
        <ele>497</ele>
        <time>2016-01-03T11:29:46.654Z</time>
      </trkpt>
      <trkpt lat="43.67713" lon="5.83117">
        <ele>498</ele>
        <time>2016-01-03T11:29:48.667Z</time>
      </trkpt>
      <trkpt lat="43.6771" lon="5.8312">
        <ele>498</ele>
        <time>2016-01-03T11:29:49.644Z</time>
      </trkpt>
      <trkpt lat="43.67703" lon="5.83126">
        <ele>498</ele>
        <time>2016-01-03T11:29:51.668Z</time>
      </trkpt>
      <trkpt lat="43.677" lon="5.83128">
        <ele>498</ele>
        <time>2016-01-03T11:29:52.643Z</time>
      </trkpt>
      <trkpt lat="43.67693" lon="5.83132">
        <ele>499</ele>
        <time>2016-01-03T11:29:54.670Z</time>
      </trkpt>
      <trkpt lat="43.67689" lon="5.83134">
        <ele>499</ele>
        <time>2016-01-03T11:29:55.642Z</time>
      </trkpt>
      <trkpt lat="43.67681" lon="5.83136">
        <ele>499</ele>
        <time>2016-01-03T11:29:57.679Z</time>
      </trkpt>
      <trkpt lat="43.67677" lon="5.83137">
        <ele>499</ele>
        <time>2016-01-03T11:29:58.642Z</time>
      </trkpt>
      <trkpt lat="43.6767" lon="5.83141">
        <ele>499</ele>
        <time>2016-01-03T11:30:00.677Z</time>
      </trkpt>
      <trkpt lat="43.67667" lon="5.83144">
        <ele>499</ele>
        <time>2016-01-03T11:30:01.642Z</time>
      </trkpt>
      <trkpt lat="43.6766" lon="5.83149">
        <ele>499</ele>
        <time>2016-01-03T11:30:03.679Z</time>
      </trkpt>
      <trkpt lat="43.67656" lon="5.83152">
        <ele>499</ele>
        <time>2016-01-03T11:30:04.644Z</time>
      </trkpt>
      <trkpt lat="43.67648" lon="5.83157">
        <ele>499</ele>
        <time>2016-01-03T11:30:06.666Z</time>
      </trkpt>
      <trkpt lat="43.67644" lon="5.83159">
        <ele>499</ele>
        <time>2016-01-03T11:30:07.644Z</time>
      </trkpt>
      <trkpt lat="43.67635" lon="5.83163">
        <ele>499</ele>
        <time>2016-01-03T11:30:09.694Z</time>
      </trkpt>
      <trkpt lat="43.67632" lon="5.83165">
        <ele>499</ele>
        <time>2016-01-03T11:30:10.648Z</time>
      </trkpt>
      <trkpt lat="43.67624" lon="5.8317">
        <ele>499</ele>
        <time>2016-01-03T11:30:12.668Z</time>
      </trkpt>
      <trkpt lat="43.6762" lon="5.83173">
        <ele>499</ele>
        <time>2016-01-03T11:30:13.644Z</time>
      </trkpt>
      <trkpt lat="43.67616" lon="5.83176">
        <ele>499</ele>
        <time>2016-01-03T11:30:14.666Z</time>
      </trkpt>
      <trkpt lat="43.67612" lon="5.83178">
        <ele>499</ele>
        <time>2016-01-03T11:30:15.643Z</time>
      </trkpt>
      <trkpt lat="43.67604" lon="5.83184">
        <ele>498</ele>
        <time>2016-01-03T11:30:17.662Z</time>
      </trkpt>
      <trkpt lat="43.676" lon="5.83187">
        <ele>498</ele>
        <time>2016-01-03T11:30:18.641Z</time>
      </trkpt>
      <trkpt lat="43.67591" lon="5.83191">
        <ele>498</ele>
        <time>2016-01-03T11:30:20.680Z</time>
      </trkpt>
      <trkpt lat="43.67587" lon="5.83194">
        <ele>498</ele>
        <time>2016-01-03T11:30:21.647Z</time>
      </trkpt>
      <trkpt lat="43.67583" lon="5.83196">
        <ele>498</ele>
        <time>2016-01-03T11:30:22.663Z</time>
      </trkpt>
      <trkpt lat="43.67579" lon="5.83199">
        <ele>498</ele>
        <time>2016-01-03T11:30:23.642Z</time>
      </trkpt>
      <trkpt lat="43.67575" lon="5.83201">
        <ele>498</ele>
        <time>2016-01-03T11:30:24.660Z</time>
      </trkpt>
      <trkpt lat="43.67571" lon="5.83204">
        <ele>498</ele>
        <time>2016-01-03T11:30:25.642Z</time>
      </trkpt>
      <trkpt lat="43.67567" lon="5.83208">
        <ele>499</ele>
        <time>2016-01-03T11:30:26.661Z</time>
      </trkpt>
      <trkpt lat="43.67562" lon="5.83211">
        <ele>499</ele>
        <time>2016-01-03T11:30:27.637Z</time>
      </trkpt>
      <trkpt lat="43.67558" lon="5.83214">
        <ele>499</ele>
        <time>2016-01-03T11:30:28.662Z</time>
      </trkpt>
      <trkpt lat="43.67555" lon="5.83218">
        <ele>499</ele>
        <time>2016-01-03T11:30:29.637Z</time>
      </trkpt>
      <trkpt lat="43.67551" lon="5.83221">
        <ele>499</ele>
        <time>2016-01-03T11:30:30.668Z</time>
      </trkpt>
      <trkpt lat="43.67547" lon="5.83225">
        <ele>499</ele>
        <time>2016-01-03T11:30:31.675Z</time>
      </trkpt>
      <trkpt lat="43.67544" lon="5.83229">
        <ele>499</ele>
        <time>2016-01-03T11:30:32.662Z</time>
      </trkpt>
      <trkpt lat="43.6754" lon="5.83233">
        <ele>499</ele>
        <time>2016-01-03T11:30:33.642Z</time>
      </trkpt>
      <trkpt lat="43.67536" lon="5.83237">
        <ele>499</ele>
        <time>2016-01-03T11:30:34.660Z</time>
      </trkpt>
      <trkpt lat="43.67533" lon="5.8324">
        <ele>500</ele>
        <time>2016-01-03T11:30:35.649Z</time>
      </trkpt>
      <trkpt lat="43.67526" lon="5.83248">
        <ele>500</ele>
        <time>2016-01-03T11:30:37.661Z</time>
      </trkpt>
      <trkpt lat="43.67523" lon="5.83251">
        <ele>500</ele>
        <time>2016-01-03T11:30:38.643Z</time>
      </trkpt>
      <trkpt lat="43.6752" lon="5.83255">
        <ele>500</ele>
        <time>2016-01-03T11:30:39.661Z</time>
      </trkpt>
      <trkpt lat="43.67516" lon="5.83259">
        <ele>500</ele>
        <time>2016-01-03T11:30:40.640Z</time>
      </trkpt>
      <trkpt lat="43.67513" lon="5.83263">
        <ele>500</ele>
        <time>2016-01-03T11:30:41.643Z</time>
      </trkpt>
      <trkpt lat="43.67509" lon="5.83267">
        <ele>500</ele>
        <time>2016-01-03T11:30:42.631Z</time>
      </trkpt>
      <trkpt lat="43.67503" lon="5.83275">
        <ele>501</ele>
        <time>2016-01-03T11:30:44.665Z</time>
      </trkpt>
      <trkpt lat="43.675" lon="5.83279">
        <ele>501</ele>
        <time>2016-01-03T11:30:45.644Z</time>
      </trkpt>
      <trkpt lat="43.67494" lon="5.83288">
        <ele>502</ele>
        <time>2016-01-03T11:30:47.667Z</time>
      </trkpt>
      <trkpt lat="43.67491" lon="5.83291">
        <ele>502</ele>
        <time>2016-01-03T11:30:48.644Z</time>
      </trkpt>
      <trkpt lat="43.67485" lon="5.833">
        <ele>502</ele>
        <time>2016-01-03T11:30:50.667Z</time>
      </trkpt>
      <trkpt lat="43.67482" lon="5.83304">
        <ele>501</ele>
        <time>2016-01-03T11:30:51.643Z</time>
      </trkpt>
      <trkpt lat="43.67475" lon="5.83311">
        <ele>502</ele>
        <time>2016-01-03T11:30:53.672Z</time>
      </trkpt>
      <trkpt lat="43.67472" lon="5.83314">
        <ele>502</ele>
        <time>2016-01-03T11:30:54.645Z</time>
      </trkpt>
      <trkpt lat="43.67464" lon="5.8332">
        <ele>502</ele>
        <time>2016-01-03T11:30:56.660Z</time>
      </trkpt>
      <trkpt lat="43.6746" lon="5.83322">
        <ele>502</ele>
        <time>2016-01-03T11:30:57.645Z</time>
      </trkpt>
      <trkpt lat="43.67452" lon="5.83323">
        <ele>502</ele>
        <time>2016-01-03T11:30:59.674Z</time>
      </trkpt>
      <trkpt lat="43.67447" lon="5.83323">
        <ele>502</ele>
        <time>2016-01-03T11:31:00.647Z</time>
      </trkpt>
      <trkpt lat="43.67443" lon="5.83323">
        <ele>502</ele>
        <time>2016-01-03T11:31:01.671Z</time>
      </trkpt>
      <trkpt lat="43.67438" lon="5.83321">
        <ele>502</ele>
        <time>2016-01-03T11:31:02.645Z</time>
      </trkpt>
      <trkpt lat="43.67433" lon="5.83321">
        <ele>502</ele>
        <time>2016-01-03T11:31:03.657Z</time>
      </trkpt>
      <trkpt lat="43.67428" lon="5.83321">
        <ele>502</ele>
        <time>2016-01-03T11:31:04.857Z</time>
      </trkpt>
      <trkpt lat="43.67423" lon="5.83322">
        <ele>502</ele>
        <time>2016-01-03T11:31:05.670Z</time>
      </trkpt>
      <trkpt lat="43.67418" lon="5.83323">
        <ele>502</ele>
        <time>2016-01-03T11:31:06.657Z</time>
      </trkpt>
      <trkpt lat="43.67413" lon="5.83324">
        <ele>502</ele>
        <time>2016-01-03T11:31:07.681Z</time>
      </trkpt>
      <trkpt lat="43.67408" lon="5.83326">
        <ele>501</ele>
        <time>2016-01-03T11:31:08.644Z</time>
      </trkpt>
      <trkpt lat="43.67402" lon="5.83328">
        <ele>501</ele>
        <time>2016-01-03T11:31:09.669Z</time>
      </trkpt>
      <trkpt lat="43.67398" lon="5.8333">
        <ele>501</ele>
        <time>2016-01-03T11:31:10.655Z</time>
      </trkpt>
      <trkpt lat="43.67393" lon="5.83332">
        <ele>501</ele>
        <time>2016-01-03T11:31:11.668Z</time>
      </trkpt>
      <trkpt lat="43.67388" lon="5.83334">
        <ele>501</ele>
        <time>2016-01-03T11:31:12.645Z</time>
      </trkpt>
      <trkpt lat="43.67383" lon="5.83336">
        <ele>501</ele>
        <time>2016-01-03T11:31:13.667Z</time>
      </trkpt>
      <trkpt lat="43.67378" lon="5.83338">
        <ele>501</ele>
        <time>2016-01-03T11:31:14.644Z</time>
      </trkpt>
      <trkpt lat="43.67369" lon="5.8334">
        <ele>501</ele>
        <time>2016-01-03T11:31:16.667Z</time>
      </trkpt>
      <trkpt lat="43.67365" lon="5.83343">
        <ele>502</ele>
        <time>2016-01-03T11:31:17.645Z</time>
      </trkpt>
      <trkpt lat="43.67358" lon="5.83347">
        <ele>502</ele>
        <time>2016-01-03T11:31:19.668Z</time>
      </trkpt>
      <trkpt lat="43.67354" lon="5.83351">
        <ele>502</ele>
        <time>2016-01-03T11:31:20.670Z</time>
      </trkpt>
      <trkpt lat="43.67349" lon="5.83357">
        <ele>502</ele>
        <time>2016-01-03T11:31:22.668Z</time>
      </trkpt>
      <trkpt lat="43.67345" lon="5.83359">
        <ele>502</ele>
        <time>2016-01-03T11:31:23.644Z</time>
      </trkpt>
      <trkpt lat="43.67338" lon="5.83364">
        <ele>503</ele>
        <time>2016-01-03T11:31:25.669Z</time>
      </trkpt>
      <trkpt lat="43.67335" lon="5.83366">
        <ele>503</ele>
        <time>2016-01-03T11:31:26.655Z</time>
      </trkpt>
      <trkpt lat="43.67328" lon="5.83367">
        <ele>503</ele>
        <time>2016-01-03T11:31:28.668Z</time>
      </trkpt>
      <trkpt lat="43.67324" lon="5.83368">
        <ele>503</ele>
        <time>2016-01-03T11:31:29.643Z</time>
      </trkpt>
      <trkpt lat="43.67317" lon="5.83369">
        <ele>504</ele>
        <time>2016-01-03T11:31:31.694Z</time>
      </trkpt>
      <trkpt lat="43.67313" lon="5.83369">
        <ele>503</ele>
        <time>2016-01-03T11:31:32.655Z</time>
      </trkpt>
      <trkpt lat="43.67308" lon="5.83371">
        <ele>503</ele>
        <time>2016-01-03T11:31:33.667Z</time>
      </trkpt>
      <trkpt lat="43.67304" lon="5.83374">
        <ele>503</ele>
        <time>2016-01-03T11:31:34.643Z</time>
      </trkpt>
      <trkpt lat="43.673" lon="5.8338">
        <ele>503</ele>
        <time>2016-01-03T11:31:35.658Z</time>
      </trkpt>
      <trkpt lat="43.67296" lon="5.83384">
        <ele>503</ele>
        <time>2016-01-03T11:31:36.656Z</time>
      </trkpt>
      <trkpt lat="43.67291" lon="5.83388">
        <ele>502</ele>
        <time>2016-01-03T11:31:37.696Z</time>
      </trkpt>
      <trkpt lat="43.67287" lon="5.83391">
        <ele>501</ele>
        <time>2016-01-03T11:31:38.644Z</time>
      </trkpt>
      <trkpt lat="43.67282" lon="5.83394">
        <ele>501</ele>
        <time>2016-01-03T11:31:39.667Z</time>
      </trkpt>
      <trkpt lat="43.67277" lon="5.83398">
        <ele>501</ele>
        <time>2016-01-03T11:31:40.656Z</time>
      </trkpt>
      <trkpt lat="43.67272" lon="5.83404">
        <ele>500</ele>
        <time>2016-01-03T11:31:41.679Z</time>
      </trkpt>
      <trkpt lat="43.67269" lon="5.83411">
        <ele>500</ele>
        <time>2016-01-03T11:31:42.648Z</time>
      </trkpt>
      <trkpt lat="43.67267" lon="5.83419">
        <ele>499</ele>
        <time>2016-01-03T11:31:43.665Z</time>
      </trkpt>
      <trkpt lat="43.67264" lon="5.83427">
        <ele>499</ele>
        <time>2016-01-03T11:31:44.656Z</time>
      </trkpt>
      <trkpt lat="43.67262" lon="5.83434">
        <ele>499</ele>
        <time>2016-01-03T11:31:45.668Z</time>
      </trkpt>
      <trkpt lat="43.67258" lon="5.83442">
        <ele>498</ele>
        <time>2016-01-03T11:31:46.645Z</time>
      </trkpt>
      <trkpt lat="43.67256" lon="5.8345">
        <ele>498</ele>
        <time>2016-01-03T11:31:47.677Z</time>
      </trkpt>
      <trkpt lat="43.67254" lon="5.83459">
        <ele>499</ele>
        <time>2016-01-03T11:31:48.645Z</time>
      </trkpt>
      <trkpt lat="43.67252" lon="5.83467">
        <ele>498</ele>
        <time>2016-01-03T11:31:49.657Z</time>
      </trkpt>
      <trkpt lat="43.6725" lon="5.83476">
        <ele>497</ele>
        <time>2016-01-03T11:31:50.655Z</time>
      </trkpt>
      <trkpt lat="43.67247" lon="5.83485">
        <ele>497</ele>
        <time>2016-01-03T11:31:51.669Z</time>
      </trkpt>
      <trkpt lat="43.67245" lon="5.83492">
        <ele>496</ele>
        <time>2016-01-03T11:31:52.644Z</time>
      </trkpt>
      <trkpt lat="43.67242" lon="5.835">
        <ele>496</ele>
        <time>2016-01-03T11:31:53.677Z</time>
      </trkpt>
      <trkpt lat="43.6724" lon="5.83507">
        <ele>497</ele>
        <time>2016-01-03T11:31:54.655Z</time>
      </trkpt>
      <trkpt lat="43.67238" lon="5.83514">
        <ele>496</ele>
        <time>2016-01-03T11:31:55.678Z</time>
      </trkpt>
      <trkpt lat="43.67236" lon="5.83521">
        <ele>496</ele>
        <time>2016-01-03T11:31:56.645Z</time>
      </trkpt>
      <trkpt lat="43.67234" lon="5.83528">
        <ele>494</ele>
        <time>2016-01-03T11:31:57.669Z</time>
      </trkpt>
      <trkpt lat="43.67232" lon="5.83536">
        <ele>495</ele>
        <time>2016-01-03T11:31:58.655Z</time>
      </trkpt>
      <trkpt lat="43.67229" lon="5.83543">
        <ele>494</ele>
        <time>2016-01-03T11:31:59.658Z</time>
      </trkpt>
      <trkpt lat="43.67228" lon="5.83551">
        <ele>494</ele>
        <time>2016-01-03T11:32:00.644Z</time>
      </trkpt>
      <trkpt lat="43.67227" lon="5.83559">
        <ele>494</ele>
        <time>2016-01-03T11:32:01.668Z</time>
      </trkpt>
      <trkpt lat="43.67225" lon="5.83567">
        <ele>494</ele>
        <time>2016-01-03T11:32:02.644Z</time>
      </trkpt>
      <trkpt lat="43.67223" lon="5.83575">
        <ele>494</ele>
        <time>2016-01-03T11:32:03.666Z</time>
      </trkpt>
      <trkpt lat="43.67221" lon="5.83584">
        <ele>493</ele>
        <time>2016-01-03T11:32:04.644Z</time>
      </trkpt>
      <trkpt lat="43.67219" lon="5.83593">
        <ele>493</ele>
        <time>2016-01-03T11:32:05.668Z</time>
      </trkpt>
      <trkpt lat="43.67217" lon="5.83602">
        <ele>492</ele>
        <time>2016-01-03T11:32:06.644Z</time>
      </trkpt>
      <trkpt lat="43.67214" lon="5.83612">
        <ele>491</ele>
        <time>2016-01-03T11:32:07.668Z</time>
      </trkpt>
      <trkpt lat="43.67211" lon="5.83622">
        <ele>490</ele>
        <time>2016-01-03T11:32:08.635Z</time>
      </trkpt>
      <trkpt lat="43.67209" lon="5.83631">
        <ele>490</ele>
        <time>2016-01-03T11:32:09.695Z</time>
      </trkpt>
      <trkpt lat="43.67208" lon="5.83642">
        <ele>490</ele>
        <time>2016-01-03T11:32:10.644Z</time>
      </trkpt>
      <trkpt lat="43.67205" lon="5.83653">
        <ele>490</ele>
        <time>2016-01-03T11:32:11.663Z</time>
      </trkpt>
      <trkpt lat="43.67203" lon="5.83662">
        <ele>489</ele>
        <time>2016-01-03T11:32:12.656Z</time>
      </trkpt>
      <trkpt lat="43.672" lon="5.83669">
        <ele>489</ele>
        <time>2016-01-03T11:32:13.667Z</time>
      </trkpt>
      <trkpt lat="43.67198" lon="5.83677">
        <ele>488</ele>
        <time>2016-01-03T11:32:14.644Z</time>
      </trkpt>
      <trkpt lat="43.67199" lon="5.83686">
        <ele>488</ele>
        <time>2016-01-03T11:32:15.668Z</time>
      </trkpt>
      <trkpt lat="43.672" lon="5.83693">
        <ele>487</ele>
        <time>2016-01-03T11:32:16.639Z</time>
      </trkpt>
      <trkpt lat="43.67204" lon="5.83699">
        <ele>487</ele>
        <time>2016-01-03T11:32:17.669Z</time>
      </trkpt>
      <trkpt lat="43.67207" lon="5.83706">
        <ele>487</ele>
        <time>2016-01-03T11:32:18.645Z</time>
      </trkpt>
      <trkpt lat="43.67212" lon="5.83712">
        <ele>486</ele>
        <time>2016-01-03T11:32:19.657Z</time>
      </trkpt>
      <trkpt lat="43.67216" lon="5.83718">
        <ele>486</ele>
        <time>2016-01-03T11:32:20.670Z</time>
      </trkpt>
      <trkpt lat="43.67222" lon="5.83724">
        <ele>486</ele>
        <time>2016-01-03T11:32:21.668Z</time>
      </trkpt>
      <trkpt lat="43.67228" lon="5.83729">
        <ele>485</ele>
        <time>2016-01-03T11:32:22.644Z</time>
      </trkpt>
      <trkpt lat="43.67234" lon="5.83733">
        <ele>485</ele>
        <time>2016-01-03T11:32:23.669Z</time>
      </trkpt>
      <trkpt lat="43.67239" lon="5.83738">
        <ele>485</ele>
        <time>2016-01-03T11:32:24.640Z</time>
      </trkpt>
      <trkpt lat="43.67245" lon="5.83744">
        <ele>484</ele>
        <time>2016-01-03T11:32:25.685Z</time>
      </trkpt>
      <trkpt lat="43.6725" lon="5.83748">
        <ele>484</ele>
        <time>2016-01-03T11:32:26.639Z</time>
      </trkpt>
      <trkpt lat="43.67255" lon="5.83753">
        <ele>484</ele>
        <time>2016-01-03T11:32:27.658Z</time>
      </trkpt>
      <trkpt lat="43.67261" lon="5.83758">
        <ele>484</ele>
        <time>2016-01-03T11:32:28.643Z</time>
      </trkpt>
      <trkpt lat="43.67266" lon="5.83762">
        <ele>484</ele>
        <time>2016-01-03T11:32:29.667Z</time>
      </trkpt>
      <trkpt lat="43.67271" lon="5.83768">
        <ele>483</ele>
        <time>2016-01-03T11:32:30.643Z</time>
      </trkpt>
      <trkpt lat="43.67276" lon="5.83775">
        <ele>483</ele>
        <time>2016-01-03T11:32:31.685Z</time>
      </trkpt>
      <trkpt lat="43.67278" lon="5.83783">
        <ele>482</ele>
        <time>2016-01-03T11:32:32.642Z</time>
      </trkpt>
      <trkpt lat="43.6728" lon="5.83792">
        <ele>482</ele>
        <time>2016-01-03T11:32:33.830Z</time>
      </trkpt>
      <trkpt lat="43.6728" lon="5.83801">
        <ele>482</ele>
        <time>2016-01-03T11:32:34.640Z</time>
      </trkpt>
      <trkpt lat="43.67281" lon="5.83809">
        <ele>481</ele>
        <time>2016-01-03T11:32:35.661Z</time>
      </trkpt>
      <trkpt lat="43.67281" lon="5.83817">
        <ele>481</ele>
        <time>2016-01-03T11:32:36.642Z</time>
      </trkpt>
      <trkpt lat="43.67281" lon="5.83825">
        <ele>480</ele>
        <time>2016-01-03T11:32:37.694Z</time>
      </trkpt>
      <trkpt lat="43.67279" lon="5.83833">
        <ele>480</ele>
        <time>2016-01-03T11:32:38.643Z</time>
      </trkpt>
      <trkpt lat="43.67277" lon="5.83841">
        <ele>479</ele>
        <time>2016-01-03T11:32:39.664Z</time>
      </trkpt>
      <trkpt lat="43.67273" lon="5.83846">
        <ele>479</ele>
        <time>2016-01-03T11:32:40.647Z</time>
      </trkpt>
      <trkpt lat="43.6727" lon="5.83849">
        <ele>478</ele>
        <time>2016-01-03T11:32:41.662Z</time>
      </trkpt>
      <trkpt lat="43.67264" lon="5.83851">
        <ele>478</ele>
        <time>2016-01-03T11:32:42.638Z</time>
      </trkpt>
      <trkpt lat="43.67259" lon="5.83853">
        <ele>477</ele>
        <time>2016-01-03T11:32:43.662Z</time>
      </trkpt>
      <trkpt lat="43.67254" lon="5.83854">
        <ele>476</ele>
        <time>2016-01-03T11:32:44.643Z</time>
      </trkpt>
      <trkpt lat="43.67249" lon="5.83854">
        <ele>476</ele>
        <time>2016-01-03T11:32:45.679Z</time>
      </trkpt>
      <trkpt lat="43.67243" lon="5.83856">
        <ele>475</ele>
        <time>2016-01-03T11:32:46.643Z</time>
      </trkpt>
      <trkpt lat="43.67236" lon="5.83858">
        <ele>475</ele>
        <time>2016-01-03T11:32:47.686Z</time>
      </trkpt>
      <trkpt lat="43.6723" lon="5.83861">
        <ele>475</ele>
        <time>2016-01-03T11:32:48.643Z</time>
      </trkpt>
      <trkpt lat="43.67224" lon="5.83867">
        <ele>475</ele>
        <time>2016-01-03T11:32:49.665Z</time>
      </trkpt>
      <trkpt lat="43.67219" lon="5.83873">
        <ele>475</ele>
        <time>2016-01-03T11:32:50.651Z</time>
      </trkpt>
      <trkpt lat="43.67213" lon="5.8388">
        <ele>474</ele>
        <time>2016-01-03T11:32:51.664Z</time>
      </trkpt>
      <trkpt lat="43.67207" lon="5.83888">
        <ele>474</ele>
        <time>2016-01-03T11:32:52.645Z</time>
      </trkpt>
      <trkpt lat="43.67201" lon="5.83895">
        <ele>473</ele>
        <time>2016-01-03T11:32:53.664Z</time>
      </trkpt>
      <trkpt lat="43.67195" lon="5.83903">
        <ele>473</ele>
        <time>2016-01-03T11:32:54.644Z</time>
      </trkpt>
      <trkpt lat="43.67189" lon="5.8391">
        <ele>473</ele>
        <time>2016-01-03T11:32:55.665Z</time>
      </trkpt>
      <trkpt lat="43.67185" lon="5.83917">
        <ele>473</ele>
        <time>2016-01-03T11:32:56.644Z</time>
      </trkpt>
      <trkpt lat="43.67179" lon="5.83924">
        <ele>473</ele>
        <time>2016-01-03T11:32:57.661Z</time>
      </trkpt>
      <trkpt lat="43.67175" lon="5.8393">
        <ele>473</ele>
        <time>2016-01-03T11:32:58.646Z</time>
      </trkpt>
      <trkpt lat="43.67171" lon="5.83936">
        <ele>473</ele>
        <time>2016-01-03T11:32:59.666Z</time>
      </trkpt>
      <trkpt lat="43.67166" lon="5.83943">
        <ele>473</ele>
        <time>2016-01-03T11:33:00.637Z</time>
      </trkpt>
      <trkpt lat="43.67163" lon="5.83949">
        <ele>473</ele>
        <time>2016-01-03T11:33:01.658Z</time>
      </trkpt>
      <trkpt lat="43.67159" lon="5.83957">
        <ele>473</ele>
        <time>2016-01-03T11:33:02.643Z</time>
      </trkpt>
      <trkpt lat="43.67155" lon="5.83963">
        <ele>473</ele>
        <time>2016-01-03T11:33:03.665Z</time>
      </trkpt>
      <trkpt lat="43.67151" lon="5.83969">
        <ele>473</ele>
        <time>2016-01-03T11:33:04.640Z</time>
      </trkpt>
      <trkpt lat="43.67146" lon="5.83973">
        <ele>473</ele>
        <time>2016-01-03T11:33:05.663Z</time>
      </trkpt>
      <trkpt lat="43.67142" lon="5.83979">
        <ele>472</ele>
        <time>2016-01-03T11:33:06.643Z</time>
      </trkpt>
      <trkpt lat="43.67138" lon="5.83985">
        <ele>472</ele>
        <time>2016-01-03T11:33:07.662Z</time>
      </trkpt>
      <trkpt lat="43.67133" lon="5.83991">
        <ele>471</ele>
        <time>2016-01-03T11:33:08.644Z</time>
      </trkpt>
      <trkpt lat="43.67129" lon="5.83996">
        <ele>471</ele>
        <time>2016-01-03T11:33:09.671Z</time>
      </trkpt>
      <trkpt lat="43.67124" lon="5.84003">
        <ele>470</ele>
        <time>2016-01-03T11:33:10.641Z</time>
      </trkpt>
      <trkpt lat="43.67118" lon="5.84008">
        <ele>470</ele>
        <time>2016-01-03T11:33:11.662Z</time>
      </trkpt>
      <trkpt lat="43.67115" lon="5.84015">
        <ele>471</ele>
        <time>2016-01-03T11:33:12.642Z</time>
      </trkpt>
      <trkpt lat="43.6711" lon="5.84021">
        <ele>471</ele>
        <time>2016-01-03T11:33:13.663Z</time>
      </trkpt>
      <trkpt lat="43.67106" lon="5.84027">
        <ele>471</ele>
        <time>2016-01-03T11:33:14.675Z</time>
      </trkpt>
      <trkpt lat="43.67102" lon="5.84032">
        <ele>471</ele>
        <time>2016-01-03T11:33:15.664Z</time>
      </trkpt>
      <trkpt lat="43.67099" lon="5.84038">
        <ele>471</ele>
        <time>2016-01-03T11:33:16.643Z</time>
      </trkpt>
      <trkpt lat="43.67095" lon="5.84043">
        <ele>472</ele>
        <time>2016-01-03T11:33:17.655Z</time>
      </trkpt>
      <trkpt lat="43.67091" lon="5.84049">
        <ele>471</ele>
        <time>2016-01-03T11:33:18.640Z</time>
      </trkpt>
      <trkpt lat="43.67088" lon="5.84054">
        <ele>472</ele>
        <time>2016-01-03T11:33:19.658Z</time>
      </trkpt>
      <trkpt lat="43.67084" lon="5.8406">
        <ele>471</ele>
        <time>2016-01-03T11:33:20.642Z</time>
      </trkpt>
      <trkpt lat="43.67081" lon="5.84066">
        <ele>472</ele>
        <time>2016-01-03T11:33:21.662Z</time>
      </trkpt>
      <trkpt lat="43.67077" lon="5.84071">
        <ele>472</ele>
        <time>2016-01-03T11:33:22.650Z</time>
      </trkpt>
      <trkpt lat="43.67073" lon="5.84077">
        <ele>471</ele>
        <time>2016-01-03T11:33:23.662Z</time>
      </trkpt>
      <trkpt lat="43.67069" lon="5.84082">
        <ele>472</ele>
        <time>2016-01-03T11:33:24.641Z</time>
      </trkpt>
      <trkpt lat="43.67066" lon="5.84088">
        <ele>472</ele>
        <time>2016-01-03T11:33:25.688Z</time>
      </trkpt>
      <trkpt lat="43.67063" lon="5.84093">
        <ele>472</ele>
        <time>2016-01-03T11:33:26.817Z</time>
      </trkpt>
      <trkpt lat="43.67059" lon="5.84098">
        <ele>471</ele>
        <time>2016-01-03T11:33:27.662Z</time>
      </trkpt>
      <trkpt lat="43.67056" lon="5.84101">
        <ele>472</ele>
        <time>2016-01-03T11:33:28.643Z</time>
      </trkpt>
      <trkpt lat="43.67053" lon="5.84106">
        <ele>472</ele>
        <time>2016-01-03T11:33:29.661Z</time>
      </trkpt>
      <trkpt lat="43.67049" lon="5.8411">
        <ele>472</ele>
        <time>2016-01-03T11:33:30.642Z</time>
      </trkpt>
      <trkpt lat="43.67046" lon="5.84115">
        <ele>472</ele>
        <time>2016-01-03T11:33:31.663Z</time>
      </trkpt>
      <trkpt lat="43.67042" lon="5.8412">
        <ele>472</ele>
        <time>2016-01-03T11:33:32.642Z</time>
      </trkpt>
      <trkpt lat="43.67039" lon="5.84125">
        <ele>472</ele>
        <time>2016-01-03T11:33:33.658Z</time>
      </trkpt>
      <trkpt lat="43.67035" lon="5.8413">
        <ele>472</ele>
        <time>2016-01-03T11:33:34.643Z</time>
      </trkpt>
      <trkpt lat="43.67032" lon="5.84136">
        <ele>471</ele>
        <time>2016-01-03T11:33:35.673Z</time>
      </trkpt>
      <trkpt lat="43.67028" lon="5.84141">
        <ele>470</ele>
        <time>2016-01-03T11:33:36.666Z</time>
      </trkpt>
      <trkpt lat="43.67024" lon="5.84146">
        <ele>470</ele>
        <time>2016-01-03T11:33:37.664Z</time>
      </trkpt>
      <trkpt lat="43.67021" lon="5.8415">
        <ele>471</ele>
        <time>2016-01-03T11:33:38.644Z</time>
      </trkpt>
      <trkpt lat="43.67015" lon="5.84159">
        <ele>471</ele>
        <time>2016-01-03T11:33:40.649Z</time>
      </trkpt>
      <trkpt lat="43.67013" lon="5.84162">
        <ele>471</ele>
        <time>2016-01-03T11:33:41.643Z</time>
      </trkpt>
      <trkpt lat="43.6701" lon="5.84171">
        <ele>471</ele>
        <time>2016-01-03T11:33:43.668Z</time>
      </trkpt>
      <trkpt lat="43.6701" lon="5.84177">
        <ele>470</ele>
        <time>2016-01-03T11:33:44.644Z</time>
      </trkpt>
      <trkpt lat="43.6701" lon="5.84189">
        <ele>470</ele>
        <time>2016-01-03T11:33:46.669Z</time>
      </trkpt>
      <trkpt lat="43.6701" lon="5.84194">
        <ele>470</ele>
        <time>2016-01-03T11:33:47.671Z</time>
      </trkpt>
      <trkpt lat="43.6701" lon="5.84206">
        <ele>470</ele>
        <time>2016-01-03T11:33:49.668Z</time>
      </trkpt>
      <trkpt lat="43.6701" lon="5.84212">
        <ele>469</ele>
        <time>2016-01-03T11:33:50.644Z</time>
      </trkpt>
      <trkpt lat="43.67009" lon="5.84224">
        <ele>470</ele>
        <time>2016-01-03T11:33:52.669Z</time>
      </trkpt>
      <trkpt lat="43.67009" lon="5.8423">
        <ele>470</ele>
        <time>2016-01-03T11:33:53.645Z</time>
      </trkpt>
      <trkpt lat="43.67007" lon="5.84241">
        <ele>469</ele>
        <time>2016-01-03T11:33:55.668Z</time>
      </trkpt>
      <trkpt lat="43.67007" lon="5.84247">
        <ele>469</ele>
        <time>2016-01-03T11:33:56.645Z</time>
      </trkpt>
      <trkpt lat="43.67004" lon="5.84257">
        <ele>470</ele>
        <time>2016-01-03T11:33:58.692Z</time>
      </trkpt>
      <trkpt lat="43.67001" lon="5.84262">
        <ele>470</ele>
        <time>2016-01-03T11:33:59.643Z</time>
      </trkpt>
      <trkpt lat="43.66996" lon="5.84271">
        <ele>470</ele>
        <time>2016-01-03T11:34:01.669Z</time>
      </trkpt>
      <trkpt lat="43.66992" lon="5.84276">
        <ele>470</ele>
        <time>2016-01-03T11:34:02.645Z</time>
      </trkpt>
      <trkpt lat="43.66988" lon="5.8428">
        <ele>470</ele>
        <time>2016-01-03T11:34:03.669Z</time>
      </trkpt>
      <trkpt lat="43.66984" lon="5.84285">
        <ele>470</ele>
        <time>2016-01-03T11:34:04.646Z</time>
      </trkpt>
      <trkpt lat="43.6698" lon="5.84289">
        <ele>470</ele>
        <time>2016-01-03T11:34:05.669Z</time>
      </trkpt>
      <trkpt lat="43.66975" lon="5.84293">
        <ele>470</ele>
        <time>2016-01-03T11:34:06.646Z</time>
      </trkpt>
      <trkpt lat="43.66971" lon="5.84296">
        <ele>470</ele>
        <time>2016-01-03T11:34:07.670Z</time>
      </trkpt>
      <trkpt lat="43.66967" lon="5.84299">
        <ele>471</ele>
        <time>2016-01-03T11:34:08.646Z</time>
      </trkpt>
      <trkpt lat="43.66959" lon="5.84305">
        <ele>471</ele>
        <time>2016-01-03T11:34:10.662Z</time>
      </trkpt>
      <trkpt lat="43.66955" lon="5.84308">
        <ele>470</ele>
        <time>2016-01-03T11:34:11.645Z</time>
      </trkpt>
      <trkpt lat="43.66951" lon="5.84312">
        <ele>470</ele>
        <time>2016-01-03T11:34:12.664Z</time>
      </trkpt>
      <trkpt lat="43.66946" lon="5.84317">
        <ele>470</ele>
        <time>2016-01-03T11:34:13.646Z</time>
      </trkpt>
      <trkpt lat="43.66942" lon="5.84321">
        <ele>471</ele>
        <time>2016-01-03T11:34:14.669Z</time>
      </trkpt>
      <trkpt lat="43.66938" lon="5.84326">
        <ele>470</ele>
        <time>2016-01-03T11:34:15.645Z</time>
      </trkpt>
      <trkpt lat="43.66934" lon="5.84331">
        <ele>470</ele>
        <time>2016-01-03T11:34:16.669Z</time>
      </trkpt>
      <trkpt lat="43.6693" lon="5.84336">
        <ele>470</ele>
        <time>2016-01-03T11:34:17.645Z</time>
      </trkpt>
      <trkpt lat="43.66927" lon="5.84341">
        <ele>470</ele>
        <time>2016-01-03T11:34:18.668Z</time>
      </trkpt>
      <trkpt lat="43.66923" lon="5.84345">
        <ele>470</ele>
        <time>2016-01-03T11:34:19.656Z</time>
      </trkpt>
      <trkpt lat="43.6692" lon="5.8435">
        <ele>470</ele>
        <time>2016-01-03T11:34:20.693Z</time>
      </trkpt>
      <trkpt lat="43.66916" lon="5.84356">
        <ele>470</ele>
        <time>2016-01-03T11:34:21.646Z</time>
      </trkpt>
      <trkpt lat="43.66913" lon="5.84361">
        <ele>470</ele>
        <time>2016-01-03T11:34:22.677Z</time>
      </trkpt>
      <trkpt lat="43.66909" lon="5.84365">
        <ele>470</ele>
        <time>2016-01-03T11:34:23.853Z</time>
      </trkpt>
      <trkpt lat="43.66905" lon="5.84371">
        <ele>471</ele>
        <time>2016-01-03T11:34:24.658Z</time>
      </trkpt>
      <trkpt lat="43.66902" lon="5.84376">
        <ele>471</ele>
        <time>2016-01-03T11:34:25.657Z</time>
      </trkpt>
      <trkpt lat="43.66898" lon="5.8438">
        <ele>471</ele>
        <time>2016-01-03T11:34:26.669Z</time>
      </trkpt>
      <trkpt lat="43.66894" lon="5.84385">
        <ele>471</ele>
        <time>2016-01-03T11:34:27.644Z</time>
      </trkpt>
      <trkpt lat="43.6689" lon="5.8439">
        <ele>471</ele>
        <time>2016-01-03T11:34:28.668Z</time>
      </trkpt>
      <trkpt lat="43.66887" lon="5.84395">
        <ele>472</ele>
        <time>2016-01-03T11:34:29.645Z</time>
      </trkpt>
      <trkpt lat="43.66883" lon="5.84401">
        <ele>471</ele>
        <time>2016-01-03T11:34:30.662Z</time>
      </trkpt>
      <trkpt lat="43.66879" lon="5.84407">
        <ele>471</ele>
        <time>2016-01-03T11:34:31.671Z</time>
      </trkpt>
      <trkpt lat="43.66875" lon="5.84412">
        <ele>471</ele>
        <time>2016-01-03T11:34:32.668Z</time>
      </trkpt>
      <trkpt lat="43.66871" lon="5.84417">
        <ele>471</ele>
        <time>2016-01-03T11:34:33.645Z</time>
      </trkpt>
      <trkpt lat="43.66868" lon="5.84422">
        <ele>470</ele>
        <time>2016-01-03T11:34:34.877Z</time>
      </trkpt>
      <trkpt lat="43.66864" lon="5.84428">
        <ele>470</ele>
        <time>2016-01-03T11:34:35.645Z</time>
      </trkpt>
      <trkpt lat="43.6686" lon="5.84433">
        <ele>469</ele>
        <time>2016-01-03T11:34:36.657Z</time>
      </trkpt>
      <trkpt lat="43.66856" lon="5.84438">
        <ele>469</ele>
        <time>2016-01-03T11:34:37.647Z</time>
      </trkpt>
      <trkpt lat="43.66852" lon="5.84444">
        <ele>469</ele>
        <time>2016-01-03T11:34:38.671Z</time>
      </trkpt>
      <trkpt lat="43.6685" lon="5.84449">
        <ele>470</ele>
        <time>2016-01-03T11:34:39.647Z</time>
      </trkpt>
      <trkpt lat="43.66847" lon="5.84456">
        <ele>469</ele>
        <time>2016-01-03T11:34:40.668Z</time>
      </trkpt>
      <trkpt lat="43.66845" lon="5.84462">
        <ele>469</ele>
        <time>2016-01-03T11:34:41.645Z</time>
      </trkpt>
      <trkpt lat="43.66843" lon="5.8447">
        <ele>469</ele>
        <time>2016-01-03T11:34:42.679Z</time>
      </trkpt>
      <trkpt lat="43.66841" lon="5.84476">
        <ele>470</ele>
        <time>2016-01-03T11:34:43.646Z</time>
      </trkpt>
      <trkpt lat="43.6684" lon="5.84482">
        <ele>469</ele>
        <time>2016-01-03T11:34:44.878Z</time>
      </trkpt>
      <trkpt lat="43.66838" lon="5.84488">
        <ele>470</ele>
        <time>2016-01-03T11:34:45.645Z</time>
      </trkpt>
      <trkpt lat="43.66836" lon="5.84495">
        <ele>470</ele>
        <time>2016-01-03T11:34:46.659Z</time>
      </trkpt>
      <trkpt lat="43.66835" lon="5.84502">
        <ele>469</ele>
        <time>2016-01-03T11:34:47.672Z</time>
      </trkpt>
      <trkpt lat="43.66833" lon="5.84509">
        <ele>469</ele>
        <time>2016-01-03T11:34:48.671Z</time>
      </trkpt>
      <trkpt lat="43.66832" lon="5.84515">
        <ele>470</ele>
        <time>2016-01-03T11:34:49.647Z</time>
      </trkpt>
      <trkpt lat="43.6683" lon="5.84522">
        <ele>470</ele>
        <time>2016-01-03T11:34:50.671Z</time>
      </trkpt>
      <trkpt lat="43.66828" lon="5.84529">
        <ele>470</ele>
        <time>2016-01-03T11:34:51.645Z</time>
      </trkpt>
      <trkpt lat="43.66827" lon="5.84536">
        <ele>469</ele>
        <time>2016-01-03T11:34:52.682Z</time>
      </trkpt>
      <trkpt lat="43.66826" lon="5.84543">
        <ele>470</ele>
        <time>2016-01-03T11:34:53.645Z</time>
      </trkpt>
      <trkpt lat="43.66825" lon="5.8455">
        <ele>469</ele>
        <time>2016-01-03T11:34:54.668Z</time>
      </trkpt>
      <trkpt lat="43.66824" lon="5.84557">
        <ele>470</ele>
        <time>2016-01-03T11:34:55.655Z</time>
      </trkpt>
      <trkpt lat="43.66823" lon="5.84564">
        <ele>470</ele>
        <time>2016-01-03T11:34:56.671Z</time>
      </trkpt>
      <trkpt lat="43.66822" lon="5.84571">
        <ele>470</ele>
        <time>2016-01-03T11:34:57.644Z</time>
      </trkpt>
      <trkpt lat="43.6682" lon="5.84577">
        <ele>470</ele>
        <time>2016-01-03T11:34:58.695Z</time>
      </trkpt>
      <trkpt lat="43.66818" lon="5.84585">
        <ele>470</ele>
        <time>2016-01-03T11:34:59.645Z</time>
      </trkpt>
      <trkpt lat="43.66817" lon="5.84592">
        <ele>470</ele>
        <time>2016-01-03T11:35:00.668Z</time>
      </trkpt>
      <trkpt lat="43.66815" lon="5.846">
        <ele>471</ele>
        <time>2016-01-03T11:35:01.656Z</time>
      </trkpt>
      <trkpt lat="43.66814" lon="5.84606">
        <ele>471</ele>
        <time>2016-01-03T11:35:02.669Z</time>
      </trkpt>
      <trkpt lat="43.66812" lon="5.84613">
        <ele>470</ele>
        <time>2016-01-03T11:35:03.646Z</time>
      </trkpt>
      <trkpt lat="43.66811" lon="5.84621">
        <ele>469</ele>
        <time>2016-01-03T11:35:04.668Z</time>
      </trkpt>
      <trkpt lat="43.66809" lon="5.84627">
        <ele>469</ele>
        <time>2016-01-03T11:35:05.645Z</time>
      </trkpt>
      <trkpt lat="43.66808" lon="5.84633">
        <ele>470</ele>
        <time>2016-01-03T11:35:06.685Z</time>
      </trkpt>
      <trkpt lat="43.66807" lon="5.8464">
        <ele>469</ele>
        <time>2016-01-03T11:35:07.640Z</time>
      </trkpt>
      <trkpt lat="43.66805" lon="5.84647">
        <ele>470</ele>
        <time>2016-01-03T11:35:08.661Z</time>
      </trkpt>
      <trkpt lat="43.66804" lon="5.84654">
        <ele>470</ele>
        <time>2016-01-03T11:35:09.664Z</time>
      </trkpt>
      <trkpt lat="43.66802" lon="5.84661">
        <ele>470</ele>
        <time>2016-01-03T11:35:10.663Z</time>
      </trkpt>
      <trkpt lat="43.668" lon="5.84668">
        <ele>469</ele>
        <time>2016-01-03T11:35:11.642Z</time>
      </trkpt>
      <trkpt lat="43.66798" lon="5.84676">
        <ele>469</ele>
        <time>2016-01-03T11:35:12.663Z</time>
      </trkpt>
      <trkpt lat="43.66797" lon="5.84683">
        <ele>469</ele>
        <time>2016-01-03T11:35:13.637Z</time>
      </trkpt>
      <trkpt lat="43.66796" lon="5.8469">
        <ele>470</ele>
        <time>2016-01-03T11:35:14.662Z</time>
      </trkpt>
      <trkpt lat="43.66795" lon="5.84697">
        <ele>470</ele>
        <time>2016-01-03T11:35:15.644Z</time>
      </trkpt>
      <trkpt lat="43.66794" lon="5.84704">
        <ele>470</ele>
        <time>2016-01-03T11:35:16.669Z</time>
      </trkpt>
      <trkpt lat="43.66791" lon="5.84712">
        <ele>470</ele>
        <time>2016-01-03T11:35:17.643Z</time>
      </trkpt>
      <trkpt lat="43.66789" lon="5.84719">
        <ele>469</ele>
        <time>2016-01-03T11:35:18.662Z</time>
      </trkpt>
      <trkpt lat="43.66786" lon="5.84728">
        <ele>469</ele>
        <time>2016-01-03T11:35:19.643Z</time>
      </trkpt>
      <trkpt lat="43.66783" lon="5.84737">
        <ele>469</ele>
        <time>2016-01-03T11:35:20.684Z</time>
      </trkpt>
      <trkpt lat="43.6678" lon="5.84746">
        <ele>469</ele>
        <time>2016-01-03T11:35:21.650Z</time>
      </trkpt>
      <trkpt lat="43.66777" lon="5.84754">
        <ele>468</ele>
        <time>2016-01-03T11:35:22.663Z</time>
      </trkpt>
      <trkpt lat="43.66775" lon="5.84764">
        <ele>468</ele>
        <time>2016-01-03T11:35:23.643Z</time>
      </trkpt>
      <trkpt lat="43.66772" lon="5.84774">
        <ele>468</ele>
        <time>2016-01-03T11:35:24.658Z</time>
      </trkpt>
      <trkpt lat="43.66769" lon="5.84785">
        <ele>466</ele>
        <time>2016-01-03T11:35:25.644Z</time>
      </trkpt>
      <trkpt lat="43.66767" lon="5.84794">
        <ele>467</ele>
        <time>2016-01-03T11:35:26.677Z</time>
      </trkpt>
      <trkpt lat="43.66764" lon="5.84804">
        <ele>466</ele>
        <time>2016-01-03T11:35:27.645Z</time>
      </trkpt>
      <trkpt lat="43.66761" lon="5.84812">
        <ele>466</ele>
        <time>2016-01-03T11:35:28.705Z</time>
      </trkpt>
      <trkpt lat="43.66758" lon="5.84822">
        <ele>466</ele>
        <time>2016-01-03T11:35:29.656Z</time>
      </trkpt>
      <trkpt lat="43.66755" lon="5.84831">
        <ele>465</ele>
        <time>2016-01-03T11:35:30.669Z</time>
      </trkpt>
      <trkpt lat="43.66753" lon="5.8484">
        <ele>465</ele>
        <time>2016-01-03T11:35:31.670Z</time>
      </trkpt>
      <trkpt lat="43.6675" lon="5.84849">
        <ele>465</ele>
        <time>2016-01-03T11:35:32.668Z</time>
      </trkpt>
      <trkpt lat="43.66747" lon="5.84858">
        <ele>465</ele>
        <time>2016-01-03T11:35:33.646Z</time>
      </trkpt>
      <trkpt lat="43.66744" lon="5.84867">
        <ele>465</ele>
        <time>2016-01-03T11:35:34.668Z</time>
      </trkpt>
      <trkpt lat="43.66741" lon="5.84876">
        <ele>465</ele>
        <time>2016-01-03T11:35:35.646Z</time>
      </trkpt>
      <trkpt lat="43.66738" lon="5.84884">
        <ele>465</ele>
        <time>2016-01-03T11:35:36.675Z</time>
      </trkpt>
      <trkpt lat="43.66735" lon="5.84892">
        <ele>465</ele>
        <time>2016-01-03T11:35:37.645Z</time>
      </trkpt>
      <trkpt lat="43.66731" lon="5.849">
        <ele>464</ele>
        <time>2016-01-03T11:35:38.669Z</time>
      </trkpt>
      <trkpt lat="43.66728" lon="5.84908">
        <ele>465</ele>
        <time>2016-01-03T11:35:39.646Z</time>
      </trkpt>
      <trkpt lat="43.66725" lon="5.84916">
        <ele>465</ele>
        <time>2016-01-03T11:35:40.655Z</time>
      </trkpt>
      <trkpt lat="43.66721" lon="5.84922">
        <ele>465</ele>
        <time>2016-01-03T11:35:41.636Z</time>
      </trkpt>
      <trkpt lat="43.66718" lon="5.84929">
        <ele>465</ele>
        <time>2016-01-03T11:35:42.668Z</time>
      </trkpt>
      <trkpt lat="43.66716" lon="5.84936">
        <ele>465</ele>
        <time>2016-01-03T11:35:43.645Z</time>
      </trkpt>
      <trkpt lat="43.66715" lon="5.84944">
        <ele>464</ele>
        <time>2016-01-03T11:35:44.668Z</time>
      </trkpt>
      <trkpt lat="43.66715" lon="5.84953">
        <ele>463</ele>
        <time>2016-01-03T11:35:45.655Z</time>
      </trkpt>
      <trkpt lat="43.66717" lon="5.84961">
        <ele>463</ele>
        <time>2016-01-03T11:35:46.667Z</time>
      </trkpt>
      <trkpt lat="43.66721" lon="5.84968">
        <ele>463</ele>
        <time>2016-01-03T11:35:47.669Z</time>
      </trkpt>
      <trkpt lat="43.66726" lon="5.84972">
        <ele>464</ele>
        <time>2016-01-03T11:35:48.668Z</time>
      </trkpt>
      <trkpt lat="43.66732" lon="5.84976">
        <ele>463</ele>
        <time>2016-01-03T11:35:49.646Z</time>
      </trkpt>
      <trkpt lat="43.66739" lon="5.84975">
        <ele>463</ele>
        <time>2016-01-03T11:35:50.671Z</time>
      </trkpt>
      <trkpt lat="43.66745" lon="5.84974">
        <ele>463</ele>
        <time>2016-01-03T11:35:51.645Z</time>
      </trkpt>
      <trkpt lat="43.66751" lon="5.84972">
        <ele>463</ele>
        <time>2016-01-03T11:35:52.669Z</time>
      </trkpt>
      <trkpt lat="43.66756" lon="5.84969">
        <ele>462</ele>
        <time>2016-01-03T11:35:53.646Z</time>
      </trkpt>
      <trkpt lat="43.66762" lon="5.84966">
        <ele>463</ele>
        <time>2016-01-03T11:35:54.669Z</time>
      </trkpt>
      <trkpt lat="43.66768" lon="5.84963">
        <ele>463</ele>
        <time>2016-01-03T11:35:55.646Z</time>
      </trkpt>
      <trkpt lat="43.66774" lon="5.8496">
        <ele>463</ele>
        <time>2016-01-03T11:35:56.668Z</time>
      </trkpt>
      <trkpt lat="43.66779" lon="5.84957">
        <ele>464</ele>
        <time>2016-01-03T11:35:57.645Z</time>
      </trkpt>
      <trkpt lat="43.66784" lon="5.84955">
        <ele>464</ele>
        <time>2016-01-03T11:35:58.693Z</time>
      </trkpt>
      <trkpt lat="43.66789" lon="5.84953">
        <ele>464</ele>
        <time>2016-01-03T11:35:59.647Z</time>
      </trkpt>
      <trkpt lat="43.66795" lon="5.84951">
        <ele>463</ele>
        <time>2016-01-03T11:36:00.668Z</time>
      </trkpt>
      <trkpt lat="43.668" lon="5.8495">
        <ele>463</ele>
        <time>2016-01-03T11:36:01.645Z</time>
      </trkpt>
      <trkpt lat="43.66806" lon="5.84948">
        <ele>462</ele>
        <time>2016-01-03T11:36:02.668Z</time>
      </trkpt>
      <trkpt lat="43.66812" lon="5.84947">
        <ele>462</ele>
        <time>2016-01-03T11:36:03.646Z</time>
      </trkpt>
      <trkpt lat="43.66819" lon="5.84944">
        <ele>461</ele>
        <time>2016-01-03T11:36:04.669Z</time>
      </trkpt>
      <trkpt lat="43.66825" lon="5.84942">
        <ele>462</ele>
        <time>2016-01-03T11:36:05.645Z</time>
      </trkpt>
      <trkpt lat="43.66831" lon="5.8494">
        <ele>462</ele>
        <time>2016-01-03T11:36:06.679Z</time>
      </trkpt>
      <trkpt lat="43.66836" lon="5.84938">
        <ele>463</ele>
        <time>2016-01-03T11:36:07.644Z</time>
      </trkpt>
      <trkpt lat="43.66843" lon="5.84936">
        <ele>463</ele>
        <time>2016-01-03T11:36:08.667Z</time>
      </trkpt>
      <trkpt lat="43.66848" lon="5.84934">
        <ele>463</ele>
        <time>2016-01-03T11:36:09.645Z</time>
      </trkpt>
      <trkpt lat="43.66854" lon="5.84932">
        <ele>463</ele>
        <time>2016-01-03T11:36:10.668Z</time>
      </trkpt>
      <trkpt lat="43.66861" lon="5.8493">
        <ele>462</ele>
        <time>2016-01-03T11:36:11.646Z</time>
      </trkpt>
      <trkpt lat="43.66867" lon="5.84928">
        <ele>461</ele>
        <time>2016-01-03T11:36:12.872Z</time>
      </trkpt>
      <trkpt lat="43.66872" lon="5.84928">
        <ele>463</ele>
        <time>2016-01-03T11:36:13.645Z</time>
      </trkpt>
      <trkpt lat="43.66878" lon="5.84926">
        <ele>463</ele>
        <time>2016-01-03T11:36:14.692Z</time>
      </trkpt>
      <trkpt lat="43.66884" lon="5.84925">
        <ele>463</ele>
        <time>2016-01-03T11:36:15.647Z</time>
      </trkpt>
      <trkpt lat="43.6689" lon="5.84923">
        <ele>463</ele>
        <time>2016-01-03T11:36:16.679Z</time>
      </trkpt>
      <trkpt lat="43.66896" lon="5.84922">
        <ele>462</ele>
        <time>2016-01-03T11:36:17.644Z</time>
      </trkpt>
      <trkpt lat="43.66901" lon="5.8492">
        <ele>463</ele>
        <time>2016-01-03T11:36:18.667Z</time>
      </trkpt>
      <trkpt lat="43.66905" lon="5.84919">
        <ele>463</ele>
        <time>2016-01-03T11:36:19.644Z</time>
      </trkpt>
      <trkpt lat="43.66913" lon="5.84918">
        <ele>463</ele>
        <time>2016-01-03T11:36:21.679Z</time>
      </trkpt>
      <trkpt lat="43.66918" lon="5.84917">
        <ele>463</ele>
        <time>2016-01-03T11:36:22.645Z</time>
      </trkpt>
      <trkpt lat="43.66926" lon="5.84915">
        <ele>463</ele>
        <time>2016-01-03T11:36:24.675Z</time>
      </trkpt>
      <trkpt lat="43.6693" lon="5.84913">
        <ele>463</ele>
        <time>2016-01-03T11:36:25.668Z</time>
      </trkpt>
      <trkpt lat="43.66938" lon="5.84909">
        <ele>463</ele>
        <time>2016-01-03T11:36:27.667Z</time>
      </trkpt>
      <trkpt lat="43.66943" lon="5.84907">
        <ele>463</ele>
        <time>2016-01-03T11:36:28.645Z</time>
      </trkpt>
      <trkpt lat="43.66948" lon="5.84904">
        <ele>462</ele>
        <time>2016-01-03T11:36:29.672Z</time>
      </trkpt>
      <trkpt lat="43.66952" lon="5.84902">
        <ele>461</ele>
        <time>2016-01-03T11:36:30.645Z</time>
      </trkpt>
      <trkpt lat="43.66956" lon="5.84898">
        <ele>461</ele>
        <time>2016-01-03T11:36:31.668Z</time>
      </trkpt>
      <trkpt lat="43.6696" lon="5.84895">
        <ele>460</ele>
        <time>2016-01-03T11:36:32.645Z</time>
      </trkpt>
      <trkpt lat="43.66965" lon="5.84891">
        <ele>460</ele>
        <time>2016-01-03T11:36:33.669Z</time>
      </trkpt>
      <trkpt lat="43.66968" lon="5.84887">
        <ele>460</ele>
        <time>2016-01-03T11:36:34.663Z</time>
      </trkpt>
      <trkpt lat="43.66972" lon="5.84883">
        <ele>460</ele>
        <time>2016-01-03T11:36:35.655Z</time>
      </trkpt>
      <trkpt lat="43.66976" lon="5.84879">
        <ele>459</ele>
        <time>2016-01-03T11:36:36.670Z</time>
      </trkpt>
      <trkpt lat="43.66981" lon="5.84876">
        <ele>458</ele>
        <time>2016-01-03T11:36:37.652Z</time>
      </trkpt>
      <trkpt lat="43.66985" lon="5.84874">
        <ele>458</ele>
        <time>2016-01-03T11:36:38.647Z</time>
      </trkpt>
      <trkpt lat="43.66993" lon="5.8487">
        <ele>458</ele>
        <time>2016-01-03T11:36:40.671Z</time>
      </trkpt>
      <trkpt lat="43.66995" lon="5.84869">
        <ele>459</ele>
        <time>2016-01-03T11:36:41.649Z</time>
      </trkpt>
      <trkpt lat="43.67002" lon="5.84866">
        <ele>460</ele>
        <time>2016-01-03T11:36:43.671Z</time>
      </trkpt>
      <trkpt lat="43.67005" lon="5.84865">
        <ele>458</ele>
        <time>2016-01-03T11:36:44.646Z</time>
      </trkpt>
      <trkpt lat="43.6701" lon="5.84875">
        <ele>458</ele>
        <time>2016-01-03T11:36:46.669Z</time>
      </trkpt>
      <trkpt lat="43.67013" lon="5.84879">
        <ele>459</ele>
        <time>2016-01-03T11:36:47.684Z</time>
      </trkpt>
      <trkpt lat="43.67019" lon="5.84885">
        <ele>460</ele>
        <time>2016-01-03T11:36:49.670Z</time>
      </trkpt>
      <trkpt lat="43.67023" lon="5.84884">
        <ele>460</ele>
        <time>2016-01-03T11:36:50.645Z</time>
      </trkpt>
      <trkpt lat="43.67031" lon="5.84879">
        <ele>459</ele>
        <time>2016-01-03T11:36:52.682Z</time>
      </trkpt>
      <trkpt lat="43.67035" lon="5.84875">
        <ele>460</ele>
        <time>2016-01-03T11:36:53.645Z</time>
      </trkpt>
      <trkpt lat="43.67043" lon="5.84869">
        <ele>460</ele>
        <time>2016-01-03T11:36:54.669Z</time>
      </trkpt>
      <trkpt lat="43.67049" lon="5.84866">
        <ele>459</ele>
        <time>2016-01-03T11:36:55.644Z</time>
      </trkpt>
      <trkpt lat="43.67057" lon="5.84861">
        <ele>460</ele>
        <time>2016-01-03T11:36:57.893Z</time>
      </trkpt>
      <trkpt lat="43.6706" lon="5.84859">
        <ele>460</ele>
        <time>2016-01-03T11:36:58.669Z</time>
      </trkpt>
      <trkpt lat="43.67065" lon="5.84855">
        <ele>458</ele>
        <time>2016-01-03T11:37:00.677Z</time>
      </trkpt>
      <trkpt lat="43.67068" lon="5.84853">
        <ele>458</ele>
        <time>2016-01-03T11:37:01.646Z</time>
      </trkpt>
      <trkpt lat="43.67076" lon="5.84849">
        <ele>458</ele>
        <time>2016-01-03T11:37:03.667Z</time>
      </trkpt>
      <trkpt lat="43.67079" lon="5.84848">
        <ele>458</ele>
        <time>2016-01-03T11:37:04.645Z</time>
      </trkpt>
      <trkpt lat="43.67086" lon="5.84845">
        <ele>459</ele>
        <time>2016-01-03T11:37:06.742Z</time>
      </trkpt>
      <trkpt lat="43.6709" lon="5.84843">
        <ele>457</ele>
        <time>2016-01-03T11:37:07.645Z</time>
      </trkpt>
      <trkpt lat="43.67097" lon="5.84838">
        <ele>458</ele>
        <time>2016-01-03T11:37:09.898Z</time>
      </trkpt>
      <trkpt lat="43.671" lon="5.84836">
        <ele>458</ele>
        <time>2016-01-03T11:37:10.645Z</time>
      </trkpt>
      <trkpt lat="43.67106" lon="5.84833">
        <ele>457</ele>
        <time>2016-01-03T11:37:12.669Z</time>
      </trkpt>
      <trkpt lat="43.67109" lon="5.84831">
        <ele>456</ele>
        <time>2016-01-03T11:37:13.644Z</time>
      </trkpt>
      <trkpt lat="43.67116" lon="5.84838">
        <ele>462</ele>
        <time>2016-01-03T11:37:19.697Z</time>
      </trkpt>
      <trkpt lat="43.67116" lon="5.84841">
        <ele>463</ele>
        <time>2016-01-03T11:37:20.646Z</time>
      </trkpt>
      <trkpt lat="43.67118" lon="5.84849">
        <ele>463</ele>
        <time>2016-01-03T11:37:22.669Z</time>
      </trkpt>
      <trkpt lat="43.67119" lon="5.84854">
        <ele>464</ele>
        <time>2016-01-03T11:37:23.644Z</time>
      </trkpt>
      <trkpt lat="43.67121" lon="5.84862">
        <ele>462</ele>
        <time>2016-01-03T11:37:25.678Z</time>
      </trkpt>
      <trkpt lat="43.67122" lon="5.84865">
        <ele>464</ele>
        <time>2016-01-03T11:37:26.644Z</time>
      </trkpt>
      <trkpt lat="43.67126" lon="5.84875">
        <ele>469</ele>
        <time>2016-01-03T11:37:30.694Z</time>
      </trkpt>
      <trkpt lat="43.67127" lon="5.84877">
        <ele>469</ele>
        <time>2016-01-03T11:37:31.645Z</time>
      </trkpt>
      <trkpt lat="43.67128" lon="5.84889">
        <ele>471</ele>
        <time>2016-01-03T11:37:36.674Z</time>
      </trkpt>
      <trkpt lat="43.67128" lon="5.84891">
        <ele>471</ele>
        <time>2016-01-03T11:37:37.646Z</time>
      </trkpt>
      <trkpt lat="43.67132" lon="5.849">
        <ele>472</ele>
        <time>2016-01-03T11:37:41.701Z</time>
      </trkpt>
      <trkpt lat="43.67133" lon="5.84903">
        <ele>472</ele>
        <time>2016-01-03T11:37:42.644Z</time>
      </trkpt>
      <trkpt lat="43.67134" lon="5.84914">
        <ele>473</ele>
        <time>2016-01-03T11:37:46.719Z</time>
      </trkpt>
      <trkpt lat="43.67135" lon="5.84916">
        <ele>473</ele>
        <time>2016-01-03T11:37:47.641Z</time>
      </trkpt>
      <trkpt lat="43.67137" lon="5.84928">
        <ele>474</ele>
        <time>2016-01-03T11:37:51.664Z</time>
      </trkpt>
      <trkpt lat="43.67137" lon="5.84931">
        <ele>474</ele>
        <time>2016-01-03T11:37:52.648Z</time>
      </trkpt>
      <trkpt lat="43.67136" lon="5.84941">
        <ele>475</ele>
        <time>2016-01-03T11:37:55.668Z</time>
      </trkpt>
      <trkpt lat="43.67136" lon="5.84946">
        <ele>475</ele>
        <time>2016-01-03T11:37:56.646Z</time>
      </trkpt>
      <trkpt lat="43.67137" lon="5.84958">
        <ele>474</ele>
        <time>2016-01-03T11:37:58.657Z</time>
      </trkpt>
      <trkpt lat="43.67137" lon="5.84963">
        <ele>473</ele>
        <time>2016-01-03T11:37:59.646Z</time>
      </trkpt>
      <trkpt lat="43.67136" lon="5.84974">
        <ele>474</ele>
        <time>2016-01-03T11:38:01.666Z</time>
      </trkpt>
      <trkpt lat="43.67136" lon="5.8498">
        <ele>474</ele>
        <time>2016-01-03T11:38:02.660Z</time>
      </trkpt>
      <trkpt lat="43.67135" lon="5.84991">
        <ele>477</ele>
        <time>2016-01-03T11:38:06.679Z</time>
      </trkpt>
      <trkpt lat="43.67135" lon="5.84992">
        <ele>477</ele>
        <time>2016-01-03T11:38:07.645Z</time>
      </trkpt>
      <trkpt lat="43.67131" lon="5.85001">
        <ele>475</ele>
        <time>2016-01-03T11:38:15.669Z</time>
      </trkpt>
      <trkpt lat="43.6713" lon="5.85003">
        <ele>479</ele>
        <time>2016-01-03T11:38:16.645Z</time>
      </trkpt>
      <trkpt lat="43.67125" lon="5.85013">
        <ele>472</ele>
        <time>2016-01-03T11:38:19.669Z</time>
      </trkpt>
      <trkpt lat="43.67123" lon="5.8502">
        <ele>473</ele>
        <time>2016-01-03T11:38:20.645Z</time>
      </trkpt>
      <trkpt lat="43.67123" lon="5.8502">
        <ele>473</ele>
        <time>2016-01-03T11:38:20.672Z</time>
      </trkpt>
      <trkpt lat="43.67119" lon="5.85032">
        <ele>470</ele>
        <time>2016-01-03T11:38:21.645Z</time>
      </trkpt>
      <trkpt lat="43.67115" lon="5.8504">
        <ele>469</ele>
        <time>2016-01-03T11:38:22.669Z</time>
      </trkpt>
      <trkpt lat="43.67111" lon="5.85045">
        <ele>467</ele>
        <time>2016-01-03T11:38:23.854Z</time>
      </trkpt>
      <trkpt lat="43.67104" lon="5.85053">
        <ele>468</ele>
        <time>2016-01-03T11:38:25.669Z</time>
      </trkpt>
      <trkpt lat="43.67103" lon="5.85058">
        <ele>468</ele>
        <time>2016-01-03T11:38:26.645Z</time>
      </trkpt>
      <trkpt lat="43.67101" lon="5.85068">
        <ele>465</ele>
        <time>2016-01-03T11:38:28.669Z</time>
      </trkpt>
      <trkpt lat="43.67104" lon="5.85072">
        <ele>467</ele>
        <time>2016-01-03T11:38:29.645Z</time>
      </trkpt>
      <trkpt lat="43.67108" lon="5.85075">
        <ele>467</ele>
        <time>2016-01-03T11:38:30.657Z</time>
      </trkpt>
      <trkpt lat="43.67113" lon="5.85077">
        <ele>467</ele>
        <time>2016-01-03T11:38:31.645Z</time>
      </trkpt>
      <trkpt lat="43.67121" lon="5.85082">
        <ele>467</ele>
        <time>2016-01-03T11:38:33.677Z</time>
      </trkpt>
      <trkpt lat="43.67125" lon="5.85085">
        <ele>467</ele>
        <time>2016-01-03T11:38:34.646Z</time>
      </trkpt>
      <trkpt lat="43.6713" lon="5.85088">
        <ele>467</ele>
        <time>2016-01-03T11:38:35.715Z</time>
      </trkpt>
      <trkpt lat="43.67134" lon="5.85091">
        <ele>467</ele>
        <time>2016-01-03T11:38:36.645Z</time>
      </trkpt>
      <trkpt lat="43.67139" lon="5.85095">
        <ele>467</ele>
        <time>2016-01-03T11:38:37.658Z</time>
      </trkpt>
      <trkpt lat="43.67142" lon="5.85097">
        <ele>468</ele>
        <time>2016-01-03T11:38:38.646Z</time>
      </trkpt>
      <trkpt lat="43.67149" lon="5.85104">
        <ele>470</ele>
        <time>2016-01-03T11:38:40.695Z</time>
      </trkpt>
      <trkpt lat="43.67153" lon="5.85107">
        <ele>470</ele>
        <time>2016-01-03T11:38:41.645Z</time>
      </trkpt>
      <trkpt lat="43.6716" lon="5.85111">
        <ele>471</ele>
        <time>2016-01-03T11:38:43.669Z</time>
      </trkpt>
      <trkpt lat="43.67164" lon="5.85114">
        <ele>471</ele>
        <time>2016-01-03T11:38:44.646Z</time>
      </trkpt>
      <trkpt lat="43.67171" lon="5.8512">
        <ele>471</ele>
        <time>2016-01-03T11:38:46.672Z</time>
      </trkpt>
      <trkpt lat="43.67175" lon="5.85124">
        <ele>471</ele>
        <time>2016-01-03T11:38:47.647Z</time>
      </trkpt>
      <trkpt lat="43.67179" lon="5.85127">
        <ele>472</ele>
        <time>2016-01-03T11:38:48.672Z</time>
      </trkpt>
      <trkpt lat="43.67183" lon="5.85129">
        <ele>472</ele>
        <time>2016-01-03T11:38:49.647Z</time>
      </trkpt>
      <trkpt lat="43.67187" lon="5.85133">
        <ele>471</ele>
        <time>2016-01-03T11:38:50.670Z</time>
      </trkpt>
      <trkpt lat="43.67191" lon="5.85137">
        <ele>471</ele>
        <time>2016-01-03T11:38:51.644Z</time>
      </trkpt>
      <trkpt lat="43.67199" lon="5.85143">
        <ele>471</ele>
        <time>2016-01-03T11:38:53.670Z</time>
      </trkpt>
      <trkpt lat="43.67202" lon="5.85146">
        <ele>471</ele>
        <time>2016-01-03T11:38:54.647Z</time>
      </trkpt>
      <trkpt lat="43.67208" lon="5.85151">
        <ele>472</ele>
        <time>2016-01-03T11:38:56.698Z</time>
      </trkpt>
      <trkpt lat="43.67211" lon="5.85154">
        <ele>472</ele>
        <time>2016-01-03T11:38:57.640Z</time>
      </trkpt>
      <trkpt lat="43.67218" lon="5.85161">
        <ele>472</ele>
        <time>2016-01-03T11:39:00.663Z</time>
      </trkpt>
      <trkpt lat="43.6722" lon="5.85164">
        <ele>472</ele>
        <time>2016-01-03T11:39:01.643Z</time>
      </trkpt>
      <trkpt lat="43.67225" lon="5.8517">
        <ele>472</ele>
        <time>2016-01-03T11:39:03.664Z</time>
      </trkpt>
      <trkpt lat="43.67228" lon="5.85173">
        <ele>472</ele>
        <time>2016-01-03T11:39:04.644Z</time>
      </trkpt>
      <trkpt lat="43.67233" lon="5.85179">
        <ele>471</ele>
        <time>2016-01-03T11:39:06.688Z</time>
      </trkpt>
      <trkpt lat="43.67236" lon="5.85182">
        <ele>471</ele>
        <time>2016-01-03T11:39:07.666Z</time>
      </trkpt>
      <trkpt lat="43.6724" lon="5.85188">
        <ele>470</ele>
        <time>2016-01-03T11:39:09.670Z</time>
      </trkpt>
      <trkpt lat="43.67242" lon="5.85192">
        <ele>470</ele>
        <time>2016-01-03T11:39:10.643Z</time>
      </trkpt>
      <trkpt lat="43.67245" lon="5.85202">
        <ele>470</ele>
        <time>2016-01-03T11:39:14.663Z</time>
      </trkpt>
      <trkpt lat="43.67246" lon="5.85206">
        <ele>470</ele>
        <time>2016-01-03T11:39:15.643Z</time>
      </trkpt>
      <trkpt lat="43.67246" lon="5.85216">
        <ele>470</ele>
        <time>2016-01-03T11:39:18.695Z</time>
      </trkpt>
      <trkpt lat="43.67246" lon="5.85221">
        <ele>470</ele>
        <time>2016-01-03T11:39:19.646Z</time>
      </trkpt>
      <trkpt lat="43.67247" lon="5.85231">
        <ele>470</ele>
        <time>2016-01-03T11:39:21.668Z</time>
      </trkpt>
      <trkpt lat="43.67248" lon="5.85235">
        <ele>469</ele>
        <time>2016-01-03T11:39:22.645Z</time>
      </trkpt>
      <trkpt lat="43.67249" lon="5.85244">
        <ele>469</ele>
        <time>2016-01-03T11:39:24.669Z</time>
      </trkpt>
      <trkpt lat="43.67249" lon="5.85249">
        <ele>470</ele>
        <time>2016-01-03T11:39:25.646Z</time>
      </trkpt>
      <trkpt lat="43.67248" lon="5.85258">
        <ele>470</ele>
        <time>2016-01-03T11:39:27.669Z</time>
      </trkpt>
      <trkpt lat="43.67248" lon="5.85262">
        <ele>470</ele>
        <time>2016-01-03T11:39:28.645Z</time>
      </trkpt>
      <trkpt lat="43.67248" lon="5.85273">
        <ele>471</ele>
        <time>2016-01-03T11:39:30.669Z</time>
      </trkpt>
      <trkpt lat="43.67248" lon="5.85278">
        <ele>471</ele>
        <time>2016-01-03T11:39:31.644Z</time>
      </trkpt>
      <trkpt lat="43.67247" lon="5.85289">
        <ele>471</ele>
        <time>2016-01-03T11:39:33.676Z</time>
      </trkpt>
      <trkpt lat="43.67247" lon="5.85294">
        <ele>471</ele>
        <time>2016-01-03T11:39:34.645Z</time>
      </trkpt>
      <trkpt lat="43.67246" lon="5.85306">
        <ele>471</ele>
        <time>2016-01-03T11:39:36.677Z</time>
      </trkpt>
      <trkpt lat="43.67246" lon="5.85311">
        <ele>471</ele>
        <time>2016-01-03T11:39:37.644Z</time>
      </trkpt>
      <trkpt lat="43.67244" lon="5.85323">
        <ele>471</ele>
        <time>2016-01-03T11:39:39.690Z</time>
      </trkpt>
      <trkpt lat="43.67244" lon="5.85329">
        <ele>471</ele>
        <time>2016-01-03T11:39:40.644Z</time>
      </trkpt>
      <trkpt lat="43.67242" lon="5.8534">
        <ele>471</ele>
        <time>2016-01-03T11:39:42.680Z</time>
      </trkpt>
      <trkpt lat="43.67241" lon="5.85346">
        <ele>471</ele>
        <time>2016-01-03T11:39:43.644Z</time>
      </trkpt>
      <trkpt lat="43.67239" lon="5.85358">
        <ele>472</ele>
        <time>2016-01-03T11:39:45.711Z</time>
      </trkpt>
      <trkpt lat="43.67239" lon="5.85363">
        <ele>472</ele>
        <time>2016-01-03T11:39:46.645Z</time>
      </trkpt>
      <trkpt lat="43.67237" lon="5.85375">
        <ele>472</ele>
        <time>2016-01-03T11:39:48.671Z</time>
      </trkpt>
      <trkpt lat="43.67236" lon="5.85381">
        <ele>472</ele>
        <time>2016-01-03T11:39:49.645Z</time>
      </trkpt>
      <trkpt lat="43.67234" lon="5.85392">
        <ele>471</ele>
        <time>2016-01-03T11:39:51.667Z</time>
      </trkpt>
      <trkpt lat="43.67233" lon="5.85398">
        <ele>472</ele>
        <time>2016-01-03T11:39:52.651Z</time>
      </trkpt>
      <trkpt lat="43.67232" lon="5.85409">
        <ele>473</ele>
        <time>2016-01-03T11:39:54.666Z</time>
      </trkpt>
      <trkpt lat="43.67232" lon="5.85415">
        <ele>473</ele>
        <time>2016-01-03T11:39:55.645Z</time>
      </trkpt>
      <trkpt lat="43.67231" lon="5.85426">
        <ele>473</ele>
        <time>2016-01-03T11:39:57.673Z</time>
      </trkpt>
      <trkpt lat="43.6723" lon="5.85432">
        <ele>474</ele>
        <time>2016-01-03T11:39:58.648Z</time>
      </trkpt>
      <trkpt lat="43.6723" lon="5.85443">
        <ele>474</ele>
        <time>2016-01-03T11:40:00.676Z</time>
      </trkpt>
      <trkpt lat="43.67229" lon="5.85449">
        <ele>473</ele>
        <time>2016-01-03T11:40:01.646Z</time>
      </trkpt>
      <trkpt lat="43.67229" lon="5.85461">
        <ele>474</ele>
        <time>2016-01-03T11:40:03.671Z</time>
      </trkpt>
      <trkpt lat="43.67229" lon="5.85467">
        <ele>474</ele>
        <time>2016-01-03T11:40:04.648Z</time>
      </trkpt>
      <trkpt lat="43.67228" lon="5.85478">
        <ele>476</ele>
        <time>2016-01-03T11:40:06.889Z</time>
      </trkpt>
      <trkpt lat="43.67228" lon="5.85484">
        <ele>476</ele>
        <time>2016-01-03T11:40:07.673Z</time>
      </trkpt>
      <trkpt lat="43.67228" lon="5.85496">
        <ele>477</ele>
        <time>2016-01-03T11:40:09.669Z</time>
      </trkpt>
      <trkpt lat="43.67228" lon="5.85502">
        <ele>477</ele>
        <time>2016-01-03T11:40:10.647Z</time>
      </trkpt>
      <trkpt lat="43.67227" lon="5.85514">
        <ele>476</ele>
        <time>2016-01-03T11:40:12.671Z</time>
      </trkpt>
      <trkpt lat="43.67227" lon="5.8552">
        <ele>477</ele>
        <time>2016-01-03T11:40:13.646Z</time>
      </trkpt>
      <trkpt lat="43.67226" lon="5.85531">
        <ele>477</ele>
        <time>2016-01-03T11:40:15.671Z</time>
      </trkpt>
      <trkpt lat="43.67226" lon="5.85537">
        <ele>478</ele>
        <time>2016-01-03T11:40:16.647Z</time>
      </trkpt>
      <trkpt lat="43.67225" lon="5.85549">
        <ele>478</ele>
        <time>2016-01-03T11:40:18.725Z</time>
      </trkpt>
      <trkpt lat="43.67226" lon="5.85555">
        <ele>478</ele>
        <time>2016-01-03T11:40:19.645Z</time>
      </trkpt>
      <trkpt lat="43.67226" lon="5.85565">
        <ele>479</ele>
        <time>2016-01-03T11:40:21.671Z</time>
      </trkpt>
      <trkpt lat="43.67227" lon="5.85571">
        <ele>480</ele>
        <time>2016-01-03T11:40:22.647Z</time>
      </trkpt>
      <trkpt lat="43.67229" lon="5.85582">
        <ele>479</ele>
        <time>2016-01-03T11:40:24.672Z</time>
      </trkpt>
      <trkpt lat="43.67229" lon="5.85587">
        <ele>479</ele>
        <time>2016-01-03T11:40:25.646Z</time>
      </trkpt>
      <trkpt lat="43.67232" lon="5.85598">
        <ele>479</ele>
        <time>2016-01-03T11:40:27.682Z</time>
      </trkpt>
      <trkpt lat="43.67234" lon="5.85604">
        <ele>479</ele>
        <time>2016-01-03T11:40:28.646Z</time>
      </trkpt>
      <trkpt lat="43.67237" lon="5.85614">
        <ele>479</ele>
        <time>2016-01-03T11:40:30.670Z</time>
      </trkpt>
      <trkpt lat="43.67238" lon="5.8562">
        <ele>479</ele>
        <time>2016-01-03T11:40:31.642Z</time>
      </trkpt>
      <trkpt lat="43.67241" lon="5.85631">
        <ele>479</ele>
        <time>2016-01-03T11:40:33.671Z</time>
      </trkpt>
      <trkpt lat="43.67243" lon="5.85637">
        <ele>479</ele>
        <time>2016-01-03T11:40:34.647Z</time>
      </trkpt>
      <trkpt lat="43.67245" lon="5.85648">
        <ele>478</ele>
        <time>2016-01-03T11:40:36.670Z</time>
      </trkpt>
      <trkpt lat="43.67248" lon="5.85656">
        <ele>478</ele>
        <time>2016-01-03T11:40:37.647Z</time>
      </trkpt>
      <trkpt lat="43.67249" lon="5.85662">
        <ele>478</ele>
        <time>2016-01-03T11:40:38.681Z</time>
      </trkpt>
      <trkpt lat="43.67251" lon="5.85668">
        <ele>478</ele>
        <time>2016-01-03T11:40:39.672Z</time>
      </trkpt>
      <trkpt lat="43.67253" lon="5.85675">
        <ele>478</ele>
        <time>2016-01-03T11:40:40.670Z</time>
      </trkpt>
      <trkpt lat="43.67255" lon="5.85682">
        <ele>477</ele>
        <time>2016-01-03T11:40:41.647Z</time>
      </trkpt>
      <trkpt lat="43.67257" lon="5.85689">
        <ele>477</ele>
        <time>2016-01-03T11:40:42.819Z</time>
      </trkpt>
      <trkpt lat="43.67259" lon="5.85697">
        <ele>477</ele>
        <time>2016-01-03T11:40:43.642Z</time>
      </trkpt>
      <trkpt lat="43.67261" lon="5.85704">
        <ele>476</ele>
        <time>2016-01-03T11:40:44.660Z</time>
      </trkpt>
      <trkpt lat="43.67263" lon="5.85711">
        <ele>476</ele>
        <time>2016-01-03T11:40:45.646Z</time>
      </trkpt>
      <trkpt lat="43.67265" lon="5.85718">
        <ele>476</ele>
        <time>2016-01-03T11:40:46.665Z</time>
      </trkpt>
      <trkpt lat="43.67268" lon="5.85725">
        <ele>476</ele>
        <time>2016-01-03T11:40:47.646Z</time>
      </trkpt>
      <trkpt lat="43.67271" lon="5.85732">
        <ele>476</ele>
        <time>2016-01-03T11:40:48.665Z</time>
      </trkpt>
      <trkpt lat="43.67274" lon="5.8574">
        <ele>476</ele>
        <time>2016-01-03T11:40:49.643Z</time>
      </trkpt>
      <trkpt lat="43.67277" lon="5.85748">
        <ele>476</ele>
        <time>2016-01-03T11:40:50.686Z</time>
      </trkpt>
      <trkpt lat="43.6728" lon="5.85755">
        <ele>476</ele>
        <time>2016-01-03T11:40:51.652Z</time>
      </trkpt>
      <trkpt lat="43.67283" lon="5.85763">
        <ele>476</ele>
        <time>2016-01-03T11:40:52.665Z</time>
      </trkpt>
      <trkpt lat="43.67286" lon="5.85772">
        <ele>476</ele>
        <time>2016-01-03T11:40:53.644Z</time>
      </trkpt>
      <trkpt lat="43.67288" lon="5.85779">
        <ele>475</ele>
        <time>2016-01-03T11:40:54.665Z</time>
      </trkpt>
      <trkpt lat="43.67291" lon="5.85787">
        <ele>475</ele>
        <time>2016-01-03T11:40:55.645Z</time>
      </trkpt>
      <trkpt lat="43.67295" lon="5.85796">
        <ele>475</ele>
        <time>2016-01-03T11:40:56.666Z</time>
      </trkpt>
      <trkpt lat="43.67297" lon="5.85804">
        <ele>475</ele>
        <time>2016-01-03T11:40:57.652Z</time>
      </trkpt>
      <trkpt lat="43.673" lon="5.85813">
        <ele>475</ele>
        <time>2016-01-03T11:40:58.664Z</time>
      </trkpt>
      <trkpt lat="43.67303" lon="5.85822">
        <ele>475</ele>
        <time>2016-01-03T11:40:59.644Z</time>
      </trkpt>
      <trkpt lat="43.67305" lon="5.8583">
        <ele>475</ele>
        <time>2016-01-03T11:41:00.659Z</time>
      </trkpt>
      <trkpt lat="43.67308" lon="5.8584">
        <ele>475</ele>
        <time>2016-01-03T11:41:01.646Z</time>
      </trkpt>
      <trkpt lat="43.6731" lon="5.85849">
        <ele>475</ele>
        <time>2016-01-03T11:41:02.676Z</time>
      </trkpt>
      <trkpt lat="43.67313" lon="5.8586">
        <ele>473</ele>
        <time>2016-01-03T11:41:03.648Z</time>
      </trkpt>
      <trkpt lat="43.67314" lon="5.8587">
        <ele>473</ele>
        <time>2016-01-03T11:41:04.661Z</time>
      </trkpt>
      <trkpt lat="43.67317" lon="5.8588">
        <ele>473</ele>
        <time>2016-01-03T11:41:05.648Z</time>
      </trkpt>
      <trkpt lat="43.67319" lon="5.8589">
        <ele>473</ele>
        <time>2016-01-03T11:41:06.696Z</time>
      </trkpt>
      <trkpt lat="43.67322" lon="5.859">
        <ele>473</ele>
        <time>2016-01-03T11:41:07.646Z</time>
      </trkpt>
      <trkpt lat="43.67324" lon="5.8591">
        <ele>473</ele>
        <time>2016-01-03T11:41:08.669Z</time>
      </trkpt>
      <trkpt lat="43.67326" lon="5.85919">
        <ele>472</ele>
        <time>2016-01-03T11:41:09.645Z</time>
      </trkpt>
      <trkpt lat="43.67328" lon="5.8593">
        <ele>472</ele>
        <time>2016-01-03T11:41:10.680Z</time>
      </trkpt>
      <trkpt lat="43.6733" lon="5.8594">
        <ele>471</ele>
        <time>2016-01-03T11:41:11.655Z</time>
      </trkpt>
      <trkpt lat="43.67332" lon="5.85951">
        <ele>471</ele>
        <time>2016-01-03T11:41:12.671Z</time>
      </trkpt>
      <trkpt lat="43.67334" lon="5.85962">
        <ele>470</ele>
        <time>2016-01-03T11:41:13.658Z</time>
      </trkpt>
      <trkpt lat="43.67336" lon="5.85972">
        <ele>470</ele>
        <time>2016-01-03T11:41:14.695Z</time>
      </trkpt>
      <trkpt lat="43.67337" lon="5.85982">
        <ele>470</ele>
        <time>2016-01-03T11:41:15.641Z</time>
      </trkpt>
      <trkpt lat="43.67337" lon="5.85992">
        <ele>470</ele>
        <time>2016-01-03T11:41:16.671Z</time>
      </trkpt>
      <trkpt lat="43.67338" lon="5.86002">
        <ele>470</ele>
        <time>2016-01-03T11:41:17.646Z</time>
      </trkpt>
      <trkpt lat="43.67338" lon="5.86011">
        <ele>469</ele>
        <time>2016-01-03T11:41:18.665Z</time>
      </trkpt>
      <trkpt lat="43.67338" lon="5.86021">
        <ele>469</ele>
        <time>2016-01-03T11:41:19.646Z</time>
      </trkpt>
      <trkpt lat="43.67337" lon="5.8603">
        <ele>469</ele>
        <time>2016-01-03T11:41:20.666Z</time>
      </trkpt>
      <trkpt lat="43.67336" lon="5.8604">
        <ele>468</ele>
        <time>2016-01-03T11:41:21.651Z</time>
      </trkpt>
      <trkpt lat="43.67335" lon="5.8605">
        <ele>468</ele>
        <time>2016-01-03T11:41:22.687Z</time>
      </trkpt>
      <trkpt lat="43.67333" lon="5.86061">
        <ele>468</ele>
        <time>2016-01-03T11:41:23.646Z</time>
      </trkpt>
      <trkpt lat="43.6733" lon="5.8607">
        <ele>468</ele>
        <time>2016-01-03T11:41:24.666Z</time>
      </trkpt>
      <trkpt lat="43.67326" lon="5.8608">
        <ele>468</ele>
        <time>2016-01-03T11:41:25.644Z</time>
      </trkpt>
      <trkpt lat="43.67322" lon="5.86089">
        <ele>467</ele>
        <time>2016-01-03T11:41:26.665Z</time>
      </trkpt>
      <trkpt lat="43.67318" lon="5.86098">
        <ele>467</ele>
        <time>2016-01-03T11:41:27.644Z</time>
      </trkpt>
      <trkpt lat="43.67313" lon="5.86107">
        <ele>466</ele>
        <time>2016-01-03T11:41:28.671Z</time>
      </trkpt>
      <trkpt lat="43.67309" lon="5.86115">
        <ele>466</ele>
        <time>2016-01-03T11:41:29.645Z</time>
      </trkpt>
      <trkpt lat="43.67305" lon="5.86124">
        <ele>465</ele>
        <time>2016-01-03T11:41:30.658Z</time>
      </trkpt>
      <trkpt lat="43.67301" lon="5.86134">
        <ele>465</ele>
        <time>2016-01-03T11:41:31.641Z</time>
      </trkpt>
      <trkpt lat="43.67297" lon="5.86143">
        <ele>465</ele>
        <time>2016-01-03T11:41:32.673Z</time>
      </trkpt>
      <trkpt lat="43.67293" lon="5.86153">
        <ele>465</ele>
        <time>2016-01-03T11:41:33.677Z</time>
      </trkpt>
      <trkpt lat="43.6729" lon="5.86162">
        <ele>465</ele>
        <time>2016-01-03T11:41:34.671Z</time>
      </trkpt>
      <trkpt lat="43.67286" lon="5.86171">
        <ele>464</ele>
        <time>2016-01-03T11:41:35.647Z</time>
      </trkpt>
      <trkpt lat="43.67284" lon="5.86181">
        <ele>464</ele>
        <time>2016-01-03T11:41:36.669Z</time>
      </trkpt>
      <trkpt lat="43.67282" lon="5.8619">
        <ele>464</ele>
        <time>2016-01-03T11:41:37.645Z</time>
      </trkpt>
      <trkpt lat="43.67279" lon="5.86199">
        <ele>464</ele>
        <time>2016-01-03T11:41:38.681Z</time>
      </trkpt>
      <trkpt lat="43.67277" lon="5.86207">
        <ele>464</ele>
        <time>2016-01-03T11:41:39.647Z</time>
      </trkpt>
      <trkpt lat="43.67276" lon="5.86216">
        <ele>464</ele>
        <time>2016-01-03T11:41:40.671Z</time>
      </trkpt>
      <trkpt lat="43.67274" lon="5.86224">
        <ele>464</ele>
        <time>2016-01-03T11:41:41.647Z</time>
      </trkpt>
      <trkpt lat="43.67272" lon="5.86232">
        <ele>464</ele>
        <time>2016-01-03T11:41:42.670Z</time>
      </trkpt>
      <trkpt lat="43.67271" lon="5.8624">
        <ele>464</ele>
        <time>2016-01-03T11:41:43.647Z</time>
      </trkpt>
      <trkpt lat="43.67269" lon="5.86248">
        <ele>464</ele>
        <time>2016-01-03T11:41:44.695Z</time>
      </trkpt>
      <trkpt lat="43.67268" lon="5.86255">
        <ele>465</ele>
        <time>2016-01-03T11:41:45.647Z</time>
      </trkpt>
      <trkpt lat="43.67266" lon="5.86263">
        <ele>465</ele>
        <time>2016-01-03T11:41:46.681Z</time>
      </trkpt>
      <trkpt lat="43.67264" lon="5.8627">
        <ele>465</ele>
        <time>2016-01-03T11:41:47.645Z</time>
      </trkpt>
      <trkpt lat="43.67263" lon="5.86278">
        <ele>465</ele>
        <time>2016-01-03T11:41:48.670Z</time>
      </trkpt>
      <trkpt lat="43.67262" lon="5.86284">
        <ele>466</ele>
        <time>2016-01-03T11:41:49.648Z</time>
      </trkpt>
      <trkpt lat="43.67256" lon="5.86289">
        <ele>467</ele>
        <time>2016-01-03T11:41:51.672Z</time>
      </trkpt>
      <trkpt lat="43.67252" lon="5.86287">
        <ele>465</ele>
        <time>2016-01-03T11:41:52.647Z</time>
      </trkpt>
      <trkpt lat="43.67248" lon="5.86283">
        <ele>465</ele>
        <time>2016-01-03T11:41:53.660Z</time>
      </trkpt>
      <trkpt lat="43.67245" lon="5.86279">
        <ele>465</ele>
        <time>2016-01-03T11:41:54.647Z</time>
      </trkpt>
      <trkpt lat="43.67242" lon="5.86274">
        <ele>465</ele>
        <time>2016-01-03T11:41:55.696Z</time>
      </trkpt>
      <trkpt lat="43.67238" lon="5.86268">
        <ele>465</ele>
        <time>2016-01-03T11:41:56.657Z</time>
      </trkpt>
      <trkpt lat="43.67234" lon="5.86263">
        <ele>464</ele>
        <time>2016-01-03T11:41:57.671Z</time>
      </trkpt>
      <trkpt lat="43.6723" lon="5.86257">
        <ele>465</ele>
        <time>2016-01-03T11:41:58.647Z</time>
      </trkpt>
      <trkpt lat="43.67226" lon="5.86252">
        <ele>464</ele>
        <time>2016-01-03T11:41:59.659Z</time>
      </trkpt>
      <trkpt lat="43.67222" lon="5.86247">
        <ele>464</ele>
        <time>2016-01-03T11:42:00.646Z</time>
      </trkpt>
      <trkpt lat="43.67215" lon="5.8624">
        <ele>464</ele>
        <time>2016-01-03T11:42:02.677Z</time>
      </trkpt>
      <trkpt lat="43.67212" lon="5.86237">
        <ele>465</ele>
        <time>2016-01-03T11:42:03.650Z</time>
      </trkpt>
      <trkpt lat="43.67206" lon="5.8623">
        <ele>465</ele>
        <time>2016-01-03T11:42:05.672Z</time>
      </trkpt>
      <trkpt lat="43.67203" lon="5.86226">
        <ele>465</ele>
        <time>2016-01-03T11:42:06.672Z</time>
      </trkpt>
      <trkpt lat="43.67202" lon="5.86216">
        <ele>466</ele>
        <time>2016-01-03T11:42:08.671Z</time>
      </trkpt>
      <trkpt lat="43.67204" lon="5.86212">
        <ele>465</ele>
        <time>2016-01-03T11:42:09.649Z</time>
      </trkpt>
      <trkpt lat="43.67209" lon="5.86206">
        <ele>465</ele>
        <time>2016-01-03T11:42:11.668Z</time>
      </trkpt>
      <trkpt lat="43.67213" lon="5.86204">
        <ele>464</ele>
        <time>2016-01-03T11:42:12.636Z</time>
      </trkpt>
      <trkpt lat="43.6722" lon="5.86199">
        <ele>464</ele>
        <time>2016-01-03T11:42:14.667Z</time>
      </trkpt>
      <trkpt lat="43.67224" lon="5.86196">
        <ele>464</ele>
        <time>2016-01-03T11:42:15.646Z</time>
      </trkpt>
      <trkpt lat="43.67231" lon="5.8619">
        <ele>464</ele>
        <time>2016-01-03T11:42:17.725Z</time>
      </trkpt>
      <trkpt lat="43.67233" lon="5.86187">
        <ele>464</ele>
        <time>2016-01-03T11:42:18.645Z</time>
      </trkpt>
      <trkpt lat="43.67236" lon="5.86177">
        <ele>465</ele>
        <time>2016-01-03T11:42:20.673Z</time>
      </trkpt>
      <trkpt lat="43.67234" lon="5.86172">
        <ele>466</ele>
        <time>2016-01-03T11:42:21.650Z</time>
      </trkpt>
      <trkpt lat="43.67227" lon="5.86168">
        <ele>466</ele>
        <time>2016-01-03T11:42:23.661Z</time>
      </trkpt>
      <trkpt lat="43.67223" lon="5.86168">
        <ele>466</ele>
        <time>2016-01-03T11:42:24.648Z</time>
      </trkpt>
      <trkpt lat="43.67216" lon="5.86168">
        <ele>467</ele>
        <time>2016-01-03T11:42:26.672Z</time>
      </trkpt>
      <trkpt lat="43.67212" lon="5.86168">
        <ele>467</ele>
        <time>2016-01-03T11:42:27.648Z</time>
      </trkpt>
      <trkpt lat="43.67206" lon="5.86168">
        <ele>466</ele>
        <time>2016-01-03T11:42:29.671Z</time>
      </trkpt>
      <trkpt lat="43.67202" lon="5.86167">
        <ele>466</ele>
        <time>2016-01-03T11:42:30.648Z</time>
      </trkpt>
      <trkpt lat="43.67196" lon="5.86166">
        <ele>467</ele>
        <time>2016-01-03T11:42:32.672Z</time>
      </trkpt>
      <trkpt lat="43.67192" lon="5.86165">
        <ele>466</ele>
        <time>2016-01-03T11:42:33.661Z</time>
      </trkpt>
      <trkpt lat="43.67184" lon="5.86163">
        <ele>465</ele>
        <time>2016-01-03T11:42:36.671Z</time>
      </trkpt>
      <trkpt lat="43.67183" lon="5.86163">
        <ele>466</ele>
        <time>2016-01-03T11:42:37.647Z</time>
      </trkpt>
      <trkpt lat="43.67188" lon="5.86155">
        <ele>467</ele>
        <time>2016-01-03T11:43:28.681Z</time>
      </trkpt>
      <trkpt lat="43.6719" lon="5.86154">
        <ele>467</ele>
        <time>2016-01-03T11:43:29.647Z</time>
      </trkpt>
      <trkpt lat="43.67194" lon="5.86145">
        <ele>469</ele>
        <time>2016-01-03T11:43:33.674Z</time>
      </trkpt>
      <trkpt lat="43.67196" lon="5.86143">
        <ele>469</ele>
        <time>2016-01-03T11:43:34.649Z</time>
      </trkpt>
      <trkpt lat="43.67201" lon="5.86134">
        <ele>468</ele>
        <time>2016-01-03T11:43:38.899Z</time>
      </trkpt>
      <trkpt lat="43.67202" lon="5.86132">
        <ele>469</ele>
        <time>2016-01-03T11:43:39.671Z</time>
      </trkpt>
      <trkpt lat="43.67194" lon="5.86128">
        <ele>470</ele>
        <time>2016-01-03T11:44:25.656Z</time>
      </trkpt>
      <trkpt lat="43.67193" lon="5.86127">
        <ele>469</ele>
        <time>2016-01-03T11:44:26.641Z</time>
      </trkpt>
      <trkpt lat="43.67185" lon="5.86122">
        <ele>469</ele>
        <time>2016-01-03T11:45:11.703Z</time>
      </trkpt>
      <trkpt lat="43.67185" lon="5.86122">
        <ele>469</ele>
        <time>2016-01-03T11:45:12.648Z</time>
      </trkpt>
      <trkpt lat="43.67185" lon="5.8612">
        <ele>468</ele>
        <time>2016-01-03T11:45:39.053Z</time>
      </trkpt>
    </trkseg>
  </trk>
</gpx>